<?xml version="1.0" encoding="UTF-8" standalone="no" ?>
<gpx xmlns="http://www.topografix.com/GPX/1/1" xmlns:xsi="http://www.w3.org/2001/XMLSchema-instance" xsi:schemaLocation="http://www.topografix.com/GPX/1/1 http://www.topografix.com/GPX/1/1/gpx.xsd" version="1.1" creator="VisuGPX - https://www.visugpx.com">
  <metadata>
    <name>Cérizols Pentecôte Ausseing Courneillac Hitte Bourgès Estrougeaux</name>
    <desc><![CDATA[Un parcours varié avec de beaux points de vue. Sortie VTT-AE partagée avec Jean de L'ORSALHER VTT.]]></desc>
  </metadata>
  <trk>
    <name><![CDATA[Cérizols Pentecôte Ausseing Courneillac Hitte Bourgès Estrougeaux]]></name>
    <extensions>
      <line xmlns="http://www.topografix.com/GPX/gpx_style/0/2">
        <color>0000FF</color>
        <opacity>1</opacity>
        <width>4</width>
          <extensions>
            <sens>1</sens>
          </extensions>
      </line>
    </extensions>
    <trkseg>
      <trkpt lat="43.12939" lon="1.06389">
        <ele>290.2</ele>
        <time>2025-12-14T09:08:16Z</time>
      </trkpt>
      <trkpt lat="43.12942" lon="1.06402">
        <ele>290.2</ele>
        <time>2025-12-14T09:08:20Z</time>
      </trkpt>
      <trkpt lat="43.12942" lon="1.06406">
        <ele>291.6</ele>
        <time>2025-12-14T09:08:21Z</time>
      </trkpt>
      <trkpt lat="43.12942" lon="1.06409">
        <ele>290.8</ele>
        <time>2025-12-14T09:08:22Z</time>
      </trkpt>
      <trkpt lat="43.12943" lon="1.06413">
        <ele>290.6</ele>
        <time>2025-12-14T09:08:23Z</time>
      </trkpt>
      <trkpt lat="43.12943" lon="1.06416">
        <ele>290.6</ele>
        <time>2025-12-14T09:08:24Z</time>
      </trkpt>
      <trkpt lat="43.12943" lon="1.06419">
        <ele>290.4</ele>
        <time>2025-12-14T09:08:25Z</time>
      </trkpt>
      <trkpt lat="43.12943" lon="1.06423">
        <ele>290.2</ele>
        <time>2025-12-14T09:08:26Z</time>
      </trkpt>
      <trkpt lat="43.12944" lon="1.06426">
        <ele>290</ele>
        <time>2025-12-14T09:08:27Z</time>
      </trkpt>
      <trkpt lat="43.12944" lon="1.06432">
        <ele>290</ele>
        <time>2025-12-14T09:08:29Z</time>
      </trkpt>
      <trkpt lat="43.12946" lon="1.06447">
        <ele>290</ele>
        <time>2025-12-14T09:08:34Z</time>
      </trkpt>
      <trkpt lat="43.12946" lon="1.0645">
        <ele>290.4</ele>
        <time>2025-12-14T09:08:35Z</time>
      </trkpt>
      <trkpt lat="43.12946" lon="1.06452">
        <ele>290.8</ele>
        <time>2025-12-14T09:08:36Z</time>
      </trkpt>
      <trkpt lat="43.12947" lon="1.06455">
        <ele>291.2</ele>
        <time>2025-12-14T09:08:37Z</time>
      </trkpt>
      <trkpt lat="43.12948" lon="1.06457">
        <ele>291.8</ele>
        <time>2025-12-14T09:08:38Z</time>
      </trkpt>
      <trkpt lat="43.12948" lon="1.06461">
        <ele>292.2</ele>
        <time>2025-12-14T09:08:39Z</time>
      </trkpt>
      <trkpt lat="43.1295" lon="1.06467">
        <ele>292.2</ele>
        <time>2025-12-14T09:08:42Z</time>
      </trkpt>
      <trkpt lat="43.12949" lon="1.0647">
        <ele>292.2</ele>
        <time>2025-12-14T09:08:43Z</time>
      </trkpt>
      <trkpt lat="43.12951" lon="1.06472">
        <ele>292.6</ele>
        <time>2025-12-14T09:08:44Z</time>
      </trkpt>
      <trkpt lat="43.12952" lon="1.06475">
        <ele>293</ele>
        <time>2025-12-14T09:08:45Z</time>
      </trkpt>
      <trkpt lat="43.12953" lon="1.06477">
        <ele>293.4</ele>
        <time>2025-12-14T09:08:46Z</time>
      </trkpt>
      <trkpt lat="43.12955" lon="1.06479">
        <ele>293.8</ele>
        <time>2025-12-14T09:08:47Z</time>
      </trkpt>
      <trkpt lat="43.12955" lon="1.06481">
        <ele>294.2</ele>
        <time>2025-12-14T09:08:48Z</time>
      </trkpt>
      <trkpt lat="43.1296" lon="1.0649">
        <ele>294.2</ele>
        <time>2025-12-14T09:08:52Z</time>
      </trkpt>
      <trkpt lat="43.12961" lon="1.06492">
        <ele>295</ele>
        <time>2025-12-14T09:08:53Z</time>
      </trkpt>
      <trkpt lat="43.12962" lon="1.06494">
        <ele>295.4</ele>
        <time>2025-12-14T09:08:54Z</time>
      </trkpt>
      <trkpt lat="43.12962" lon="1.06497">
        <ele>295.8</ele>
        <time>2025-12-14T09:08:55Z</time>
      </trkpt>
      <trkpt lat="43.12963" lon="1.06498">
        <ele>296.2</ele>
        <time>2025-12-14T09:08:56Z</time>
      </trkpt>
      <trkpt lat="43.12965" lon="1.06505">
        <ele>296.8</ele>
        <time>2025-12-14T09:08:59Z</time>
      </trkpt>
      <trkpt lat="43.12967" lon="1.06507">
        <ele>297.2</ele>
        <time>2025-12-14T09:09:00Z</time>
      </trkpt>
      <trkpt lat="43.12975" lon="1.06517">
        <ele>298.4</ele>
        <time>2025-12-14T09:09:01Z</time>
      </trkpt>
      <trkpt lat="43.12975" lon="1.06517">
        <ele>298.4</ele>
        <time>2025-12-14T09:09:04Z</time>
      </trkpt>
      <trkpt lat="43.12984" lon="1.06531">
        <ele>298.8</ele>
        <time>2025-12-14T09:09:09Z</time>
      </trkpt>
      <trkpt lat="43.12985" lon="1.06534">
        <ele>299.2</ele>
        <time>2025-12-14T09:09:10Z</time>
      </trkpt>
      <trkpt lat="43.12987" lon="1.06536">
        <ele>299.6</ele>
        <time>2025-12-14T09:09:11Z</time>
      </trkpt>
      <trkpt lat="43.12988" lon="1.06539">
        <ele>300.2</ele>
        <time>2025-12-14T09:09:12Z</time>
      </trkpt>
      <trkpt lat="43.12989" lon="1.06541">
        <ele>300.6</ele>
        <time>2025-12-14T09:09:13Z</time>
      </trkpt>
      <trkpt lat="43.12995" lon="1.06553">
        <ele>301</ele>
        <time>2025-12-14T09:09:18Z</time>
      </trkpt>
      <trkpt lat="43.12997" lon="1.06555">
        <ele>301.4</ele>
        <time>2025-12-14T09:09:19Z</time>
      </trkpt>
      <trkpt lat="43.12998" lon="1.06557">
        <ele>301.8</ele>
        <time>2025-12-14T09:09:20Z</time>
      </trkpt>
      <trkpt lat="43.13" lon="1.06559">
        <ele>302.2</ele>
        <time>2025-12-14T09:09:21Z</time>
      </trkpt>
      <trkpt lat="43.13002" lon="1.06561">
        <ele>302.8</ele>
        <time>2025-12-14T09:09:22Z</time>
      </trkpt>
      <trkpt lat="43.13005" lon="1.06566">
        <ele>302.8</ele>
        <time>2025-12-14T09:09:24Z</time>
      </trkpt>
      <trkpt lat="43.1301" lon="1.06571">
        <ele>303.2</ele>
        <time>2025-12-14T09:09:27Z</time>
      </trkpt>
      <trkpt lat="43.13012" lon="1.06573">
        <ele>303.6</ele>
        <time>2025-12-14T09:09:28Z</time>
      </trkpt>
      <trkpt lat="43.13014" lon="1.06575">
        <ele>304</ele>
        <time>2025-12-14T09:09:29Z</time>
      </trkpt>
      <trkpt lat="43.13016" lon="1.06577">
        <ele>304.4</ele>
        <time>2025-12-14T09:09:30Z</time>
      </trkpt>
      <trkpt lat="43.13017" lon="1.06578">
        <ele>305</ele>
        <time>2025-12-14T09:09:31Z</time>
      </trkpt>
      <trkpt lat="43.13022" lon="1.06582">
        <ele>305.4</ele>
        <time>2025-12-14T09:09:34Z</time>
      </trkpt>
      <trkpt lat="43.13024" lon="1.06584">
        <ele>305.8</ele>
        <time>2025-12-14T09:09:35Z</time>
      </trkpt>
      <trkpt lat="43.13026" lon="1.06586">
        <ele>306.2</ele>
        <time>2025-12-14T09:09:36Z</time>
      </trkpt>
      <trkpt lat="43.13028" lon="1.06588">
        <ele>306.6</ele>
        <time>2025-12-14T09:09:37Z</time>
      </trkpt>
      <trkpt lat="43.1303" lon="1.0659">
        <ele>307</ele>
        <time>2025-12-14T09:09:38Z</time>
      </trkpt>
      <trkpt lat="43.13032" lon="1.06593">
        <ele>307.6</ele>
        <time>2025-12-14T09:09:40Z</time>
      </trkpt>
      <trkpt lat="43.13034" lon="1.06596">
        <ele>308</ele>
        <time>2025-12-14T09:09:41Z</time>
      </trkpt>
      <trkpt lat="43.13036" lon="1.06597">
        <ele>308.4</ele>
        <time>2025-12-14T09:09:42Z</time>
      </trkpt>
      <trkpt lat="43.13037" lon="1.06599">
        <ele>308.8</ele>
        <time>2025-12-14T09:09:43Z</time>
      </trkpt>
      <trkpt lat="43.13039" lon="1.06601">
        <ele>309.2</ele>
        <time>2025-12-14T09:09:44Z</time>
      </trkpt>
      <trkpt lat="43.13042" lon="1.06608">
        <ele>309.6</ele>
        <time>2025-12-14T09:09:47Z</time>
      </trkpt>
      <trkpt lat="43.13044" lon="1.06611">
        <ele>310.2</ele>
        <time>2025-12-14T09:09:48Z</time>
      </trkpt>
      <trkpt lat="43.13045" lon="1.06614">
        <ele>310.6</ele>
        <time>2025-12-14T09:09:49Z</time>
      </trkpt>
      <trkpt lat="43.13047" lon="1.06617">
        <ele>311.2</ele>
        <time>2025-12-14T09:09:50Z</time>
      </trkpt>
      <trkpt lat="43.13048" lon="1.0662">
        <ele>311.6</ele>
        <time>2025-12-14T09:09:51Z</time>
      </trkpt>
      <trkpt lat="43.13054" lon="1.06634">
        <ele>311.6</ele>
        <time>2025-12-14T09:09:56Z</time>
      </trkpt>
      <trkpt lat="43.13057" lon="1.06644">
        <ele>312</ele>
        <time>2025-12-14T09:09:59Z</time>
      </trkpt>
      <trkpt lat="43.13058" lon="1.06647">
        <ele>312.4</ele>
        <time>2025-12-14T09:10:00Z</time>
      </trkpt>
      <trkpt lat="43.13059" lon="1.06649">
        <ele>312.8</ele>
        <time>2025-12-14T09:10:01Z</time>
      </trkpt>
      <trkpt lat="43.13059" lon="1.06652">
        <ele>313.2</ele>
        <time>2025-12-14T09:10:02Z</time>
      </trkpt>
      <trkpt lat="43.13059" lon="1.06655">
        <ele>313.6</ele>
        <time>2025-12-14T09:10:03Z</time>
      </trkpt>
      <trkpt lat="43.1306" lon="1.06661">
        <ele>314</ele>
        <time>2025-12-14T09:10:05Z</time>
      </trkpt>
      <trkpt lat="43.13061" lon="1.06664">
        <ele>314.4</ele>
        <time>2025-12-14T09:10:06Z</time>
      </trkpt>
      <trkpt lat="43.13061" lon="1.06667">
        <ele>314.8</ele>
        <time>2025-12-14T09:10:07Z</time>
      </trkpt>
      <trkpt lat="43.13062" lon="1.0667">
        <ele>315.4</ele>
        <time>2025-12-14T09:10:08Z</time>
      </trkpt>
      <trkpt lat="43.13063" lon="1.06673">
        <ele>315.8</ele>
        <time>2025-12-14T09:10:09Z</time>
      </trkpt>
      <trkpt lat="43.13064" lon="1.06676">
        <ele>315.8</ele>
        <time>2025-12-14T09:10:10Z</time>
      </trkpt>
      <trkpt lat="43.13071" lon="1.06692">
        <ele>316.2</ele>
        <time>2025-12-14T09:10:15Z</time>
      </trkpt>
      <trkpt lat="43.13071" lon="1.06695">
        <ele>316.6</ele>
        <time>2025-12-14T09:10:16Z</time>
      </trkpt>
      <trkpt lat="43.13072" lon="1.06698">
        <ele>317</ele>
        <time>2025-12-14T09:10:17Z</time>
      </trkpt>
      <trkpt lat="43.13073" lon="1.06701">
        <ele>317.6</ele>
        <time>2025-12-14T09:10:18Z</time>
      </trkpt>
      <trkpt lat="43.13073" lon="1.06704">
        <ele>318</ele>
        <time>2025-12-14T09:10:19Z</time>
      </trkpt>
      <trkpt lat="43.13073" lon="1.06715">
        <ele>318</ele>
        <time>2025-12-14T09:10:22Z</time>
      </trkpt>
      <trkpt lat="43.13076" lon="1.06742">
        <ele>318</ele>
        <time>2025-12-14T09:10:28Z</time>
      </trkpt>
      <trkpt lat="43.13079" lon="1.0678">
        <ele>318</ele>
        <time>2025-12-14T09:10:37Z</time>
      </trkpt>
      <trkpt lat="43.13082" lon="1.06808">
        <ele>318</ele>
        <time>2025-12-14T09:10:44Z</time>
      </trkpt>
      <trkpt lat="43.13087" lon="1.06834">
        <ele>318</ele>
        <time>2025-12-14T09:10:49Z</time>
      </trkpt>
      <trkpt lat="43.13088" lon="1.06856">
        <ele>318</ele>
        <time>2025-12-14T09:10:54Z</time>
      </trkpt>
      <trkpt lat="43.13093" lon="1.06882">
        <ele>318</ele>
        <time>2025-12-14T09:10:59Z</time>
      </trkpt>
      <trkpt lat="43.13093" lon="1.06889">
        <ele>318</ele>
        <time>2025-12-14T09:11:00Z</time>
      </trkpt>
      <trkpt lat="43.13094" lon="1.06911">
        <ele>318</ele>
        <time>2025-12-14T09:11:04Z</time>
      </trkpt>
      <trkpt lat="43.13096" lon="1.06925">
        <ele>317.6</ele>
        <time>2025-12-14T09:11:07Z</time>
      </trkpt>
      <trkpt lat="43.13098" lon="1.0693">
        <ele>317.2</ele>
        <time>2025-12-14T09:11:08Z</time>
      </trkpt>
      <trkpt lat="43.131" lon="1.06935">
        <ele>316.8</ele>
        <time>2025-12-14T09:11:09Z</time>
      </trkpt>
      <trkpt lat="43.13103" lon="1.0694">
        <ele>316.4</ele>
        <time>2025-12-14T09:11:10Z</time>
      </trkpt>
      <trkpt lat="43.13105" lon="1.06945">
        <ele>316</ele>
        <time>2025-12-14T09:11:11Z</time>
      </trkpt>
      <trkpt lat="43.13116" lon="1.06965">
        <ele>316</ele>
        <time>2025-12-14T09:11:15Z</time>
      </trkpt>
      <trkpt lat="43.13138" lon="1.07">
        <ele>316</ele>
        <time>2025-12-14T09:11:23Z</time>
      </trkpt>
      <trkpt lat="43.13155" lon="1.07026">
        <ele>316</ele>
        <time>2025-12-14T09:11:30Z</time>
      </trkpt>
      <trkpt lat="43.13167" lon="1.07051">
        <ele>316</ele>
        <time>2025-12-14T09:11:37Z</time>
      </trkpt>
      <trkpt lat="43.1318" lon="1.07073">
        <ele>316.8</ele>
        <time>2025-12-14T09:11:43Z</time>
      </trkpt>
      <trkpt lat="43.13182" lon="1.07076">
        <ele>317.2</ele>
        <time>2025-12-14T09:11:44Z</time>
      </trkpt>
      <trkpt lat="43.13183" lon="1.0708">
        <ele>317.6</ele>
        <time>2025-12-14T09:11:45Z</time>
      </trkpt>
      <trkpt lat="43.13185" lon="1.07083">
        <ele>318</ele>
        <time>2025-12-14T09:11:46Z</time>
      </trkpt>
      <trkpt lat="43.13192" lon="1.07097">
        <ele>318</ele>
        <time>2025-12-14T09:11:51Z</time>
      </trkpt>
      <trkpt lat="43.13194" lon="1.07099">
        <ele>318.4</ele>
        <time>2025-12-14T09:11:52Z</time>
      </trkpt>
      <trkpt lat="43.13196" lon="1.07101">
        <ele>318.8</ele>
        <time>2025-12-14T09:11:53Z</time>
      </trkpt>
      <trkpt lat="43.13197" lon="1.07102">
        <ele>319.2</ele>
        <time>2025-12-14T09:11:54Z</time>
      </trkpt>
      <trkpt lat="43.13199" lon="1.07104">
        <ele>319.6</ele>
        <time>2025-12-14T09:11:55Z</time>
      </trkpt>
      <trkpt lat="43.13201" lon="1.07106">
        <ele>320</ele>
        <time>2025-12-14T09:11:56Z</time>
      </trkpt>
      <trkpt lat="43.13202" lon="1.07108">
        <ele>320</ele>
        <time>2025-12-14T09:11:57Z</time>
      </trkpt>
      <trkpt lat="43.13203" lon="1.07115">
        <ele>320</ele>
        <time>2025-12-14T09:11:59Z</time>
      </trkpt>
      <trkpt lat="43.13203" lon="1.07119">
        <ele>320.6</ele>
        <time>2025-12-14T09:12:00Z</time>
      </trkpt>
      <trkpt lat="43.13203" lon="1.07122">
        <ele>321</ele>
        <time>2025-12-14T09:12:01Z</time>
      </trkpt>
      <trkpt lat="43.13203" lon="1.07126">
        <ele>321.4</ele>
        <time>2025-12-14T09:12:02Z</time>
      </trkpt>
      <trkpt lat="43.13204" lon="1.07129">
        <ele>322</ele>
        <time>2025-12-14T09:12:03Z</time>
      </trkpt>
      <trkpt lat="43.13203" lon="1.07133">
        <ele>322.4</ele>
        <time>2025-12-14T09:12:04Z</time>
      </trkpt>
      <trkpt lat="43.13204" lon="1.07138">
        <ele>322.8</ele>
        <time>2025-12-14T09:12:06Z</time>
      </trkpt>
      <trkpt lat="43.13204" lon="1.07141">
        <ele>323.2</ele>
        <time>2025-12-14T09:12:07Z</time>
      </trkpt>
      <trkpt lat="43.13204" lon="1.07144">
        <ele>324</ele>
        <time>2025-12-14T09:12:08Z</time>
      </trkpt>
      <trkpt lat="43.13203" lon="1.07148">
        <ele>324.4</ele>
        <time>2025-12-14T09:12:09Z</time>
      </trkpt>
      <trkpt lat="43.13206" lon="1.07164">
        <ele>325</ele>
        <time>2025-12-14T09:12:14Z</time>
      </trkpt>
      <trkpt lat="43.13207" lon="1.07166">
        <ele>325.4</ele>
        <time>2025-12-14T09:12:15Z</time>
      </trkpt>
      <trkpt lat="43.13207" lon="1.07169">
        <ele>325.8</ele>
        <time>2025-12-14T09:12:16Z</time>
      </trkpt>
      <trkpt lat="43.13208" lon="1.07172">
        <ele>326.2</ele>
        <time>2025-12-14T09:12:17Z</time>
      </trkpt>
      <trkpt lat="43.13208" lon="1.07174">
        <ele>326.6</ele>
        <time>2025-12-14T09:12:18Z</time>
      </trkpt>
      <trkpt lat="43.13212" lon="1.07186">
        <ele>326.6</ele>
        <time>2025-12-14T09:12:22Z</time>
      </trkpt>
      <trkpt lat="43.13213" lon="1.07188">
        <ele>327.2</ele>
        <time>2025-12-14T09:12:23Z</time>
      </trkpt>
      <trkpt lat="43.13213" lon="1.07192">
        <ele>327.6</ele>
        <time>2025-12-14T09:12:24Z</time>
      </trkpt>
      <trkpt lat="43.13214" lon="1.07195">
        <ele>328</ele>
        <time>2025-12-14T09:12:25Z</time>
      </trkpt>
      <trkpt lat="43.13214" lon="1.07198">
        <ele>328.4</ele>
        <time>2025-12-14T09:12:26Z</time>
      </trkpt>
      <trkpt lat="43.13214" lon="1.07201">
        <ele>328.8</ele>
        <time>2025-12-14T09:12:27Z</time>
      </trkpt>
      <trkpt lat="43.13213" lon="1.07207">
        <ele>328.8</ele>
        <time>2025-12-14T09:12:29Z</time>
      </trkpt>
      <trkpt lat="43.13213" lon="1.0721">
        <ele>329.2</ele>
        <time>2025-12-14T09:12:30Z</time>
      </trkpt>
      <trkpt lat="43.13212" lon="1.07213">
        <ele>329.6</ele>
        <time>2025-12-14T09:12:31Z</time>
      </trkpt>
      <trkpt lat="43.13212" lon="1.07216">
        <ele>330.6</ele>
        <time>2025-12-14T09:12:32Z</time>
      </trkpt>
      <trkpt lat="43.13212" lon="1.07219">
        <ele>331</ele>
        <time>2025-12-14T09:12:33Z</time>
      </trkpt>
      <trkpt lat="43.1321" lon="1.07226">
        <ele>331</ele>
        <time>2025-12-14T09:12:35Z</time>
      </trkpt>
      <trkpt lat="43.13207" lon="1.07236">
        <ele>331.4</ele>
        <time>2025-12-14T09:12:38Z</time>
      </trkpt>
      <trkpt lat="43.13206" lon="1.07239">
        <ele>331.8</ele>
        <time>2025-12-14T09:12:39Z</time>
      </trkpt>
      <trkpt lat="43.13205" lon="1.07242">
        <ele>332.2</ele>
        <time>2025-12-14T09:12:40Z</time>
      </trkpt>
      <trkpt lat="43.13203" lon="1.07244">
        <ele>332.6</ele>
        <time>2025-12-14T09:12:41Z</time>
      </trkpt>
      <trkpt lat="43.13202" lon="1.07248">
        <ele>333</ele>
        <time>2025-12-14T09:12:42Z</time>
      </trkpt>
      <trkpt lat="43.13198" lon="1.07264">
        <ele>333</ele>
        <time>2025-12-14T09:12:47Z</time>
      </trkpt>
      <trkpt lat="43.13193" lon="1.07278">
        <ele>333.4</ele>
        <time>2025-12-14T09:12:51Z</time>
      </trkpt>
      <trkpt lat="43.13192" lon="1.07281">
        <ele>333.8</ele>
        <time>2025-12-14T09:12:52Z</time>
      </trkpt>
      <trkpt lat="43.13191" lon="1.07285">
        <ele>334.2</ele>
        <time>2025-12-14T09:12:53Z</time>
      </trkpt>
      <trkpt lat="43.13189" lon="1.07289">
        <ele>334.6</ele>
        <time>2025-12-14T09:12:54Z</time>
      </trkpt>
      <trkpt lat="43.13188" lon="1.07292">
        <ele>335</ele>
        <time>2025-12-14T09:12:55Z</time>
      </trkpt>
      <trkpt lat="43.13183" lon="1.0731">
        <ele>335</ele>
        <time>2025-12-14T09:13:00Z</time>
      </trkpt>
      <trkpt lat="43.13181" lon="1.07317">
        <ele>335.6</ele>
        <time>2025-12-14T09:13:02Z</time>
      </trkpt>
      <trkpt lat="43.1318" lon="1.07321">
        <ele>336</ele>
        <time>2025-12-14T09:13:03Z</time>
      </trkpt>
      <trkpt lat="43.13179" lon="1.07324">
        <ele>336.4</ele>
        <time>2025-12-14T09:13:04Z</time>
      </trkpt>
      <trkpt lat="43.13178" lon="1.07328">
        <ele>336.8</ele>
        <time>2025-12-14T09:13:05Z</time>
      </trkpt>
      <trkpt lat="43.13178" lon="1.07331">
        <ele>337.2</ele>
        <time>2025-12-14T09:13:06Z</time>
      </trkpt>
      <trkpt lat="43.13178" lon="1.07339">
        <ele>337.6</ele>
        <time>2025-12-14T09:13:09Z</time>
      </trkpt>
      <trkpt lat="43.13177" lon="1.07342">
        <ele>338.2</ele>
        <time>2025-12-14T09:13:10Z</time>
      </trkpt>
      <trkpt lat="43.13178" lon="1.07345">
        <ele>338.6</ele>
        <time>2025-12-14T09:13:11Z</time>
      </trkpt>
      <trkpt lat="43.13178" lon="1.07347">
        <ele>339.2</ele>
        <time>2025-12-14T09:13:12Z</time>
      </trkpt>
      <trkpt lat="43.13179" lon="1.07351">
        <ele>339.6</ele>
        <time>2025-12-14T09:13:13Z</time>
      </trkpt>
      <trkpt lat="43.13182" lon="1.07358">
        <ele>340</ele>
        <time>2025-12-14T09:13:15Z</time>
      </trkpt>
      <trkpt lat="43.13182" lon="1.0736">
        <ele>340.4</ele>
        <time>2025-12-14T09:13:16Z</time>
      </trkpt>
      <trkpt lat="43.13183" lon="1.07364">
        <ele>341</ele>
        <time>2025-12-14T09:13:17Z</time>
      </trkpt>
      <trkpt lat="43.13184" lon="1.07367">
        <ele>341.4</ele>
        <time>2025-12-14T09:13:18Z</time>
      </trkpt>
      <trkpt lat="43.13184" lon="1.0737">
        <ele>341.8</ele>
        <time>2025-12-14T09:13:19Z</time>
      </trkpt>
      <trkpt lat="43.13186" lon="1.07373">
        <ele>342.2</ele>
        <time>2025-12-14T09:13:20Z</time>
      </trkpt>
      <trkpt lat="43.13186" lon="1.07377">
        <ele>342.6</ele>
        <time>2025-12-14T09:13:21Z</time>
      </trkpt>
      <trkpt lat="43.13186" lon="1.07379">
        <ele>343.6</ele>
        <time>2025-12-14T09:13:22Z</time>
      </trkpt>
      <trkpt lat="43.13185" lon="1.07382">
        <ele>344</ele>
        <time>2025-12-14T09:13:23Z</time>
      </trkpt>
      <trkpt lat="43.13186" lon="1.07388">
        <ele>344.4</ele>
        <time>2025-12-14T09:13:25Z</time>
      </trkpt>
      <trkpt lat="43.13186" lon="1.07391">
        <ele>344.8</ele>
        <time>2025-12-14T09:13:26Z</time>
      </trkpt>
      <trkpt lat="43.13186" lon="1.07394">
        <ele>345.4</ele>
        <time>2025-12-14T09:13:27Z</time>
      </trkpt>
      <trkpt lat="43.13186" lon="1.07396">
        <ele>345.8</ele>
        <time>2025-12-14T09:13:28Z</time>
      </trkpt>
      <trkpt lat="43.13187" lon="1.07399">
        <ele>346.2</ele>
        <time>2025-12-14T09:13:29Z</time>
      </trkpt>
      <trkpt lat="43.13187" lon="1.07407">
        <ele>346.6</ele>
        <time>2025-12-14T09:13:32Z</time>
      </trkpt>
      <trkpt lat="43.13188" lon="1.0741">
        <ele>347</ele>
        <time>2025-12-14T09:13:33Z</time>
      </trkpt>
      <trkpt lat="43.13188" lon="1.07413">
        <ele>347.6</ele>
        <time>2025-12-14T09:13:34Z</time>
      </trkpt>
      <trkpt lat="43.13189" lon="1.07415">
        <ele>348</ele>
        <time>2025-12-14T09:13:35Z</time>
      </trkpt>
      <trkpt lat="43.1319" lon="1.07417">
        <ele>348.4</ele>
        <time>2025-12-14T09:13:36Z</time>
      </trkpt>
      <trkpt lat="43.13193" lon="1.07423">
        <ele>348.8</ele>
        <time>2025-12-14T09:13:38Z</time>
      </trkpt>
      <trkpt lat="43.13194" lon="1.07425">
        <ele>349.2</ele>
        <time>2025-12-14T09:13:39Z</time>
      </trkpt>
      <trkpt lat="43.13194" lon="1.07429">
        <ele>349.8</ele>
        <time>2025-12-14T09:13:40Z</time>
      </trkpt>
      <trkpt lat="43.13195" lon="1.07431">
        <ele>350.2</ele>
        <time>2025-12-14T09:13:41Z</time>
      </trkpt>
      <trkpt lat="43.13195" lon="1.07434">
        <ele>350.6</ele>
        <time>2025-12-14T09:13:42Z</time>
      </trkpt>
      <trkpt lat="43.13196" lon="1.0744">
        <ele>351</ele>
        <time>2025-12-14T09:13:44Z</time>
      </trkpt>
      <trkpt lat="43.13196" lon="1.07442">
        <ele>351.6</ele>
        <time>2025-12-14T09:13:45Z</time>
      </trkpt>
      <trkpt lat="43.13197" lon="1.07445">
        <ele>352</ele>
        <time>2025-12-14T09:13:46Z</time>
      </trkpt>
      <trkpt lat="43.13197" lon="1.07447">
        <ele>353</ele>
        <time>2025-12-14T09:13:47Z</time>
      </trkpt>
      <trkpt lat="43.13197" lon="1.07451">
        <ele>353.6</ele>
        <time>2025-12-14T09:13:48Z</time>
      </trkpt>
      <trkpt lat="43.13198" lon="1.07453">
        <ele>354</ele>
        <time>2025-12-14T09:13:49Z</time>
      </trkpt>
      <trkpt lat="43.13199" lon="1.07456">
        <ele>354.4</ele>
        <time>2025-12-14T09:13:50Z</time>
      </trkpt>
      <trkpt lat="43.13199" lon="1.07458">
        <ele>354.8</ele>
        <time>2025-12-14T09:13:51Z</time>
      </trkpt>
      <trkpt lat="43.132" lon="1.07461">
        <ele>355.2</ele>
        <time>2025-12-14T09:13:52Z</time>
      </trkpt>
      <trkpt lat="43.13201" lon="1.07464">
        <ele>355.6</ele>
        <time>2025-12-14T09:13:53Z</time>
      </trkpt>
      <trkpt lat="43.13201" lon="1.07466">
        <ele>356</ele>
        <time>2025-12-14T09:13:54Z</time>
      </trkpt>
      <trkpt lat="43.13203" lon="1.07467">
        <ele>356.4</ele>
        <time>2025-12-14T09:13:55Z</time>
      </trkpt>
      <trkpt lat="43.13203" lon="1.07471">
        <ele>356.8</ele>
        <time>2025-12-14T09:13:56Z</time>
      </trkpt>
      <trkpt lat="43.13204" lon="1.07474">
        <ele>357.4</ele>
        <time>2025-12-14T09:13:57Z</time>
      </trkpt>
      <trkpt lat="43.13206" lon="1.07479">
        <ele>357.8</ele>
        <time>2025-12-14T09:13:59Z</time>
      </trkpt>
      <trkpt lat="43.13207" lon="1.07482">
        <ele>358.2</ele>
        <time>2025-12-14T09:14:00Z</time>
      </trkpt>
      <trkpt lat="43.13209" lon="1.07484">
        <ele>358.6</ele>
        <time>2025-12-14T09:14:01Z</time>
      </trkpt>
      <trkpt lat="43.1321" lon="1.07487">
        <ele>359</ele>
        <time>2025-12-14T09:14:02Z</time>
      </trkpt>
      <trkpt lat="43.13211" lon="1.0749">
        <ele>359.6</ele>
        <time>2025-12-14T09:14:03Z</time>
      </trkpt>
      <trkpt lat="43.13215" lon="1.07501">
        <ele>360</ele>
        <time>2025-12-14T09:14:07Z</time>
      </trkpt>
      <trkpt lat="43.13217" lon="1.07504">
        <ele>360.4</ele>
        <time>2025-12-14T09:14:08Z</time>
      </trkpt>
      <trkpt lat="43.13218" lon="1.07507">
        <ele>360.8</ele>
        <time>2025-12-14T09:14:09Z</time>
      </trkpt>
      <trkpt lat="43.13219" lon="1.0751">
        <ele>361.2</ele>
        <time>2025-12-14T09:14:10Z</time>
      </trkpt>
      <trkpt lat="43.13219" lon="1.07512">
        <ele>361.6</ele>
        <time>2025-12-14T09:14:11Z</time>
      </trkpt>
      <trkpt lat="43.13221" lon="1.07515">
        <ele>361.6</ele>
        <time>2025-12-14T09:14:12Z</time>
      </trkpt>
      <trkpt lat="43.13224" lon="1.07521">
        <ele>362</ele>
        <time>2025-12-14T09:14:14Z</time>
      </trkpt>
      <trkpt lat="43.13225" lon="1.07524">
        <ele>362.6</ele>
        <time>2025-12-14T09:14:15Z</time>
      </trkpt>
      <trkpt lat="43.13225" lon="1.07527">
        <ele>363</ele>
        <time>2025-12-14T09:14:16Z</time>
      </trkpt>
      <trkpt lat="43.13226" lon="1.0753">
        <ele>363.4</ele>
        <time>2025-12-14T09:14:17Z</time>
      </trkpt>
      <trkpt lat="43.13227" lon="1.07532">
        <ele>364</ele>
        <time>2025-12-14T09:14:18Z</time>
      </trkpt>
      <trkpt lat="43.13227" lon="1.07535">
        <ele>364</ele>
        <time>2025-12-14T09:14:19Z</time>
      </trkpt>
      <trkpt lat="43.13228" lon="1.07536">
        <ele>364</ele>
        <time>2025-12-14T09:14:20Z</time>
      </trkpt>
      <trkpt lat="43.13229" lon="1.07542">
        <ele>364.4</ele>
        <time>2025-12-14T09:14:22Z</time>
      </trkpt>
      <trkpt lat="43.1323" lon="1.07544">
        <ele>364.8</ele>
        <time>2025-12-14T09:14:23Z</time>
      </trkpt>
      <trkpt lat="43.1323" lon="1.07547">
        <ele>365.2</ele>
        <time>2025-12-14T09:14:24Z</time>
      </trkpt>
      <trkpt lat="43.1323" lon="1.0755">
        <ele>365.6</ele>
        <time>2025-12-14T09:14:25Z</time>
      </trkpt>
      <trkpt lat="43.1323" lon="1.07552">
        <ele>366.2</ele>
        <time>2025-12-14T09:14:26Z</time>
      </trkpt>
      <trkpt lat="43.13234" lon="1.07564">
        <ele>366.6</ele>
        <time>2025-12-14T09:14:30Z</time>
      </trkpt>
      <trkpt lat="43.13234" lon="1.07566">
        <ele>367</ele>
        <time>2025-12-14T09:14:31Z</time>
      </trkpt>
      <trkpt lat="43.13234" lon="1.07569">
        <ele>367.4</ele>
        <time>2025-12-14T09:14:32Z</time>
      </trkpt>
      <trkpt lat="43.13233" lon="1.07571">
        <ele>367.8</ele>
        <time>2025-12-14T09:14:33Z</time>
      </trkpt>
      <trkpt lat="43.13233" lon="1.07573">
        <ele>368.4</ele>
        <time>2025-12-14T09:14:34Z</time>
      </trkpt>
      <trkpt lat="43.13235" lon="1.07578">
        <ele>368.8</ele>
        <time>2025-12-14T09:14:36Z</time>
      </trkpt>
      <trkpt lat="43.13235" lon="1.07581">
        <ele>369.2</ele>
        <time>2025-12-14T09:14:37Z</time>
      </trkpt>
      <trkpt lat="43.13235" lon="1.07584">
        <ele>369.6</ele>
        <time>2025-12-14T09:14:38Z</time>
      </trkpt>
      <trkpt lat="43.13235" lon="1.07586">
        <ele>370</ele>
        <time>2025-12-14T09:14:39Z</time>
      </trkpt>
      <trkpt lat="43.13236" lon="1.07589">
        <ele>370.4</ele>
        <time>2025-12-14T09:14:40Z</time>
      </trkpt>
      <trkpt lat="43.13239" lon="1.076">
        <ele>370.8</ele>
        <time>2025-12-14T09:14:44Z</time>
      </trkpt>
      <trkpt lat="43.13239" lon="1.07603">
        <ele>371.2</ele>
        <time>2025-12-14T09:14:45Z</time>
      </trkpt>
      <trkpt lat="43.1324" lon="1.07605">
        <ele>371.6</ele>
        <time>2025-12-14T09:14:46Z</time>
      </trkpt>
      <trkpt lat="43.1324" lon="1.07608">
        <ele>372</ele>
        <time>2025-12-14T09:14:47Z</time>
      </trkpt>
      <trkpt lat="43.1324" lon="1.07611">
        <ele>372.4</ele>
        <time>2025-12-14T09:14:48Z</time>
      </trkpt>
      <trkpt lat="43.1324" lon="1.07616">
        <ele>373</ele>
        <time>2025-12-14T09:14:50Z</time>
      </trkpt>
      <trkpt lat="43.13239" lon="1.07618">
        <ele>373.4</ele>
        <time>2025-12-14T09:14:51Z</time>
      </trkpt>
      <trkpt lat="43.13239" lon="1.07622">
        <ele>373.8</ele>
        <time>2025-12-14T09:14:52Z</time>
      </trkpt>
      <trkpt lat="43.13239" lon="1.07625">
        <ele>374.4</ele>
        <time>2025-12-14T09:14:53Z</time>
      </trkpt>
      <trkpt lat="43.13238" lon="1.07627">
        <ele>374.8</ele>
        <time>2025-12-14T09:14:54Z</time>
      </trkpt>
      <trkpt lat="43.13238" lon="1.0763">
        <ele>375.2</ele>
        <time>2025-12-14T09:14:55Z</time>
      </trkpt>
      <trkpt lat="43.13238" lon="1.07632">
        <ele>375.8</ele>
        <time>2025-12-14T09:14:56Z</time>
      </trkpt>
      <trkpt lat="43.13237" lon="1.07634">
        <ele>376.2</ele>
        <time>2025-12-14T09:14:57Z</time>
      </trkpt>
      <trkpt lat="43.13237" lon="1.07637">
        <ele>376.6</ele>
        <time>2025-12-14T09:14:58Z</time>
      </trkpt>
      <trkpt lat="43.13236" lon="1.07639">
        <ele>377</ele>
        <time>2025-12-14T09:14:59Z</time>
      </trkpt>
      <trkpt lat="43.13233" lon="1.07645">
        <ele>377</ele>
        <time>2025-12-14T09:15:02Z</time>
      </trkpt>
      <trkpt lat="43.13226" lon="1.0765">
        <ele>377</ele>
        <time>2025-12-14T09:15:06Z</time>
      </trkpt>
      <trkpt lat="43.13225" lon="1.07652">
        <ele>377</ele>
        <time>2025-12-14T09:15:07Z</time>
      </trkpt>
      <trkpt lat="43.13222" lon="1.07657">
        <ele>377</ele>
        <time>2025-12-14T09:15:10Z</time>
      </trkpt>
      <trkpt lat="43.1322" lon="1.0766">
        <ele>377</ele>
        <time>2025-12-14T09:15:12Z</time>
      </trkpt>
      <trkpt lat="43.13216" lon="1.0767">
        <ele>377</ele>
        <time>2025-12-14T09:15:16Z</time>
      </trkpt>
      <trkpt lat="43.13216" lon="1.07672">
        <ele>377</ele>
        <time>2025-12-14T09:15:17Z</time>
      </trkpt>
      <trkpt lat="43.13214" lon="1.07675">
        <ele>377</ele>
        <time>2025-12-14T09:15:18Z</time>
      </trkpt>
      <trkpt lat="43.13211" lon="1.07682">
        <ele>377.4</ele>
        <time>2025-12-14T09:15:21Z</time>
      </trkpt>
      <trkpt lat="43.1321" lon="1.07684">
        <ele>378</ele>
        <time>2025-12-14T09:15:22Z</time>
      </trkpt>
      <trkpt lat="43.13208" lon="1.07686">
        <ele>378.4</ele>
        <time>2025-12-14T09:15:23Z</time>
      </trkpt>
      <trkpt lat="43.13205" lon="1.07688">
        <ele>378.8</ele>
        <time>2025-12-14T09:15:24Z</time>
      </trkpt>
      <trkpt lat="43.13204" lon="1.0769">
        <ele>379.2</ele>
        <time>2025-12-14T09:15:25Z</time>
      </trkpt>
      <trkpt lat="43.132" lon="1.07701">
        <ele>379.6</ele>
        <time>2025-12-14T09:15:29Z</time>
      </trkpt>
      <trkpt lat="43.132" lon="1.07703">
        <ele>380</ele>
        <time>2025-12-14T09:15:30Z</time>
      </trkpt>
      <trkpt lat="43.13203" lon="1.07702">
        <ele>381.4</ele>
        <time>2025-12-14T09:15:37Z</time>
      </trkpt>
      <trkpt lat="43.13206" lon="1.07702">
        <ele>381.8</ele>
        <time>2025-12-14T09:15:39Z</time>
      </trkpt>
      <trkpt lat="43.13208" lon="1.07703">
        <ele>382.2</ele>
        <time>2025-12-14T09:15:40Z</time>
      </trkpt>
      <trkpt lat="43.1321" lon="1.07703">
        <ele>382.6</ele>
        <time>2025-12-14T09:15:41Z</time>
      </trkpt>
      <trkpt lat="43.13211" lon="1.07703">
        <ele>383.2</ele>
        <time>2025-12-14T09:15:42Z</time>
      </trkpt>
      <trkpt lat="43.13213" lon="1.07703">
        <ele>383.6</ele>
        <time>2025-12-14T09:15:43Z</time>
      </trkpt>
      <trkpt lat="43.13215" lon="1.07703">
        <ele>383.6</ele>
        <time>2025-12-14T09:15:45Z</time>
      </trkpt>
      <trkpt lat="43.13217" lon="1.07703">
        <ele>384</ele>
        <time>2025-12-14T09:15:46Z</time>
      </trkpt>
      <trkpt lat="43.13218" lon="1.07702">
        <ele>384.4</ele>
        <time>2025-12-14T09:15:47Z</time>
      </trkpt>
      <trkpt lat="43.13219" lon="1.07702">
        <ele>384.8</ele>
        <time>2025-12-14T09:15:48Z</time>
      </trkpt>
      <trkpt lat="43.13221" lon="1.07702">
        <ele>385.2</ele>
        <time>2025-12-14T09:15:49Z</time>
      </trkpt>
      <trkpt lat="43.13223" lon="1.07701">
        <ele>385.6</ele>
        <time>2025-12-14T09:15:50Z</time>
      </trkpt>
      <trkpt lat="43.13225" lon="1.07702">
        <ele>386</ele>
        <time>2025-12-14T09:15:51Z</time>
      </trkpt>
      <trkpt lat="43.13228" lon="1.07703">
        <ele>386.6</ele>
        <time>2025-12-14T09:15:52Z</time>
      </trkpt>
      <trkpt lat="43.1323" lon="1.07703">
        <ele>387</ele>
        <time>2025-12-14T09:15:53Z</time>
      </trkpt>
      <trkpt lat="43.13232" lon="1.07704">
        <ele>387.4</ele>
        <time>2025-12-14T09:15:54Z</time>
      </trkpt>
      <trkpt lat="43.13233" lon="1.07705">
        <ele>387.8</ele>
        <time>2025-12-14T09:15:55Z</time>
      </trkpt>
      <trkpt lat="43.13235" lon="1.07705">
        <ele>388.2</ele>
        <time>2025-12-14T09:15:56Z</time>
      </trkpt>
      <trkpt lat="43.13236" lon="1.07705">
        <ele>388.6</ele>
        <time>2025-12-14T09:15:57Z</time>
      </trkpt>
      <trkpt lat="43.13237" lon="1.07706">
        <ele>389</ele>
        <time>2025-12-14T09:15:58Z</time>
      </trkpt>
      <trkpt lat="43.13238" lon="1.07707">
        <ele>389.6</ele>
        <time>2025-12-14T09:15:59Z</time>
      </trkpt>
      <trkpt lat="43.13239" lon="1.07708">
        <ele>390</ele>
        <time>2025-12-14T09:16:00Z</time>
      </trkpt>
      <trkpt lat="43.13241" lon="1.07708">
        <ele>390.4</ele>
        <time>2025-12-14T09:16:01Z</time>
      </trkpt>
      <trkpt lat="43.13243" lon="1.07709">
        <ele>390.8</ele>
        <time>2025-12-14T09:16:02Z</time>
      </trkpt>
      <trkpt lat="43.13244" lon="1.0771">
        <ele>391.2</ele>
        <time>2025-12-14T09:16:03Z</time>
      </trkpt>
      <trkpt lat="43.13245" lon="1.0771">
        <ele>391.6</ele>
        <time>2025-12-14T09:16:04Z</time>
      </trkpt>
      <trkpt lat="43.13246" lon="1.0771">
        <ele>392</ele>
        <time>2025-12-14T09:16:05Z</time>
      </trkpt>
      <trkpt lat="43.13249" lon="1.07709">
        <ele>392.4</ele>
        <time>2025-12-14T09:16:07Z</time>
      </trkpt>
      <trkpt lat="43.1325" lon="1.07707">
        <ele>393</ele>
        <time>2025-12-14T09:16:08Z</time>
      </trkpt>
      <trkpt lat="43.13251" lon="1.07705">
        <ele>393.4</ele>
        <time>2025-12-14T09:16:09Z</time>
      </trkpt>
      <trkpt lat="43.13253" lon="1.07703">
        <ele>393.8</ele>
        <time>2025-12-14T09:16:10Z</time>
      </trkpt>
      <trkpt lat="43.13254" lon="1.077">
        <ele>394.2</ele>
        <time>2025-12-14T09:16:11Z</time>
      </trkpt>
      <trkpt lat="43.13255" lon="1.07697">
        <ele>394.8</ele>
        <time>2025-12-14T09:16:12Z</time>
      </trkpt>
      <trkpt lat="43.13256" lon="1.07695">
        <ele>395.2</ele>
        <time>2025-12-14T09:16:13Z</time>
      </trkpt>
      <trkpt lat="43.13258" lon="1.07692">
        <ele>395.6</ele>
        <time>2025-12-14T09:16:14Z</time>
      </trkpt>
      <trkpt lat="43.1326" lon="1.0769">
        <ele>396.4</ele>
        <time>2025-12-14T09:16:15Z</time>
      </trkpt>
      <trkpt lat="43.13262" lon="1.07687">
        <ele>396.8</ele>
        <time>2025-12-14T09:16:16Z</time>
      </trkpt>
      <trkpt lat="43.13263" lon="1.07685">
        <ele>397.2</ele>
        <time>2025-12-14T09:16:17Z</time>
      </trkpt>
      <trkpt lat="43.13265" lon="1.07683">
        <ele>397.6</ele>
        <time>2025-12-14T09:16:18Z</time>
      </trkpt>
      <trkpt lat="43.13267" lon="1.07681">
        <ele>398</ele>
        <time>2025-12-14T09:16:19Z</time>
      </trkpt>
      <trkpt lat="43.13269" lon="1.07679">
        <ele>398.4</ele>
        <time>2025-12-14T09:16:20Z</time>
      </trkpt>
      <trkpt lat="43.13271" lon="1.07677">
        <ele>398.4</ele>
        <time>2025-12-14T09:16:21Z</time>
      </trkpt>
      <trkpt lat="43.13273" lon="1.07675">
        <ele>398.8</ele>
        <time>2025-12-14T09:16:22Z</time>
      </trkpt>
      <trkpt lat="43.13275" lon="1.07673">
        <ele>399.2</ele>
        <time>2025-12-14T09:16:23Z</time>
      </trkpt>
      <trkpt lat="43.13278" lon="1.07671">
        <ele>399.6</ele>
        <time>2025-12-14T09:16:24Z</time>
      </trkpt>
      <trkpt lat="43.13281" lon="1.07669">
        <ele>400</ele>
        <time>2025-12-14T09:16:25Z</time>
      </trkpt>
      <trkpt lat="43.13282" lon="1.07668">
        <ele>400.4</ele>
        <time>2025-12-14T09:16:26Z</time>
      </trkpt>
      <trkpt lat="43.13287" lon="1.07664">
        <ele>400.8</ele>
        <time>2025-12-14T09:16:28Z</time>
      </trkpt>
      <trkpt lat="43.13289" lon="1.07663">
        <ele>401.2</ele>
        <time>2025-12-14T09:16:29Z</time>
      </trkpt>
      <trkpt lat="43.13291" lon="1.07662">
        <ele>401.8</ele>
        <time>2025-12-14T09:16:30Z</time>
      </trkpt>
      <trkpt lat="43.13293" lon="1.07661">
        <ele>402.2</ele>
        <time>2025-12-14T09:16:31Z</time>
      </trkpt>
      <trkpt lat="43.13295" lon="1.0766">
        <ele>402.6</ele>
        <time>2025-12-14T09:16:32Z</time>
      </trkpt>
      <trkpt lat="43.13298" lon="1.07657">
        <ele>402.6</ele>
        <time>2025-12-14T09:16:34Z</time>
      </trkpt>
      <trkpt lat="43.133" lon="1.07656">
        <ele>403</ele>
        <time>2025-12-14T09:16:35Z</time>
      </trkpt>
      <trkpt lat="43.13301" lon="1.07655">
        <ele>403.4</ele>
        <time>2025-12-14T09:16:36Z</time>
      </trkpt>
      <trkpt lat="43.13301" lon="1.07653">
        <ele>403.8</ele>
        <time>2025-12-14T09:16:37Z</time>
      </trkpt>
      <trkpt lat="43.13302" lon="1.07652">
        <ele>404.2</ele>
        <time>2025-12-14T09:16:38Z</time>
      </trkpt>
      <trkpt lat="43.13303" lon="1.07651">
        <ele>404.6</ele>
        <time>2025-12-14T09:16:39Z</time>
      </trkpt>
      <trkpt lat="43.13303" lon="1.07648">
        <ele>404.6</ele>
        <time>2025-12-14T09:16:40Z</time>
      </trkpt>
      <trkpt lat="43.13296" lon="1.07633">
        <ele>404.6</ele>
        <time>2025-12-14T09:16:44Z</time>
      </trkpt>
      <trkpt lat="43.13293" lon="1.07615">
        <ele>404.2</ele>
        <time>2025-12-14T09:16:48Z</time>
      </trkpt>
      <trkpt lat="43.13293" lon="1.0761">
        <ele>403.8</ele>
        <time>2025-12-14T09:16:49Z</time>
      </trkpt>
      <trkpt lat="43.13293" lon="1.07604">
        <ele>403.2</ele>
        <time>2025-12-14T09:16:50Z</time>
      </trkpt>
      <trkpt lat="43.13294" lon="1.07599">
        <ele>402.8</ele>
        <time>2025-12-14T09:16:51Z</time>
      </trkpt>
      <trkpt lat="43.13293" lon="1.07594">
        <ele>402.4</ele>
        <time>2025-12-14T09:16:52Z</time>
      </trkpt>
      <trkpt lat="43.13293" lon="1.07584">
        <ele>402.4</ele>
        <time>2025-12-14T09:16:54Z</time>
      </trkpt>
      <trkpt lat="43.13292" lon="1.07578">
        <ele>402</ele>
        <time>2025-12-14T09:16:55Z</time>
      </trkpt>
      <trkpt lat="43.13293" lon="1.07572">
        <ele>401.6</ele>
        <time>2025-12-14T09:16:56Z</time>
      </trkpt>
      <trkpt lat="43.13293" lon="1.07565">
        <ele>401</ele>
        <time>2025-12-14T09:16:57Z</time>
      </trkpt>
      <trkpt lat="43.13294" lon="1.07558">
        <ele>400.6</ele>
        <time>2025-12-14T09:16:58Z</time>
      </trkpt>
      <trkpt lat="43.13295" lon="1.07553">
        <ele>400.2</ele>
        <time>2025-12-14T09:16:59Z</time>
      </trkpt>
      <trkpt lat="43.13298" lon="1.07541">
        <ele>399.8</ele>
        <time>2025-12-14T09:17:01Z</time>
      </trkpt>
      <trkpt lat="43.13299" lon="1.07536">
        <ele>399.4</ele>
        <time>2025-12-14T09:17:02Z</time>
      </trkpt>
      <trkpt lat="43.13301" lon="1.07531">
        <ele>398.8</ele>
        <time>2025-12-14T09:17:03Z</time>
      </trkpt>
      <trkpt lat="43.13302" lon="1.07526">
        <ele>398</ele>
        <time>2025-12-14T09:17:04Z</time>
      </trkpt>
      <trkpt lat="43.13303" lon="1.07522">
        <ele>397.4</ele>
        <time>2025-12-14T09:17:05Z</time>
      </trkpt>
      <trkpt lat="43.13303" lon="1.07519">
        <ele>397</ele>
        <time>2025-12-14T09:17:06Z</time>
      </trkpt>
      <trkpt lat="43.13305" lon="1.07516">
        <ele>396.4</ele>
        <time>2025-12-14T09:17:07Z</time>
      </trkpt>
      <trkpt lat="43.13305" lon="1.07515">
        <ele>396</ele>
        <time>2025-12-14T09:17:08Z</time>
      </trkpt>
      <trkpt lat="43.13305" lon="1.07512">
        <ele>396</ele>
        <time>2025-12-14T09:17:13Z</time>
      </trkpt>
      <trkpt lat="43.13308" lon="1.07509">
        <ele>396</ele>
        <time>2025-12-14T09:17:19Z</time>
      </trkpt>
      <trkpt lat="43.13303" lon="1.07492">
        <ele>394</ele>
        <time>2025-12-14T09:17:48Z</time>
      </trkpt>
      <trkpt lat="43.13303" lon="1.07489">
        <ele>394</ele>
        <time>2025-12-14T09:17:49Z</time>
      </trkpt>
      <trkpt lat="43.13303" lon="1.07471">
        <ele>394</ele>
        <time>2025-12-14T09:17:56Z</time>
      </trkpt>
      <trkpt lat="43.13302" lon="1.07446">
        <ele>393.4</ele>
        <time>2025-12-14T09:18:02Z</time>
      </trkpt>
      <trkpt lat="43.13302" lon="1.07442">
        <ele>393</ele>
        <time>2025-12-14T09:18:03Z</time>
      </trkpt>
      <trkpt lat="43.13302" lon="1.07437">
        <ele>392.6</ele>
        <time>2025-12-14T09:18:04Z</time>
      </trkpt>
      <trkpt lat="43.13302" lon="1.07432">
        <ele>392.2</ele>
        <time>2025-12-14T09:18:05Z</time>
      </trkpt>
      <trkpt lat="43.13302" lon="1.07427">
        <ele>391.8</ele>
        <time>2025-12-14T09:18:06Z</time>
      </trkpt>
      <trkpt lat="43.13321" lon="1.07416">
        <ele>391.8</ele>
        <time>2025-12-14T09:18:09Z</time>
      </trkpt>
      <trkpt lat="43.13322" lon="1.07407">
        <ele>391.4</ele>
        <time>2025-12-14T09:18:11Z</time>
      </trkpt>
      <trkpt lat="43.13323" lon="1.07402">
        <ele>390.8</ele>
        <time>2025-12-14T09:18:12Z</time>
      </trkpt>
      <trkpt lat="43.13324" lon="1.07397">
        <ele>390.4</ele>
        <time>2025-12-14T09:18:13Z</time>
      </trkpt>
      <trkpt lat="43.13326" lon="1.07392">
        <ele>389.8</ele>
        <time>2025-12-14T09:18:14Z</time>
      </trkpt>
      <trkpt lat="43.13327" lon="1.07387">
        <ele>389.4</ele>
        <time>2025-12-14T09:18:15Z</time>
      </trkpt>
      <trkpt lat="43.13329" lon="1.07382">
        <ele>389</ele>
        <time>2025-12-14T09:18:16Z</time>
      </trkpt>
      <trkpt lat="43.1333" lon="1.07376">
        <ele>388.6</ele>
        <time>2025-12-14T09:18:17Z</time>
      </trkpt>
      <trkpt lat="43.13331" lon="1.07371">
        <ele>387.6</ele>
        <time>2025-12-14T09:18:18Z</time>
      </trkpt>
      <trkpt lat="43.13332" lon="1.07365">
        <ele>387.2</ele>
        <time>2025-12-14T09:18:19Z</time>
      </trkpt>
      <trkpt lat="43.13333" lon="1.07359">
        <ele>386.6</ele>
        <time>2025-12-14T09:18:20Z</time>
      </trkpt>
      <trkpt lat="43.13335" lon="1.07353">
        <ele>386</ele>
        <time>2025-12-14T09:18:21Z</time>
      </trkpt>
      <trkpt lat="43.13337" lon="1.07345">
        <ele>385.6</ele>
        <time>2025-12-14T09:18:22Z</time>
      </trkpt>
      <trkpt lat="43.13338" lon="1.07338">
        <ele>385</ele>
        <time>2025-12-14T09:18:23Z</time>
      </trkpt>
      <trkpt lat="43.1334" lon="1.07331">
        <ele>384.6</ele>
        <time>2025-12-14T09:18:24Z</time>
      </trkpt>
      <trkpt lat="43.13342" lon="1.07324">
        <ele>384.2</ele>
        <time>2025-12-14T09:18:25Z</time>
      </trkpt>
      <trkpt lat="43.13345" lon="1.07317">
        <ele>383.8</ele>
        <time>2025-12-14T09:18:26Z</time>
      </trkpt>
      <trkpt lat="43.13347" lon="1.0731">
        <ele>383.2</ele>
        <time>2025-12-14T09:18:27Z</time>
      </trkpt>
      <trkpt lat="43.1335" lon="1.07303">
        <ele>382.8</ele>
        <time>2025-12-14T09:18:28Z</time>
      </trkpt>
      <trkpt lat="43.13352" lon="1.07295">
        <ele>382.2</ele>
        <time>2025-12-14T09:18:29Z</time>
      </trkpt>
      <trkpt lat="43.13355" lon="1.07286">
        <ele>381.8</ele>
        <time>2025-12-14T09:18:30Z</time>
      </trkpt>
      <trkpt lat="43.13358" lon="1.07279">
        <ele>381.2</ele>
        <time>2025-12-14T09:18:31Z</time>
      </trkpt>
      <trkpt lat="43.13361" lon="1.07271">
        <ele>380.8</ele>
        <time>2025-12-14T09:18:32Z</time>
      </trkpt>
      <trkpt lat="43.13363" lon="1.07263">
        <ele>380.8</ele>
        <time>2025-12-14T09:18:33Z</time>
      </trkpt>
      <trkpt lat="43.13366" lon="1.07256">
        <ele>380.4</ele>
        <time>2025-12-14T09:18:34Z</time>
      </trkpt>
      <trkpt lat="43.13368" lon="1.07248">
        <ele>380</ele>
        <time>2025-12-14T09:18:35Z</time>
      </trkpt>
      <trkpt lat="43.1337" lon="1.07241">
        <ele>379.6</ele>
        <time>2025-12-14T09:18:36Z</time>
      </trkpt>
      <trkpt lat="43.13372" lon="1.07233">
        <ele>379</ele>
        <time>2025-12-14T09:18:37Z</time>
      </trkpt>
      <trkpt lat="43.13374" lon="1.07226">
        <ele>378.6</ele>
        <time>2025-12-14T09:18:38Z</time>
      </trkpt>
      <trkpt lat="43.13376" lon="1.07218">
        <ele>378.2</ele>
        <time>2025-12-14T09:18:39Z</time>
      </trkpt>
      <trkpt lat="43.13378" lon="1.07209">
        <ele>377.8</ele>
        <time>2025-12-14T09:18:40Z</time>
      </trkpt>
      <trkpt lat="43.13379" lon="1.07201">
        <ele>377.4</ele>
        <time>2025-12-14T09:18:41Z</time>
      </trkpt>
      <trkpt lat="43.13381" lon="1.07193">
        <ele>376.4</ele>
        <time>2025-12-14T09:18:42Z</time>
      </trkpt>
      <trkpt lat="43.13382" lon="1.07185">
        <ele>375.8</ele>
        <time>2025-12-14T09:18:43Z</time>
      </trkpt>
      <trkpt lat="43.13384" lon="1.07176">
        <ele>375.4</ele>
        <time>2025-12-14T09:18:44Z</time>
      </trkpt>
      <trkpt lat="43.13386" lon="1.07168">
        <ele>374.8</ele>
        <time>2025-12-14T09:18:45Z</time>
      </trkpt>
      <trkpt lat="43.13388" lon="1.0716">
        <ele>374.4</ele>
        <time>2025-12-14T09:18:46Z</time>
      </trkpt>
      <trkpt lat="43.13393" lon="1.07145">
        <ele>373.8</ele>
        <time>2025-12-14T09:18:48Z</time>
      </trkpt>
      <trkpt lat="43.13395" lon="1.07138">
        <ele>373.4</ele>
        <time>2025-12-14T09:18:49Z</time>
      </trkpt>
      <trkpt lat="43.13397" lon="1.0713">
        <ele>373</ele>
        <time>2025-12-14T09:18:50Z</time>
      </trkpt>
      <trkpt lat="43.13399" lon="1.07123">
        <ele>372.6</ele>
        <time>2025-12-14T09:18:51Z</time>
      </trkpt>
      <trkpt lat="43.13401" lon="1.07116">
        <ele>372.2</ele>
        <time>2025-12-14T09:18:52Z</time>
      </trkpt>
      <trkpt lat="43.13406" lon="1.07095">
        <ele>372.2</ele>
        <time>2025-12-14T09:18:55Z</time>
      </trkpt>
      <trkpt lat="43.13408" lon="1.07088">
        <ele>371.6</ele>
        <time>2025-12-14T09:18:56Z</time>
      </trkpt>
      <trkpt lat="43.13409" lon="1.07081">
        <ele>371.2</ele>
        <time>2025-12-14T09:18:57Z</time>
      </trkpt>
      <trkpt lat="43.13411" lon="1.07074">
        <ele>370.8</ele>
        <time>2025-12-14T09:18:58Z</time>
      </trkpt>
      <trkpt lat="43.13412" lon="1.07066">
        <ele>370.4</ele>
        <time>2025-12-14T09:18:59Z</time>
      </trkpt>
      <trkpt lat="43.13414" lon="1.07059">
        <ele>370</ele>
        <time>2025-12-14T09:19:00Z</time>
      </trkpt>
      <trkpt lat="43.13417" lon="1.07045">
        <ele>370</ele>
        <time>2025-12-14T09:19:02Z</time>
      </trkpt>
      <trkpt lat="43.13421" lon="1.07027">
        <ele>370</ele>
        <time>2025-12-14T09:19:05Z</time>
      </trkpt>
      <trkpt lat="43.13424" lon="1.07011">
        <ele>369.6</ele>
        <time>2025-12-14T09:19:08Z</time>
      </trkpt>
      <trkpt lat="43.13424" lon="1.07006">
        <ele>369</ele>
        <time>2025-12-14T09:19:09Z</time>
      </trkpt>
      <trkpt lat="43.13425" lon="1.07002">
        <ele>368.6</ele>
        <time>2025-12-14T09:19:10Z</time>
      </trkpt>
      <trkpt lat="43.13426" lon="1.06997">
        <ele>368.2</ele>
        <time>2025-12-14T09:19:11Z</time>
      </trkpt>
      <trkpt lat="43.13426" lon="1.06992">
        <ele>367.8</ele>
        <time>2025-12-14T09:19:12Z</time>
      </trkpt>
      <trkpt lat="43.1343" lon="1.06965">
        <ele>367.4</ele>
        <time>2025-12-14T09:19:18Z</time>
      </trkpt>
      <trkpt lat="43.13431" lon="1.06961">
        <ele>367</ele>
        <time>2025-12-14T09:19:19Z</time>
      </trkpt>
      <trkpt lat="43.13432" lon="1.06957">
        <ele>366.4</ele>
        <time>2025-12-14T09:19:20Z</time>
      </trkpt>
      <trkpt lat="43.13432" lon="1.06953">
        <ele>366</ele>
        <time>2025-12-14T09:19:21Z</time>
      </trkpt>
      <trkpt lat="43.13433" lon="1.06949">
        <ele>365.6</ele>
        <time>2025-12-14T09:19:22Z</time>
      </trkpt>
      <trkpt lat="43.13433" lon="1.06945">
        <ele>365.6</ele>
        <time>2025-12-14T09:19:23Z</time>
      </trkpt>
      <trkpt lat="43.13435" lon="1.06929">
        <ele>365.2</ele>
        <time>2025-12-14T09:19:26Z</time>
      </trkpt>
      <trkpt lat="43.13436" lon="1.06923">
        <ele>364.8</ele>
        <time>2025-12-14T09:19:27Z</time>
      </trkpt>
      <trkpt lat="43.13437" lon="1.06917">
        <ele>364.4</ele>
        <time>2025-12-14T09:19:28Z</time>
      </trkpt>
      <trkpt lat="43.13439" lon="1.06911">
        <ele>364</ele>
        <time>2025-12-14T09:19:29Z</time>
      </trkpt>
      <trkpt lat="43.13441" lon="1.06905">
        <ele>363.6</ele>
        <time>2025-12-14T09:19:30Z</time>
      </trkpt>
      <trkpt lat="43.13446" lon="1.06888">
        <ele>363.2</ele>
        <time>2025-12-14T09:19:33Z</time>
      </trkpt>
      <trkpt lat="43.13448" lon="1.06882">
        <ele>362.8</ele>
        <time>2025-12-14T09:19:34Z</time>
      </trkpt>
      <trkpt lat="43.13449" lon="1.06877">
        <ele>362.4</ele>
        <time>2025-12-14T09:19:35Z</time>
      </trkpt>
      <trkpt lat="43.13451" lon="1.06872">
        <ele>362</ele>
        <time>2025-12-14T09:19:36Z</time>
      </trkpt>
      <trkpt lat="43.13452" lon="1.06867">
        <ele>361.6</ele>
        <time>2025-12-14T09:19:37Z</time>
      </trkpt>
      <trkpt lat="43.13458" lon="1.06843">
        <ele>361.6</ele>
        <time>2025-12-14T09:19:42Z</time>
      </trkpt>
      <trkpt lat="43.13461" lon="1.06834">
        <ele>361.2</ele>
        <time>2025-12-14T09:19:44Z</time>
      </trkpt>
      <trkpt lat="43.13462" lon="1.0683">
        <ele>360.8</ele>
        <time>2025-12-14T09:19:45Z</time>
      </trkpt>
      <trkpt lat="43.13463" lon="1.06825">
        <ele>360.4</ele>
        <time>2025-12-14T09:19:46Z</time>
      </trkpt>
      <trkpt lat="43.13464" lon="1.06821">
        <ele>360</ele>
        <time>2025-12-14T09:19:47Z</time>
      </trkpt>
      <trkpt lat="43.13466" lon="1.06815">
        <ele>359.4</ele>
        <time>2025-12-14T09:19:48Z</time>
      </trkpt>
      <trkpt lat="43.13467" lon="1.0681">
        <ele>359.4</ele>
        <time>2025-12-14T09:19:49Z</time>
      </trkpt>
      <trkpt lat="43.13472" lon="1.06791">
        <ele>359.4</ele>
        <time>2025-12-14T09:19:52Z</time>
      </trkpt>
      <trkpt lat="43.13472" lon="1.06785">
        <ele>359</ele>
        <time>2025-12-14T09:19:53Z</time>
      </trkpt>
      <trkpt lat="43.13473" lon="1.0678">
        <ele>358.6</ele>
        <time>2025-12-14T09:19:54Z</time>
      </trkpt>
      <trkpt lat="43.13475" lon="1.06774">
        <ele>358</ele>
        <time>2025-12-14T09:19:55Z</time>
      </trkpt>
      <trkpt lat="43.13476" lon="1.06769">
        <ele>357.6</ele>
        <time>2025-12-14T09:19:56Z</time>
      </trkpt>
      <trkpt lat="43.13478" lon="1.06764">
        <ele>356.6</ele>
        <time>2025-12-14T09:19:57Z</time>
      </trkpt>
      <trkpt lat="43.1348" lon="1.0676">
        <ele>356.2</ele>
        <time>2025-12-14T09:19:58Z</time>
      </trkpt>
      <trkpt lat="43.13482" lon="1.06755">
        <ele>355.8</ele>
        <time>2025-12-14T09:19:59Z</time>
      </trkpt>
      <trkpt lat="43.13484" lon="1.06751">
        <ele>355.4</ele>
        <time>2025-12-14T09:20:00Z</time>
      </trkpt>
      <trkpt lat="43.13485" lon="1.06745">
        <ele>355</ele>
        <time>2025-12-14T09:20:01Z</time>
      </trkpt>
      <trkpt lat="43.1349" lon="1.06729">
        <ele>355</ele>
        <time>2025-12-14T09:20:04Z</time>
      </trkpt>
      <trkpt lat="43.13491" lon="1.06723">
        <ele>354.6</ele>
        <time>2025-12-14T09:20:05Z</time>
      </trkpt>
      <trkpt lat="43.13492" lon="1.06717">
        <ele>354</ele>
        <time>2025-12-14T09:20:06Z</time>
      </trkpt>
      <trkpt lat="43.13494" lon="1.06712">
        <ele>353.6</ele>
        <time>2025-12-14T09:20:07Z</time>
      </trkpt>
      <trkpt lat="43.13495" lon="1.06706">
        <ele>353.2</ele>
        <time>2025-12-14T09:20:08Z</time>
      </trkpt>
      <trkpt lat="43.13497" lon="1.067">
        <ele>352.6</ele>
        <time>2025-12-14T09:20:09Z</time>
      </trkpt>
      <trkpt lat="43.13501" lon="1.0669">
        <ele>352.2</ele>
        <time>2025-12-14T09:20:11Z</time>
      </trkpt>
      <trkpt lat="43.13503" lon="1.06685">
        <ele>351.8</ele>
        <time>2025-12-14T09:20:12Z</time>
      </trkpt>
      <trkpt lat="43.13505" lon="1.0668">
        <ele>351.4</ele>
        <time>2025-12-14T09:20:13Z</time>
      </trkpt>
      <trkpt lat="43.13507" lon="1.06674">
        <ele>351</ele>
        <time>2025-12-14T09:20:14Z</time>
      </trkpt>
      <trkpt lat="43.13509" lon="1.06669">
        <ele>350.6</ele>
        <time>2025-12-14T09:20:15Z</time>
      </trkpt>
      <trkpt lat="43.13511" lon="1.06663">
        <ele>350.6</ele>
        <time>2025-12-14T09:20:16Z</time>
      </trkpt>
      <trkpt lat="43.13518" lon="1.06644">
        <ele>350.6</ele>
        <time>2025-12-14T09:20:19Z</time>
      </trkpt>
      <trkpt lat="43.13521" lon="1.06632">
        <ele>350.2</ele>
        <time>2025-12-14T09:20:21Z</time>
      </trkpt>
      <trkpt lat="43.13522" lon="1.06625">
        <ele>349.2</ele>
        <time>2025-12-14T09:20:22Z</time>
      </trkpt>
      <trkpt lat="43.13523" lon="1.06619">
        <ele>348.8</ele>
        <time>2025-12-14T09:20:23Z</time>
      </trkpt>
      <trkpt lat="43.13525" lon="1.06613">
        <ele>348.2</ele>
        <time>2025-12-14T09:20:24Z</time>
      </trkpt>
      <trkpt lat="43.13526" lon="1.06607">
        <ele>347.8</ele>
        <time>2025-12-14T09:20:25Z</time>
      </trkpt>
      <trkpt lat="43.13527" lon="1.066">
        <ele>347.2</ele>
        <time>2025-12-14T09:20:26Z</time>
      </trkpt>
      <trkpt lat="43.13528" lon="1.06594">
        <ele>346.8</ele>
        <time>2025-12-14T09:20:27Z</time>
      </trkpt>
      <trkpt lat="43.13528" lon="1.06589">
        <ele>346</ele>
        <time>2025-12-14T09:20:28Z</time>
      </trkpt>
      <trkpt lat="43.13529" lon="1.06584">
        <ele>345.4</ele>
        <time>2025-12-14T09:20:29Z</time>
      </trkpt>
      <trkpt lat="43.13529" lon="1.06579">
        <ele>344.8</ele>
        <time>2025-12-14T09:20:30Z</time>
      </trkpt>
      <trkpt lat="43.1353" lon="1.06575">
        <ele>344.2</ele>
        <time>2025-12-14T09:20:31Z</time>
      </trkpt>
      <trkpt lat="43.13531" lon="1.06571">
        <ele>343.6</ele>
        <time>2025-12-14T09:20:32Z</time>
      </trkpt>
      <trkpt lat="43.13532" lon="1.06566">
        <ele>342.8</ele>
        <time>2025-12-14T09:20:33Z</time>
      </trkpt>
      <trkpt lat="43.13532" lon="1.0656">
        <ele>342.2</ele>
        <time>2025-12-14T09:20:34Z</time>
      </trkpt>
      <trkpt lat="43.13533" lon="1.06554">
        <ele>341.6</ele>
        <time>2025-12-14T09:20:35Z</time>
      </trkpt>
      <trkpt lat="43.13535" lon="1.06548">
        <ele>341.2</ele>
        <time>2025-12-14T09:20:36Z</time>
      </trkpt>
      <trkpt lat="43.13537" lon="1.06542">
        <ele>340.6</ele>
        <time>2025-12-14T09:20:37Z</time>
      </trkpt>
      <trkpt lat="43.13539" lon="1.06536">
        <ele>340</ele>
        <time>2025-12-14T09:20:38Z</time>
      </trkpt>
      <trkpt lat="43.13541" lon="1.0653">
        <ele>339.6</ele>
        <time>2025-12-14T09:20:39Z</time>
      </trkpt>
      <trkpt lat="43.13542" lon="1.06524">
        <ele>339</ele>
        <time>2025-12-14T09:20:40Z</time>
      </trkpt>
      <trkpt lat="43.13543" lon="1.06518">
        <ele>338.6</ele>
        <time>2025-12-14T09:20:41Z</time>
      </trkpt>
      <trkpt lat="43.13544" lon="1.06511">
        <ele>338</ele>
        <time>2025-12-14T09:20:42Z</time>
      </trkpt>
      <trkpt lat="43.13545" lon="1.06505">
        <ele>337.6</ele>
        <time>2025-12-14T09:20:43Z</time>
      </trkpt>
      <trkpt lat="43.13545" lon="1.06498">
        <ele>337</ele>
        <time>2025-12-14T09:20:44Z</time>
      </trkpt>
      <trkpt lat="43.13547" lon="1.06492">
        <ele>336.4</ele>
        <time>2025-12-14T09:20:45Z</time>
      </trkpt>
      <trkpt lat="43.13549" lon="1.06484">
        <ele>335.8</ele>
        <time>2025-12-14T09:20:46Z</time>
      </trkpt>
      <trkpt lat="43.13551" lon="1.06477">
        <ele>334.6</ele>
        <time>2025-12-14T09:20:47Z</time>
      </trkpt>
      <trkpt lat="43.13552" lon="1.0647">
        <ele>334</ele>
        <time>2025-12-14T09:20:48Z</time>
      </trkpt>
      <trkpt lat="43.13553" lon="1.06464">
        <ele>333.4</ele>
        <time>2025-12-14T09:20:49Z</time>
      </trkpt>
      <trkpt lat="43.13555" lon="1.06457">
        <ele>332.8</ele>
        <time>2025-12-14T09:20:50Z</time>
      </trkpt>
      <trkpt lat="43.13556" lon="1.06451">
        <ele>332.2</ele>
        <time>2025-12-14T09:20:51Z</time>
      </trkpt>
      <trkpt lat="43.13557" lon="1.06445">
        <ele>331.6</ele>
        <time>2025-12-14T09:20:52Z</time>
      </trkpt>
      <trkpt lat="43.13558" lon="1.06439">
        <ele>331</ele>
        <time>2025-12-14T09:20:53Z</time>
      </trkpt>
      <trkpt lat="43.13559" lon="1.06433">
        <ele>330.4</ele>
        <time>2025-12-14T09:20:54Z</time>
      </trkpt>
      <trkpt lat="43.1356" lon="1.06427">
        <ele>329.8</ele>
        <time>2025-12-14T09:20:55Z</time>
      </trkpt>
      <trkpt lat="43.13561" lon="1.0642">
        <ele>329.4</ele>
        <time>2025-12-14T09:20:56Z</time>
      </trkpt>
      <trkpt lat="43.13563" lon="1.06414">
        <ele>329</ele>
        <time>2025-12-14T09:20:57Z</time>
      </trkpt>
      <trkpt lat="43.13565" lon="1.06407">
        <ele>328.4</ele>
        <time>2025-12-14T09:20:58Z</time>
      </trkpt>
      <trkpt lat="43.13567" lon="1.06401">
        <ele>328</ele>
        <time>2025-12-14T09:20:59Z</time>
      </trkpt>
      <trkpt lat="43.13568" lon="1.06396">
        <ele>327.4</ele>
        <time>2025-12-14T09:21:00Z</time>
      </trkpt>
      <trkpt lat="43.1357" lon="1.06391">
        <ele>327</ele>
        <time>2025-12-14T09:21:01Z</time>
      </trkpt>
      <trkpt lat="43.13572" lon="1.06386">
        <ele>326.6</ele>
        <time>2025-12-14T09:21:02Z</time>
      </trkpt>
      <trkpt lat="43.13574" lon="1.06382">
        <ele>326.2</ele>
        <time>2025-12-14T09:21:03Z</time>
      </trkpt>
      <trkpt lat="43.13576" lon="1.06377">
        <ele>325.8</ele>
        <time>2025-12-14T09:21:04Z</time>
      </trkpt>
      <trkpt lat="43.13578" lon="1.06372">
        <ele>325.4</ele>
        <time>2025-12-14T09:21:05Z</time>
      </trkpt>
      <trkpt lat="43.1358" lon="1.06369">
        <ele>325.4</ele>
        <time>2025-12-14T09:21:06Z</time>
      </trkpt>
      <trkpt lat="43.13584" lon="1.06362">
        <ele>325.4</ele>
        <time>2025-12-14T09:21:08Z</time>
      </trkpt>
      <trkpt lat="43.13589" lon="1.06353">
        <ele>325</ele>
        <time>2025-12-14T09:21:11Z</time>
      </trkpt>
      <trkpt lat="43.1359" lon="1.0635">
        <ele>324.6</ele>
        <time>2025-12-14T09:21:12Z</time>
      </trkpt>
      <trkpt lat="43.13592" lon="1.06347">
        <ele>324.2</ele>
        <time>2025-12-14T09:21:13Z</time>
      </trkpt>
      <trkpt lat="43.13594" lon="1.06345">
        <ele>323.8</ele>
        <time>2025-12-14T09:21:14Z</time>
      </trkpt>
      <trkpt lat="43.13595" lon="1.06341">
        <ele>323.4</ele>
        <time>2025-12-14T09:21:15Z</time>
      </trkpt>
      <trkpt lat="43.136" lon="1.06329">
        <ele>323.4</ele>
        <time>2025-12-14T09:21:19Z</time>
      </trkpt>
      <trkpt lat="43.13608" lon="1.0631">
        <ele>323.4</ele>
        <time>2025-12-14T09:21:26Z</time>
      </trkpt>
      <trkpt lat="43.13613" lon="1.06296">
        <ele>323</ele>
        <time>2025-12-14T09:21:31Z</time>
      </trkpt>
      <trkpt lat="43.13614" lon="1.06293">
        <ele>322.6</ele>
        <time>2025-12-14T09:21:32Z</time>
      </trkpt>
      <trkpt lat="43.13616" lon="1.0629">
        <ele>322.2</ele>
        <time>2025-12-14T09:21:33Z</time>
      </trkpt>
      <trkpt lat="43.13617" lon="1.06286">
        <ele>321.6</ele>
        <time>2025-12-14T09:21:34Z</time>
      </trkpt>
      <trkpt lat="43.13619" lon="1.06283">
        <ele>321.2</ele>
        <time>2025-12-14T09:21:35Z</time>
      </trkpt>
      <trkpt lat="43.1362" lon="1.06279">
        <ele>321.2</ele>
        <time>2025-12-14T09:21:36Z</time>
      </trkpt>
      <trkpt lat="43.13624" lon="1.06269">
        <ele>320.8</ele>
        <time>2025-12-14T09:21:39Z</time>
      </trkpt>
      <trkpt lat="43.13626" lon="1.06266">
        <ele>320.4</ele>
        <time>2025-12-14T09:21:40Z</time>
      </trkpt>
      <trkpt lat="43.13627" lon="1.06262">
        <ele>320</ele>
        <time>2025-12-14T09:21:41Z</time>
      </trkpt>
      <trkpt lat="43.13628" lon="1.06258">
        <ele>319.6</ele>
        <time>2025-12-14T09:21:42Z</time>
      </trkpt>
      <trkpt lat="43.1363" lon="1.06254">
        <ele>319.2</ele>
        <time>2025-12-14T09:21:43Z</time>
      </trkpt>
      <trkpt lat="43.13644" lon="1.06227">
        <ele>319.2</ele>
        <time>2025-12-14T09:21:50Z</time>
      </trkpt>
      <trkpt lat="43.13648" lon="1.06221">
        <ele>318.8</ele>
        <time>2025-12-14T09:21:52Z</time>
      </trkpt>
      <trkpt lat="43.13651" lon="1.06217">
        <ele>318.4</ele>
        <time>2025-12-14T09:21:53Z</time>
      </trkpt>
      <trkpt lat="43.13654" lon="1.06215">
        <ele>318</ele>
        <time>2025-12-14T09:21:54Z</time>
      </trkpt>
      <trkpt lat="43.13656" lon="1.06212">
        <ele>317.6</ele>
        <time>2025-12-14T09:21:55Z</time>
      </trkpt>
      <trkpt lat="43.13659" lon="1.06209">
        <ele>317.2</ele>
        <time>2025-12-14T09:21:56Z</time>
      </trkpt>
      <trkpt lat="43.13669" lon="1.06186">
        <ele>317.2</ele>
        <time>2025-12-14T09:22:02Z</time>
      </trkpt>
      <trkpt lat="43.13672" lon="1.06179">
        <ele>316.8</ele>
        <time>2025-12-14T09:22:04Z</time>
      </trkpt>
      <trkpt lat="43.13673" lon="1.06175">
        <ele>316.2</ele>
        <time>2025-12-14T09:22:05Z</time>
      </trkpt>
      <trkpt lat="43.13675" lon="1.06171">
        <ele>315.8</ele>
        <time>2025-12-14T09:22:06Z</time>
      </trkpt>
      <trkpt lat="43.13676" lon="1.06167">
        <ele>315.4</ele>
        <time>2025-12-14T09:22:07Z</time>
      </trkpt>
      <trkpt lat="43.13677" lon="1.06163">
        <ele>315</ele>
        <time>2025-12-14T09:22:08Z</time>
      </trkpt>
      <trkpt lat="43.13677" lon="1.06156">
        <ele>314.6</ele>
        <time>2025-12-14T09:22:11Z</time>
      </trkpt>
      <trkpt lat="43.13677" lon="1.06156">
        <ele>314.2</ele>
        <time>2025-12-14T09:22:12Z</time>
      </trkpt>
      <trkpt lat="43.13681" lon="1.06142">
        <ele>313</ele>
        <time>2025-12-14T09:23:35Z</time>
      </trkpt>
      <trkpt lat="43.13683" lon="1.06138">
        <ele>312.6</ele>
        <time>2025-12-14T09:23:36Z</time>
      </trkpt>
      <trkpt lat="43.13684" lon="1.06133">
        <ele>312.2</ele>
        <time>2025-12-14T09:23:37Z</time>
      </trkpt>
      <trkpt lat="43.13686" lon="1.06126">
        <ele>311.6</ele>
        <time>2025-12-14T09:23:38Z</time>
      </trkpt>
      <trkpt lat="43.13687" lon="1.0612">
        <ele>310.8</ele>
        <time>2025-12-14T09:23:39Z</time>
      </trkpt>
      <trkpt lat="43.1369" lon="1.06107">
        <ele>310.4</ele>
        <time>2025-12-14T09:23:41Z</time>
      </trkpt>
      <trkpt lat="43.13691" lon="1.06101">
        <ele>309.8</ele>
        <time>2025-12-14T09:23:42Z</time>
      </trkpt>
      <trkpt lat="43.13692" lon="1.06095">
        <ele>309.4</ele>
        <time>2025-12-14T09:23:43Z</time>
      </trkpt>
      <trkpt lat="43.13692" lon="1.06089">
        <ele>308.8</ele>
        <time>2025-12-14T09:23:44Z</time>
      </trkpt>
      <trkpt lat="43.13693" lon="1.06083">
        <ele>308.2</ele>
        <time>2025-12-14T09:23:45Z</time>
      </trkpt>
      <trkpt lat="43.13694" lon="1.06077">
        <ele>307.6</ele>
        <time>2025-12-14T09:23:46Z</time>
      </trkpt>
      <trkpt lat="43.13695" lon="1.06071">
        <ele>307</ele>
        <time>2025-12-14T09:23:47Z</time>
      </trkpt>
      <trkpt lat="43.13697" lon="1.06067">
        <ele>306.6</ele>
        <time>2025-12-14T09:23:48Z</time>
      </trkpt>
      <trkpt lat="43.13699" lon="1.06063">
        <ele>306</ele>
        <time>2025-12-14T09:23:49Z</time>
      </trkpt>
      <trkpt lat="43.13701" lon="1.06059">
        <ele>305.6</ele>
        <time>2025-12-14T09:23:50Z</time>
      </trkpt>
      <trkpt lat="43.13703" lon="1.06056">
        <ele>305.2</ele>
        <time>2025-12-14T09:23:51Z</time>
      </trkpt>
      <trkpt lat="43.13706" lon="1.06052">
        <ele>304.8</ele>
        <time>2025-12-14T09:23:52Z</time>
      </trkpt>
      <trkpt lat="43.13708" lon="1.06049">
        <ele>304.4</ele>
        <time>2025-12-14T09:23:53Z</time>
      </trkpt>
      <trkpt lat="43.13711" lon="1.06046">
        <ele>303.8</ele>
        <time>2025-12-14T09:23:54Z</time>
      </trkpt>
      <trkpt lat="43.13717" lon="1.06032">
        <ele>303.8</ele>
        <time>2025-12-14T09:23:58Z</time>
      </trkpt>
      <trkpt lat="43.13719" lon="1.06029">
        <ele>303.4</ele>
        <time>2025-12-14T09:23:59Z</time>
      </trkpt>
      <trkpt lat="43.13721" lon="1.06026">
        <ele>303</ele>
        <time>2025-12-14T09:24:00Z</time>
      </trkpt>
      <trkpt lat="43.13724" lon="1.06024">
        <ele>302.4</ele>
        <time>2025-12-14T09:24:01Z</time>
      </trkpt>
      <trkpt lat="43.13726" lon="1.06021">
        <ele>302</ele>
        <time>2025-12-14T09:24:02Z</time>
      </trkpt>
      <trkpt lat="43.13728" lon="1.06018">
        <ele>301.6</ele>
        <time>2025-12-14T09:24:03Z</time>
      </trkpt>
      <trkpt lat="43.13741" lon="1.06011">
        <ele>301.6</ele>
        <time>2025-12-14T09:24:07Z</time>
      </trkpt>
      <trkpt lat="43.13761" lon="1.06006">
        <ele>301.6</ele>
        <time>2025-12-14T09:24:13Z</time>
      </trkpt>
      <trkpt lat="43.13764" lon="1.06006">
        <ele>302</ele>
        <time>2025-12-14T09:24:14Z</time>
      </trkpt>
      <trkpt lat="43.13768" lon="1.06006">
        <ele>302.4</ele>
        <time>2025-12-14T09:24:15Z</time>
      </trkpt>
      <trkpt lat="43.13771" lon="1.06006">
        <ele>302.8</ele>
        <time>2025-12-14T09:24:16Z</time>
      </trkpt>
      <trkpt lat="43.13774" lon="1.06007">
        <ele>303.4</ele>
        <time>2025-12-14T09:24:17Z</time>
      </trkpt>
      <trkpt lat="43.13778" lon="1.06007">
        <ele>303.8</ele>
        <time>2025-12-14T09:24:18Z</time>
      </trkpt>
      <trkpt lat="43.13784" lon="1.06009">
        <ele>303.8</ele>
        <time>2025-12-14T09:24:20Z</time>
      </trkpt>
      <trkpt lat="43.13798" lon="1.06021">
        <ele>304.2</ele>
        <time>2025-12-14T09:24:25Z</time>
      </trkpt>
      <trkpt lat="43.138" lon="1.06024">
        <ele>304.6</ele>
        <time>2025-12-14T09:24:26Z</time>
      </trkpt>
      <trkpt lat="43.13802" lon="1.06027">
        <ele>305</ele>
        <time>2025-12-14T09:24:27Z</time>
      </trkpt>
      <trkpt lat="43.13804" lon="1.06029">
        <ele>306</ele>
        <time>2025-12-14T09:24:28Z</time>
      </trkpt>
      <trkpt lat="43.13814" lon="1.06046">
        <ele>306</ele>
        <time>2025-12-14T09:24:33Z</time>
      </trkpt>
      <trkpt lat="43.13816" lon="1.0605">
        <ele>306.4</ele>
        <time>2025-12-14T09:24:34Z</time>
      </trkpt>
      <trkpt lat="43.13818" lon="1.06053">
        <ele>306.8</ele>
        <time>2025-12-14T09:24:35Z</time>
      </trkpt>
      <trkpt lat="43.13819" lon="1.06056">
        <ele>307.2</ele>
        <time>2025-12-14T09:24:36Z</time>
      </trkpt>
      <trkpt lat="43.13821" lon="1.0606">
        <ele>307.6</ele>
        <time>2025-12-14T09:24:37Z</time>
      </trkpt>
      <trkpt lat="43.13823" lon="1.06063">
        <ele>308</ele>
        <time>2025-12-14T09:24:38Z</time>
      </trkpt>
      <trkpt lat="43.1383" lon="1.0607">
        <ele>308</ele>
        <time>2025-12-14T09:24:41Z</time>
      </trkpt>
      <trkpt lat="43.13844" lon="1.06074">
        <ele>308</ele>
        <time>2025-12-14T09:24:46Z</time>
      </trkpt>
      <trkpt lat="43.1385" lon="1.06074">
        <ele>308.4</ele>
        <time>2025-12-14T09:24:48Z</time>
      </trkpt>
      <trkpt lat="43.13853" lon="1.06074">
        <ele>308.8</ele>
        <time>2025-12-14T09:24:49Z</time>
      </trkpt>
      <trkpt lat="43.13856" lon="1.06074">
        <ele>309.2</ele>
        <time>2025-12-14T09:24:50Z</time>
      </trkpt>
      <trkpt lat="43.13858" lon="1.06074">
        <ele>309.6</ele>
        <time>2025-12-14T09:24:51Z</time>
      </trkpt>
      <trkpt lat="43.13861" lon="1.06074">
        <ele>310.2</ele>
        <time>2025-12-14T09:24:52Z</time>
      </trkpt>
      <trkpt lat="43.13866" lon="1.06074">
        <ele>310.2</ele>
        <time>2025-12-14T09:24:54Z</time>
      </trkpt>
      <trkpt lat="43.13871" lon="1.06074">
        <ele>310.6</ele>
        <time>2025-12-14T09:24:56Z</time>
      </trkpt>
      <trkpt lat="43.13874" lon="1.06074">
        <ele>311</ele>
        <time>2025-12-14T09:24:57Z</time>
      </trkpt>
      <trkpt lat="43.13876" lon="1.06074">
        <ele>311.4</ele>
        <time>2025-12-14T09:24:58Z</time>
      </trkpt>
      <trkpt lat="43.13879" lon="1.06074">
        <ele>311.8</ele>
        <time>2025-12-14T09:24:59Z</time>
      </trkpt>
      <trkpt lat="43.13881" lon="1.06074">
        <ele>312.2</ele>
        <time>2025-12-14T09:25:00Z</time>
      </trkpt>
      <trkpt lat="43.13886" lon="1.06074">
        <ele>312.2</ele>
        <time>2025-12-14T09:25:02Z</time>
      </trkpt>
      <trkpt lat="43.13892" lon="1.06074">
        <ele>312.6</ele>
        <time>2025-12-14T09:25:05Z</time>
      </trkpt>
      <trkpt lat="43.13895" lon="1.06074">
        <ele>313</ele>
        <time>2025-12-14T09:25:06Z</time>
      </trkpt>
      <trkpt lat="43.13898" lon="1.06074">
        <ele>313.4</ele>
        <time>2025-12-14T09:25:07Z</time>
      </trkpt>
      <trkpt lat="43.13901" lon="1.06074">
        <ele>313.8</ele>
        <time>2025-12-14T09:25:08Z</time>
      </trkpt>
      <trkpt lat="43.13904" lon="1.06075">
        <ele>314.2</ele>
        <time>2025-12-14T09:25:09Z</time>
      </trkpt>
      <trkpt lat="43.13906" lon="1.06076">
        <ele>314.2</ele>
        <time>2025-12-14T09:25:10Z</time>
      </trkpt>
      <trkpt lat="43.13922" lon="1.06079">
        <ele>314.8</ele>
        <time>2025-12-14T09:25:16Z</time>
      </trkpt>
      <trkpt lat="43.13925" lon="1.06079">
        <ele>315.2</ele>
        <time>2025-12-14T09:25:17Z</time>
      </trkpt>
      <trkpt lat="43.13927" lon="1.0608">
        <ele>316</ele>
        <time>2025-12-14T09:25:18Z</time>
      </trkpt>
      <trkpt lat="43.1393" lon="1.0608">
        <ele>316.6</ele>
        <time>2025-12-14T09:25:19Z</time>
      </trkpt>
      <trkpt lat="43.13944" lon="1.06084">
        <ele>317</ele>
        <time>2025-12-14T09:25:25Z</time>
      </trkpt>
      <trkpt lat="43.13947" lon="1.06084">
        <ele>317.4</ele>
        <time>2025-12-14T09:25:26Z</time>
      </trkpt>
      <trkpt lat="43.13949" lon="1.06085">
        <ele>317.8</ele>
        <time>2025-12-14T09:25:27Z</time>
      </trkpt>
      <trkpt lat="43.13952" lon="1.06085">
        <ele>318.2</ele>
        <time>2025-12-14T09:25:28Z</time>
      </trkpt>
      <trkpt lat="43.13954" lon="1.06085">
        <ele>318.6</ele>
        <time>2025-12-14T09:25:29Z</time>
      </trkpt>
      <trkpt lat="43.13966" lon="1.06087">
        <ele>318.6</ele>
        <time>2025-12-14T09:25:34Z</time>
      </trkpt>
      <trkpt lat="43.13968" lon="1.06087">
        <ele>319</ele>
        <time>2025-12-14T09:25:35Z</time>
      </trkpt>
      <trkpt lat="43.13971" lon="1.06087">
        <ele>319.4</ele>
        <time>2025-12-14T09:25:36Z</time>
      </trkpt>
      <trkpt lat="43.13973" lon="1.06086">
        <ele>319.8</ele>
        <time>2025-12-14T09:25:37Z</time>
      </trkpt>
      <trkpt lat="43.13975" lon="1.06086">
        <ele>320.2</ele>
        <time>2025-12-14T09:25:38Z</time>
      </trkpt>
      <trkpt lat="43.13978" lon="1.06086">
        <ele>320.6</ele>
        <time>2025-12-14T09:25:39Z</time>
      </trkpt>
      <trkpt lat="43.13985" lon="1.06086">
        <ele>320.6</ele>
        <time>2025-12-14T09:25:42Z</time>
      </trkpt>
      <trkpt lat="43.13992" lon="1.06087">
        <ele>321</ele>
        <time>2025-12-14T09:25:45Z</time>
      </trkpt>
      <trkpt lat="43.13994" lon="1.06087">
        <ele>321.4</ele>
        <time>2025-12-14T09:25:46Z</time>
      </trkpt>
      <trkpt lat="43.13997" lon="1.06087">
        <ele>322</ele>
        <time>2025-12-14T09:25:47Z</time>
      </trkpt>
      <trkpt lat="43.13999" lon="1.06087">
        <ele>322.4</ele>
        <time>2025-12-14T09:25:48Z</time>
      </trkpt>
      <trkpt lat="43.14001" lon="1.06087">
        <ele>322.8</ele>
        <time>2025-12-14T09:25:49Z</time>
      </trkpt>
      <trkpt lat="43.14004" lon="1.06087">
        <ele>322.8</ele>
        <time>2025-12-14T09:25:50Z</time>
      </trkpt>
      <trkpt lat="43.14019" lon="1.06088">
        <ele>323.2</ele>
        <time>2025-12-14T09:25:56Z</time>
      </trkpt>
      <trkpt lat="43.14021" lon="1.06089">
        <ele>323.6</ele>
        <time>2025-12-14T09:25:57Z</time>
      </trkpt>
      <trkpt lat="43.14024" lon="1.06089">
        <ele>324.2</ele>
        <time>2025-12-14T09:25:58Z</time>
      </trkpt>
      <trkpt lat="43.14026" lon="1.0609">
        <ele>324.6</ele>
        <time>2025-12-14T09:25:59Z</time>
      </trkpt>
      <trkpt lat="43.14029" lon="1.0609">
        <ele>325</ele>
        <time>2025-12-14T09:26:00Z</time>
      </trkpt>
      <trkpt lat="43.14039" lon="1.06093">
        <ele>325</ele>
        <time>2025-12-14T09:26:05Z</time>
      </trkpt>
      <trkpt lat="43.14045" lon="1.06097">
        <ele>325.4</ele>
        <time>2025-12-14T09:26:07Z</time>
      </trkpt>
      <trkpt lat="43.14047" lon="1.06099">
        <ele>326.4</ele>
        <time>2025-12-14T09:26:08Z</time>
      </trkpt>
      <trkpt lat="43.14049" lon="1.06101">
        <ele>326.8</ele>
        <time>2025-12-14T09:26:09Z</time>
      </trkpt>
      <trkpt lat="43.14051" lon="1.06103">
        <ele>327.2</ele>
        <time>2025-12-14T09:26:10Z</time>
      </trkpt>
      <trkpt lat="43.14062" lon="1.06118">
        <ele>327.6</ele>
        <time>2025-12-14T09:26:16Z</time>
      </trkpt>
      <trkpt lat="43.14064" lon="1.0612">
        <ele>328</ele>
        <time>2025-12-14T09:26:17Z</time>
      </trkpt>
      <trkpt lat="43.14066" lon="1.06122">
        <ele>328.6</ele>
        <time>2025-12-14T09:26:18Z</time>
      </trkpt>
      <trkpt lat="43.14068" lon="1.06124">
        <ele>329</ele>
        <time>2025-12-14T09:26:19Z</time>
      </trkpt>
      <trkpt lat="43.1407" lon="1.06127">
        <ele>329.4</ele>
        <time>2025-12-14T09:26:20Z</time>
      </trkpt>
      <trkpt lat="43.14078" lon="1.0614">
        <ele>329.4</ele>
        <time>2025-12-14T09:26:25Z</time>
      </trkpt>
      <trkpt lat="43.14081" lon="1.06145">
        <ele>329.8</ele>
        <time>2025-12-14T09:26:27Z</time>
      </trkpt>
      <trkpt lat="43.14083" lon="1.06147">
        <ele>330.2</ele>
        <time>2025-12-14T09:26:28Z</time>
      </trkpt>
      <trkpt lat="43.14085" lon="1.06149">
        <ele>330.6</ele>
        <time>2025-12-14T09:26:29Z</time>
      </trkpt>
      <trkpt lat="43.14086" lon="1.06152">
        <ele>331</ele>
        <time>2025-12-14T09:26:30Z</time>
      </trkpt>
      <trkpt lat="43.14088" lon="1.06153">
        <ele>331.4</ele>
        <time>2025-12-14T09:26:31Z</time>
      </trkpt>
      <trkpt lat="43.14093" lon="1.0616">
        <ele>331.4</ele>
        <time>2025-12-14T09:26:34Z</time>
      </trkpt>
      <trkpt lat="43.14098" lon="1.06167">
        <ele>332</ele>
        <time>2025-12-14T09:26:37Z</time>
      </trkpt>
      <trkpt lat="43.141" lon="1.06168">
        <ele>332.4</ele>
        <time>2025-12-14T09:26:38Z</time>
      </trkpt>
      <trkpt lat="43.14102" lon="1.0617">
        <ele>332.8</ele>
        <time>2025-12-14T09:26:39Z</time>
      </trkpt>
      <trkpt lat="43.14104" lon="1.06172">
        <ele>333.2</ele>
        <time>2025-12-14T09:26:40Z</time>
      </trkpt>
      <trkpt lat="43.14106" lon="1.06173">
        <ele>333.6</ele>
        <time>2025-12-14T09:26:41Z</time>
      </trkpt>
      <trkpt lat="43.14108" lon="1.06174">
        <ele>333.6</ele>
        <time>2025-12-14T09:26:42Z</time>
      </trkpt>
      <trkpt lat="43.1412" lon="1.06177">
        <ele>334</ele>
        <time>2025-12-14T09:26:48Z</time>
      </trkpt>
      <trkpt lat="43.14122" lon="1.06176">
        <ele>334.4</ele>
        <time>2025-12-14T09:26:49Z</time>
      </trkpt>
      <trkpt lat="43.14125" lon="1.06176">
        <ele>334.8</ele>
        <time>2025-12-14T09:26:50Z</time>
      </trkpt>
      <trkpt lat="43.14127" lon="1.06175">
        <ele>335.2</ele>
        <time>2025-12-14T09:26:51Z</time>
      </trkpt>
      <trkpt lat="43.14129" lon="1.06175">
        <ele>335.6</ele>
        <time>2025-12-14T09:26:52Z</time>
      </trkpt>
      <trkpt lat="43.1414" lon="1.06167">
        <ele>336</ele>
        <time>2025-12-14T09:26:57Z</time>
      </trkpt>
      <trkpt lat="43.14141" lon="1.06165">
        <ele>336.4</ele>
        <time>2025-12-14T09:26:58Z</time>
      </trkpt>
      <trkpt lat="43.14143" lon="1.06163">
        <ele>336.8</ele>
        <time>2025-12-14T09:26:59Z</time>
      </trkpt>
      <trkpt lat="43.14144" lon="1.06161">
        <ele>337.2</ele>
        <time>2025-12-14T09:27:00Z</time>
      </trkpt>
      <trkpt lat="43.14146" lon="1.06158">
        <ele>337.8</ele>
        <time>2025-12-14T09:27:01Z</time>
      </trkpt>
      <trkpt lat="43.14153" lon="1.06149">
        <ele>337.8</ele>
        <time>2025-12-14T09:27:05Z</time>
      </trkpt>
      <trkpt lat="43.1416" lon="1.0614">
        <ele>338.2</ele>
        <time>2025-12-14T09:27:09Z</time>
      </trkpt>
      <trkpt lat="43.14161" lon="1.06137">
        <ele>338.6</ele>
        <time>2025-12-14T09:27:10Z</time>
      </trkpt>
      <trkpt lat="43.14163" lon="1.06134">
        <ele>339</ele>
        <time>2025-12-14T09:27:11Z</time>
      </trkpt>
      <trkpt lat="43.14164" lon="1.06132">
        <ele>339.6</ele>
        <time>2025-12-14T09:27:12Z</time>
      </trkpt>
      <trkpt lat="43.14165" lon="1.06129">
        <ele>340</ele>
        <time>2025-12-14T09:27:13Z</time>
      </trkpt>
      <trkpt lat="43.14174" lon="1.06118">
        <ele>340</ele>
        <time>2025-12-14T09:27:18Z</time>
      </trkpt>
      <trkpt lat="43.14178" lon="1.06114">
        <ele>340.4</ele>
        <time>2025-12-14T09:27:20Z</time>
      </trkpt>
      <trkpt lat="43.1418" lon="1.06111">
        <ele>340.8</ele>
        <time>2025-12-14T09:27:21Z</time>
      </trkpt>
      <trkpt lat="43.14181" lon="1.06109">
        <ele>341.6</ele>
        <time>2025-12-14T09:27:22Z</time>
      </trkpt>
      <trkpt lat="43.14182" lon="1.06107">
        <ele>342</ele>
        <time>2025-12-14T09:27:23Z</time>
      </trkpt>
      <trkpt lat="43.14187" lon="1.061">
        <ele>342</ele>
        <time>2025-12-14T09:27:26Z</time>
      </trkpt>
      <trkpt lat="43.14192" lon="1.06093">
        <ele>342.4</ele>
        <time>2025-12-14T09:27:29Z</time>
      </trkpt>
      <trkpt lat="43.14194" lon="1.06091">
        <ele>342.8</ele>
        <time>2025-12-14T09:27:30Z</time>
      </trkpt>
      <trkpt lat="43.14195" lon="1.06088">
        <ele>343.2</ele>
        <time>2025-12-14T09:27:31Z</time>
      </trkpt>
      <trkpt lat="43.14196" lon="1.06085">
        <ele>343.6</ele>
        <time>2025-12-14T09:27:32Z</time>
      </trkpt>
      <trkpt lat="43.14198" lon="1.06083">
        <ele>344</ele>
        <time>2025-12-14T09:27:33Z</time>
      </trkpt>
      <trkpt lat="43.14209" lon="1.06069">
        <ele>344.4</ele>
        <time>2025-12-14T09:27:39Z</time>
      </trkpt>
      <trkpt lat="43.14211" lon="1.06066">
        <ele>344.8</ele>
        <time>2025-12-14T09:27:40Z</time>
      </trkpt>
      <trkpt lat="43.14212" lon="1.06064">
        <ele>345.2</ele>
        <time>2025-12-14T09:27:41Z</time>
      </trkpt>
      <trkpt lat="43.14214" lon="1.06062">
        <ele>345.6</ele>
        <time>2025-12-14T09:27:42Z</time>
      </trkpt>
      <trkpt lat="43.14216" lon="1.0606">
        <ele>346</ele>
        <time>2025-12-14T09:27:43Z</time>
      </trkpt>
      <trkpt lat="43.1422" lon="1.06056">
        <ele>346</ele>
        <time>2025-12-14T09:27:45Z</time>
      </trkpt>
      <trkpt lat="43.14228" lon="1.06044">
        <ele>346.6</ele>
        <time>2025-12-14T09:27:50Z</time>
      </trkpt>
      <trkpt lat="43.1423" lon="1.06041">
        <ele>347</ele>
        <time>2025-12-14T09:27:51Z</time>
      </trkpt>
      <trkpt lat="43.14232" lon="1.06039">
        <ele>347.4</ele>
        <time>2025-12-14T09:27:52Z</time>
      </trkpt>
      <trkpt lat="43.14234" lon="1.06037">
        <ele>347.8</ele>
        <time>2025-12-14T09:27:53Z</time>
      </trkpt>
      <trkpt lat="43.14236" lon="1.06035">
        <ele>348.2</ele>
        <time>2025-12-14T09:27:54Z</time>
      </trkpt>
      <trkpt lat="43.14247" lon="1.06024">
        <ele>348.6</ele>
        <time>2025-12-14T09:28:00Z</time>
      </trkpt>
      <trkpt lat="43.14249" lon="1.06023">
        <ele>349</ele>
        <time>2025-12-14T09:28:01Z</time>
      </trkpt>
      <trkpt lat="43.14252" lon="1.06022">
        <ele>349.4</ele>
        <time>2025-12-14T09:28:02Z</time>
      </trkpt>
      <trkpt lat="43.14254" lon="1.06021">
        <ele>350</ele>
        <time>2025-12-14T09:28:03Z</time>
      </trkpt>
      <trkpt lat="43.14256" lon="1.0602">
        <ele>350.4</ele>
        <time>2025-12-14T09:28:04Z</time>
      </trkpt>
      <trkpt lat="43.14269" lon="1.06016">
        <ele>350.4</ele>
        <time>2025-12-14T09:28:10Z</time>
      </trkpt>
      <trkpt lat="43.14271" lon="1.06016">
        <ele>350.8</ele>
        <time>2025-12-14T09:28:11Z</time>
      </trkpt>
      <trkpt lat="43.14274" lon="1.06016">
        <ele>351.2</ele>
        <time>2025-12-14T09:28:12Z</time>
      </trkpt>
      <trkpt lat="43.14276" lon="1.06016">
        <ele>351.6</ele>
        <time>2025-12-14T09:28:13Z</time>
      </trkpt>
      <trkpt lat="43.14279" lon="1.06015">
        <ele>352.2</ele>
        <time>2025-12-14T09:28:14Z</time>
      </trkpt>
      <trkpt lat="43.14281" lon="1.06016">
        <ele>352.6</ele>
        <time>2025-12-14T09:28:15Z</time>
      </trkpt>
      <trkpt lat="43.14286" lon="1.06017">
        <ele>352.6</ele>
        <time>2025-12-14T09:28:17Z</time>
      </trkpt>
      <trkpt lat="43.14297" lon="1.06018">
        <ele>353</ele>
        <time>2025-12-14T09:28:22Z</time>
      </trkpt>
      <trkpt lat="43.143" lon="1.06018">
        <ele>353.4</ele>
        <time>2025-12-14T09:28:23Z</time>
      </trkpt>
      <trkpt lat="43.14302" lon="1.06018">
        <ele>353.8</ele>
        <time>2025-12-14T09:28:24Z</time>
      </trkpt>
      <trkpt lat="43.14304" lon="1.06019">
        <ele>354.2</ele>
        <time>2025-12-14T09:28:25Z</time>
      </trkpt>
      <trkpt lat="43.14306" lon="1.06019">
        <ele>354.6</ele>
        <time>2025-12-14T09:28:26Z</time>
      </trkpt>
      <trkpt lat="43.1432" lon="1.0602">
        <ele>355</ele>
        <time>2025-12-14T09:28:32Z</time>
      </trkpt>
      <trkpt lat="43.14322" lon="1.06021">
        <ele>355.6</ele>
        <time>2025-12-14T09:28:33Z</time>
      </trkpt>
      <trkpt lat="43.14324" lon="1.06021">
        <ele>356</ele>
        <time>2025-12-14T09:28:34Z</time>
      </trkpt>
      <trkpt lat="43.14326" lon="1.0602">
        <ele>356.4</ele>
        <time>2025-12-14T09:28:35Z</time>
      </trkpt>
      <trkpt lat="43.14329" lon="1.0602">
        <ele>356.8</ele>
        <time>2025-12-14T09:28:36Z</time>
      </trkpt>
      <trkpt lat="43.14336" lon="1.0602">
        <ele>356.8</ele>
        <time>2025-12-14T09:28:39Z</time>
      </trkpt>
      <trkpt lat="43.14345" lon="1.06015">
        <ele>357.2</ele>
        <time>2025-12-14T09:28:43Z</time>
      </trkpt>
      <trkpt lat="43.14347" lon="1.06014">
        <ele>357.6</ele>
        <time>2025-12-14T09:28:44Z</time>
      </trkpt>
      <trkpt lat="43.14349" lon="1.06012">
        <ele>358</ele>
        <time>2025-12-14T09:28:45Z</time>
      </trkpt>
      <trkpt lat="43.14351" lon="1.0601">
        <ele>358.4</ele>
        <time>2025-12-14T09:28:46Z</time>
      </trkpt>
      <trkpt lat="43.14353" lon="1.06008">
        <ele>358.8</ele>
        <time>2025-12-14T09:28:47Z</time>
      </trkpt>
      <trkpt lat="43.14362" lon="1.05994">
        <ele>359.2</ele>
        <time>2025-12-14T09:28:53Z</time>
      </trkpt>
      <trkpt lat="43.14363" lon="1.05991">
        <ele>359.6</ele>
        <time>2025-12-14T09:28:54Z</time>
      </trkpt>
      <trkpt lat="43.14364" lon="1.05988">
        <ele>360.2</ele>
        <time>2025-12-14T09:28:55Z</time>
      </trkpt>
      <trkpt lat="43.14365" lon="1.05986">
        <ele>360.6</ele>
        <time>2025-12-14T09:28:56Z</time>
      </trkpt>
      <trkpt lat="43.14366" lon="1.05983">
        <ele>361</ele>
        <time>2025-12-14T09:28:57Z</time>
      </trkpt>
      <trkpt lat="43.14367" lon="1.05977">
        <ele>361</ele>
        <time>2025-12-14T09:28:59Z</time>
      </trkpt>
      <trkpt lat="43.14371" lon="1.05966">
        <ele>361.4</ele>
        <time>2025-12-14T09:29:03Z</time>
      </trkpt>
      <trkpt lat="43.14371" lon="1.05963">
        <ele>361.8</ele>
        <time>2025-12-14T09:29:04Z</time>
      </trkpt>
      <trkpt lat="43.14372" lon="1.0596">
        <ele>362.2</ele>
        <time>2025-12-14T09:29:05Z</time>
      </trkpt>
      <trkpt lat="43.14373" lon="1.05958">
        <ele>362.6</ele>
        <time>2025-12-14T09:29:06Z</time>
      </trkpt>
      <trkpt lat="43.14374" lon="1.05955">
        <ele>363</ele>
        <time>2025-12-14T09:29:07Z</time>
      </trkpt>
      <trkpt lat="43.14375" lon="1.05952">
        <ele>363</ele>
        <time>2025-12-14T09:29:08Z</time>
      </trkpt>
      <trkpt lat="43.14381" lon="1.05934">
        <ele>363.4</ele>
        <time>2025-12-14T09:29:15Z</time>
      </trkpt>
      <trkpt lat="43.14382" lon="1.05931">
        <ele>363.8</ele>
        <time>2025-12-14T09:29:16Z</time>
      </trkpt>
      <trkpt lat="43.14383" lon="1.05929">
        <ele>364.2</ele>
        <time>2025-12-14T09:29:17Z</time>
      </trkpt>
      <trkpt lat="43.14384" lon="1.05927">
        <ele>364.6</ele>
        <time>2025-12-14T09:29:18Z</time>
      </trkpt>
      <trkpt lat="43.14385" lon="1.05924">
        <ele>365</ele>
        <time>2025-12-14T09:29:19Z</time>
      </trkpt>
      <trkpt lat="43.14389" lon="1.05913">
        <ele>365</ele>
        <time>2025-12-14T09:29:23Z</time>
      </trkpt>
      <trkpt lat="43.14392" lon="1.05908">
        <ele>365.8</ele>
        <time>2025-12-14T09:29:25Z</time>
      </trkpt>
      <trkpt lat="43.14393" lon="1.05906">
        <ele>366.2</ele>
        <time>2025-12-14T09:29:26Z</time>
      </trkpt>
      <trkpt lat="43.14394" lon="1.05904">
        <ele>366.6</ele>
        <time>2025-12-14T09:29:27Z</time>
      </trkpt>
      <trkpt lat="43.14396" lon="1.05901">
        <ele>367</ele>
        <time>2025-12-14T09:29:28Z</time>
      </trkpt>
      <trkpt lat="43.14398" lon="1.05897">
        <ele>367</ele>
        <time>2025-12-14T09:29:30Z</time>
      </trkpt>
      <trkpt lat="43.14406" lon="1.05883">
        <ele>367.6</ele>
        <time>2025-12-14T09:29:36Z</time>
      </trkpt>
      <trkpt lat="43.14407" lon="1.05881">
        <ele>368</ele>
        <time>2025-12-14T09:29:37Z</time>
      </trkpt>
      <trkpt lat="43.14409" lon="1.05879">
        <ele>368.4</ele>
        <time>2025-12-14T09:29:38Z</time>
      </trkpt>
      <trkpt lat="43.1441" lon="1.05877">
        <ele>368.8</ele>
        <time>2025-12-14T09:29:39Z</time>
      </trkpt>
      <trkpt lat="43.14411" lon="1.05875">
        <ele>369.2</ele>
        <time>2025-12-14T09:29:40Z</time>
      </trkpt>
      <trkpt lat="43.14418" lon="1.05865">
        <ele>369.2</ele>
        <time>2025-12-14T09:29:45Z</time>
      </trkpt>
      <trkpt lat="43.14421" lon="1.05861">
        <ele>369.6</ele>
        <time>2025-12-14T09:29:47Z</time>
      </trkpt>
      <trkpt lat="43.14422" lon="1.05858">
        <ele>370</ele>
        <time>2025-12-14T09:29:48Z</time>
      </trkpt>
      <trkpt lat="43.14423" lon="1.05856">
        <ele>370.4</ele>
        <time>2025-12-14T09:29:49Z</time>
      </trkpt>
      <trkpt lat="43.14423" lon="1.05854">
        <ele>371.2</ele>
        <time>2025-12-14T09:29:50Z</time>
      </trkpt>
      <trkpt lat="43.14427" lon="1.05844">
        <ele>371.2</ele>
        <time>2025-12-14T09:29:54Z</time>
      </trkpt>
      <trkpt lat="43.1443" lon="1.05838">
        <ele>371.6</ele>
        <time>2025-12-14T09:29:57Z</time>
      </trkpt>
      <trkpt lat="43.14431" lon="1.05835">
        <ele>372</ele>
        <time>2025-12-14T09:29:58Z</time>
      </trkpt>
      <trkpt lat="43.14432" lon="1.05833">
        <ele>372.4</ele>
        <time>2025-12-14T09:29:59Z</time>
      </trkpt>
      <trkpt lat="43.14432" lon="1.05831">
        <ele>372.8</ele>
        <time>2025-12-14T09:30:00Z</time>
      </trkpt>
      <trkpt lat="43.14433" lon="1.05829">
        <ele>373.2</ele>
        <time>2025-12-14T09:30:01Z</time>
      </trkpt>
      <trkpt lat="43.14434" lon="1.05827">
        <ele>373.2</ele>
        <time>2025-12-14T09:30:02Z</time>
      </trkpt>
      <trkpt lat="43.1444" lon="1.05815">
        <ele>373.6</ele>
        <time>2025-12-14T09:30:08Z</time>
      </trkpt>
      <trkpt lat="43.1444" lon="1.05813">
        <ele>374</ele>
        <time>2025-12-14T09:30:09Z</time>
      </trkpt>
      <trkpt lat="43.14441" lon="1.05812">
        <ele>374.4</ele>
        <time>2025-12-14T09:30:10Z</time>
      </trkpt>
      <trkpt lat="43.14441" lon="1.0581">
        <ele>374.8</ele>
        <time>2025-12-14T09:30:11Z</time>
      </trkpt>
      <trkpt lat="43.14442" lon="1.05808">
        <ele>375.2</ele>
        <time>2025-12-14T09:30:12Z</time>
      </trkpt>
      <trkpt lat="43.14442" lon="1.05806">
        <ele>375.2</ele>
        <time>2025-12-14T09:30:13Z</time>
      </trkpt>
      <trkpt lat="43.14445" lon="1.05801">
        <ele>375.2</ele>
        <time>2025-12-14T09:30:15Z</time>
      </trkpt>
      <trkpt lat="43.14449" lon="1.0579">
        <ele>375.6</ele>
        <time>2025-12-14T09:30:18Z</time>
      </trkpt>
      <trkpt lat="43.14451" lon="1.05787">
        <ele>376.2</ele>
        <time>2025-12-14T09:30:19Z</time>
      </trkpt>
      <trkpt lat="43.14452" lon="1.05784">
        <ele>376.6</ele>
        <time>2025-12-14T09:30:20Z</time>
      </trkpt>
      <trkpt lat="43.14453" lon="1.05781">
        <ele>377</ele>
        <time>2025-12-14T09:30:21Z</time>
      </trkpt>
      <trkpt lat="43.14454" lon="1.05777">
        <ele>377.4</ele>
        <time>2025-12-14T09:30:22Z</time>
      </trkpt>
      <trkpt lat="43.1446" lon="1.05759">
        <ele>377.4</ele>
        <time>2025-12-14T09:30:28Z</time>
      </trkpt>
      <trkpt lat="43.14463" lon="1.0575">
        <ele>377.8</ele>
        <time>2025-12-14T09:30:31Z</time>
      </trkpt>
      <trkpt lat="43.14464" lon="1.05746">
        <ele>378.2</ele>
        <time>2025-12-14T09:30:32Z</time>
      </trkpt>
      <trkpt lat="43.14465" lon="1.05743">
        <ele>378.6</ele>
        <time>2025-12-14T09:30:33Z</time>
      </trkpt>
      <trkpt lat="43.14466" lon="1.0574">
        <ele>379</ele>
        <time>2025-12-14T09:30:34Z</time>
      </trkpt>
      <trkpt lat="43.14467" lon="1.05737">
        <ele>379.4</ele>
        <time>2025-12-14T09:30:35Z</time>
      </trkpt>
      <trkpt lat="43.14471" lon="1.0572">
        <ele>379.8</ele>
        <time>2025-12-14T09:30:41Z</time>
      </trkpt>
      <trkpt lat="43.14472" lon="1.05717">
        <ele>380.2</ele>
        <time>2025-12-14T09:30:42Z</time>
      </trkpt>
      <trkpt lat="43.14474" lon="1.05715">
        <ele>380.8</ele>
        <time>2025-12-14T09:30:43Z</time>
      </trkpt>
      <trkpt lat="43.14475" lon="1.05712">
        <ele>381.2</ele>
        <time>2025-12-14T09:30:44Z</time>
      </trkpt>
      <trkpt lat="43.14475" lon="1.05709">
        <ele>381.6</ele>
        <time>2025-12-14T09:30:45Z</time>
      </trkpt>
      <trkpt lat="43.14478" lon="1.05701">
        <ele>381.6</ele>
        <time>2025-12-14T09:30:48Z</time>
      </trkpt>
      <trkpt lat="43.14481" lon="1.05692">
        <ele>382</ele>
        <time>2025-12-14T09:30:51Z</time>
      </trkpt>
      <trkpt lat="43.14483" lon="1.0569">
        <ele>382.4</ele>
        <time>2025-12-14T09:30:52Z</time>
      </trkpt>
      <trkpt lat="43.14484" lon="1.05687">
        <ele>382.8</ele>
        <time>2025-12-14T09:30:53Z</time>
      </trkpt>
      <trkpt lat="43.14485" lon="1.05684">
        <ele>383.2</ele>
        <time>2025-12-14T09:30:54Z</time>
      </trkpt>
      <trkpt lat="43.14487" lon="1.05681">
        <ele>383.6</ele>
        <time>2025-12-14T09:30:55Z</time>
      </trkpt>
      <trkpt lat="43.14489" lon="1.05676">
        <ele>383.6</ele>
        <time>2025-12-14T09:30:57Z</time>
      </trkpt>
      <trkpt lat="43.14496" lon="1.05664">
        <ele>384</ele>
        <time>2025-12-14T09:31:02Z</time>
      </trkpt>
      <trkpt lat="43.14497" lon="1.05662">
        <ele>384.6</ele>
        <time>2025-12-14T09:31:03Z</time>
      </trkpt>
      <trkpt lat="43.14498" lon="1.0566">
        <ele>385.4</ele>
        <time>2025-12-14T09:31:04Z</time>
      </trkpt>
      <trkpt lat="43.145" lon="1.05657">
        <ele>385.8</ele>
        <time>2025-12-14T09:31:05Z</time>
      </trkpt>
      <trkpt lat="43.14508" lon="1.05643">
        <ele>385.8</ele>
        <time>2025-12-14T09:31:11Z</time>
      </trkpt>
      <trkpt lat="43.14514" lon="1.05629">
        <ele>385.8</ele>
        <time>2025-12-14T09:31:17Z</time>
      </trkpt>
      <trkpt lat="43.14515" lon="1.05627">
        <ele>386.2</ele>
        <time>2025-12-14T09:31:18Z</time>
      </trkpt>
      <trkpt lat="43.14516" lon="1.05624">
        <ele>386.8</ele>
        <time>2025-12-14T09:31:19Z</time>
      </trkpt>
      <trkpt lat="43.14517" lon="1.05622">
        <ele>387.2</ele>
        <time>2025-12-14T09:31:20Z</time>
      </trkpt>
      <trkpt lat="43.14518" lon="1.05619">
        <ele>387.6</ele>
        <time>2025-12-14T09:31:21Z</time>
      </trkpt>
      <trkpt lat="43.14518" lon="1.05616">
        <ele>388</ele>
        <time>2025-12-14T09:31:22Z</time>
      </trkpt>
      <trkpt lat="43.14519" lon="1.05614">
        <ele>388</ele>
        <time>2025-12-14T09:31:23Z</time>
      </trkpt>
      <trkpt lat="43.1452" lon="1.05603">
        <ele>388.4</ele>
        <time>2025-12-14T09:31:27Z</time>
      </trkpt>
      <trkpt lat="43.1452" lon="1.056">
        <ele>388.8</ele>
        <time>2025-12-14T09:31:28Z</time>
      </trkpt>
      <trkpt lat="43.1452" lon="1.05598">
        <ele>389.8</ele>
        <time>2025-12-14T09:31:29Z</time>
      </trkpt>
      <trkpt lat="43.14521" lon="1.05595">
        <ele>390.2</ele>
        <time>2025-12-14T09:31:30Z</time>
      </trkpt>
      <trkpt lat="43.14521" lon="1.05581">
        <ele>390.2</ele>
        <time>2025-12-14T09:31:35Z</time>
      </trkpt>
      <trkpt lat="43.14523" lon="1.05573">
        <ele>390.6</ele>
        <time>2025-12-14T09:31:38Z</time>
      </trkpt>
      <trkpt lat="43.14524" lon="1.05571">
        <ele>391</ele>
        <time>2025-12-14T09:31:39Z</time>
      </trkpt>
      <trkpt lat="43.14524" lon="1.05568">
        <ele>391.4</ele>
        <time>2025-12-14T09:31:40Z</time>
      </trkpt>
      <trkpt lat="43.14524" lon="1.05565">
        <ele>391.8</ele>
        <time>2025-12-14T09:31:41Z</time>
      </trkpt>
      <trkpt lat="43.14524" lon="1.05561">
        <ele>392.2</ele>
        <time>2025-12-14T09:31:42Z</time>
      </trkpt>
      <trkpt lat="43.14524" lon="1.0555">
        <ele>392.2</ele>
        <time>2025-12-14T09:31:46Z</time>
      </trkpt>
      <trkpt lat="43.14525" lon="1.05547">
        <ele>392.2</ele>
        <time>2025-12-14T09:31:47Z</time>
      </trkpt>
      <trkpt lat="43.14525" lon="1.05544">
        <ele>392.6</ele>
        <time>2025-12-14T09:31:48Z</time>
      </trkpt>
      <trkpt lat="43.14526" lon="1.05541">
        <ele>393</ele>
        <time>2025-12-14T09:31:49Z</time>
      </trkpt>
      <trkpt lat="43.14527" lon="1.05537">
        <ele>393.6</ele>
        <time>2025-12-14T09:31:50Z</time>
      </trkpt>
      <trkpt lat="43.14528" lon="1.05534">
        <ele>394</ele>
        <time>2025-12-14T09:31:51Z</time>
      </trkpt>
      <trkpt lat="43.14529" lon="1.05531">
        <ele>394.4</ele>
        <time>2025-12-14T09:31:52Z</time>
      </trkpt>
      <trkpt lat="43.1453" lon="1.05528">
        <ele>394.8</ele>
        <time>2025-12-14T09:31:53Z</time>
      </trkpt>
      <trkpt lat="43.14531" lon="1.05524">
        <ele>395.8</ele>
        <time>2025-12-14T09:31:54Z</time>
      </trkpt>
      <trkpt lat="43.14531" lon="1.05521">
        <ele>396.2</ele>
        <time>2025-12-14T09:31:55Z</time>
      </trkpt>
      <trkpt lat="43.14532" lon="1.05518">
        <ele>396.8</ele>
        <time>2025-12-14T09:31:56Z</time>
      </trkpt>
      <trkpt lat="43.14535" lon="1.05513">
        <ele>397.2</ele>
        <time>2025-12-14T09:31:58Z</time>
      </trkpt>
      <trkpt lat="43.14536" lon="1.05511">
        <ele>397.6</ele>
        <time>2025-12-14T09:31:59Z</time>
      </trkpt>
      <trkpt lat="43.14537" lon="1.05509">
        <ele>398</ele>
        <time>2025-12-14T09:32:00Z</time>
      </trkpt>
      <trkpt lat="43.14537" lon="1.05506">
        <ele>398.6</ele>
        <time>2025-12-14T09:32:01Z</time>
      </trkpt>
      <trkpt lat="43.14538" lon="1.05504">
        <ele>399</ele>
        <time>2025-12-14T09:32:02Z</time>
      </trkpt>
      <trkpt lat="43.14539" lon="1.05501">
        <ele>399.4</ele>
        <time>2025-12-14T09:32:03Z</time>
      </trkpt>
      <trkpt lat="43.1454" lon="1.05498">
        <ele>399.8</ele>
        <time>2025-12-14T09:32:04Z</time>
      </trkpt>
      <trkpt lat="43.1454" lon="1.05495">
        <ele>400.4</ele>
        <time>2025-12-14T09:32:05Z</time>
      </trkpt>
      <trkpt lat="43.1454" lon="1.05492">
        <ele>400.8</ele>
        <time>2025-12-14T09:32:06Z</time>
      </trkpt>
      <trkpt lat="43.14541" lon="1.05489">
        <ele>401.2</ele>
        <time>2025-12-14T09:32:07Z</time>
      </trkpt>
      <trkpt lat="43.14542" lon="1.05486">
        <ele>401.6</ele>
        <time>2025-12-14T09:32:08Z</time>
      </trkpt>
      <trkpt lat="43.14543" lon="1.05483">
        <ele>402</ele>
        <time>2025-12-14T09:32:09Z</time>
      </trkpt>
      <trkpt lat="43.14544" lon="1.0548">
        <ele>402.4</ele>
        <time>2025-12-14T09:32:10Z</time>
      </trkpt>
      <trkpt lat="43.14545" lon="1.05477">
        <ele>402.8</ele>
        <time>2025-12-14T09:32:11Z</time>
      </trkpt>
      <trkpt lat="43.14546" lon="1.05474">
        <ele>403.2</ele>
        <time>2025-12-14T09:32:12Z</time>
      </trkpt>
      <trkpt lat="43.14546" lon="1.05471">
        <ele>403.6</ele>
        <time>2025-12-14T09:32:13Z</time>
      </trkpt>
      <trkpt lat="43.14546" lon="1.05468">
        <ele>404.2</ele>
        <time>2025-12-14T09:32:14Z</time>
      </trkpt>
      <trkpt lat="43.14547" lon="1.05465">
        <ele>404.6</ele>
        <time>2025-12-14T09:32:15Z</time>
      </trkpt>
      <trkpt lat="43.14547" lon="1.05462">
        <ele>405</ele>
        <time>2025-12-14T09:32:16Z</time>
      </trkpt>
      <trkpt lat="43.14547" lon="1.05459">
        <ele>405.4</ele>
        <time>2025-12-14T09:32:17Z</time>
      </trkpt>
      <trkpt lat="43.14549" lon="1.05453">
        <ele>406.2</ele>
        <time>2025-12-14T09:32:19Z</time>
      </trkpt>
      <trkpt lat="43.1455" lon="1.05451">
        <ele>406.6</ele>
        <time>2025-12-14T09:32:20Z</time>
      </trkpt>
      <trkpt lat="43.1455" lon="1.05448">
        <ele>407</ele>
        <time>2025-12-14T09:32:21Z</time>
      </trkpt>
      <trkpt lat="43.14551" lon="1.05445">
        <ele>407.4</ele>
        <time>2025-12-14T09:32:22Z</time>
      </trkpt>
      <trkpt lat="43.14551" lon="1.05443">
        <ele>407.8</ele>
        <time>2025-12-14T09:32:23Z</time>
      </trkpt>
      <trkpt lat="43.14552" lon="1.0544">
        <ele>408.4</ele>
        <time>2025-12-14T09:32:24Z</time>
      </trkpt>
      <trkpt lat="43.14552" lon="1.05438">
        <ele>408.8</ele>
        <time>2025-12-14T09:32:25Z</time>
      </trkpt>
      <trkpt lat="43.14553" lon="1.05436">
        <ele>409.2</ele>
        <time>2025-12-14T09:32:26Z</time>
      </trkpt>
      <trkpt lat="43.14554" lon="1.05433">
        <ele>409.6</ele>
        <time>2025-12-14T09:32:27Z</time>
      </trkpt>
      <trkpt lat="43.14555" lon="1.0543">
        <ele>409.6</ele>
        <time>2025-12-14T09:32:28Z</time>
      </trkpt>
      <trkpt lat="43.14555" lon="1.05427">
        <ele>410</ele>
        <time>2025-12-14T09:32:29Z</time>
      </trkpt>
      <trkpt lat="43.14556" lon="1.05425">
        <ele>410.6</ele>
        <time>2025-12-14T09:32:30Z</time>
      </trkpt>
      <trkpt lat="43.14556" lon="1.05422">
        <ele>411</ele>
        <time>2025-12-14T09:32:31Z</time>
      </trkpt>
      <trkpt lat="43.14556" lon="1.05419">
        <ele>411.4</ele>
        <time>2025-12-14T09:32:32Z</time>
      </trkpt>
      <trkpt lat="43.14557" lon="1.05417">
        <ele>411.8</ele>
        <time>2025-12-14T09:32:33Z</time>
      </trkpt>
      <trkpt lat="43.14557" lon="1.05414">
        <ele>412.2</ele>
        <time>2025-12-14T09:32:34Z</time>
      </trkpt>
      <trkpt lat="43.14558" lon="1.05412">
        <ele>412.6</ele>
        <time>2025-12-14T09:32:35Z</time>
      </trkpt>
      <trkpt lat="43.14559" lon="1.05409">
        <ele>413.2</ele>
        <time>2025-12-14T09:32:36Z</time>
      </trkpt>
      <trkpt lat="43.1456" lon="1.05406">
        <ele>413.6</ele>
        <time>2025-12-14T09:32:37Z</time>
      </trkpt>
      <trkpt lat="43.14561" lon="1.05403">
        <ele>414</ele>
        <time>2025-12-14T09:32:38Z</time>
      </trkpt>
      <trkpt lat="43.14561" lon="1.054">
        <ele>414.4</ele>
        <time>2025-12-14T09:32:39Z</time>
      </trkpt>
      <trkpt lat="43.14562" lon="1.05397">
        <ele>414.8</ele>
        <time>2025-12-14T09:32:40Z</time>
      </trkpt>
      <trkpt lat="43.14563" lon="1.05394">
        <ele>415.2</ele>
        <time>2025-12-14T09:32:41Z</time>
      </trkpt>
      <trkpt lat="43.14563" lon="1.05391">
        <ele>415.6</ele>
        <time>2025-12-14T09:32:42Z</time>
      </trkpt>
      <trkpt lat="43.14564" lon="1.05388">
        <ele>416</ele>
        <time>2025-12-14T09:32:43Z</time>
      </trkpt>
      <trkpt lat="43.14565" lon="1.05383">
        <ele>416.4</ele>
        <time>2025-12-14T09:32:45Z</time>
      </trkpt>
      <trkpt lat="43.14565" lon="1.05381">
        <ele>416.8</ele>
        <time>2025-12-14T09:32:46Z</time>
      </trkpt>
      <trkpt lat="43.14566" lon="1.05378">
        <ele>417.4</ele>
        <time>2025-12-14T09:32:47Z</time>
      </trkpt>
      <trkpt lat="43.14567" lon="1.05376">
        <ele>417.8</ele>
        <time>2025-12-14T09:32:48Z</time>
      </trkpt>
      <trkpt lat="43.14567" lon="1.05374">
        <ele>418.2</ele>
        <time>2025-12-14T09:32:49Z</time>
      </trkpt>
      <trkpt lat="43.14569" lon="1.05366">
        <ele>418.6</ele>
        <time>2025-12-14T09:32:52Z</time>
      </trkpt>
      <trkpt lat="43.1457" lon="1.05364">
        <ele>419</ele>
        <time>2025-12-14T09:32:53Z</time>
      </trkpt>
      <trkpt lat="43.14571" lon="1.05362">
        <ele>419.6</ele>
        <time>2025-12-14T09:32:54Z</time>
      </trkpt>
      <trkpt lat="43.14572" lon="1.05359">
        <ele>420</ele>
        <time>2025-12-14T09:32:55Z</time>
      </trkpt>
      <trkpt lat="43.14573" lon="1.05358">
        <ele>420.4</ele>
        <time>2025-12-14T09:32:56Z</time>
      </trkpt>
      <trkpt lat="43.14576" lon="1.05357">
        <ele>420.8</ele>
        <time>2025-12-14T09:32:59Z</time>
      </trkpt>
      <trkpt lat="43.14577" lon="1.05357">
        <ele>421.2</ele>
        <time>2025-12-14T09:33:00Z</time>
      </trkpt>
      <trkpt lat="43.14578" lon="1.05358">
        <ele>421.6</ele>
        <time>2025-12-14T09:33:01Z</time>
      </trkpt>
      <trkpt lat="43.14579" lon="1.05359">
        <ele>422.2</ele>
        <time>2025-12-14T09:33:02Z</time>
      </trkpt>
      <trkpt lat="43.14581" lon="1.0536">
        <ele>422.6</ele>
        <time>2025-12-14T09:33:03Z</time>
      </trkpt>
      <trkpt lat="43.14583" lon="1.05361">
        <ele>423</ele>
        <time>2025-12-14T09:33:04Z</time>
      </trkpt>
      <trkpt lat="43.14585" lon="1.05361">
        <ele>423.6</ele>
        <time>2025-12-14T09:33:05Z</time>
      </trkpt>
      <trkpt lat="43.14589" lon="1.0536">
        <ele>424</ele>
        <time>2025-12-14T09:33:06Z</time>
      </trkpt>
      <trkpt lat="43.14591" lon="1.05359">
        <ele>424.4</ele>
        <time>2025-12-14T09:33:07Z</time>
      </trkpt>
      <trkpt lat="43.14594" lon="1.05358">
        <ele>425</ele>
        <time>2025-12-14T09:33:08Z</time>
      </trkpt>
      <trkpt lat="43.14596" lon="1.05357">
        <ele>425.4</ele>
        <time>2025-12-14T09:33:09Z</time>
      </trkpt>
      <trkpt lat="43.14598" lon="1.05355">
        <ele>425.8</ele>
        <time>2025-12-14T09:33:10Z</time>
      </trkpt>
      <trkpt lat="43.146" lon="1.05353">
        <ele>426.2</ele>
        <time>2025-12-14T09:33:11Z</time>
      </trkpt>
      <trkpt lat="43.14601" lon="1.05351">
        <ele>426.8</ele>
        <time>2025-12-14T09:33:12Z</time>
      </trkpt>
      <trkpt lat="43.14602" lon="1.05349">
        <ele>427.2</ele>
        <time>2025-12-14T09:33:13Z</time>
      </trkpt>
      <trkpt lat="43.14606" lon="1.05341">
        <ele>427.6</ele>
        <time>2025-12-14T09:33:17Z</time>
      </trkpt>
      <trkpt lat="43.14608" lon="1.05339">
        <ele>428</ele>
        <time>2025-12-14T09:33:18Z</time>
      </trkpt>
      <trkpt lat="43.14609" lon="1.05337">
        <ele>428.4</ele>
        <time>2025-12-14T09:33:19Z</time>
      </trkpt>
      <trkpt lat="43.1461" lon="1.05335">
        <ele>429</ele>
        <time>2025-12-14T09:33:20Z</time>
      </trkpt>
      <trkpt lat="43.14612" lon="1.05332">
        <ele>429.4</ele>
        <time>2025-12-14T09:33:21Z</time>
      </trkpt>
      <trkpt lat="43.14616" lon="1.05323">
        <ele>429.8</ele>
        <time>2025-12-14T09:33:26Z</time>
      </trkpt>
      <trkpt lat="43.14616" lon="1.05322">
        <ele>430.2</ele>
        <time>2025-12-14T09:33:27Z</time>
      </trkpt>
      <trkpt lat="43.14617" lon="1.0532">
        <ele>430.6</ele>
        <time>2025-12-14T09:33:28Z</time>
      </trkpt>
      <trkpt lat="43.14618" lon="1.0532">
        <ele>431</ele>
        <time>2025-12-14T09:33:29Z</time>
      </trkpt>
      <trkpt lat="43.14619" lon="1.05319">
        <ele>431.4</ele>
        <time>2025-12-14T09:33:30Z</time>
      </trkpt>
      <trkpt lat="43.14619" lon="1.05319">
        <ele>431.4</ele>
        <time>2025-12-14T09:33:31Z</time>
      </trkpt>
      <trkpt lat="43.14625" lon="1.05314">
        <ele>431.4</ele>
        <time>2025-12-14T09:34:21Z</time>
      </trkpt>
      <trkpt lat="43.1463" lon="1.05309">
        <ele>431.4</ele>
        <time>2025-12-14T09:34:24Z</time>
      </trkpt>
      <trkpt lat="43.14633" lon="1.05304">
        <ele>431.4</ele>
        <time>2025-12-14T09:34:26Z</time>
      </trkpt>
      <trkpt lat="43.14634" lon="1.05299">
        <ele>431.8</ele>
        <time>2025-12-14T09:34:28Z</time>
      </trkpt>
      <trkpt lat="43.14635" lon="1.05297">
        <ele>432.4</ele>
        <time>2025-12-14T09:34:29Z</time>
      </trkpt>
      <trkpt lat="43.14635" lon="1.05295">
        <ele>432.8</ele>
        <time>2025-12-14T09:34:30Z</time>
      </trkpt>
      <trkpt lat="43.14637" lon="1.05292">
        <ele>433.2</ele>
        <time>2025-12-14T09:34:31Z</time>
      </trkpt>
      <trkpt lat="43.14638" lon="1.0529">
        <ele>433.6</ele>
        <time>2025-12-14T09:34:32Z</time>
      </trkpt>
      <trkpt lat="43.14644" lon="1.05276">
        <ele>433.6</ele>
        <time>2025-12-14T09:34:37Z</time>
      </trkpt>
      <trkpt lat="43.14646" lon="1.0527">
        <ele>434</ele>
        <time>2025-12-14T09:34:39Z</time>
      </trkpt>
      <trkpt lat="43.14647" lon="1.05267">
        <ele>434.4</ele>
        <time>2025-12-14T09:34:40Z</time>
      </trkpt>
      <trkpt lat="43.14648" lon="1.05264">
        <ele>434.8</ele>
        <time>2025-12-14T09:34:41Z</time>
      </trkpt>
      <trkpt lat="43.1465" lon="1.05262">
        <ele>435.2</ele>
        <time>2025-12-14T09:34:42Z</time>
      </trkpt>
      <trkpt lat="43.14652" lon="1.0526">
        <ele>435.6</ele>
        <time>2025-12-14T09:34:43Z</time>
      </trkpt>
      <trkpt lat="43.14653" lon="1.05258">
        <ele>435.6</ele>
        <time>2025-12-14T09:34:44Z</time>
      </trkpt>
      <trkpt lat="43.14667" lon="1.05238">
        <ele>436</ele>
        <time>2025-12-14T09:34:52Z</time>
      </trkpt>
      <trkpt lat="43.14668" lon="1.05236">
        <ele>436.4</ele>
        <time>2025-12-14T09:34:53Z</time>
      </trkpt>
      <trkpt lat="43.1467" lon="1.05233">
        <ele>437</ele>
        <time>2025-12-14T09:34:54Z</time>
      </trkpt>
      <trkpt lat="43.14671" lon="1.05231">
        <ele>437.4</ele>
        <time>2025-12-14T09:34:55Z</time>
      </trkpt>
      <trkpt lat="43.14673" lon="1.05229">
        <ele>437.8</ele>
        <time>2025-12-14T09:34:56Z</time>
      </trkpt>
      <trkpt lat="43.14676" lon="1.05226">
        <ele>437.8</ele>
        <time>2025-12-14T09:34:58Z</time>
      </trkpt>
      <trkpt lat="43.14685" lon="1.05215">
        <ele>438.2</ele>
        <time>2025-12-14T09:35:04Z</time>
      </trkpt>
      <trkpt lat="43.14686" lon="1.05214">
        <ele>438.6</ele>
        <time>2025-12-14T09:35:05Z</time>
      </trkpt>
      <trkpt lat="43.14688" lon="1.05213">
        <ele>439</ele>
        <time>2025-12-14T09:35:06Z</time>
      </trkpt>
      <trkpt lat="43.14689" lon="1.05211">
        <ele>439.4</ele>
        <time>2025-12-14T09:35:07Z</time>
      </trkpt>
      <trkpt lat="43.1469" lon="1.05209">
        <ele>439.8</ele>
        <time>2025-12-14T09:35:08Z</time>
      </trkpt>
      <trkpt lat="43.14694" lon="1.05203">
        <ele>439.8</ele>
        <time>2025-12-14T09:35:11Z</time>
      </trkpt>
      <trkpt lat="43.14696" lon="1.05201">
        <ele>440.4</ele>
        <time>2025-12-14T09:35:12Z</time>
      </trkpt>
      <trkpt lat="43.14698" lon="1.052">
        <ele>440.8</ele>
        <time>2025-12-14T09:35:13Z</time>
      </trkpt>
      <trkpt lat="43.14699" lon="1.05199">
        <ele>441.2</ele>
        <time>2025-12-14T09:35:14Z</time>
      </trkpt>
      <trkpt lat="43.14701" lon="1.05199">
        <ele>441.6</ele>
        <time>2025-12-14T09:35:15Z</time>
      </trkpt>
      <trkpt lat="43.14702" lon="1.05198">
        <ele>442.2</ele>
        <time>2025-12-14T09:35:16Z</time>
      </trkpt>
      <trkpt lat="43.14704" lon="1.05197">
        <ele>442.2</ele>
        <time>2025-12-14T09:35:17Z</time>
      </trkpt>
      <trkpt lat="43.14707" lon="1.05195">
        <ele>442.6</ele>
        <time>2025-12-14T09:35:19Z</time>
      </trkpt>
      <trkpt lat="43.14709" lon="1.05194">
        <ele>443</ele>
        <time>2025-12-14T09:35:20Z</time>
      </trkpt>
      <trkpt lat="43.1471" lon="1.05193">
        <ele>443.4</ele>
        <time>2025-12-14T09:35:21Z</time>
      </trkpt>
      <trkpt lat="43.14712" lon="1.05191">
        <ele>444</ele>
        <time>2025-12-14T09:35:22Z</time>
      </trkpt>
      <trkpt lat="43.14713" lon="1.0519">
        <ele>444.4</ele>
        <time>2025-12-14T09:35:23Z</time>
      </trkpt>
      <trkpt lat="43.14716" lon="1.05186">
        <ele>444.8</ele>
        <time>2025-12-14T09:35:25Z</time>
      </trkpt>
      <trkpt lat="43.14718" lon="1.05184">
        <ele>445.2</ele>
        <time>2025-12-14T09:35:26Z</time>
      </trkpt>
      <trkpt lat="43.14719" lon="1.05182">
        <ele>445.6</ele>
        <time>2025-12-14T09:35:27Z</time>
      </trkpt>
      <trkpt lat="43.14721" lon="1.05179">
        <ele>446</ele>
        <time>2025-12-14T09:35:28Z</time>
      </trkpt>
      <trkpt lat="43.14721" lon="1.05176">
        <ele>446.4</ele>
        <time>2025-12-14T09:35:29Z</time>
      </trkpt>
      <trkpt lat="43.14727" lon="1.05167">
        <ele>446.4</ele>
        <time>2025-12-14T09:35:33Z</time>
      </trkpt>
      <trkpt lat="43.14729" lon="1.05166">
        <ele>447.4</ele>
        <time>2025-12-14T09:35:34Z</time>
      </trkpt>
      <trkpt lat="43.1473" lon="1.05165">
        <ele>447.8</ele>
        <time>2025-12-14T09:35:35Z</time>
      </trkpt>
      <trkpt lat="43.14732" lon="1.05165">
        <ele>448.2</ele>
        <time>2025-12-14T09:35:36Z</time>
      </trkpt>
      <trkpt lat="43.14734" lon="1.05165">
        <ele>448.6</ele>
        <time>2025-12-14T09:35:37Z</time>
      </trkpt>
      <trkpt lat="43.14738" lon="1.05166">
        <ele>449.2</ele>
        <time>2025-12-14T09:35:39Z</time>
      </trkpt>
      <trkpt lat="43.1474" lon="1.05167">
        <ele>449.6</ele>
        <time>2025-12-14T09:35:40Z</time>
      </trkpt>
      <trkpt lat="43.14742" lon="1.05167">
        <ele>450</ele>
        <time>2025-12-14T09:35:41Z</time>
      </trkpt>
      <trkpt lat="43.14744" lon="1.05168">
        <ele>450.4</ele>
        <time>2025-12-14T09:35:42Z</time>
      </trkpt>
      <trkpt lat="43.14746" lon="1.0517">
        <ele>450.8</ele>
        <time>2025-12-14T09:35:43Z</time>
      </trkpt>
      <trkpt lat="43.14748" lon="1.05171">
        <ele>451.4</ele>
        <time>2025-12-14T09:35:44Z</time>
      </trkpt>
      <trkpt lat="43.14749" lon="1.05172">
        <ele>451.8</ele>
        <time>2025-12-14T09:35:45Z</time>
      </trkpt>
      <trkpt lat="43.14751" lon="1.05173">
        <ele>452.4</ele>
        <time>2025-12-14T09:35:46Z</time>
      </trkpt>
      <trkpt lat="43.14752" lon="1.05175">
        <ele>452.8</ele>
        <time>2025-12-14T09:35:47Z</time>
      </trkpt>
      <trkpt lat="43.14753" lon="1.05176">
        <ele>453.4</ele>
        <time>2025-12-14T09:35:48Z</time>
      </trkpt>
      <trkpt lat="43.14754" lon="1.05177">
        <ele>454</ele>
        <time>2025-12-14T09:35:49Z</time>
      </trkpt>
      <trkpt lat="43.14755" lon="1.05179">
        <ele>454.4</ele>
        <time>2025-12-14T09:35:50Z</time>
      </trkpt>
      <trkpt lat="43.14756" lon="1.0518">
        <ele>455</ele>
        <time>2025-12-14T09:35:51Z</time>
      </trkpt>
      <trkpt lat="43.14757" lon="1.0518">
        <ele>455.6</ele>
        <time>2025-12-14T09:35:52Z</time>
      </trkpt>
      <trkpt lat="43.14759" lon="1.0518">
        <ele>456</ele>
        <time>2025-12-14T09:35:53Z</time>
      </trkpt>
      <trkpt lat="43.14761" lon="1.0518">
        <ele>456.6</ele>
        <time>2025-12-14T09:35:54Z</time>
      </trkpt>
      <trkpt lat="43.14764" lon="1.05179">
        <ele>457.2</ele>
        <time>2025-12-14T09:35:55Z</time>
      </trkpt>
      <trkpt lat="43.14765" lon="1.05179">
        <ele>457.8</ele>
        <time>2025-12-14T09:35:56Z</time>
      </trkpt>
      <trkpt lat="43.14766" lon="1.05178">
        <ele>458.2</ele>
        <time>2025-12-14T09:35:57Z</time>
      </trkpt>
      <trkpt lat="43.14768" lon="1.05178">
        <ele>458.8</ele>
        <time>2025-12-14T09:35:58Z</time>
      </trkpt>
      <trkpt lat="43.1477" lon="1.05177">
        <ele>460</ele>
        <time>2025-12-14T09:35:59Z</time>
      </trkpt>
      <trkpt lat="43.14771" lon="1.05176">
        <ele>460.6</ele>
        <time>2025-12-14T09:36:00Z</time>
      </trkpt>
      <trkpt lat="43.14773" lon="1.05176">
        <ele>461</ele>
        <time>2025-12-14T09:36:01Z</time>
      </trkpt>
      <trkpt lat="43.14775" lon="1.05177">
        <ele>461.6</ele>
        <time>2025-12-14T09:36:02Z</time>
      </trkpt>
      <trkpt lat="43.14777" lon="1.05176">
        <ele>462.2</ele>
        <time>2025-12-14T09:36:03Z</time>
      </trkpt>
      <trkpt lat="43.14778" lon="1.05177">
        <ele>462.8</ele>
        <time>2025-12-14T09:36:04Z</time>
      </trkpt>
      <trkpt lat="43.1478" lon="1.05178">
        <ele>463.4</ele>
        <time>2025-12-14T09:36:05Z</time>
      </trkpt>
      <trkpt lat="43.14781" lon="1.05177">
        <ele>464</ele>
        <time>2025-12-14T09:36:06Z</time>
      </trkpt>
      <trkpt lat="43.14783" lon="1.05177">
        <ele>464.6</ele>
        <time>2025-12-14T09:36:07Z</time>
      </trkpt>
      <trkpt lat="43.14784" lon="1.05177">
        <ele>465</ele>
        <time>2025-12-14T09:36:08Z</time>
      </trkpt>
      <trkpt lat="43.14784" lon="1.05177">
        <ele>465.6</ele>
        <time>2025-12-14T09:36:09Z</time>
      </trkpt>
      <trkpt lat="43.14785" lon="1.05177">
        <ele>466.2</ele>
        <time>2025-12-14T09:36:10Z</time>
      </trkpt>
      <trkpt lat="43.14789" lon="1.05179">
        <ele>467.2</ele>
        <time>2025-12-14T09:36:33Z</time>
      </trkpt>
      <trkpt lat="43.1479" lon="1.0518">
        <ele>467.8</ele>
        <time>2025-12-14T09:36:34Z</time>
      </trkpt>
      <trkpt lat="43.14792" lon="1.05181">
        <ele>468.2</ele>
        <time>2025-12-14T09:36:35Z</time>
      </trkpt>
      <trkpt lat="43.14793" lon="1.05181">
        <ele>468.8</ele>
        <time>2025-12-14T09:36:36Z</time>
      </trkpt>
      <trkpt lat="43.14794" lon="1.05181">
        <ele>469.2</ele>
        <time>2025-12-14T09:36:37Z</time>
      </trkpt>
      <trkpt lat="43.14796" lon="1.05182">
        <ele>469.8</ele>
        <time>2025-12-14T09:36:38Z</time>
      </trkpt>
      <trkpt lat="43.14797" lon="1.05182">
        <ele>470.4</ele>
        <time>2025-12-14T09:36:39Z</time>
      </trkpt>
      <trkpt lat="43.14798" lon="1.05182">
        <ele>470.8</ele>
        <time>2025-12-14T09:36:40Z</time>
      </trkpt>
      <trkpt lat="43.148" lon="1.05183">
        <ele>471.4</ele>
        <time>2025-12-14T09:36:41Z</time>
      </trkpt>
      <trkpt lat="43.14802" lon="1.05183">
        <ele>472</ele>
        <time>2025-12-14T09:36:42Z</time>
      </trkpt>
      <trkpt lat="43.14803" lon="1.05182">
        <ele>472.6</ele>
        <time>2025-12-14T09:36:43Z</time>
      </trkpt>
      <trkpt lat="43.14805" lon="1.05182">
        <ele>473.2</ele>
        <time>2025-12-14T09:36:44Z</time>
      </trkpt>
      <trkpt lat="43.14805" lon="1.05182">
        <ele>473.8</ele>
        <time>2025-12-14T09:36:45Z</time>
      </trkpt>
      <trkpt lat="43.14806" lon="1.05183">
        <ele>474.4</ele>
        <time>2025-12-14T09:36:46Z</time>
      </trkpt>
      <trkpt lat="43.14807" lon="1.05183">
        <ele>475</ele>
        <time>2025-12-14T09:36:47Z</time>
      </trkpt>
      <trkpt lat="43.1484" lon="1.05177">
        <ele>486.8</ele>
        <time>2025-12-14T09:38:21Z</time>
      </trkpt>
      <trkpt lat="43.14842" lon="1.05175">
        <ele>486.8</ele>
        <time>2025-12-14T09:38:23Z</time>
      </trkpt>
      <trkpt lat="43.14844" lon="1.05173">
        <ele>486.8</ele>
        <time>2025-12-14T09:38:25Z</time>
      </trkpt>
      <trkpt lat="43.14847" lon="1.05168">
        <ele>486.8</ele>
        <time>2025-12-14T09:38:28Z</time>
      </trkpt>
      <trkpt lat="43.14847" lon="1.05166">
        <ele>486.8</ele>
        <time>2025-12-14T09:38:29Z</time>
      </trkpt>
      <trkpt lat="43.14848" lon="1.05163">
        <ele>487.4</ele>
        <time>2025-12-14T09:38:31Z</time>
      </trkpt>
      <trkpt lat="43.14848" lon="1.05162">
        <ele>487.8</ele>
        <time>2025-12-14T09:38:32Z</time>
      </trkpt>
      <trkpt lat="43.14849" lon="1.0516">
        <ele>488.2</ele>
        <time>2025-12-14T09:38:33Z</time>
      </trkpt>
      <trkpt lat="43.1485" lon="1.05159">
        <ele>488.6</ele>
        <time>2025-12-14T09:38:34Z</time>
      </trkpt>
      <trkpt lat="43.1485" lon="1.05158">
        <ele>489</ele>
        <time>2025-12-14T09:38:35Z</time>
      </trkpt>
      <trkpt lat="43.14855" lon="1.0515">
        <ele>489</ele>
        <time>2025-12-14T09:38:40Z</time>
      </trkpt>
      <trkpt lat="43.14864" lon="1.05141">
        <ele>489</ele>
        <time>2025-12-14T09:38:47Z</time>
      </trkpt>
      <trkpt lat="43.1487" lon="1.0513">
        <ele>489</ele>
        <time>2025-12-14T09:38:55Z</time>
      </trkpt>
      <trkpt lat="43.14871" lon="1.05128">
        <ele>489</ele>
        <time>2025-12-14T09:38:58Z</time>
      </trkpt>
      <trkpt lat="43.14876" lon="1.0512">
        <ele>489</ele>
        <time>2025-12-14T09:39:06Z</time>
      </trkpt>
      <trkpt lat="43.14878" lon="1.05118">
        <ele>489</ele>
        <time>2025-12-14T09:39:07Z</time>
      </trkpt>
      <trkpt lat="43.14878" lon="1.05117">
        <ele>489.4</ele>
        <time>2025-12-14T09:39:08Z</time>
      </trkpt>
      <trkpt lat="43.14879" lon="1.05115">
        <ele>489.8</ele>
        <time>2025-12-14T09:39:09Z</time>
      </trkpt>
      <trkpt lat="43.1488" lon="1.05114">
        <ele>490.2</ele>
        <time>2025-12-14T09:39:10Z</time>
      </trkpt>
      <trkpt lat="43.14881" lon="1.05112">
        <ele>490.6</ele>
        <time>2025-12-14T09:39:11Z</time>
      </trkpt>
      <trkpt lat="43.14881" lon="1.05111">
        <ele>491</ele>
        <time>2025-12-14T09:39:12Z</time>
      </trkpt>
      <trkpt lat="43.14883" lon="1.05105">
        <ele>491</ele>
        <time>2025-12-14T09:39:17Z</time>
      </trkpt>
      <trkpt lat="43.14899" lon="1.05081">
        <ele>491</ele>
        <time>2025-12-14T09:40:53Z</time>
      </trkpt>
      <trkpt lat="43.149" lon="1.05079">
        <ele>491</ele>
        <time>2025-12-14T09:40:54Z</time>
      </trkpt>
      <trkpt lat="43.14905" lon="1.0507">
        <ele>491</ele>
        <time>2025-12-14T09:40:59Z</time>
      </trkpt>
      <trkpt lat="43.14906" lon="1.05068">
        <ele>491</ele>
        <time>2025-12-14T09:41:00Z</time>
      </trkpt>
      <trkpt lat="43.14913" lon="1.05052">
        <ele>490.6</ele>
        <time>2025-12-14T09:41:05Z</time>
      </trkpt>
      <trkpt lat="43.14915" lon="1.05048">
        <ele>490.2</ele>
        <time>2025-12-14T09:41:06Z</time>
      </trkpt>
      <trkpt lat="43.14916" lon="1.05044">
        <ele>489.8</ele>
        <time>2025-12-14T09:41:07Z</time>
      </trkpt>
      <trkpt lat="43.14917" lon="1.05039">
        <ele>489.2</ele>
        <time>2025-12-14T09:41:08Z</time>
      </trkpt>
      <trkpt lat="43.14917" lon="1.05036">
        <ele>488.8</ele>
        <time>2025-12-14T09:41:09Z</time>
      </trkpt>
      <trkpt lat="43.14919" lon="1.05032">
        <ele>488.8</ele>
        <time>2025-12-14T09:41:10Z</time>
      </trkpt>
      <trkpt lat="43.14921" lon="1.05029">
        <ele>488.4</ele>
        <time>2025-12-14T09:41:11Z</time>
      </trkpt>
      <trkpt lat="43.14922" lon="1.05024">
        <ele>488</ele>
        <time>2025-12-14T09:41:12Z</time>
      </trkpt>
      <trkpt lat="43.14923" lon="1.0502">
        <ele>487.4</ele>
        <time>2025-12-14T09:41:13Z</time>
      </trkpt>
      <trkpt lat="43.14925" lon="1.05015">
        <ele>487</ele>
        <time>2025-12-14T09:41:14Z</time>
      </trkpt>
      <trkpt lat="43.14926" lon="1.05011">
        <ele>486.6</ele>
        <time>2025-12-14T09:41:15Z</time>
      </trkpt>
      <trkpt lat="43.14925" lon="1.05007">
        <ele>486</ele>
        <time>2025-12-14T09:41:16Z</time>
      </trkpt>
      <trkpt lat="43.14925" lon="1.05003">
        <ele>485.6</ele>
        <time>2025-12-14T09:41:17Z</time>
      </trkpt>
      <trkpt lat="43.14924" lon="1.05">
        <ele>485</ele>
        <time>2025-12-14T09:41:18Z</time>
      </trkpt>
      <trkpt lat="43.14926" lon="1.04997">
        <ele>484.4</ele>
        <time>2025-12-14T09:41:19Z</time>
      </trkpt>
      <trkpt lat="43.14927" lon="1.04994">
        <ele>483.8</ele>
        <time>2025-12-14T09:41:20Z</time>
      </trkpt>
      <trkpt lat="43.14928" lon="1.04991">
        <ele>482.8</ele>
        <time>2025-12-14T09:41:21Z</time>
      </trkpt>
      <trkpt lat="43.14928" lon="1.04988">
        <ele>482.2</ele>
        <time>2025-12-14T09:41:22Z</time>
      </trkpt>
      <trkpt lat="43.14927" lon="1.04984">
        <ele>481.6</ele>
        <time>2025-12-14T09:41:23Z</time>
      </trkpt>
      <trkpt lat="43.14927" lon="1.04979">
        <ele>481.2</ele>
        <time>2025-12-14T09:41:24Z</time>
      </trkpt>
      <trkpt lat="43.14928" lon="1.04974">
        <ele>480.6</ele>
        <time>2025-12-14T09:41:25Z</time>
      </trkpt>
      <trkpt lat="43.14929" lon="1.04968">
        <ele>480</ele>
        <time>2025-12-14T09:41:26Z</time>
      </trkpt>
      <trkpt lat="43.14932" lon="1.04962">
        <ele>479.4</ele>
        <time>2025-12-14T09:41:27Z</time>
      </trkpt>
      <trkpt lat="43.14934" lon="1.04957">
        <ele>478.8</ele>
        <time>2025-12-14T09:41:28Z</time>
      </trkpt>
      <trkpt lat="43.14936" lon="1.04951">
        <ele>478.2</ele>
        <time>2025-12-14T09:41:29Z</time>
      </trkpt>
      <trkpt lat="43.14938" lon="1.04945">
        <ele>477.6</ele>
        <time>2025-12-14T09:41:30Z</time>
      </trkpt>
      <trkpt lat="43.14939" lon="1.04939">
        <ele>477</ele>
        <time>2025-12-14T09:41:31Z</time>
      </trkpt>
      <trkpt lat="43.1494" lon="1.04932">
        <ele>476.4</ele>
        <time>2025-12-14T09:41:32Z</time>
      </trkpt>
      <trkpt lat="43.14941" lon="1.04925">
        <ele>475.8</ele>
        <time>2025-12-14T09:41:33Z</time>
      </trkpt>
      <trkpt lat="43.14942" lon="1.04918">
        <ele>475.2</ele>
        <time>2025-12-14T09:41:34Z</time>
      </trkpt>
      <trkpt lat="43.14945" lon="1.04912">
        <ele>474.6</ele>
        <time>2025-12-14T09:41:35Z</time>
      </trkpt>
      <trkpt lat="43.14949" lon="1.04907">
        <ele>474.2</ele>
        <time>2025-12-14T09:41:36Z</time>
      </trkpt>
      <trkpt lat="43.14952" lon="1.04902">
        <ele>473.6</ele>
        <time>2025-12-14T09:41:37Z</time>
      </trkpt>
      <trkpt lat="43.14955" lon="1.04898">
        <ele>473</ele>
        <time>2025-12-14T09:41:38Z</time>
      </trkpt>
      <trkpt lat="43.1496" lon="1.04887">
        <ele>473</ele>
        <time>2025-12-14T09:41:41Z</time>
      </trkpt>
      <trkpt lat="43.1496" lon="1.04883">
        <ele>473</ele>
        <time>2025-12-14T09:41:42Z</time>
      </trkpt>
      <trkpt lat="43.14961" lon="1.04876">
        <ele>473</ele>
        <time>2025-12-14T09:41:44Z</time>
      </trkpt>
      <trkpt lat="43.14965" lon="1.04865">
        <ele>473</ele>
        <time>2025-12-14T09:41:48Z</time>
      </trkpt>
      <trkpt lat="43.14967" lon="1.04861">
        <ele>473</ele>
        <time>2025-12-14T09:41:49Z</time>
      </trkpt>
      <trkpt lat="43.14976" lon="1.0485">
        <ele>473</ele>
        <time>2025-12-14T09:41:55Z</time>
      </trkpt>
      <trkpt lat="43.14983" lon="1.04844">
        <ele>473.4</ele>
        <time>2025-12-14T09:41:59Z</time>
      </trkpt>
      <trkpt lat="43.14985" lon="1.04841">
        <ele>474</ele>
        <time>2025-12-14T09:42:00Z</time>
      </trkpt>
      <trkpt lat="43.14987" lon="1.04839">
        <ele>474.4</ele>
        <time>2025-12-14T09:42:01Z</time>
      </trkpt>
      <trkpt lat="43.14988" lon="1.04837">
        <ele>474.8</ele>
        <time>2025-12-14T09:42:02Z</time>
      </trkpt>
      <trkpt lat="43.1499" lon="1.04836">
        <ele>475.4</ele>
        <time>2025-12-14T09:42:03Z</time>
      </trkpt>
      <trkpt lat="43.14992" lon="1.04834">
        <ele>475.8</ele>
        <time>2025-12-14T09:42:04Z</time>
      </trkpt>
      <trkpt lat="43.14995" lon="1.04832">
        <ele>476.2</ele>
        <time>2025-12-14T09:42:05Z</time>
      </trkpt>
      <trkpt lat="43.14998" lon="1.04829">
        <ele>476.6</ele>
        <time>2025-12-14T09:42:06Z</time>
      </trkpt>
      <trkpt lat="43.15001" lon="1.04826">
        <ele>477</ele>
        <time>2025-12-14T09:42:07Z</time>
      </trkpt>
      <trkpt lat="43.15003" lon="1.04823">
        <ele>477.4</ele>
        <time>2025-12-14T09:42:08Z</time>
      </trkpt>
      <trkpt lat="43.15005" lon="1.0482">
        <ele>478</ele>
        <time>2025-12-14T09:42:09Z</time>
      </trkpt>
      <trkpt lat="43.15008" lon="1.04817">
        <ele>478.8</ele>
        <time>2025-12-14T09:42:10Z</time>
      </trkpt>
      <trkpt lat="43.1501" lon="1.04814">
        <ele>479.2</ele>
        <time>2025-12-14T09:42:11Z</time>
      </trkpt>
      <trkpt lat="43.15011" lon="1.04811">
        <ele>479.6</ele>
        <time>2025-12-14T09:42:12Z</time>
      </trkpt>
      <trkpt lat="43.15023" lon="1.04788">
        <ele>479.6</ele>
        <time>2025-12-14T09:42:19Z</time>
      </trkpt>
      <trkpt lat="43.1503" lon="1.04772">
        <ele>479.6</ele>
        <time>2025-12-14T09:42:25Z</time>
      </trkpt>
      <trkpt lat="43.15037" lon="1.04751">
        <ele>479.6</ele>
        <time>2025-12-14T09:42:30Z</time>
      </trkpt>
      <trkpt lat="43.15048" lon="1.04726">
        <ele>479.6</ele>
        <time>2025-12-14T09:42:36Z</time>
      </trkpt>
      <trkpt lat="43.15057" lon="1.04707">
        <ele>479.6</ele>
        <time>2025-12-14T09:42:42Z</time>
      </trkpt>
      <trkpt lat="43.15069" lon="1.0469">
        <ele>479.6</ele>
        <time>2025-12-14T09:42:47Z</time>
      </trkpt>
      <trkpt lat="43.15082" lon="1.04671">
        <ele>479.6</ele>
        <time>2025-12-14T09:42:54Z</time>
      </trkpt>
      <trkpt lat="43.15086" lon="1.04663">
        <ele>480</ele>
        <time>2025-12-14T09:42:57Z</time>
      </trkpt>
      <trkpt lat="43.15088" lon="1.04661">
        <ele>480.6</ele>
        <time>2025-12-14T09:42:58Z</time>
      </trkpt>
      <trkpt lat="43.15089" lon="1.04659">
        <ele>481</ele>
        <time>2025-12-14T09:42:59Z</time>
      </trkpt>
      <trkpt lat="43.1509" lon="1.04655">
        <ele>481.8</ele>
        <time>2025-12-14T09:43:00Z</time>
      </trkpt>
      <trkpt lat="43.15091" lon="1.04651">
        <ele>481.8</ele>
        <time>2025-12-14T09:43:01Z</time>
      </trkpt>
      <trkpt lat="43.15098" lon="1.0463">
        <ele>481.8</ele>
        <time>2025-12-14T09:43:07Z</time>
      </trkpt>
      <trkpt lat="43.15105" lon="1.04606">
        <ele>481.8</ele>
        <time>2025-12-14T09:43:13Z</time>
      </trkpt>
      <trkpt lat="43.15113" lon="1.04585">
        <ele>481.8</ele>
        <time>2025-12-14T09:43:18Z</time>
      </trkpt>
      <trkpt lat="43.15127" lon="1.04555">
        <ele>481.8</ele>
        <time>2025-12-14T09:43:24Z</time>
      </trkpt>
      <trkpt lat="43.15129" lon="1.04549">
        <ele>481.4</ele>
        <time>2025-12-14T09:43:25Z</time>
      </trkpt>
      <trkpt lat="43.15131" lon="1.04542">
        <ele>481</ele>
        <time>2025-12-14T09:43:26Z</time>
      </trkpt>
      <trkpt lat="43.15133" lon="1.04536">
        <ele>480.4</ele>
        <time>2025-12-14T09:43:27Z</time>
      </trkpt>
      <trkpt lat="43.15136" lon="1.0453">
        <ele>480</ele>
        <time>2025-12-14T09:43:28Z</time>
      </trkpt>
      <trkpt lat="43.15139" lon="1.04523">
        <ele>479.6</ele>
        <time>2025-12-14T09:43:29Z</time>
      </trkpt>
      <trkpt lat="43.15142" lon="1.04516">
        <ele>479.6</ele>
        <time>2025-12-14T09:43:30Z</time>
      </trkpt>
      <trkpt lat="43.15149" lon="1.04496">
        <ele>479.2</ele>
        <time>2025-12-14T09:43:33Z</time>
      </trkpt>
      <trkpt lat="43.15152" lon="1.04489">
        <ele>478.8</ele>
        <time>2025-12-14T09:43:34Z</time>
      </trkpt>
      <trkpt lat="43.15155" lon="1.04482">
        <ele>478.4</ele>
        <time>2025-12-14T09:43:35Z</time>
      </trkpt>
      <trkpt lat="43.15157" lon="1.04476">
        <ele>478</ele>
        <time>2025-12-14T09:43:36Z</time>
      </trkpt>
      <trkpt lat="43.1516" lon="1.04469">
        <ele>477.6</ele>
        <time>2025-12-14T09:43:37Z</time>
      </trkpt>
      <trkpt lat="43.15169" lon="1.0444">
        <ele>477</ele>
        <time>2025-12-14T09:43:41Z</time>
      </trkpt>
      <trkpt lat="43.15172" lon="1.04433">
        <ele>476.6</ele>
        <time>2025-12-14T09:43:42Z</time>
      </trkpt>
      <trkpt lat="43.15173" lon="1.04426">
        <ele>476.2</ele>
        <time>2025-12-14T09:43:43Z</time>
      </trkpt>
      <trkpt lat="43.15175" lon="1.04419">
        <ele>475.8</ele>
        <time>2025-12-14T09:43:44Z</time>
      </trkpt>
      <trkpt lat="43.15176" lon="1.04412">
        <ele>475.4</ele>
        <time>2025-12-14T09:43:45Z</time>
      </trkpt>
      <trkpt lat="43.15179" lon="1.04406">
        <ele>475.4</ele>
        <time>2025-12-14T09:43:46Z</time>
      </trkpt>
      <trkpt lat="43.15185" lon="1.04387">
        <ele>475.4</ele>
        <time>2025-12-14T09:43:49Z</time>
      </trkpt>
      <trkpt lat="43.15186" lon="1.04381">
        <ele>475</ele>
        <time>2025-12-14T09:43:50Z</time>
      </trkpt>
      <trkpt lat="43.15188" lon="1.04376">
        <ele>474.6</ele>
        <time>2025-12-14T09:43:51Z</time>
      </trkpt>
      <trkpt lat="43.1519" lon="1.04371">
        <ele>474.2</ele>
        <time>2025-12-14T09:43:52Z</time>
      </trkpt>
      <trkpt lat="43.15192" lon="1.04365">
        <ele>473.8</ele>
        <time>2025-12-14T09:43:53Z</time>
      </trkpt>
      <trkpt lat="43.15195" lon="1.04359">
        <ele>473.2</ele>
        <time>2025-12-14T09:43:54Z</time>
      </trkpt>
      <trkpt lat="43.15202" lon="1.0434">
        <ele>473.2</ele>
        <time>2025-12-14T09:43:57Z</time>
      </trkpt>
      <trkpt lat="43.15214" lon="1.04313">
        <ele>473.8</ele>
        <time>2025-12-14T09:44:02Z</time>
      </trkpt>
      <trkpt lat="43.15216" lon="1.04309">
        <ele>474.2</ele>
        <time>2025-12-14T09:44:03Z</time>
      </trkpt>
      <trkpt lat="43.15217" lon="1.04306">
        <ele>474.6</ele>
        <time>2025-12-14T09:44:04Z</time>
      </trkpt>
      <trkpt lat="43.15219" lon="1.04302">
        <ele>475</ele>
        <time>2025-12-14T09:44:05Z</time>
      </trkpt>
      <trkpt lat="43.15221" lon="1.04298">
        <ele>475.4</ele>
        <time>2025-12-14T09:44:06Z</time>
      </trkpt>
      <trkpt lat="43.15223" lon="1.04294">
        <ele>475.8</ele>
        <time>2025-12-14T09:44:07Z</time>
      </trkpt>
      <trkpt lat="43.15224" lon="1.0429">
        <ele>476.2</ele>
        <time>2025-12-14T09:44:08Z</time>
      </trkpt>
      <trkpt lat="43.15226" lon="1.04286">
        <ele>476.6</ele>
        <time>2025-12-14T09:44:09Z</time>
      </trkpt>
      <trkpt lat="43.15227" lon="1.04281">
        <ele>477</ele>
        <time>2025-12-14T09:44:10Z</time>
      </trkpt>
      <trkpt lat="43.15229" lon="1.04277">
        <ele>477.4</ele>
        <time>2025-12-14T09:44:11Z</time>
      </trkpt>
      <trkpt lat="43.15233" lon="1.04264">
        <ele>478.2</ele>
        <time>2025-12-14T09:44:14Z</time>
      </trkpt>
      <trkpt lat="43.15234" lon="1.04259">
        <ele>478.6</ele>
        <time>2025-12-14T09:44:15Z</time>
      </trkpt>
      <trkpt lat="43.15234" lon="1.04255">
        <ele>479</ele>
        <time>2025-12-14T09:44:16Z</time>
      </trkpt>
      <trkpt lat="43.15235" lon="1.04251">
        <ele>479.6</ele>
        <time>2025-12-14T09:44:17Z</time>
      </trkpt>
      <trkpt lat="43.15237" lon="1.04236">
        <ele>479.6</ele>
        <time>2025-12-14T09:44:20Z</time>
      </trkpt>
      <trkpt lat="43.15241" lon="1.04213">
        <ele>479.6</ele>
        <time>2025-12-14T09:44:25Z</time>
      </trkpt>
      <trkpt lat="43.1525" lon="1.04187">
        <ele>480</ele>
        <time>2025-12-14T09:44:31Z</time>
      </trkpt>
      <trkpt lat="43.15251" lon="1.04182">
        <ele>480.4</ele>
        <time>2025-12-14T09:44:32Z</time>
      </trkpt>
      <trkpt lat="43.15252" lon="1.04176">
        <ele>480.8</ele>
        <time>2025-12-14T09:44:33Z</time>
      </trkpt>
      <trkpt lat="43.15253" lon="1.04171">
        <ele>481.2</ele>
        <time>2025-12-14T09:44:34Z</time>
      </trkpt>
      <trkpt lat="43.15254" lon="1.04165">
        <ele>481.6</ele>
        <time>2025-12-14T09:44:35Z</time>
      </trkpt>
      <trkpt lat="43.15256" lon="1.04156">
        <ele>481.6</ele>
        <time>2025-12-14T09:44:37Z</time>
      </trkpt>
      <trkpt lat="43.15263" lon="1.04133">
        <ele>481.6</ele>
        <time>2025-12-14T09:44:42Z</time>
      </trkpt>
      <trkpt lat="43.15269" lon="1.04108">
        <ele>481.6</ele>
        <time>2025-12-14T09:44:47Z</time>
      </trkpt>
      <trkpt lat="43.15275" lon="1.04076">
        <ele>481.2</ele>
        <time>2025-12-14T09:44:52Z</time>
      </trkpt>
      <trkpt lat="43.15276" lon="1.0407">
        <ele>480.8</ele>
        <time>2025-12-14T09:44:53Z</time>
      </trkpt>
      <trkpt lat="43.15276" lon="1.04065">
        <ele>480.2</ele>
        <time>2025-12-14T09:44:54Z</time>
      </trkpt>
      <trkpt lat="43.15276" lon="1.04059">
        <ele>479.8</ele>
        <time>2025-12-14T09:44:55Z</time>
      </trkpt>
      <trkpt lat="43.15276" lon="1.04052">
        <ele>479.4</ele>
        <time>2025-12-14T09:44:56Z</time>
      </trkpt>
      <trkpt lat="43.15275" lon="1.04046">
        <ele>478.8</ele>
        <time>2025-12-14T09:44:57Z</time>
      </trkpt>
      <trkpt lat="43.15273" lon="1.0404">
        <ele>478.4</ele>
        <time>2025-12-14T09:44:58Z</time>
      </trkpt>
      <trkpt lat="43.15271" lon="1.04034">
        <ele>477.8</ele>
        <time>2025-12-14T09:44:59Z</time>
      </trkpt>
      <trkpt lat="43.15268" lon="1.04029">
        <ele>477</ele>
        <time>2025-12-14T09:45:00Z</time>
      </trkpt>
      <trkpt lat="43.15267" lon="1.04022">
        <ele>476.4</ele>
        <time>2025-12-14T09:45:01Z</time>
      </trkpt>
      <trkpt lat="43.15265" lon="1.04016">
        <ele>475.4</ele>
        <time>2025-12-14T09:45:02Z</time>
      </trkpt>
      <trkpt lat="43.15263" lon="1.0401">
        <ele>473.4</ele>
        <time>2025-12-14T09:45:03Z</time>
      </trkpt>
      <trkpt lat="43.1526" lon="1.04005">
        <ele>472.2</ele>
        <time>2025-12-14T09:45:04Z</time>
      </trkpt>
      <trkpt lat="43.15258" lon="1.04">
        <ele>471.2</ele>
        <time>2025-12-14T09:45:05Z</time>
      </trkpt>
      <trkpt lat="43.15256" lon="1.03994">
        <ele>470</ele>
        <time>2025-12-14T09:45:06Z</time>
      </trkpt>
      <trkpt lat="43.15255" lon="1.03986">
        <ele>468.8</ele>
        <time>2025-12-14T09:45:07Z</time>
      </trkpt>
      <trkpt lat="43.15254" lon="1.03977">
        <ele>467.8</ele>
        <time>2025-12-14T09:45:08Z</time>
      </trkpt>
      <trkpt lat="43.15253" lon="1.0397">
        <ele>466.6</ele>
        <time>2025-12-14T09:45:09Z</time>
      </trkpt>
      <trkpt lat="43.15251" lon="1.03961">
        <ele>465.6</ele>
        <time>2025-12-14T09:45:10Z</time>
      </trkpt>
      <trkpt lat="43.15249" lon="1.03953">
        <ele>464.4</ele>
        <time>2025-12-14T09:45:11Z</time>
      </trkpt>
      <trkpt lat="43.15248" lon="1.03944">
        <ele>463.4</ele>
        <time>2025-12-14T09:45:12Z</time>
      </trkpt>
      <trkpt lat="43.15248" lon="1.03935">
        <ele>462.2</ele>
        <time>2025-12-14T09:45:13Z</time>
      </trkpt>
      <trkpt lat="43.15247" lon="1.03926">
        <ele>461.2</ele>
        <time>2025-12-14T09:45:14Z</time>
      </trkpt>
      <trkpt lat="43.15247" lon="1.03918">
        <ele>460.2</ele>
        <time>2025-12-14T09:45:15Z</time>
      </trkpt>
      <trkpt lat="43.15247" lon="1.03909">
        <ele>459.4</ele>
        <time>2025-12-14T09:45:16Z</time>
      </trkpt>
      <trkpt lat="43.15247" lon="1.03902">
        <ele>458.6</ele>
        <time>2025-12-14T09:45:17Z</time>
      </trkpt>
      <trkpt lat="43.15245" lon="1.03893">
        <ele>457.6</ele>
        <time>2025-12-14T09:45:18Z</time>
      </trkpt>
      <trkpt lat="43.15243" lon="1.03885">
        <ele>456.8</ele>
        <time>2025-12-14T09:45:19Z</time>
      </trkpt>
      <trkpt lat="43.15241" lon="1.03876">
        <ele>456</ele>
        <time>2025-12-14T09:45:20Z</time>
      </trkpt>
      <trkpt lat="43.15239" lon="1.03869">
        <ele>455.2</ele>
        <time>2025-12-14T09:45:21Z</time>
      </trkpt>
      <trkpt lat="43.15237" lon="1.03864">
        <ele>455.2</ele>
        <time>2025-12-14T09:45:22Z</time>
      </trkpt>
      <trkpt lat="43.1523" lon="1.03854">
        <ele>455.2</ele>
        <time>2025-12-14T09:45:24Z</time>
      </trkpt>
      <trkpt lat="43.15223" lon="1.03831">
        <ele>455.2</ele>
        <time>2025-12-14T09:45:28Z</time>
      </trkpt>
      <trkpt lat="43.15226" lon="1.03815">
        <ele>455.2</ele>
        <time>2025-12-14T09:45:31Z</time>
      </trkpt>
      <trkpt lat="43.15231" lon="1.03799">
        <ele>455.2</ele>
        <time>2025-12-14T09:45:35Z</time>
      </trkpt>
      <trkpt lat="43.15232" lon="1.03795">
        <ele>455.2</ele>
        <time>2025-12-14T09:45:36Z</time>
      </trkpt>
      <trkpt lat="43.15234" lon="1.03787">
        <ele>455.6</ele>
        <time>2025-12-14T09:45:38Z</time>
      </trkpt>
      <trkpt lat="43.15235" lon="1.03784">
        <ele>456</ele>
        <time>2025-12-14T09:45:39Z</time>
      </trkpt>
      <trkpt lat="43.15235" lon="1.03781">
        <ele>456.4</ele>
        <time>2025-12-14T09:45:40Z</time>
      </trkpt>
      <trkpt lat="43.15237" lon="1.03777">
        <ele>456.8</ele>
        <time>2025-12-14T09:45:41Z</time>
      </trkpt>
      <trkpt lat="43.15238" lon="1.03774">
        <ele>457.2</ele>
        <time>2025-12-14T09:45:42Z</time>
      </trkpt>
      <trkpt lat="43.15242" lon="1.03763">
        <ele>457.8</ele>
        <time>2025-12-14T09:45:45Z</time>
      </trkpt>
      <trkpt lat="43.15243" lon="1.03759">
        <ele>458.2</ele>
        <time>2025-12-14T09:45:46Z</time>
      </trkpt>
      <trkpt lat="43.15245" lon="1.03755">
        <ele>458.6</ele>
        <time>2025-12-14T09:45:47Z</time>
      </trkpt>
      <trkpt lat="43.15247" lon="1.03751">
        <ele>459</ele>
        <time>2025-12-14T09:45:48Z</time>
      </trkpt>
      <trkpt lat="43.15248" lon="1.03747">
        <ele>459.4</ele>
        <time>2025-12-14T09:45:49Z</time>
      </trkpt>
      <trkpt lat="43.15253" lon="1.03736">
        <ele>460.4</ele>
        <time>2025-12-14T09:45:53Z</time>
      </trkpt>
      <trkpt lat="43.15254" lon="1.03733">
        <ele>460.8</ele>
        <time>2025-12-14T09:45:54Z</time>
      </trkpt>
      <trkpt lat="43.15256" lon="1.0373">
        <ele>461.2</ele>
        <time>2025-12-14T09:45:55Z</time>
      </trkpt>
      <trkpt lat="43.15257" lon="1.03727">
        <ele>461.6</ele>
        <time>2025-12-14T09:45:56Z</time>
      </trkpt>
      <trkpt lat="43.15262" lon="1.03713">
        <ele>461.6</ele>
        <time>2025-12-14T09:46:01Z</time>
      </trkpt>
      <trkpt lat="43.15262" lon="1.03708">
        <ele>461.6</ele>
        <time>2025-12-14T09:46:02Z</time>
      </trkpt>
      <trkpt lat="43.15264" lon="1.03693">
        <ele>461.6</ele>
        <time>2025-12-14T09:46:05Z</time>
      </trkpt>
      <trkpt lat="43.15266" lon="1.03678">
        <ele>461.6</ele>
        <time>2025-12-14T09:46:07Z</time>
      </trkpt>
      <trkpt lat="43.15266" lon="1.0367">
        <ele>461.2</ele>
        <time>2025-12-14T09:46:08Z</time>
      </trkpt>
      <trkpt lat="43.15267" lon="1.03663">
        <ele>460.8</ele>
        <time>2025-12-14T09:46:09Z</time>
      </trkpt>
      <trkpt lat="43.15267" lon="1.03655">
        <ele>460.4</ele>
        <time>2025-12-14T09:46:10Z</time>
      </trkpt>
      <trkpt lat="43.15267" lon="1.03647">
        <ele>459.8</ele>
        <time>2025-12-14T09:46:11Z</time>
      </trkpt>
      <trkpt lat="43.15267" lon="1.0364">
        <ele>459.2</ele>
        <time>2025-12-14T09:46:12Z</time>
      </trkpt>
      <trkpt lat="43.15267" lon="1.03632">
        <ele>458.6</ele>
        <time>2025-12-14T09:46:13Z</time>
      </trkpt>
      <trkpt lat="43.15268" lon="1.03625">
        <ele>457.8</ele>
        <time>2025-12-14T09:46:14Z</time>
      </trkpt>
      <trkpt lat="43.15269" lon="1.03617">
        <ele>457</ele>
        <time>2025-12-14T09:46:15Z</time>
      </trkpt>
      <trkpt lat="43.15268" lon="1.03608">
        <ele>456.2</ele>
        <time>2025-12-14T09:46:16Z</time>
      </trkpt>
      <trkpt lat="43.15268" lon="1.036">
        <ele>454.4</ele>
        <time>2025-12-14T09:46:17Z</time>
      </trkpt>
      <trkpt lat="43.15268" lon="1.03592">
        <ele>453.4</ele>
        <time>2025-12-14T09:46:18Z</time>
      </trkpt>
      <trkpt lat="43.15267" lon="1.03585">
        <ele>452.4</ele>
        <time>2025-12-14T09:46:19Z</time>
      </trkpt>
      <trkpt lat="43.15267" lon="1.03577">
        <ele>451.2</ele>
        <time>2025-12-14T09:46:20Z</time>
      </trkpt>
      <trkpt lat="43.15267" lon="1.03569">
        <ele>450.2</ele>
        <time>2025-12-14T09:46:21Z</time>
      </trkpt>
      <trkpt lat="43.15267" lon="1.03561">
        <ele>449</ele>
        <time>2025-12-14T09:46:22Z</time>
      </trkpt>
      <trkpt lat="43.15268" lon="1.03554">
        <ele>447.8</ele>
        <time>2025-12-14T09:46:23Z</time>
      </trkpt>
      <trkpt lat="43.15269" lon="1.03547">
        <ele>446.8</ele>
        <time>2025-12-14T09:46:24Z</time>
      </trkpt>
      <trkpt lat="43.1527" lon="1.03539">
        <ele>445.6</ele>
        <time>2025-12-14T09:46:25Z</time>
      </trkpt>
      <trkpt lat="43.1527" lon="1.03531">
        <ele>444.4</ele>
        <time>2025-12-14T09:46:26Z</time>
      </trkpt>
      <trkpt lat="43.15271" lon="1.03522">
        <ele>443.4</ele>
        <time>2025-12-14T09:46:27Z</time>
      </trkpt>
      <trkpt lat="43.15272" lon="1.03513">
        <ele>442.4</ele>
        <time>2025-12-14T09:46:28Z</time>
      </trkpt>
      <trkpt lat="43.15273" lon="1.03504">
        <ele>441.2</ele>
        <time>2025-12-14T09:46:29Z</time>
      </trkpt>
      <trkpt lat="43.15274" lon="1.03496">
        <ele>440</ele>
        <time>2025-12-14T09:46:30Z</time>
      </trkpt>
      <trkpt lat="43.15275" lon="1.03489">
        <ele>439</ele>
        <time>2025-12-14T09:46:31Z</time>
      </trkpt>
      <trkpt lat="43.15276" lon="1.03482">
        <ele>437.8</ele>
        <time>2025-12-14T09:46:32Z</time>
      </trkpt>
      <trkpt lat="43.15277" lon="1.03476">
        <ele>436.8</ele>
        <time>2025-12-14T09:46:33Z</time>
      </trkpt>
      <trkpt lat="43.15279" lon="1.03468">
        <ele>435.6</ele>
        <time>2025-12-14T09:46:34Z</time>
      </trkpt>
      <trkpt lat="43.15279" lon="1.0346">
        <ele>434.6</ele>
        <time>2025-12-14T09:46:35Z</time>
      </trkpt>
      <trkpt lat="43.1528" lon="1.03453">
        <ele>433.6</ele>
        <time>2025-12-14T09:46:36Z</time>
      </trkpt>
      <trkpt lat="43.15281" lon="1.03447">
        <ele>432.6</ele>
        <time>2025-12-14T09:46:37Z</time>
      </trkpt>
      <trkpt lat="43.15282" lon="1.0344">
        <ele>431.8</ele>
        <time>2025-12-14T09:46:38Z</time>
      </trkpt>
      <trkpt lat="43.15283" lon="1.03433">
        <ele>430.8</ele>
        <time>2025-12-14T09:46:39Z</time>
      </trkpt>
      <trkpt lat="43.15284" lon="1.03427">
        <ele>429.8</ele>
        <time>2025-12-14T09:46:40Z</time>
      </trkpt>
      <trkpt lat="43.15284" lon="1.0342">
        <ele>427.8</ele>
        <time>2025-12-14T09:46:41Z</time>
      </trkpt>
      <trkpt lat="43.15284" lon="1.03414">
        <ele>426.8</ele>
        <time>2025-12-14T09:46:42Z</time>
      </trkpt>
      <trkpt lat="43.15285" lon="1.03407">
        <ele>425.8</ele>
        <time>2025-12-14T09:46:43Z</time>
      </trkpt>
      <trkpt lat="43.15286" lon="1.034">
        <ele>424.8</ele>
        <time>2025-12-14T09:46:44Z</time>
      </trkpt>
      <trkpt lat="43.15287" lon="1.03393">
        <ele>424</ele>
        <time>2025-12-14T09:46:45Z</time>
      </trkpt>
      <trkpt lat="43.15289" lon="1.03389">
        <ele>423</ele>
        <time>2025-12-14T09:46:46Z</time>
      </trkpt>
      <trkpt lat="43.1529" lon="1.03386">
        <ele>422.2</ele>
        <time>2025-12-14T09:46:47Z</time>
      </trkpt>
      <trkpt lat="43.15291" lon="1.03382">
        <ele>421.2</ele>
        <time>2025-12-14T09:46:48Z</time>
      </trkpt>
      <trkpt lat="43.15293" lon="1.03377">
        <ele>420.4</ele>
        <time>2025-12-14T09:46:49Z</time>
      </trkpt>
      <trkpt lat="43.15294" lon="1.03372">
        <ele>419.8</ele>
        <time>2025-12-14T09:46:50Z</time>
      </trkpt>
      <trkpt lat="43.15298" lon="1.03368">
        <ele>419</ele>
        <time>2025-12-14T09:46:51Z</time>
      </trkpt>
      <trkpt lat="43.15302" lon="1.03363">
        <ele>418.2</ele>
        <time>2025-12-14T09:46:52Z</time>
      </trkpt>
      <trkpt lat="43.15304" lon="1.03358">
        <ele>417.6</ele>
        <time>2025-12-14T09:46:53Z</time>
      </trkpt>
      <trkpt lat="43.15305" lon="1.03352">
        <ele>416.8</ele>
        <time>2025-12-14T09:46:54Z</time>
      </trkpt>
      <trkpt lat="43.15307" lon="1.03345">
        <ele>416</ele>
        <time>2025-12-14T09:46:55Z</time>
      </trkpt>
      <trkpt lat="43.15308" lon="1.03339">
        <ele>415</ele>
        <time>2025-12-14T09:46:56Z</time>
      </trkpt>
      <trkpt lat="43.1531" lon="1.03334">
        <ele>414.2</ele>
        <time>2025-12-14T09:46:57Z</time>
      </trkpt>
      <trkpt lat="43.15311" lon="1.03326">
        <ele>413.4</ele>
        <time>2025-12-14T09:46:58Z</time>
      </trkpt>
      <trkpt lat="43.15314" lon="1.03319">
        <ele>412.4</ele>
        <time>2025-12-14T09:46:59Z</time>
      </trkpt>
      <trkpt lat="43.15316" lon="1.03311">
        <ele>411.6</ele>
        <time>2025-12-14T09:47:00Z</time>
      </trkpt>
      <trkpt lat="43.15317" lon="1.03304">
        <ele>410.6</ele>
        <time>2025-12-14T09:47:01Z</time>
      </trkpt>
      <trkpt lat="43.1532" lon="1.03297">
        <ele>409.8</ele>
        <time>2025-12-14T09:47:02Z</time>
      </trkpt>
      <trkpt lat="43.15322" lon="1.03291">
        <ele>409.8</ele>
        <time>2025-12-14T09:47:03Z</time>
      </trkpt>
      <trkpt lat="43.15325" lon="1.03283">
        <ele>409.4</ele>
        <time>2025-12-14T09:47:04Z</time>
      </trkpt>
      <trkpt lat="43.15327" lon="1.03276">
        <ele>409</ele>
        <time>2025-12-14T09:47:05Z</time>
      </trkpt>
      <trkpt lat="43.15331" lon="1.03269">
        <ele>408.6</ele>
        <time>2025-12-14T09:47:06Z</time>
      </trkpt>
      <trkpt lat="43.15337" lon="1.03264">
        <ele>407.6</ele>
        <time>2025-12-14T09:47:07Z</time>
      </trkpt>
      <trkpt lat="43.15342" lon="1.03258">
        <ele>407.6</ele>
        <time>2025-12-14T09:47:08Z</time>
      </trkpt>
      <trkpt lat="43.15347" lon="1.0325">
        <ele>407.2</ele>
        <time>2025-12-14T09:47:09Z</time>
      </trkpt>
      <trkpt lat="43.1535" lon="1.03243">
        <ele>406.8</ele>
        <time>2025-12-14T09:47:10Z</time>
      </trkpt>
      <trkpt lat="43.15352" lon="1.03235">
        <ele>406.4</ele>
        <time>2025-12-14T09:47:11Z</time>
      </trkpt>
      <trkpt lat="43.15355" lon="1.03226">
        <ele>406</ele>
        <time>2025-12-14T09:47:12Z</time>
      </trkpt>
      <trkpt lat="43.15358" lon="1.03217">
        <ele>405.4</ele>
        <time>2025-12-14T09:47:13Z</time>
      </trkpt>
      <trkpt lat="43.15362" lon="1.03208">
        <ele>405</ele>
        <time>2025-12-14T09:47:14Z</time>
      </trkpt>
      <trkpt lat="43.15364" lon="1.03199">
        <ele>404.4</ele>
        <time>2025-12-14T09:47:15Z</time>
      </trkpt>
      <trkpt lat="43.15366" lon="1.03191">
        <ele>404</ele>
        <time>2025-12-14T09:47:16Z</time>
      </trkpt>
      <trkpt lat="43.15369" lon="1.03183">
        <ele>403.4</ele>
        <time>2025-12-14T09:47:17Z</time>
      </trkpt>
      <trkpt lat="43.15372" lon="1.03172">
        <ele>402.6</ele>
        <time>2025-12-14T09:47:18Z</time>
      </trkpt>
      <trkpt lat="43.15375" lon="1.03165">
        <ele>402</ele>
        <time>2025-12-14T09:47:19Z</time>
      </trkpt>
      <trkpt lat="43.15378" lon="1.03157">
        <ele>401.4</ele>
        <time>2025-12-14T09:47:20Z</time>
      </trkpt>
      <trkpt lat="43.15381" lon="1.03153">
        <ele>400.8</ele>
        <time>2025-12-14T09:47:21Z</time>
      </trkpt>
      <trkpt lat="43.15384" lon="1.03149">
        <ele>400.2</ele>
        <time>2025-12-14T09:47:22Z</time>
      </trkpt>
      <trkpt lat="43.15387" lon="1.03146">
        <ele>399.4</ele>
        <time>2025-12-14T09:47:23Z</time>
      </trkpt>
      <trkpt lat="43.1539" lon="1.03143">
        <ele>398.8</ele>
        <time>2025-12-14T09:47:24Z</time>
      </trkpt>
      <trkpt lat="43.15392" lon="1.03138">
        <ele>398.2</ele>
        <time>2025-12-14T09:47:25Z</time>
      </trkpt>
      <trkpt lat="43.15397" lon="1.03135">
        <ele>397.8</ele>
        <time>2025-12-14T09:47:27Z</time>
      </trkpt>
      <trkpt lat="43.15399" lon="1.03132">
        <ele>397.4</ele>
        <time>2025-12-14T09:47:28Z</time>
      </trkpt>
      <trkpt lat="43.15403" lon="1.03127">
        <ele>397</ele>
        <time>2025-12-14T09:47:29Z</time>
      </trkpt>
      <trkpt lat="43.15406" lon="1.03124">
        <ele>396.6</ele>
        <time>2025-12-14T09:47:30Z</time>
      </trkpt>
      <trkpt lat="43.15411" lon="1.03122">
        <ele>396</ele>
        <time>2025-12-14T09:47:31Z</time>
      </trkpt>
      <trkpt lat="43.15416" lon="1.03121">
        <ele>396</ele>
        <time>2025-12-14T09:47:32Z</time>
      </trkpt>
      <trkpt lat="43.15426" lon="1.03119">
        <ele>396</ele>
        <time>2025-12-14T09:47:34Z</time>
      </trkpt>
      <trkpt lat="43.15431" lon="1.0312">
        <ele>395.6</ele>
        <time>2025-12-14T09:47:35Z</time>
      </trkpt>
      <trkpt lat="43.15437" lon="1.0312">
        <ele>395.2</ele>
        <time>2025-12-14T09:47:36Z</time>
      </trkpt>
      <trkpt lat="43.15443" lon="1.03119">
        <ele>394.6</ele>
        <time>2025-12-14T09:47:37Z</time>
      </trkpt>
      <trkpt lat="43.15448" lon="1.03119">
        <ele>394.2</ele>
        <time>2025-12-14T09:47:38Z</time>
      </trkpt>
      <trkpt lat="43.15454" lon="1.03119">
        <ele>393.8</ele>
        <time>2025-12-14T09:47:39Z</time>
      </trkpt>
      <trkpt lat="43.15461" lon="1.03118">
        <ele>393.2</ele>
        <time>2025-12-14T09:47:40Z</time>
      </trkpt>
      <trkpt lat="43.15469" lon="1.03117">
        <ele>392.8</ele>
        <time>2025-12-14T09:47:41Z</time>
      </trkpt>
      <trkpt lat="43.15477" lon="1.03116">
        <ele>392.4</ele>
        <time>2025-12-14T09:47:42Z</time>
      </trkpt>
      <trkpt lat="43.15485" lon="1.03116">
        <ele>392</ele>
        <time>2025-12-14T09:47:43Z</time>
      </trkpt>
      <trkpt lat="43.15491" lon="1.03115">
        <ele>391.6</ele>
        <time>2025-12-14T09:47:44Z</time>
      </trkpt>
      <trkpt lat="43.1552" lon="1.03114">
        <ele>391</ele>
        <time>2025-12-14T09:47:48Z</time>
      </trkpt>
      <trkpt lat="43.15527" lon="1.03116">
        <ele>390.6</ele>
        <time>2025-12-14T09:47:49Z</time>
      </trkpt>
      <trkpt lat="43.15533" lon="1.03118">
        <ele>390.2</ele>
        <time>2025-12-14T09:47:50Z</time>
      </trkpt>
      <trkpt lat="43.15539" lon="1.03122">
        <ele>389.8</ele>
        <time>2025-12-14T09:47:51Z</time>
      </trkpt>
      <trkpt lat="43.15543" lon="1.03127">
        <ele>389.2</ele>
        <time>2025-12-14T09:47:52Z</time>
      </trkpt>
      <trkpt lat="43.15557" lon="1.03137">
        <ele>389.2</ele>
        <time>2025-12-14T09:47:56Z</time>
      </trkpt>
      <trkpt lat="43.15567" lon="1.03138">
        <ele>389.2</ele>
        <time>2025-12-14T09:48:02Z</time>
      </trkpt>
      <trkpt lat="43.1557" lon="1.03134">
        <ele>389.8</ele>
        <time>2025-12-14T09:48:05Z</time>
      </trkpt>
      <trkpt lat="43.15569" lon="1.03133">
        <ele>390.2</ele>
        <time>2025-12-14T09:48:06Z</time>
      </trkpt>
      <trkpt lat="43.15569" lon="1.03131">
        <ele>390.6</ele>
        <time>2025-12-14T09:48:07Z</time>
      </trkpt>
      <trkpt lat="43.15569" lon="1.03129">
        <ele>391</ele>
        <time>2025-12-14T09:48:08Z</time>
      </trkpt>
      <trkpt lat="43.15568" lon="1.03128">
        <ele>391.4</ele>
        <time>2025-12-14T09:48:09Z</time>
      </trkpt>
      <trkpt lat="43.15568" lon="1.03121">
        <ele>391.4</ele>
        <time>2025-12-14T09:48:12Z</time>
      </trkpt>
      <trkpt lat="43.15568" lon="1.03118">
        <ele>391.4</ele>
        <time>2025-12-14T09:48:13Z</time>
      </trkpt>
      <trkpt lat="43.1557" lon="1.03113">
        <ele>391.8</ele>
        <time>2025-12-14T09:48:15Z</time>
      </trkpt>
      <trkpt lat="43.1557" lon="1.03111">
        <ele>392.2</ele>
        <time>2025-12-14T09:48:16Z</time>
      </trkpt>
      <trkpt lat="43.15571" lon="1.03109">
        <ele>392.6</ele>
        <time>2025-12-14T09:48:17Z</time>
      </trkpt>
      <trkpt lat="43.15572" lon="1.03108">
        <ele>393.2</ele>
        <time>2025-12-14T09:48:18Z</time>
      </trkpt>
      <trkpt lat="43.15573" lon="1.03104">
        <ele>393.6</ele>
        <time>2025-12-14T09:48:19Z</time>
      </trkpt>
      <trkpt lat="43.15576" lon="1.03095">
        <ele>394</ele>
        <time>2025-12-14T09:48:22Z</time>
      </trkpt>
      <trkpt lat="43.15576" lon="1.03093">
        <ele>394.4</ele>
        <time>2025-12-14T09:48:23Z</time>
      </trkpt>
      <trkpt lat="43.15577" lon="1.03091">
        <ele>395</ele>
        <time>2025-12-14T09:48:24Z</time>
      </trkpt>
      <trkpt lat="43.15578" lon="1.03088">
        <ele>395.4</ele>
        <time>2025-12-14T09:48:25Z</time>
      </trkpt>
      <trkpt lat="43.15579" lon="1.03086">
        <ele>395.8</ele>
        <time>2025-12-14T09:48:26Z</time>
      </trkpt>
      <trkpt lat="43.1558" lon="1.03081">
        <ele>396.4</ele>
        <time>2025-12-14T09:48:28Z</time>
      </trkpt>
      <trkpt lat="43.15581" lon="1.03079">
        <ele>396.8</ele>
        <time>2025-12-14T09:48:29Z</time>
      </trkpt>
      <trkpt lat="43.15583" lon="1.03076">
        <ele>397.2</ele>
        <time>2025-12-14T09:48:30Z</time>
      </trkpt>
      <trkpt lat="43.15584" lon="1.03073">
        <ele>397.6</ele>
        <time>2025-12-14T09:48:31Z</time>
      </trkpt>
      <trkpt lat="43.15585" lon="1.0307">
        <ele>398</ele>
        <time>2025-12-14T09:48:32Z</time>
      </trkpt>
      <trkpt lat="43.15586" lon="1.03068">
        <ele>398.4</ele>
        <time>2025-12-14T09:48:33Z</time>
      </trkpt>
      <trkpt lat="43.15587" lon="1.03064">
        <ele>399</ele>
        <time>2025-12-14T09:48:34Z</time>
      </trkpt>
      <trkpt lat="43.15588" lon="1.03061">
        <ele>399.4</ele>
        <time>2025-12-14T09:48:35Z</time>
      </trkpt>
      <trkpt lat="43.15589" lon="1.03058">
        <ele>399.8</ele>
        <time>2025-12-14T09:48:36Z</time>
      </trkpt>
      <trkpt lat="43.1559" lon="1.03056">
        <ele>400.2</ele>
        <time>2025-12-14T09:48:37Z</time>
      </trkpt>
      <trkpt lat="43.1559" lon="1.03053">
        <ele>400.8</ele>
        <time>2025-12-14T09:48:38Z</time>
      </trkpt>
      <trkpt lat="43.15591" lon="1.0305">
        <ele>401.2</ele>
        <time>2025-12-14T09:48:39Z</time>
      </trkpt>
      <trkpt lat="43.15591" lon="1.03047">
        <ele>401.8</ele>
        <time>2025-12-14T09:48:40Z</time>
      </trkpt>
      <trkpt lat="43.15591" lon="1.03044">
        <ele>402.2</ele>
        <time>2025-12-14T09:48:41Z</time>
      </trkpt>
      <trkpt lat="43.15592" lon="1.03041">
        <ele>402.8</ele>
        <time>2025-12-14T09:48:42Z</time>
      </trkpt>
      <trkpt lat="43.15592" lon="1.03038">
        <ele>403.2</ele>
        <time>2025-12-14T09:48:43Z</time>
      </trkpt>
      <trkpt lat="43.15592" lon="1.03036">
        <ele>403.6</ele>
        <time>2025-12-14T09:48:44Z</time>
      </trkpt>
      <trkpt lat="43.15592" lon="1.03034">
        <ele>404.2</ele>
        <time>2025-12-14T09:48:45Z</time>
      </trkpt>
      <trkpt lat="43.15592" lon="1.03033">
        <ele>405</ele>
        <time>2025-12-14T09:48:46Z</time>
      </trkpt>
      <trkpt lat="43.15592" lon="1.0303">
        <ele>405.4</ele>
        <time>2025-12-14T09:48:47Z</time>
      </trkpt>
      <trkpt lat="43.15591" lon="1.03027">
        <ele>405.8</ele>
        <time>2025-12-14T09:48:48Z</time>
      </trkpt>
      <trkpt lat="43.15591" lon="1.03025">
        <ele>406.2</ele>
        <time>2025-12-14T09:48:49Z</time>
      </trkpt>
      <trkpt lat="43.1559" lon="1.03022">
        <ele>406.8</ele>
        <time>2025-12-14T09:48:50Z</time>
      </trkpt>
      <trkpt lat="43.1559" lon="1.03019">
        <ele>407.2</ele>
        <time>2025-12-14T09:48:51Z</time>
      </trkpt>
      <trkpt lat="43.1559" lon="1.03017">
        <ele>407.8</ele>
        <time>2025-12-14T09:48:52Z</time>
      </trkpt>
      <trkpt lat="43.15589" lon="1.03013">
        <ele>408.2</ele>
        <time>2025-12-14T09:48:53Z</time>
      </trkpt>
      <trkpt lat="43.15588" lon="1.03011">
        <ele>408.6</ele>
        <time>2025-12-14T09:48:54Z</time>
      </trkpt>
      <trkpt lat="43.15587" lon="1.03008">
        <ele>408.6</ele>
        <time>2025-12-14T09:48:55Z</time>
      </trkpt>
      <trkpt lat="43.15585" lon="1.03006">
        <ele>409.2</ele>
        <time>2025-12-14T09:48:56Z</time>
      </trkpt>
      <trkpt lat="43.15581" lon="1.03005">
        <ele>409.6</ele>
        <time>2025-12-14T09:48:57Z</time>
      </trkpt>
      <trkpt lat="43.15578" lon="1.03004">
        <ele>410</ele>
        <time>2025-12-14T09:48:58Z</time>
      </trkpt>
      <trkpt lat="43.15577" lon="1.03003">
        <ele>410.4</ele>
        <time>2025-12-14T09:48:59Z</time>
      </trkpt>
      <trkpt lat="43.15575" lon="1.03003">
        <ele>410.8</ele>
        <time>2025-12-14T09:49:00Z</time>
      </trkpt>
      <trkpt lat="43.15573" lon="1.03001">
        <ele>410.8</ele>
        <time>2025-12-14T09:49:01Z</time>
      </trkpt>
      <trkpt lat="43.15566" lon="1.02991">
        <ele>410.8</ele>
        <time>2025-12-14T09:49:05Z</time>
      </trkpt>
      <trkpt lat="43.1556" lon="1.02982">
        <ele>410.8</ele>
        <time>2025-12-14T09:49:09Z</time>
      </trkpt>
      <trkpt lat="43.15559" lon="1.0298">
        <ele>410.8</ele>
        <time>2025-12-14T09:49:10Z</time>
      </trkpt>
      <trkpt lat="43.15557" lon="1.02977">
        <ele>410.8</ele>
        <time>2025-12-14T09:49:11Z</time>
      </trkpt>
      <trkpt lat="43.15555" lon="1.02967">
        <ele>410.8</ele>
        <time>2025-12-14T09:49:15Z</time>
      </trkpt>
      <trkpt lat="43.15555" lon="1.0296">
        <ele>411.4</ele>
        <time>2025-12-14T09:49:18Z</time>
      </trkpt>
      <trkpt lat="43.15555" lon="1.02958">
        <ele>411.8</ele>
        <time>2025-12-14T09:49:19Z</time>
      </trkpt>
      <trkpt lat="43.15555" lon="1.02955">
        <ele>412.2</ele>
        <time>2025-12-14T09:49:20Z</time>
      </trkpt>
      <trkpt lat="43.15555" lon="1.02954">
        <ele>412.6</ele>
        <time>2025-12-14T09:49:21Z</time>
      </trkpt>
      <trkpt lat="43.15555" lon="1.02951">
        <ele>413</ele>
        <time>2025-12-14T09:49:22Z</time>
      </trkpt>
      <trkpt lat="43.15555" lon="1.02948">
        <ele>413</ele>
        <time>2025-12-14T09:49:23Z</time>
      </trkpt>
      <trkpt lat="43.15554" lon="1.02944">
        <ele>413</ele>
        <time>2025-12-14T09:49:24Z</time>
      </trkpt>
      <trkpt lat="43.15552" lon="1.02938">
        <ele>413.4</ele>
        <time>2025-12-14T09:49:26Z</time>
      </trkpt>
      <trkpt lat="43.15552" lon="1.02935">
        <ele>414</ele>
        <time>2025-12-14T09:49:27Z</time>
      </trkpt>
      <trkpt lat="43.15552" lon="1.02933">
        <ele>414.4</ele>
        <time>2025-12-14T09:49:28Z</time>
      </trkpt>
      <trkpt lat="43.15552" lon="1.0293">
        <ele>415</ele>
        <time>2025-12-14T09:49:29Z</time>
      </trkpt>
      <trkpt lat="43.15552" lon="1.02927">
        <ele>415.4</ele>
        <time>2025-12-14T09:49:30Z</time>
      </trkpt>
      <trkpt lat="43.15552" lon="1.02925">
        <ele>415.8</ele>
        <time>2025-12-14T09:49:31Z</time>
      </trkpt>
      <trkpt lat="43.15551" lon="1.02922">
        <ele>416.2</ele>
        <time>2025-12-14T09:49:32Z</time>
      </trkpt>
      <trkpt lat="43.1555" lon="1.02919">
        <ele>416.8</ele>
        <time>2025-12-14T09:49:33Z</time>
      </trkpt>
      <trkpt lat="43.1555" lon="1.02915">
        <ele>417.2</ele>
        <time>2025-12-14T09:49:34Z</time>
      </trkpt>
      <trkpt lat="43.15549" lon="1.02913">
        <ele>417.6</ele>
        <time>2025-12-14T09:49:35Z</time>
      </trkpt>
      <trkpt lat="43.15549" lon="1.02911">
        <ele>418</ele>
        <time>2025-12-14T09:49:36Z</time>
      </trkpt>
      <trkpt lat="43.1555" lon="1.02909">
        <ele>418.4</ele>
        <time>2025-12-14T09:49:37Z</time>
      </trkpt>
      <trkpt lat="43.1555" lon="1.02907">
        <ele>419</ele>
        <time>2025-12-14T09:49:38Z</time>
      </trkpt>
      <trkpt lat="43.15551" lon="1.02905">
        <ele>419.4</ele>
        <time>2025-12-14T09:49:39Z</time>
      </trkpt>
      <trkpt lat="43.15552" lon="1.02903">
        <ele>419.8</ele>
        <time>2025-12-14T09:49:40Z</time>
      </trkpt>
      <trkpt lat="43.15552" lon="1.02901">
        <ele>419.8</ele>
        <time>2025-12-14T09:49:41Z</time>
      </trkpt>
      <trkpt lat="43.15553" lon="1.02898">
        <ele>420.2</ele>
        <time>2025-12-14T09:49:42Z</time>
      </trkpt>
      <trkpt lat="43.15554" lon="1.02896">
        <ele>420.6</ele>
        <time>2025-12-14T09:49:43Z</time>
      </trkpt>
      <trkpt lat="43.15555" lon="1.02892">
        <ele>421.2</ele>
        <time>2025-12-14T09:49:44Z</time>
      </trkpt>
      <trkpt lat="43.15555" lon="1.02889">
        <ele>421.6</ele>
        <time>2025-12-14T09:49:45Z</time>
      </trkpt>
      <trkpt lat="43.15556" lon="1.02886">
        <ele>422</ele>
        <time>2025-12-14T09:49:46Z</time>
      </trkpt>
      <trkpt lat="43.15557" lon="1.02881">
        <ele>422.4</ele>
        <time>2025-12-14T09:49:48Z</time>
      </trkpt>
      <trkpt lat="43.15558" lon="1.02879">
        <ele>422.8</ele>
        <time>2025-12-14T09:49:49Z</time>
      </trkpt>
      <trkpt lat="43.15559" lon="1.02877">
        <ele>423.2</ele>
        <time>2025-12-14T09:49:50Z</time>
      </trkpt>
      <trkpt lat="43.1556" lon="1.02874">
        <ele>423.6</ele>
        <time>2025-12-14T09:49:51Z</time>
      </trkpt>
      <trkpt lat="43.15561" lon="1.02872">
        <ele>424.2</ele>
        <time>2025-12-14T09:49:52Z</time>
      </trkpt>
      <trkpt lat="43.15565" lon="1.02861">
        <ele>424.6</ele>
        <time>2025-12-14T09:49:56Z</time>
      </trkpt>
      <trkpt lat="43.15566" lon="1.02859">
        <ele>425</ele>
        <time>2025-12-14T09:49:57Z</time>
      </trkpt>
      <trkpt lat="43.15567" lon="1.02857">
        <ele>425.4</ele>
        <time>2025-12-14T09:49:58Z</time>
      </trkpt>
      <trkpt lat="43.15568" lon="1.02855">
        <ele>425.8</ele>
        <time>2025-12-14T09:49:59Z</time>
      </trkpt>
      <trkpt lat="43.15569" lon="1.02852">
        <ele>426.2</ele>
        <time>2025-12-14T09:50:00Z</time>
      </trkpt>
      <trkpt lat="43.15571" lon="1.02848">
        <ele>426.6</ele>
        <time>2025-12-14T09:50:02Z</time>
      </trkpt>
      <trkpt lat="43.15572" lon="1.02846">
        <ele>427.2</ele>
        <time>2025-12-14T09:50:03Z</time>
      </trkpt>
      <trkpt lat="43.15573" lon="1.02844">
        <ele>427.6</ele>
        <time>2025-12-14T09:50:04Z</time>
      </trkpt>
      <trkpt lat="43.15575" lon="1.02842">
        <ele>428</ele>
        <time>2025-12-14T09:50:05Z</time>
      </trkpt>
      <trkpt lat="43.15576" lon="1.0284">
        <ele>428.4</ele>
        <time>2025-12-14T09:50:06Z</time>
      </trkpt>
      <trkpt lat="43.15579" lon="1.02836">
        <ele>428.8</ele>
        <time>2025-12-14T09:50:08Z</time>
      </trkpt>
      <trkpt lat="43.1558" lon="1.02834">
        <ele>429.2</ele>
        <time>2025-12-14T09:50:09Z</time>
      </trkpt>
      <trkpt lat="43.15582" lon="1.02832">
        <ele>429.6</ele>
        <time>2025-12-14T09:50:10Z</time>
      </trkpt>
      <trkpt lat="43.15583" lon="1.0283">
        <ele>430</ele>
        <time>2025-12-14T09:50:11Z</time>
      </trkpt>
      <trkpt lat="43.15584" lon="1.02829">
        <ele>430.4</ele>
        <time>2025-12-14T09:50:12Z</time>
      </trkpt>
      <trkpt lat="43.15586" lon="1.02825">
        <ele>430.8</ele>
        <time>2025-12-14T09:50:14Z</time>
      </trkpt>
      <trkpt lat="43.15587" lon="1.02823">
        <ele>431.2</ele>
        <time>2025-12-14T09:50:15Z</time>
      </trkpt>
      <trkpt lat="43.15588" lon="1.02821">
        <ele>431.6</ele>
        <time>2025-12-14T09:50:16Z</time>
      </trkpt>
      <trkpt lat="43.15589" lon="1.02818">
        <ele>432</ele>
        <time>2025-12-14T09:50:17Z</time>
      </trkpt>
      <trkpt lat="43.1559" lon="1.02816">
        <ele>432.4</ele>
        <time>2025-12-14T09:50:18Z</time>
      </trkpt>
      <trkpt lat="43.15595" lon="1.02807">
        <ele>433</ele>
        <time>2025-12-14T09:50:23Z</time>
      </trkpt>
      <trkpt lat="43.15596" lon="1.02805">
        <ele>433.8</ele>
        <time>2025-12-14T09:50:24Z</time>
      </trkpt>
      <trkpt lat="43.15597" lon="1.02804">
        <ele>434.2</ele>
        <time>2025-12-14T09:50:25Z</time>
      </trkpt>
      <trkpt lat="43.15599" lon="1.02801">
        <ele>434.6</ele>
        <time>2025-12-14T09:50:26Z</time>
      </trkpt>
      <trkpt lat="43.15602" lon="1.02795">
        <ele>434.6</ele>
        <time>2025-12-14T09:50:29Z</time>
      </trkpt>
      <trkpt lat="43.15604" lon="1.02793">
        <ele>435</ele>
        <time>2025-12-14T09:50:30Z</time>
      </trkpt>
      <trkpt lat="43.15605" lon="1.02791">
        <ele>435.6</ele>
        <time>2025-12-14T09:50:31Z</time>
      </trkpt>
      <trkpt lat="43.15607" lon="1.02789">
        <ele>436</ele>
        <time>2025-12-14T09:50:32Z</time>
      </trkpt>
      <trkpt lat="43.15608" lon="1.02787">
        <ele>436.4</ele>
        <time>2025-12-14T09:50:33Z</time>
      </trkpt>
      <trkpt lat="43.15609" lon="1.02786">
        <ele>436.8</ele>
        <time>2025-12-14T09:50:34Z</time>
      </trkpt>
      <trkpt lat="43.1561" lon="1.02784">
        <ele>436.8</ele>
        <time>2025-12-14T09:50:35Z</time>
      </trkpt>
      <trkpt lat="43.15612" lon="1.02781">
        <ele>437.4</ele>
        <time>2025-12-14T09:50:37Z</time>
      </trkpt>
      <trkpt lat="43.15613" lon="1.02779">
        <ele>437.8</ele>
        <time>2025-12-14T09:50:38Z</time>
      </trkpt>
      <trkpt lat="43.15615" lon="1.02778">
        <ele>438.2</ele>
        <time>2025-12-14T09:50:39Z</time>
      </trkpt>
      <trkpt lat="43.15616" lon="1.02776">
        <ele>438.6</ele>
        <time>2025-12-14T09:50:40Z</time>
      </trkpt>
      <trkpt lat="43.15617" lon="1.02775">
        <ele>439</ele>
        <time>2025-12-14T09:50:41Z</time>
      </trkpt>
      <trkpt lat="43.15621" lon="1.02772">
        <ele>439.4</ele>
        <time>2025-12-14T09:50:43Z</time>
      </trkpt>
      <trkpt lat="43.15623" lon="1.0277">
        <ele>439.8</ele>
        <time>2025-12-14T09:50:44Z</time>
      </trkpt>
      <trkpt lat="43.15625" lon="1.02769">
        <ele>440.2</ele>
        <time>2025-12-14T09:50:45Z</time>
      </trkpt>
      <trkpt lat="43.15626" lon="1.02767">
        <ele>440.6</ele>
        <time>2025-12-14T09:50:46Z</time>
      </trkpt>
      <trkpt lat="43.15628" lon="1.02765">
        <ele>441.2</ele>
        <time>2025-12-14T09:50:47Z</time>
      </trkpt>
      <trkpt lat="43.15631" lon="1.02761">
        <ele>442</ele>
        <time>2025-12-14T09:50:49Z</time>
      </trkpt>
      <trkpt lat="43.15633" lon="1.02759">
        <ele>442.4</ele>
        <time>2025-12-14T09:50:50Z</time>
      </trkpt>
      <trkpt lat="43.15634" lon="1.02758">
        <ele>442.8</ele>
        <time>2025-12-14T09:50:51Z</time>
      </trkpt>
      <trkpt lat="43.15636" lon="1.02757">
        <ele>443.2</ele>
        <time>2025-12-14T09:50:52Z</time>
      </trkpt>
      <trkpt lat="43.15639" lon="1.02753">
        <ele>443.6</ele>
        <time>2025-12-14T09:50:54Z</time>
      </trkpt>
      <trkpt lat="43.1564" lon="1.02751">
        <ele>444</ele>
        <time>2025-12-14T09:50:55Z</time>
      </trkpt>
      <trkpt lat="43.15642" lon="1.02748">
        <ele>444.4</ele>
        <time>2025-12-14T09:50:56Z</time>
      </trkpt>
      <trkpt lat="43.15644" lon="1.02746">
        <ele>445</ele>
        <time>2025-12-14T09:50:57Z</time>
      </trkpt>
      <trkpt lat="43.15646" lon="1.02744">
        <ele>445.4</ele>
        <time>2025-12-14T09:50:58Z</time>
      </trkpt>
      <trkpt lat="43.15649" lon="1.02738">
        <ele>445.8</ele>
        <time>2025-12-14T09:51:01Z</time>
      </trkpt>
      <trkpt lat="43.1565" lon="1.02736">
        <ele>446.2</ele>
        <time>2025-12-14T09:51:02Z</time>
      </trkpt>
      <trkpt lat="43.15651" lon="1.02734">
        <ele>446.6</ele>
        <time>2025-12-14T09:51:03Z</time>
      </trkpt>
      <trkpt lat="43.15652" lon="1.02732">
        <ele>447</ele>
        <time>2025-12-14T09:51:04Z</time>
      </trkpt>
      <trkpt lat="43.15654" lon="1.02729">
        <ele>447.4</ele>
        <time>2025-12-14T09:51:05Z</time>
      </trkpt>
      <trkpt lat="43.15658" lon="1.02724">
        <ele>447.8</ele>
        <time>2025-12-14T09:51:08Z</time>
      </trkpt>
      <trkpt lat="43.15659" lon="1.02723">
        <ele>448.2</ele>
        <time>2025-12-14T09:51:09Z</time>
      </trkpt>
      <trkpt lat="43.15661" lon="1.02721">
        <ele>448.6</ele>
        <time>2025-12-14T09:51:10Z</time>
      </trkpt>
      <trkpt lat="43.15663" lon="1.0272">
        <ele>449</ele>
        <time>2025-12-14T09:51:11Z</time>
      </trkpt>
      <trkpt lat="43.15664" lon="1.02719">
        <ele>449.4</ele>
        <time>2025-12-14T09:51:12Z</time>
      </trkpt>
      <trkpt lat="43.15666" lon="1.02717">
        <ele>449.4</ele>
        <time>2025-12-14T09:51:13Z</time>
      </trkpt>
      <trkpt lat="43.15667" lon="1.02716">
        <ele>450</ele>
        <time>2025-12-14T09:51:14Z</time>
      </trkpt>
      <trkpt lat="43.15669" lon="1.02714">
        <ele>450.4</ele>
        <time>2025-12-14T09:51:15Z</time>
      </trkpt>
      <trkpt lat="43.1567" lon="1.02712">
        <ele>450.8</ele>
        <time>2025-12-14T09:51:16Z</time>
      </trkpt>
      <trkpt lat="43.15671" lon="1.0271">
        <ele>451.2</ele>
        <time>2025-12-14T09:51:17Z</time>
      </trkpt>
      <trkpt lat="43.15673" lon="1.02709">
        <ele>451.6</ele>
        <time>2025-12-14T09:51:18Z</time>
      </trkpt>
      <trkpt lat="43.15677" lon="1.02704">
        <ele>452.2</ele>
        <time>2025-12-14T09:51:21Z</time>
      </trkpt>
      <trkpt lat="43.15679" lon="1.02703">
        <ele>452.6</ele>
        <time>2025-12-14T09:51:22Z</time>
      </trkpt>
      <trkpt lat="43.1568" lon="1.02701">
        <ele>453</ele>
        <time>2025-12-14T09:51:23Z</time>
      </trkpt>
      <trkpt lat="43.15682" lon="1.02699">
        <ele>453.4</ele>
        <time>2025-12-14T09:51:24Z</time>
      </trkpt>
      <trkpt lat="43.15683" lon="1.02698">
        <ele>454</ele>
        <time>2025-12-14T09:51:25Z</time>
      </trkpt>
      <trkpt lat="43.15687" lon="1.02694">
        <ele>454.4</ele>
        <time>2025-12-14T09:51:28Z</time>
      </trkpt>
      <trkpt lat="43.15689" lon="1.02692">
        <ele>454.8</ele>
        <time>2025-12-14T09:51:29Z</time>
      </trkpt>
      <trkpt lat="43.1569" lon="1.0269">
        <ele>455.4</ele>
        <time>2025-12-14T09:51:30Z</time>
      </trkpt>
      <trkpt lat="43.15692" lon="1.02689">
        <ele>455.8</ele>
        <time>2025-12-14T09:51:31Z</time>
      </trkpt>
      <trkpt lat="43.15693" lon="1.02687">
        <ele>456.2</ele>
        <time>2025-12-14T09:51:32Z</time>
      </trkpt>
      <trkpt lat="43.15697" lon="1.02684">
        <ele>456.8</ele>
        <time>2025-12-14T09:51:34Z</time>
      </trkpt>
      <trkpt lat="43.15699" lon="1.02683">
        <ele>457.2</ele>
        <time>2025-12-14T09:51:35Z</time>
      </trkpt>
      <trkpt lat="43.15701" lon="1.02682">
        <ele>457.6</ele>
        <time>2025-12-14T09:51:36Z</time>
      </trkpt>
      <trkpt lat="43.15703" lon="1.0268">
        <ele>458.2</ele>
        <time>2025-12-14T09:51:37Z</time>
      </trkpt>
      <trkpt lat="43.15706" lon="1.02678">
        <ele>458.6</ele>
        <time>2025-12-14T09:51:38Z</time>
      </trkpt>
      <trkpt lat="43.15708" lon="1.02677">
        <ele>459</ele>
        <time>2025-12-14T09:51:39Z</time>
      </trkpt>
      <trkpt lat="43.1571" lon="1.02675">
        <ele>459.6</ele>
        <time>2025-12-14T09:51:40Z</time>
      </trkpt>
      <trkpt lat="43.15712" lon="1.02673">
        <ele>460</ele>
        <time>2025-12-14T09:51:41Z</time>
      </trkpt>
      <trkpt lat="43.15714" lon="1.02671">
        <ele>460.4</ele>
        <time>2025-12-14T09:51:42Z</time>
      </trkpt>
      <trkpt lat="43.15715" lon="1.02669">
        <ele>461</ele>
        <time>2025-12-14T09:51:43Z</time>
      </trkpt>
      <trkpt lat="43.15718" lon="1.02665">
        <ele>461.4</ele>
        <time>2025-12-14T09:51:45Z</time>
      </trkpt>
      <trkpt lat="43.15719" lon="1.02663">
        <ele>461.8</ele>
        <time>2025-12-14T09:51:46Z</time>
      </trkpt>
      <trkpt lat="43.15721" lon="1.02662">
        <ele>462.2</ele>
        <time>2025-12-14T09:51:47Z</time>
      </trkpt>
      <trkpt lat="43.15722" lon="1.02661">
        <ele>462.6</ele>
        <time>2025-12-14T09:51:48Z</time>
      </trkpt>
      <trkpt lat="43.15723" lon="1.0266">
        <ele>463.2</ele>
        <time>2025-12-14T09:51:49Z</time>
      </trkpt>
      <trkpt lat="43.15727" lon="1.02656">
        <ele>463.6</ele>
        <time>2025-12-14T09:51:52Z</time>
      </trkpt>
      <trkpt lat="43.15728" lon="1.02655">
        <ele>464</ele>
        <time>2025-12-14T09:51:53Z</time>
      </trkpt>
      <trkpt lat="43.1573" lon="1.02653">
        <ele>464.6</ele>
        <time>2025-12-14T09:51:54Z</time>
      </trkpt>
      <trkpt lat="43.15731" lon="1.02651">
        <ele>465</ele>
        <time>2025-12-14T09:51:55Z</time>
      </trkpt>
      <trkpt lat="43.15732" lon="1.0265">
        <ele>465.4</ele>
        <time>2025-12-14T09:51:56Z</time>
      </trkpt>
      <trkpt lat="43.15734" lon="1.02648">
        <ele>465.4</ele>
        <time>2025-12-14T09:51:58Z</time>
      </trkpt>
      <trkpt lat="43.15735" lon="1.02646">
        <ele>465.8</ele>
        <time>2025-12-14T09:51:59Z</time>
      </trkpt>
      <trkpt lat="43.15737" lon="1.02645">
        <ele>466.4</ele>
        <time>2025-12-14T09:52:00Z</time>
      </trkpt>
      <trkpt lat="43.15738" lon="1.02644">
        <ele>466.8</ele>
        <time>2025-12-14T09:52:01Z</time>
      </trkpt>
      <trkpt lat="43.15739" lon="1.02643">
        <ele>467.2</ele>
        <time>2025-12-14T09:52:02Z</time>
      </trkpt>
      <trkpt lat="43.1574" lon="1.02642">
        <ele>467.8</ele>
        <time>2025-12-14T09:52:03Z</time>
      </trkpt>
      <trkpt lat="43.15741" lon="1.0264">
        <ele>468.2</ele>
        <time>2025-12-14T09:52:04Z</time>
      </trkpt>
      <trkpt lat="43.15743" lon="1.02639">
        <ele>468.6</ele>
        <time>2025-12-14T09:52:05Z</time>
      </trkpt>
      <trkpt lat="43.15744" lon="1.02638">
        <ele>469</ele>
        <time>2025-12-14T09:52:06Z</time>
      </trkpt>
      <trkpt lat="43.15746" lon="1.02637">
        <ele>469.4</ele>
        <time>2025-12-14T09:52:07Z</time>
      </trkpt>
      <trkpt lat="43.15747" lon="1.02636">
        <ele>469.8</ele>
        <time>2025-12-14T09:52:08Z</time>
      </trkpt>
      <trkpt lat="43.15752" lon="1.02633">
        <ele>470.2</ele>
        <time>2025-12-14T09:52:11Z</time>
      </trkpt>
      <trkpt lat="43.15755" lon="1.02631">
        <ele>470.6</ele>
        <time>2025-12-14T09:52:12Z</time>
      </trkpt>
      <trkpt lat="43.15757" lon="1.0263">
        <ele>471</ele>
        <time>2025-12-14T09:52:13Z</time>
      </trkpt>
      <trkpt lat="43.15759" lon="1.02628">
        <ele>471.4</ele>
        <time>2025-12-14T09:52:14Z</time>
      </trkpt>
      <trkpt lat="43.1576" lon="1.02626">
        <ele>472</ele>
        <time>2025-12-14T09:52:15Z</time>
      </trkpt>
      <trkpt lat="43.15763" lon="1.02619">
        <ele>472.4</ele>
        <time>2025-12-14T09:52:18Z</time>
      </trkpt>
      <trkpt lat="43.15764" lon="1.02618">
        <ele>472.8</ele>
        <time>2025-12-14T09:52:19Z</time>
      </trkpt>
      <trkpt lat="43.15765" lon="1.02616">
        <ele>473.2</ele>
        <time>2025-12-14T09:52:20Z</time>
      </trkpt>
      <trkpt lat="43.15766" lon="1.02614">
        <ele>473.6</ele>
        <time>2025-12-14T09:52:21Z</time>
      </trkpt>
      <trkpt lat="43.15767" lon="1.02612">
        <ele>474</ele>
        <time>2025-12-14T09:52:22Z</time>
      </trkpt>
      <trkpt lat="43.15769" lon="1.02608">
        <ele>474</ele>
        <time>2025-12-14T09:52:24Z</time>
      </trkpt>
      <trkpt lat="43.15774" lon="1.02599">
        <ele>474.4</ele>
        <time>2025-12-14T09:52:28Z</time>
      </trkpt>
      <trkpt lat="43.15775" lon="1.02597">
        <ele>474.8</ele>
        <time>2025-12-14T09:52:29Z</time>
      </trkpt>
      <trkpt lat="43.15776" lon="1.02595">
        <ele>475.4</ele>
        <time>2025-12-14T09:52:30Z</time>
      </trkpt>
      <trkpt lat="43.15777" lon="1.02593">
        <ele>475.8</ele>
        <time>2025-12-14T09:52:31Z</time>
      </trkpt>
      <trkpt lat="43.15778" lon="1.02591">
        <ele>476.2</ele>
        <time>2025-12-14T09:52:32Z</time>
      </trkpt>
      <trkpt lat="43.15782" lon="1.02584">
        <ele>476.6</ele>
        <time>2025-12-14T09:52:36Z</time>
      </trkpt>
      <trkpt lat="43.15783" lon="1.02583">
        <ele>477</ele>
        <time>2025-12-14T09:52:37Z</time>
      </trkpt>
      <trkpt lat="43.15784" lon="1.02581">
        <ele>477.4</ele>
        <time>2025-12-14T09:52:38Z</time>
      </trkpt>
      <trkpt lat="43.15785" lon="1.02579">
        <ele>477.8</ele>
        <time>2025-12-14T09:52:39Z</time>
      </trkpt>
      <trkpt lat="43.15786" lon="1.02577">
        <ele>478.2</ele>
        <time>2025-12-14T09:52:40Z</time>
      </trkpt>
      <trkpt lat="43.15788" lon="1.02572">
        <ele>478.2</ele>
        <time>2025-12-14T09:52:42Z</time>
      </trkpt>
      <trkpt lat="43.15791" lon="1.02568">
        <ele>478.8</ele>
        <time>2025-12-14T09:52:44Z</time>
      </trkpt>
      <trkpt lat="43.15792" lon="1.02566">
        <ele>479.2</ele>
        <time>2025-12-14T09:52:45Z</time>
      </trkpt>
      <trkpt lat="43.15793" lon="1.02564">
        <ele>479.6</ele>
        <time>2025-12-14T09:52:46Z</time>
      </trkpt>
      <trkpt lat="43.15794" lon="1.02561">
        <ele>480</ele>
        <time>2025-12-14T09:52:47Z</time>
      </trkpt>
      <trkpt lat="43.15795" lon="1.02559">
        <ele>480.4</ele>
        <time>2025-12-14T09:52:48Z</time>
      </trkpt>
      <trkpt lat="43.15798" lon="1.02555">
        <ele>480.8</ele>
        <time>2025-12-14T09:52:50Z</time>
      </trkpt>
      <trkpt lat="43.158" lon="1.02554">
        <ele>481.2</ele>
        <time>2025-12-14T09:52:51Z</time>
      </trkpt>
      <trkpt lat="43.15801" lon="1.02552">
        <ele>481.6</ele>
        <time>2025-12-14T09:52:52Z</time>
      </trkpt>
      <trkpt lat="43.15803" lon="1.02551">
        <ele>482.6</ele>
        <time>2025-12-14T09:52:53Z</time>
      </trkpt>
      <trkpt lat="43.15804" lon="1.0255">
        <ele>483</ele>
        <time>2025-12-14T09:52:54Z</time>
      </trkpt>
      <trkpt lat="43.15806" lon="1.02548">
        <ele>483.4</ele>
        <time>2025-12-14T09:52:55Z</time>
      </trkpt>
      <trkpt lat="43.15808" lon="1.02547">
        <ele>483.8</ele>
        <time>2025-12-14T09:52:56Z</time>
      </trkpt>
      <trkpt lat="43.15809" lon="1.02545">
        <ele>484.2</ele>
        <time>2025-12-14T09:52:57Z</time>
      </trkpt>
      <trkpt lat="43.1581" lon="1.02544">
        <ele>484.6</ele>
        <time>2025-12-14T09:52:58Z</time>
      </trkpt>
      <trkpt lat="43.15812" lon="1.02542">
        <ele>485</ele>
        <time>2025-12-14T09:53:00Z</time>
      </trkpt>
      <trkpt lat="43.15813" lon="1.02541">
        <ele>485.4</ele>
        <time>2025-12-14T09:53:01Z</time>
      </trkpt>
      <trkpt lat="43.15815" lon="1.02539">
        <ele>485.8</ele>
        <time>2025-12-14T09:53:02Z</time>
      </trkpt>
      <trkpt lat="43.15816" lon="1.02538">
        <ele>486.2</ele>
        <time>2025-12-14T09:53:03Z</time>
      </trkpt>
      <trkpt lat="43.15817" lon="1.02535">
        <ele>486.8</ele>
        <time>2025-12-14T09:53:04Z</time>
      </trkpt>
      <trkpt lat="43.15818" lon="1.02533">
        <ele>487.2</ele>
        <time>2025-12-14T09:53:05Z</time>
      </trkpt>
      <trkpt lat="43.1582" lon="1.02531">
        <ele>487.6</ele>
        <time>2025-12-14T09:53:06Z</time>
      </trkpt>
      <trkpt lat="43.15821" lon="1.0253">
        <ele>488</ele>
        <time>2025-12-14T09:53:07Z</time>
      </trkpt>
      <trkpt lat="43.15822" lon="1.02528">
        <ele>488.4</ele>
        <time>2025-12-14T09:53:08Z</time>
      </trkpt>
      <trkpt lat="43.15823" lon="1.02527">
        <ele>488.8</ele>
        <time>2025-12-14T09:53:09Z</time>
      </trkpt>
      <trkpt lat="43.15825" lon="1.02525">
        <ele>489.2</ele>
        <time>2025-12-14T09:53:10Z</time>
      </trkpt>
      <trkpt lat="43.15827" lon="1.02523">
        <ele>489.6</ele>
        <time>2025-12-14T09:53:11Z</time>
      </trkpt>
      <trkpt lat="43.15828" lon="1.02521">
        <ele>490</ele>
        <time>2025-12-14T09:53:12Z</time>
      </trkpt>
      <trkpt lat="43.15829" lon="1.02519">
        <ele>490.4</ele>
        <time>2025-12-14T09:53:13Z</time>
      </trkpt>
      <trkpt lat="43.15831" lon="1.02517">
        <ele>490.8</ele>
        <time>2025-12-14T09:53:14Z</time>
      </trkpt>
      <trkpt lat="43.15833" lon="1.02512">
        <ele>491.4</ele>
        <time>2025-12-14T09:53:16Z</time>
      </trkpt>
      <trkpt lat="43.15835" lon="1.0251">
        <ele>492.2</ele>
        <time>2025-12-14T09:53:17Z</time>
      </trkpt>
      <trkpt lat="43.15836" lon="1.02508">
        <ele>492.6</ele>
        <time>2025-12-14T09:53:18Z</time>
      </trkpt>
      <trkpt lat="43.15838" lon="1.02506">
        <ele>493</ele>
        <time>2025-12-14T09:53:19Z</time>
      </trkpt>
      <trkpt lat="43.1584" lon="1.02502">
        <ele>493.4</ele>
        <time>2025-12-14T09:53:21Z</time>
      </trkpt>
      <trkpt lat="43.15842" lon="1.025">
        <ele>494</ele>
        <time>2025-12-14T09:53:22Z</time>
      </trkpt>
      <trkpt lat="43.15843" lon="1.02498">
        <ele>494.4</ele>
        <time>2025-12-14T09:53:23Z</time>
      </trkpt>
      <trkpt lat="43.15844" lon="1.02496">
        <ele>494.8</ele>
        <time>2025-12-14T09:53:24Z</time>
      </trkpt>
      <trkpt lat="43.15846" lon="1.02493">
        <ele>495.2</ele>
        <time>2025-12-14T09:53:25Z</time>
      </trkpt>
      <trkpt lat="43.15849" lon="1.02486">
        <ele>495.6</ele>
        <time>2025-12-14T09:53:28Z</time>
      </trkpt>
      <trkpt lat="43.15851" lon="1.02483">
        <ele>496</ele>
        <time>2025-12-14T09:53:29Z</time>
      </trkpt>
      <trkpt lat="43.15852" lon="1.02481">
        <ele>496.4</ele>
        <time>2025-12-14T09:53:30Z</time>
      </trkpt>
      <trkpt lat="43.15853" lon="1.02479">
        <ele>496.8</ele>
        <time>2025-12-14T09:53:31Z</time>
      </trkpt>
      <trkpt lat="43.15854" lon="1.02477">
        <ele>497.2</ele>
        <time>2025-12-14T09:53:32Z</time>
      </trkpt>
      <trkpt lat="43.15861" lon="1.0247">
        <ele>497.6</ele>
        <time>2025-12-14T09:53:36Z</time>
      </trkpt>
      <trkpt lat="43.15862" lon="1.02467">
        <ele>498.2</ele>
        <time>2025-12-14T09:53:37Z</time>
      </trkpt>
      <trkpt lat="43.15863" lon="1.02465">
        <ele>498.6</ele>
        <time>2025-12-14T09:53:38Z</time>
      </trkpt>
      <trkpt lat="43.15865" lon="1.02463">
        <ele>499</ele>
        <time>2025-12-14T09:53:39Z</time>
      </trkpt>
      <trkpt lat="43.15866" lon="1.02461">
        <ele>499.4</ele>
        <time>2025-12-14T09:53:40Z</time>
      </trkpt>
      <trkpt lat="43.15871" lon="1.02457">
        <ele>499.4</ele>
        <time>2025-12-14T09:53:43Z</time>
      </trkpt>
      <trkpt lat="43.15872" lon="1.02456">
        <ele>500</ele>
        <time>2025-12-14T09:53:44Z</time>
      </trkpt>
      <trkpt lat="43.15873" lon="1.02454">
        <ele>500.4</ele>
        <time>2025-12-14T09:53:45Z</time>
      </trkpt>
      <trkpt lat="43.15875" lon="1.02452">
        <ele>500.8</ele>
        <time>2025-12-14T09:53:46Z</time>
      </trkpt>
      <trkpt lat="43.15876" lon="1.0245">
        <ele>501.2</ele>
        <time>2025-12-14T09:53:47Z</time>
      </trkpt>
      <trkpt lat="43.15877" lon="1.02448">
        <ele>501.8</ele>
        <time>2025-12-14T09:53:48Z</time>
      </trkpt>
      <trkpt lat="43.15883" lon="1.02439">
        <ele>502.2</ele>
        <time>2025-12-14T09:53:52Z</time>
      </trkpt>
      <trkpt lat="43.15884" lon="1.02437">
        <ele>502.6</ele>
        <time>2025-12-14T09:53:53Z</time>
      </trkpt>
      <trkpt lat="43.15886" lon="1.02435">
        <ele>503</ele>
        <time>2025-12-14T09:53:54Z</time>
      </trkpt>
      <trkpt lat="43.15889" lon="1.02434">
        <ele>503.4</ele>
        <time>2025-12-14T09:53:55Z</time>
      </trkpt>
      <trkpt lat="43.1589" lon="1.02432">
        <ele>503.8</ele>
        <time>2025-12-14T09:53:56Z</time>
      </trkpt>
      <trkpt lat="43.15898" lon="1.02424">
        <ele>504.2</ele>
        <time>2025-12-14T09:54:00Z</time>
      </trkpt>
      <trkpt lat="43.159" lon="1.02423">
        <ele>504.6</ele>
        <time>2025-12-14T09:54:01Z</time>
      </trkpt>
      <trkpt lat="43.15901" lon="1.02421">
        <ele>505</ele>
        <time>2025-12-14T09:54:02Z</time>
      </trkpt>
      <trkpt lat="43.15903" lon="1.0242">
        <ele>505.6</ele>
        <time>2025-12-14T09:54:03Z</time>
      </trkpt>
      <trkpt lat="43.15905" lon="1.02419">
        <ele>506</ele>
        <time>2025-12-14T09:54:04Z</time>
      </trkpt>
      <trkpt lat="43.15906" lon="1.02418">
        <ele>506</ele>
        <time>2025-12-14T09:54:05Z</time>
      </trkpt>
      <trkpt lat="43.15908" lon="1.02416">
        <ele>506</ele>
        <time>2025-12-14T09:54:06Z</time>
      </trkpt>
      <trkpt lat="43.15915" lon="1.02409">
        <ele>506</ele>
        <time>2025-12-14T09:54:10Z</time>
      </trkpt>
      <trkpt lat="43.1592" lon="1.02403">
        <ele>506.4</ele>
        <time>2025-12-14T09:54:14Z</time>
      </trkpt>
      <trkpt lat="43.15922" lon="1.02401">
        <ele>506.8</ele>
        <time>2025-12-14T09:54:15Z</time>
      </trkpt>
      <trkpt lat="43.15922" lon="1.024">
        <ele>507.2</ele>
        <time>2025-12-14T09:54:16Z</time>
      </trkpt>
      <trkpt lat="43.15924" lon="1.02398">
        <ele>507.6</ele>
        <time>2025-12-14T09:54:17Z</time>
      </trkpt>
      <trkpt lat="43.15927" lon="1.02395">
        <ele>508</ele>
        <time>2025-12-14T09:54:18Z</time>
      </trkpt>
      <trkpt lat="43.15935" lon="1.02387">
        <ele>508</ele>
        <time>2025-12-14T09:54:21Z</time>
      </trkpt>
      <trkpt lat="43.15944" lon="1.0238">
        <ele>508</ele>
        <time>2025-12-14T09:54:26Z</time>
      </trkpt>
      <trkpt lat="43.15952" lon="1.02373">
        <ele>508</ele>
        <time>2025-12-14T09:54:30Z</time>
      </trkpt>
      <trkpt lat="43.15954" lon="1.02371">
        <ele>508</ele>
        <time>2025-12-14T09:54:31Z</time>
      </trkpt>
      <trkpt lat="43.15957" lon="1.02364">
        <ele>508</ele>
        <time>2025-12-14T09:54:35Z</time>
      </trkpt>
      <trkpt lat="43.15959" lon="1.02362">
        <ele>508</ele>
        <time>2025-12-14T09:54:37Z</time>
      </trkpt>
      <trkpt lat="43.15962" lon="1.02358">
        <ele>508</ele>
        <time>2025-12-14T09:56:08Z</time>
      </trkpt>
      <trkpt lat="43.15963" lon="1.02355">
        <ele>508</ele>
        <time>2025-12-14T09:56:09Z</time>
      </trkpt>
      <trkpt lat="43.15964" lon="1.02347">
        <ele>507.6</ele>
        <time>2025-12-14T09:56:12Z</time>
      </trkpt>
      <trkpt lat="43.15964" lon="1.02344">
        <ele>507</ele>
        <time>2025-12-14T09:56:13Z</time>
      </trkpt>
      <trkpt lat="43.15964" lon="1.02341">
        <ele>506.6</ele>
        <time>2025-12-14T09:56:14Z</time>
      </trkpt>
      <trkpt lat="43.15964" lon="1.02338">
        <ele>506.2</ele>
        <time>2025-12-14T09:56:15Z</time>
      </trkpt>
      <trkpt lat="43.15964" lon="1.02335">
        <ele>505.6</ele>
        <time>2025-12-14T09:56:16Z</time>
      </trkpt>
      <trkpt lat="43.15964" lon="1.02333">
        <ele>505</ele>
        <time>2025-12-14T09:56:17Z</time>
      </trkpt>
      <trkpt lat="43.15964" lon="1.0233">
        <ele>504.4</ele>
        <time>2025-12-14T09:56:18Z</time>
      </trkpt>
      <trkpt lat="43.15964" lon="1.02328">
        <ele>503.6</ele>
        <time>2025-12-14T09:56:19Z</time>
      </trkpt>
      <trkpt lat="43.15964" lon="1.02326">
        <ele>503</ele>
        <time>2025-12-14T09:56:20Z</time>
      </trkpt>
      <trkpt lat="43.15964" lon="1.02324">
        <ele>502.4</ele>
        <time>2025-12-14T09:56:21Z</time>
      </trkpt>
      <trkpt lat="43.15963" lon="1.02322">
        <ele>501.8</ele>
        <time>2025-12-14T09:56:22Z</time>
      </trkpt>
      <trkpt lat="43.15963" lon="1.02321">
        <ele>501.2</ele>
        <time>2025-12-14T09:56:23Z</time>
      </trkpt>
      <trkpt lat="43.15962" lon="1.0232">
        <ele>500.6</ele>
        <time>2025-12-14T09:56:24Z</time>
      </trkpt>
      <trkpt lat="43.15962" lon="1.02318">
        <ele>500</ele>
        <time>2025-12-14T09:56:25Z</time>
      </trkpt>
      <trkpt lat="43.15961" lon="1.02317">
        <ele>499.4</ele>
        <time>2025-12-14T09:56:26Z</time>
      </trkpt>
      <trkpt lat="43.1596" lon="1.02316">
        <ele>498.8</ele>
        <time>2025-12-14T09:56:27Z</time>
      </trkpt>
      <trkpt lat="43.15959" lon="1.02315">
        <ele>498.4</ele>
        <time>2025-12-14T09:56:28Z</time>
      </trkpt>
      <trkpt lat="43.15958" lon="1.02313">
        <ele>497.8</ele>
        <time>2025-12-14T09:56:29Z</time>
      </trkpt>
      <trkpt lat="43.15957" lon="1.02311">
        <ele>497.2</ele>
        <time>2025-12-14T09:56:30Z</time>
      </trkpt>
      <trkpt lat="43.15957" lon="1.02308">
        <ele>496.8</ele>
        <time>2025-12-14T09:56:31Z</time>
      </trkpt>
      <trkpt lat="43.15956" lon="1.02306">
        <ele>496.2</ele>
        <time>2025-12-14T09:56:32Z</time>
      </trkpt>
      <trkpt lat="43.15955" lon="1.02303">
        <ele>495.6</ele>
        <time>2025-12-14T09:56:33Z</time>
      </trkpt>
      <trkpt lat="43.15953" lon="1.02301">
        <ele>494.4</ele>
        <time>2025-12-14T09:56:34Z</time>
      </trkpt>
      <trkpt lat="43.15952" lon="1.02298">
        <ele>493.8</ele>
        <time>2025-12-14T09:56:35Z</time>
      </trkpt>
      <trkpt lat="43.15951" lon="1.02296">
        <ele>493</ele>
        <time>2025-12-14T09:56:36Z</time>
      </trkpt>
      <trkpt lat="43.15949" lon="1.02294">
        <ele>492.2</ele>
        <time>2025-12-14T09:56:37Z</time>
      </trkpt>
      <trkpt lat="43.15948" lon="1.02292">
        <ele>491.2</ele>
        <time>2025-12-14T09:56:38Z</time>
      </trkpt>
      <trkpt lat="43.15947" lon="1.02289">
        <ele>490.4</ele>
        <time>2025-12-14T09:56:39Z</time>
      </trkpt>
      <trkpt lat="43.15946" lon="1.02286">
        <ele>489.6</ele>
        <time>2025-12-14T09:56:40Z</time>
      </trkpt>
      <trkpt lat="43.15944" lon="1.02284">
        <ele>488.6</ele>
        <time>2025-12-14T09:56:41Z</time>
      </trkpt>
      <trkpt lat="43.15942" lon="1.02283">
        <ele>487.8</ele>
        <time>2025-12-14T09:56:42Z</time>
      </trkpt>
      <trkpt lat="43.1594" lon="1.02282">
        <ele>487</ele>
        <time>2025-12-14T09:56:43Z</time>
      </trkpt>
      <trkpt lat="43.15938" lon="1.02281">
        <ele>486.2</ele>
        <time>2025-12-14T09:56:44Z</time>
      </trkpt>
      <trkpt lat="43.15936" lon="1.02281">
        <ele>485.4</ele>
        <time>2025-12-14T09:56:45Z</time>
      </trkpt>
      <trkpt lat="43.15934" lon="1.02281">
        <ele>484.6</ele>
        <time>2025-12-14T09:56:46Z</time>
      </trkpt>
      <trkpt lat="43.15932" lon="1.02282">
        <ele>483.8</ele>
        <time>2025-12-14T09:56:47Z</time>
      </trkpt>
      <trkpt lat="43.1593" lon="1.02283">
        <ele>483</ele>
        <time>2025-12-14T09:56:48Z</time>
      </trkpt>
      <trkpt lat="43.15924" lon="1.02285">
        <ele>483</ele>
        <time>2025-12-14T09:56:51Z</time>
      </trkpt>
      <trkpt lat="43.15923" lon="1.02285">
        <ele>483</ele>
        <time>2025-12-14T09:56:52Z</time>
      </trkpt>
      <trkpt lat="43.1592" lon="1.02284">
        <ele>482.6</ele>
        <time>2025-12-14T09:56:53Z</time>
      </trkpt>
      <trkpt lat="43.15918" lon="1.02283">
        <ele>482</ele>
        <time>2025-12-14T09:56:54Z</time>
      </trkpt>
      <trkpt lat="43.15915" lon="1.02284">
        <ele>481.6</ele>
        <time>2025-12-14T09:56:55Z</time>
      </trkpt>
      <trkpt lat="43.15911" lon="1.02284">
        <ele>481.2</ele>
        <time>2025-12-14T09:56:56Z</time>
      </trkpt>
      <trkpt lat="43.15909" lon="1.02283">
        <ele>480.8</ele>
        <time>2025-12-14T09:56:57Z</time>
      </trkpt>
      <trkpt lat="43.15906" lon="1.02283">
        <ele>480.2</ele>
        <time>2025-12-14T09:56:58Z</time>
      </trkpt>
      <trkpt lat="43.15903" lon="1.02283">
        <ele>479.4</ele>
        <time>2025-12-14T09:56:59Z</time>
      </trkpt>
      <trkpt lat="43.15901" lon="1.02281">
        <ele>478.8</ele>
        <time>2025-12-14T09:57:00Z</time>
      </trkpt>
      <trkpt lat="43.15898" lon="1.02279">
        <ele>478.4</ele>
        <time>2025-12-14T09:57:01Z</time>
      </trkpt>
      <trkpt lat="43.15894" lon="1.02277">
        <ele>478</ele>
        <time>2025-12-14T09:57:02Z</time>
      </trkpt>
      <trkpt lat="43.1589" lon="1.02275">
        <ele>477.4</ele>
        <time>2025-12-14T09:57:03Z</time>
      </trkpt>
      <trkpt lat="43.15886" lon="1.02273">
        <ele>477</ele>
        <time>2025-12-14T09:57:04Z</time>
      </trkpt>
      <trkpt lat="43.15882" lon="1.02272">
        <ele>476.2</ele>
        <time>2025-12-14T09:57:05Z</time>
      </trkpt>
      <trkpt lat="43.15878" lon="1.0227">
        <ele>475.4</ele>
        <time>2025-12-14T09:57:06Z</time>
      </trkpt>
      <trkpt lat="43.15874" lon="1.02268">
        <ele>474.6</ele>
        <time>2025-12-14T09:57:07Z</time>
      </trkpt>
      <trkpt lat="43.1587" lon="1.02265">
        <ele>473.8</ele>
        <time>2025-12-14T09:57:08Z</time>
      </trkpt>
      <trkpt lat="43.15867" lon="1.02263">
        <ele>472.8</ele>
        <time>2025-12-14T09:57:09Z</time>
      </trkpt>
      <trkpt lat="43.15865" lon="1.0226">
        <ele>471.8</ele>
        <time>2025-12-14T09:57:10Z</time>
      </trkpt>
      <trkpt lat="43.15863" lon="1.02256">
        <ele>471</ele>
        <time>2025-12-14T09:57:11Z</time>
      </trkpt>
      <trkpt lat="43.15862" lon="1.02251">
        <ele>470</ele>
        <time>2025-12-14T09:57:12Z</time>
      </trkpt>
      <trkpt lat="43.1586" lon="1.02247">
        <ele>469</ele>
        <time>2025-12-14T09:57:13Z</time>
      </trkpt>
      <trkpt lat="43.15858" lon="1.02242">
        <ele>468</ele>
        <time>2025-12-14T09:57:14Z</time>
      </trkpt>
      <trkpt lat="43.15856" lon="1.02239">
        <ele>466.8</ele>
        <time>2025-12-14T09:57:15Z</time>
      </trkpt>
      <trkpt lat="43.15854" lon="1.02235">
        <ele>465.8</ele>
        <time>2025-12-14T09:57:16Z</time>
      </trkpt>
      <trkpt lat="43.15849" lon="1.02232">
        <ele>464.8</ele>
        <time>2025-12-14T09:57:17Z</time>
      </trkpt>
      <trkpt lat="43.15845" lon="1.0223">
        <ele>463.6</ele>
        <time>2025-12-14T09:57:18Z</time>
      </trkpt>
      <trkpt lat="43.1584" lon="1.02228">
        <ele>462.6</ele>
        <time>2025-12-14T09:57:19Z</time>
      </trkpt>
      <trkpt lat="43.15836" lon="1.02226">
        <ele>461.6</ele>
        <time>2025-12-14T09:57:20Z</time>
      </trkpt>
      <trkpt lat="43.15831" lon="1.02224">
        <ele>460.6</ele>
        <time>2025-12-14T09:57:21Z</time>
      </trkpt>
      <trkpt lat="43.15827" lon="1.02222">
        <ele>459.6</ele>
        <time>2025-12-14T09:57:22Z</time>
      </trkpt>
      <trkpt lat="43.15823" lon="1.02221">
        <ele>458</ele>
        <time>2025-12-14T09:57:23Z</time>
      </trkpt>
      <trkpt lat="43.15819" lon="1.02221">
        <ele>457.2</ele>
        <time>2025-12-14T09:57:24Z</time>
      </trkpt>
      <trkpt lat="43.15815" lon="1.0222">
        <ele>456.6</ele>
        <time>2025-12-14T09:57:25Z</time>
      </trkpt>
      <trkpt lat="43.15812" lon="1.0222">
        <ele>455.8</ele>
        <time>2025-12-14T09:57:26Z</time>
      </trkpt>
      <trkpt lat="43.15808" lon="1.02218">
        <ele>455.2</ele>
        <time>2025-12-14T09:57:27Z</time>
      </trkpt>
      <trkpt lat="43.15806" lon="1.02214">
        <ele>454.6</ele>
        <time>2025-12-14T09:57:28Z</time>
      </trkpt>
      <trkpt lat="43.15803" lon="1.02211">
        <ele>454.2</ele>
        <time>2025-12-14T09:57:29Z</time>
      </trkpt>
      <trkpt lat="43.15801" lon="1.02207">
        <ele>453.4</ele>
        <time>2025-12-14T09:57:30Z</time>
      </trkpt>
      <trkpt lat="43.15798" lon="1.02205">
        <ele>452.8</ele>
        <time>2025-12-14T09:57:31Z</time>
      </trkpt>
      <trkpt lat="43.15795" lon="1.02204">
        <ele>452.2</ele>
        <time>2025-12-14T09:57:32Z</time>
      </trkpt>
      <trkpt lat="43.15792" lon="1.02203">
        <ele>451.4</ele>
        <time>2025-12-14T09:57:33Z</time>
      </trkpt>
      <trkpt lat="43.15789" lon="1.02203">
        <ele>450.6</ele>
        <time>2025-12-14T09:57:34Z</time>
      </trkpt>
      <trkpt lat="43.15787" lon="1.02203">
        <ele>449.8</ele>
        <time>2025-12-14T09:57:35Z</time>
      </trkpt>
      <trkpt lat="43.15785" lon="1.02202">
        <ele>449.2</ele>
        <time>2025-12-14T09:57:36Z</time>
      </trkpt>
      <trkpt lat="43.15783" lon="1.02201">
        <ele>448.4</ele>
        <time>2025-12-14T09:57:37Z</time>
      </trkpt>
      <trkpt lat="43.15779" lon="1.02198">
        <ele>447.8</ele>
        <time>2025-12-14T09:57:39Z</time>
      </trkpt>
      <trkpt lat="43.15778" lon="1.02197">
        <ele>447.4</ele>
        <time>2025-12-14T09:57:40Z</time>
      </trkpt>
      <trkpt lat="43.15777" lon="1.02195">
        <ele>447</ele>
        <time>2025-12-14T09:57:41Z</time>
      </trkpt>
      <trkpt lat="43.15776" lon="1.02194">
        <ele>446.4</ele>
        <time>2025-12-14T09:57:42Z</time>
      </trkpt>
      <trkpt lat="43.15776" lon="1.02194">
        <ele>446</ele>
        <time>2025-12-14T09:57:43Z</time>
      </trkpt>
      <trkpt lat="43.15776" lon="1.02194">
        <ele>446</ele>
        <time>2025-12-14T09:57:44Z</time>
      </trkpt>
      <trkpt lat="43.15776" lon="1.02194">
        <ele>445.6</ele>
        <time>2025-12-14T09:57:46Z</time>
      </trkpt>
      <trkpt lat="43.15774" lon="1.02192">
        <ele>444</ele>
        <time>2025-12-14T09:58:26Z</time>
      </trkpt>
      <trkpt lat="43.15772" lon="1.02187">
        <ele>444</ele>
        <time>2025-12-14T09:58:28Z</time>
      </trkpt>
      <trkpt lat="43.15761" lon="1.02171">
        <ele>443.6</ele>
        <time>2025-12-14T09:58:32Z</time>
      </trkpt>
      <trkpt lat="43.1576" lon="1.02165">
        <ele>443.2</ele>
        <time>2025-12-14T09:58:33Z</time>
      </trkpt>
      <trkpt lat="43.15759" lon="1.02158">
        <ele>442.8</ele>
        <time>2025-12-14T09:58:34Z</time>
      </trkpt>
      <trkpt lat="43.15759" lon="1.02152">
        <ele>442.4</ele>
        <time>2025-12-14T09:58:35Z</time>
      </trkpt>
      <trkpt lat="43.15759" lon="1.02145">
        <ele>441.8</ele>
        <time>2025-12-14T09:58:36Z</time>
      </trkpt>
      <trkpt lat="43.15761" lon="1.02139">
        <ele>440.8</ele>
        <time>2025-12-14T09:58:37Z</time>
      </trkpt>
      <trkpt lat="43.15761" lon="1.02132">
        <ele>440.2</ele>
        <time>2025-12-14T09:58:38Z</time>
      </trkpt>
      <trkpt lat="43.15761" lon="1.02125">
        <ele>439.6</ele>
        <time>2025-12-14T09:58:39Z</time>
      </trkpt>
      <trkpt lat="43.15761" lon="1.02118">
        <ele>439.6</ele>
        <time>2025-12-14T09:58:40Z</time>
      </trkpt>
      <trkpt lat="43.15762" lon="1.02105">
        <ele>439.2</ele>
        <time>2025-12-14T09:58:42Z</time>
      </trkpt>
      <trkpt lat="43.15762" lon="1.02099">
        <ele>438.8</ele>
        <time>2025-12-14T09:58:43Z</time>
      </trkpt>
      <trkpt lat="43.15762" lon="1.02094">
        <ele>438.4</ele>
        <time>2025-12-14T09:58:44Z</time>
      </trkpt>
      <trkpt lat="43.15762" lon="1.0209">
        <ele>438</ele>
        <time>2025-12-14T09:58:45Z</time>
      </trkpt>
      <trkpt lat="43.15761" lon="1.02086">
        <ele>437.6</ele>
        <time>2025-12-14T09:58:46Z</time>
      </trkpt>
      <trkpt lat="43.1576" lon="1.02068">
        <ele>437.6</ele>
        <time>2025-12-14T09:58:50Z</time>
      </trkpt>
      <trkpt lat="43.15754" lon="1.02048">
        <ele>437.6</ele>
        <time>2025-12-14T09:58:55Z</time>
      </trkpt>
      <trkpt lat="43.15751" lon="1.0203">
        <ele>437.6</ele>
        <time>2025-12-14T09:59:00Z</time>
      </trkpt>
      <trkpt lat="43.15749" lon="1.02004">
        <ele>437.6</ele>
        <time>2025-12-14T09:59:06Z</time>
      </trkpt>
      <trkpt lat="43.15749" lon="1.01981">
        <ele>437.6</ele>
        <time>2025-12-14T09:59:13Z</time>
      </trkpt>
      <trkpt lat="43.15749" lon="1.01968">
        <ele>437.6</ele>
        <time>2025-12-14T09:59:19Z</time>
      </trkpt>
      <trkpt lat="43.1575" lon="1.0195">
        <ele>437.6</ele>
        <time>2025-12-14T09:59:27Z</time>
      </trkpt>
      <trkpt lat="43.15751" lon="1.01934">
        <ele>437.6</ele>
        <time>2025-12-14T09:59:34Z</time>
      </trkpt>
      <trkpt lat="43.15752" lon="1.0192">
        <ele>437.6</ele>
        <time>2025-12-14T09:59:40Z</time>
      </trkpt>
      <trkpt lat="43.15753" lon="1.01906">
        <ele>437.6</ele>
        <time>2025-12-14T09:59:46Z</time>
      </trkpt>
      <trkpt lat="43.15753" lon="1.01905">
        <ele>437.6</ele>
        <time>2025-12-14T09:59:48Z</time>
      </trkpt>
      <trkpt lat="43.15754" lon="1.01902">
        <ele>437.6</ele>
        <time>2025-12-14T10:01:06Z</time>
      </trkpt>
      <trkpt lat="43.15754" lon="1.01899">
        <ele>437.6</ele>
        <time>2025-12-14T10:01:07Z</time>
      </trkpt>
      <trkpt lat="43.15756" lon="1.01886">
        <ele>437.2</ele>
        <time>2025-12-14T10:01:10Z</time>
      </trkpt>
      <trkpt lat="43.15756" lon="1.01881">
        <ele>436.8</ele>
        <time>2025-12-14T10:01:11Z</time>
      </trkpt>
      <trkpt lat="43.15757" lon="1.01875">
        <ele>436.4</ele>
        <time>2025-12-14T10:01:12Z</time>
      </trkpt>
      <trkpt lat="43.15757" lon="1.01869">
        <ele>436</ele>
        <time>2025-12-14T10:01:13Z</time>
      </trkpt>
      <trkpt lat="43.15756" lon="1.01862">
        <ele>435.6</ele>
        <time>2025-12-14T10:01:14Z</time>
      </trkpt>
      <trkpt lat="43.15757" lon="1.01847">
        <ele>435.6</ele>
        <time>2025-12-14T10:01:16Z</time>
      </trkpt>
      <trkpt lat="43.15758" lon="1.01838">
        <ele>435.2</ele>
        <time>2025-12-14T10:01:17Z</time>
      </trkpt>
      <trkpt lat="43.15759" lon="1.0183">
        <ele>434.8</ele>
        <time>2025-12-14T10:01:18Z</time>
      </trkpt>
      <trkpt lat="43.1576" lon="1.01822">
        <ele>434.2</ele>
        <time>2025-12-14T10:01:19Z</time>
      </trkpt>
      <trkpt lat="43.15761" lon="1.01814">
        <ele>433.8</ele>
        <time>2025-12-14T10:01:20Z</time>
      </trkpt>
      <trkpt lat="43.15761" lon="1.01809">
        <ele>433.4</ele>
        <time>2025-12-14T10:01:21Z</time>
      </trkpt>
      <trkpt lat="43.15759" lon="1.01807">
        <ele>432.8</ele>
        <time>2025-12-14T10:01:22Z</time>
      </trkpt>
      <trkpt lat="43.15756" lon="1.01805">
        <ele>432.4</ele>
        <time>2025-12-14T10:01:23Z</time>
      </trkpt>
      <trkpt lat="43.15753" lon="1.01805">
        <ele>432</ele>
        <time>2025-12-14T10:01:24Z</time>
      </trkpt>
      <trkpt lat="43.1575" lon="1.01804">
        <ele>431.6</ele>
        <time>2025-12-14T10:01:25Z</time>
      </trkpt>
      <trkpt lat="43.15748" lon="1.01802">
        <ele>431</ele>
        <time>2025-12-14T10:01:26Z</time>
      </trkpt>
      <trkpt lat="43.15747" lon="1.01798">
        <ele>431</ele>
        <time>2025-12-14T10:01:27Z</time>
      </trkpt>
      <trkpt lat="43.15749" lon="1.01784">
        <ele>431</ele>
        <time>2025-12-14T10:01:31Z</time>
      </trkpt>
      <trkpt lat="43.15751" lon="1.01776">
        <ele>431</ele>
        <time>2025-12-14T10:01:33Z</time>
      </trkpt>
      <trkpt lat="43.15751" lon="1.01758">
        <ele>431</ele>
        <time>2025-12-14T10:01:37Z</time>
      </trkpt>
      <trkpt lat="43.15755" lon="1.01729">
        <ele>431</ele>
        <time>2025-12-14T10:01:43Z</time>
      </trkpt>
      <trkpt lat="43.15761" lon="1.01707">
        <ele>431</ele>
        <time>2025-12-14T10:01:48Z</time>
      </trkpt>
      <trkpt lat="43.1577" lon="1.01678">
        <ele>431.4</ele>
        <time>2025-12-14T10:01:55Z</time>
      </trkpt>
      <trkpt lat="43.15771" lon="1.01675">
        <ele>431.8</ele>
        <time>2025-12-14T10:01:56Z</time>
      </trkpt>
      <trkpt lat="43.15772" lon="1.01672">
        <ele>432.2</ele>
        <time>2025-12-14T10:01:57Z</time>
      </trkpt>
      <trkpt lat="43.15773" lon="1.01669">
        <ele>432.8</ele>
        <time>2025-12-14T10:01:58Z</time>
      </trkpt>
      <trkpt lat="43.15774" lon="1.01665">
        <ele>433.2</ele>
        <time>2025-12-14T10:01:59Z</time>
      </trkpt>
      <trkpt lat="43.15775" lon="1.01659">
        <ele>433.2</ele>
        <time>2025-12-14T10:02:01Z</time>
      </trkpt>
      <trkpt lat="43.15776" lon="1.01647">
        <ele>433.6</ele>
        <time>2025-12-14T10:02:04Z</time>
      </trkpt>
      <trkpt lat="43.15776" lon="1.01643">
        <ele>434</ele>
        <time>2025-12-14T10:02:05Z</time>
      </trkpt>
      <trkpt lat="43.15776" lon="1.01639">
        <ele>434.4</ele>
        <time>2025-12-14T10:02:06Z</time>
      </trkpt>
      <trkpt lat="43.15777" lon="1.01635">
        <ele>434.8</ele>
        <time>2025-12-14T10:02:07Z</time>
      </trkpt>
      <trkpt lat="43.15778" lon="1.01631">
        <ele>435.2</ele>
        <time>2025-12-14T10:02:08Z</time>
      </trkpt>
      <trkpt lat="43.15779" lon="1.01615">
        <ele>435.2</ele>
        <time>2025-12-14T10:02:12Z</time>
      </trkpt>
      <trkpt lat="43.15784" lon="1.0158">
        <ele>435.2</ele>
        <time>2025-12-14T10:02:20Z</time>
      </trkpt>
      <trkpt lat="43.15787" lon="1.0155">
        <ele>435.2</ele>
        <time>2025-12-14T10:02:26Z</time>
      </trkpt>
      <trkpt lat="43.15788" lon="1.01517">
        <ele>435.2</ele>
        <time>2025-12-14T10:02:32Z</time>
      </trkpt>
      <trkpt lat="43.15787" lon="1.01501">
        <ele>435.2</ele>
        <time>2025-12-14T10:02:35Z</time>
      </trkpt>
      <trkpt lat="43.15785" lon="1.01493">
        <ele>435.2</ele>
        <time>2025-12-14T10:02:36Z</time>
      </trkpt>
      <trkpt lat="43.15783" lon="1.01479">
        <ele>435.2</ele>
        <time>2025-12-14T10:02:38Z</time>
      </trkpt>
      <trkpt lat="43.15782" lon="1.01463">
        <ele>435.2</ele>
        <time>2025-12-14T10:02:40Z</time>
      </trkpt>
      <trkpt lat="43.15782" lon="1.01455">
        <ele>435.2</ele>
        <time>2025-12-14T10:02:41Z</time>
      </trkpt>
      <trkpt lat="43.15785" lon="1.01442">
        <ele>434.8</ele>
        <time>2025-12-14T10:02:43Z</time>
      </trkpt>
      <trkpt lat="43.15787" lon="1.01436">
        <ele>433.8</ele>
        <time>2025-12-14T10:02:44Z</time>
      </trkpt>
      <trkpt lat="43.15789" lon="1.01431">
        <ele>433.4</ele>
        <time>2025-12-14T10:02:45Z</time>
      </trkpt>
      <trkpt lat="43.1579" lon="1.01427">
        <ele>433</ele>
        <time>2025-12-14T10:02:46Z</time>
      </trkpt>
      <trkpt lat="43.15796" lon="1.014">
        <ele>433</ele>
        <time>2025-12-14T10:02:51Z</time>
      </trkpt>
      <trkpt lat="43.15798" lon="1.01377">
        <ele>433</ele>
        <time>2025-12-14T10:02:55Z</time>
      </trkpt>
      <trkpt lat="43.15799" lon="1.0137">
        <ele>433</ele>
        <time>2025-12-14T10:02:56Z</time>
      </trkpt>
      <trkpt lat="43.158" lon="1.01364">
        <ele>432.6</ele>
        <time>2025-12-14T10:02:57Z</time>
      </trkpt>
      <trkpt lat="43.15802" lon="1.01359">
        <ele>432.2</ele>
        <time>2025-12-14T10:02:58Z</time>
      </trkpt>
      <trkpt lat="43.15804" lon="1.01354">
        <ele>431.8</ele>
        <time>2025-12-14T10:02:59Z</time>
      </trkpt>
      <trkpt lat="43.15806" lon="1.01348">
        <ele>431.4</ele>
        <time>2025-12-14T10:03:00Z</time>
      </trkpt>
      <trkpt lat="43.15809" lon="1.01344">
        <ele>431</ele>
        <time>2025-12-14T10:03:01Z</time>
      </trkpt>
      <trkpt lat="43.15815" lon="1.0134">
        <ele>431</ele>
        <time>2025-12-14T10:03:03Z</time>
      </trkpt>
      <trkpt lat="43.15834" lon="1.01333">
        <ele>431</ele>
        <time>2025-12-14T10:03:09Z</time>
      </trkpt>
      <trkpt lat="43.15847" lon="1.01334">
        <ele>431</ele>
        <time>2025-12-14T10:03:12Z</time>
      </trkpt>
      <trkpt lat="43.15856" lon="1.01333">
        <ele>431</ele>
        <time>2025-12-14T10:03:14Z</time>
      </trkpt>
      <trkpt lat="43.15864" lon="1.01331">
        <ele>431</ele>
        <time>2025-12-14T10:03:16Z</time>
      </trkpt>
      <trkpt lat="43.15885" lon="1.01328">
        <ele>431</ele>
        <time>2025-12-14T10:03:21Z</time>
      </trkpt>
      <trkpt lat="43.15903" lon="1.01327">
        <ele>431.4</ele>
        <time>2025-12-14T10:03:27Z</time>
      </trkpt>
      <trkpt lat="43.15906" lon="1.01326">
        <ele>431.8</ele>
        <time>2025-12-14T10:03:28Z</time>
      </trkpt>
      <trkpt lat="43.15909" lon="1.01325">
        <ele>432.2</ele>
        <time>2025-12-14T10:03:29Z</time>
      </trkpt>
      <trkpt lat="43.15911" lon="1.01324">
        <ele>432.6</ele>
        <time>2025-12-14T10:03:30Z</time>
      </trkpt>
      <trkpt lat="43.15914" lon="1.01322">
        <ele>433</ele>
        <time>2025-12-14T10:03:31Z</time>
      </trkpt>
      <trkpt lat="43.15917" lon="1.01321">
        <ele>433</ele>
        <time>2025-12-14T10:03:32Z</time>
      </trkpt>
      <trkpt lat="43.15921" lon="1.0132">
        <ele>433.6</ele>
        <time>2025-12-14T10:03:34Z</time>
      </trkpt>
      <trkpt lat="43.15923" lon="1.01318">
        <ele>434</ele>
        <time>2025-12-14T10:03:35Z</time>
      </trkpt>
      <trkpt lat="43.15925" lon="1.01318">
        <ele>434.4</ele>
        <time>2025-12-14T10:03:36Z</time>
      </trkpt>
      <trkpt lat="43.15927" lon="1.01317">
        <ele>435</ele>
        <time>2025-12-14T10:03:37Z</time>
      </trkpt>
      <trkpt lat="43.15929" lon="1.01317">
        <ele>435.4</ele>
        <time>2025-12-14T10:03:38Z</time>
      </trkpt>
      <trkpt lat="43.15933" lon="1.01315">
        <ele>435.8</ele>
        <time>2025-12-14T10:03:40Z</time>
      </trkpt>
      <trkpt lat="43.15934" lon="1.01314">
        <ele>436.4</ele>
        <time>2025-12-14T10:03:41Z</time>
      </trkpt>
      <trkpt lat="43.15936" lon="1.01313">
        <ele>436.8</ele>
        <time>2025-12-14T10:03:42Z</time>
      </trkpt>
      <trkpt lat="43.15938" lon="1.01312">
        <ele>437.2</ele>
        <time>2025-12-14T10:03:43Z</time>
      </trkpt>
      <trkpt lat="43.15939" lon="1.0131">
        <ele>437.6</ele>
        <time>2025-12-14T10:03:44Z</time>
      </trkpt>
      <trkpt lat="43.1594" lon="1.01309">
        <ele>438</ele>
        <time>2025-12-14T10:03:45Z</time>
      </trkpt>
      <trkpt lat="43.15942" lon="1.01308">
        <ele>438.4</ele>
        <time>2025-12-14T10:03:46Z</time>
      </trkpt>
      <trkpt lat="43.15943" lon="1.01308">
        <ele>439</ele>
        <time>2025-12-14T10:03:47Z</time>
      </trkpt>
      <trkpt lat="43.15945" lon="1.01307">
        <ele>439.4</ele>
        <time>2025-12-14T10:03:48Z</time>
      </trkpt>
      <trkpt lat="43.15947" lon="1.01306">
        <ele>439.8</ele>
        <time>2025-12-14T10:03:49Z</time>
      </trkpt>
      <trkpt lat="43.15949" lon="1.01305">
        <ele>439.8</ele>
        <time>2025-12-14T10:03:50Z</time>
      </trkpt>
      <trkpt lat="43.15952" lon="1.01303">
        <ele>440.2</ele>
        <time>2025-12-14T10:03:51Z</time>
      </trkpt>
      <trkpt lat="43.15953" lon="1.01302">
        <ele>440.6</ele>
        <time>2025-12-14T10:03:52Z</time>
      </trkpt>
      <trkpt lat="43.15955" lon="1.01301">
        <ele>441</ele>
        <time>2025-12-14T10:03:53Z</time>
      </trkpt>
      <trkpt lat="43.15956" lon="1.01301">
        <ele>441.4</ele>
        <time>2025-12-14T10:03:54Z</time>
      </trkpt>
      <trkpt lat="43.15958" lon="1.01301">
        <ele>441.8</ele>
        <time>2025-12-14T10:03:55Z</time>
      </trkpt>
      <trkpt lat="43.15961" lon="1.013">
        <ele>441.8</ele>
        <time>2025-12-14T10:03:56Z</time>
      </trkpt>
      <trkpt lat="43.15963" lon="1.013">
        <ele>442.8</ele>
        <time>2025-12-14T10:03:57Z</time>
      </trkpt>
      <trkpt lat="43.15965" lon="1.01299">
        <ele>443.2</ele>
        <time>2025-12-14T10:03:58Z</time>
      </trkpt>
      <trkpt lat="43.15967" lon="1.01298">
        <ele>443.6</ele>
        <time>2025-12-14T10:03:59Z</time>
      </trkpt>
      <trkpt lat="43.15969" lon="1.01298">
        <ele>444</ele>
        <time>2025-12-14T10:04:00Z</time>
      </trkpt>
      <trkpt lat="43.15971" lon="1.01297">
        <ele>444</ele>
        <time>2025-12-14T10:04:01Z</time>
      </trkpt>
      <trkpt lat="43.15973" lon="1.01295">
        <ele>444.4</ele>
        <time>2025-12-14T10:04:02Z</time>
      </trkpt>
      <trkpt lat="43.15975" lon="1.01294">
        <ele>445</ele>
        <time>2025-12-14T10:04:03Z</time>
      </trkpt>
      <trkpt lat="43.15976" lon="1.01294">
        <ele>445.4</ele>
        <time>2025-12-14T10:04:04Z</time>
      </trkpt>
      <trkpt lat="43.15978" lon="1.01294">
        <ele>445.8</ele>
        <time>2025-12-14T10:04:05Z</time>
      </trkpt>
      <trkpt lat="43.15981" lon="1.01293">
        <ele>446.2</ele>
        <time>2025-12-14T10:04:06Z</time>
      </trkpt>
      <trkpt lat="43.15986" lon="1.01294">
        <ele>446.6</ele>
        <time>2025-12-14T10:04:08Z</time>
      </trkpt>
      <trkpt lat="43.15988" lon="1.01295">
        <ele>447</ele>
        <time>2025-12-14T10:04:09Z</time>
      </trkpt>
      <trkpt lat="43.1599" lon="1.01295">
        <ele>447.4</ele>
        <time>2025-12-14T10:04:10Z</time>
      </trkpt>
      <trkpt lat="43.15993" lon="1.01296">
        <ele>447.8</ele>
        <time>2025-12-14T10:04:11Z</time>
      </trkpt>
      <trkpt lat="43.15995" lon="1.01297">
        <ele>448.2</ele>
        <time>2025-12-14T10:04:12Z</time>
      </trkpt>
      <trkpt lat="43.15998" lon="1.01298">
        <ele>448.2</ele>
        <time>2025-12-14T10:04:13Z</time>
      </trkpt>
      <trkpt lat="43.16" lon="1.01299">
        <ele>448.8</ele>
        <time>2025-12-14T10:04:14Z</time>
      </trkpt>
      <trkpt lat="43.16002" lon="1.01299">
        <ele>449.2</ele>
        <time>2025-12-14T10:04:15Z</time>
      </trkpt>
      <trkpt lat="43.16004" lon="1.013">
        <ele>449.6</ele>
        <time>2025-12-14T10:04:16Z</time>
      </trkpt>
      <trkpt lat="43.16006" lon="1.01301">
        <ele>450.2</ele>
        <time>2025-12-14T10:04:17Z</time>
      </trkpt>
      <trkpt lat="43.16009" lon="1.01303">
        <ele>450.6</ele>
        <time>2025-12-14T10:04:18Z</time>
      </trkpt>
      <trkpt lat="43.16014" lon="1.01306">
        <ele>450.6</ele>
        <time>2025-12-14T10:04:21Z</time>
      </trkpt>
      <trkpt lat="43.16016" lon="1.01308">
        <ele>451</ele>
        <time>2025-12-14T10:04:24Z</time>
      </trkpt>
      <trkpt lat="43.16017" lon="1.01309">
        <ele>451.4</ele>
        <time>2025-12-14T10:04:25Z</time>
      </trkpt>
      <trkpt lat="43.16017" lon="1.01309">
        <ele>451.8</ele>
        <time>2025-12-14T10:04:26Z</time>
      </trkpt>
      <trkpt lat="43.16019" lon="1.01306">
        <ele>452.6</ele>
        <time>2025-12-14T10:05:10Z</time>
      </trkpt>
      <trkpt lat="43.16018" lon="1.01304">
        <ele>452.6</ele>
        <time>2025-12-14T10:05:12Z</time>
      </trkpt>
      <trkpt lat="43.16011" lon="1.01301">
        <ele>452.6</ele>
        <time>2025-12-14T10:05:15Z</time>
      </trkpt>
      <trkpt lat="43.16008" lon="1.01299">
        <ele>452.6</ele>
        <time>2025-12-14T10:05:16Z</time>
      </trkpt>
      <trkpt lat="43.16" lon="1.01295">
        <ele>452.6</ele>
        <time>2025-12-14T10:05:18Z</time>
      </trkpt>
      <trkpt lat="43.15996" lon="1.01294">
        <ele>452.2</ele>
        <time>2025-12-14T10:05:19Z</time>
      </trkpt>
      <trkpt lat="43.15992" lon="1.01293">
        <ele>451.8</ele>
        <time>2025-12-14T10:05:20Z</time>
      </trkpt>
      <trkpt lat="43.15989" lon="1.01292">
        <ele>451.4</ele>
        <time>2025-12-14T10:05:21Z</time>
      </trkpt>
      <trkpt lat="43.15986" lon="1.01291">
        <ele>450.8</ele>
        <time>2025-12-14T10:05:22Z</time>
      </trkpt>
      <trkpt lat="43.15983" lon="1.0129">
        <ele>450.2</ele>
        <time>2025-12-14T10:05:23Z</time>
      </trkpt>
      <trkpt lat="43.15979" lon="1.0129">
        <ele>449.6</ele>
        <time>2025-12-14T10:05:24Z</time>
      </trkpt>
      <trkpt lat="43.15976" lon="1.01289">
        <ele>449</ele>
        <time>2025-12-14T10:05:25Z</time>
      </trkpt>
      <trkpt lat="43.15973" lon="1.01288">
        <ele>448.4</ele>
        <time>2025-12-14T10:05:26Z</time>
      </trkpt>
      <trkpt lat="43.1597" lon="1.01288">
        <ele>447.8</ele>
        <time>2025-12-14T10:05:27Z</time>
      </trkpt>
      <trkpt lat="43.15966" lon="1.01286">
        <ele>447.2</ele>
        <time>2025-12-14T10:05:28Z</time>
      </trkpt>
      <trkpt lat="43.15962" lon="1.01285">
        <ele>446.4</ele>
        <time>2025-12-14T10:05:29Z</time>
      </trkpt>
      <trkpt lat="43.15957" lon="1.01284">
        <ele>445.8</ele>
        <time>2025-12-14T10:05:30Z</time>
      </trkpt>
      <trkpt lat="43.15953" lon="1.01282">
        <ele>445.2</ele>
        <time>2025-12-14T10:05:31Z</time>
      </trkpt>
      <trkpt lat="43.15949" lon="1.01281">
        <ele>444.4</ele>
        <time>2025-12-14T10:05:32Z</time>
      </trkpt>
      <trkpt lat="43.15946" lon="1.0128">
        <ele>443.8</ele>
        <time>2025-12-14T10:05:33Z</time>
      </trkpt>
      <trkpt lat="43.15942" lon="1.01278">
        <ele>443</ele>
        <time>2025-12-14T10:05:34Z</time>
      </trkpt>
      <trkpt lat="43.15938" lon="1.01277">
        <ele>442.2</ele>
        <time>2025-12-14T10:05:35Z</time>
      </trkpt>
      <trkpt lat="43.15935" lon="1.01276">
        <ele>440.6</ele>
        <time>2025-12-14T10:05:36Z</time>
      </trkpt>
      <trkpt lat="43.15932" lon="1.01276">
        <ele>440</ele>
        <time>2025-12-14T10:05:37Z</time>
      </trkpt>
      <trkpt lat="43.15928" lon="1.01275">
        <ele>439.2</ele>
        <time>2025-12-14T10:05:38Z</time>
      </trkpt>
      <trkpt lat="43.15925" lon="1.01273">
        <ele>438.6</ele>
        <time>2025-12-14T10:05:39Z</time>
      </trkpt>
      <trkpt lat="43.1592" lon="1.01272">
        <ele>437.8</ele>
        <time>2025-12-14T10:05:40Z</time>
      </trkpt>
      <trkpt lat="43.15916" lon="1.0127">
        <ele>437.2</ele>
        <time>2025-12-14T10:05:41Z</time>
      </trkpt>
      <trkpt lat="43.15909" lon="1.01268">
        <ele>436.6</ele>
        <time>2025-12-14T10:05:42Z</time>
      </trkpt>
      <trkpt lat="43.15904" lon="1.01267">
        <ele>435.8</ele>
        <time>2025-12-14T10:05:43Z</time>
      </trkpt>
      <trkpt lat="43.15897" lon="1.01269">
        <ele>435.2</ele>
        <time>2025-12-14T10:05:44Z</time>
      </trkpt>
      <trkpt lat="43.15891" lon="1.01272">
        <ele>434.4</ele>
        <time>2025-12-14T10:05:45Z</time>
      </trkpt>
      <trkpt lat="43.15884" lon="1.01273">
        <ele>433.6</ele>
        <time>2025-12-14T10:05:46Z</time>
      </trkpt>
      <trkpt lat="43.15878" lon="1.01274">
        <ele>433</ele>
        <time>2025-12-14T10:05:47Z</time>
      </trkpt>
      <trkpt lat="43.15873" lon="1.01275">
        <ele>432.2</ele>
        <time>2025-12-14T10:05:48Z</time>
      </trkpt>
      <trkpt lat="43.15868" lon="1.01275">
        <ele>431.4</ele>
        <time>2025-12-14T10:05:49Z</time>
      </trkpt>
      <trkpt lat="43.15862" lon="1.01276">
        <ele>430.6</ele>
        <time>2025-12-14T10:05:50Z</time>
      </trkpt>
      <trkpt lat="43.15858" lon="1.01275">
        <ele>430</ele>
        <time>2025-12-14T10:05:51Z</time>
      </trkpt>
      <trkpt lat="43.15853" lon="1.01272">
        <ele>429.4</ele>
        <time>2025-12-14T10:05:52Z</time>
      </trkpt>
      <trkpt lat="43.15847" lon="1.01269">
        <ele>428.8</ele>
        <time>2025-12-14T10:05:53Z</time>
      </trkpt>
      <trkpt lat="43.15842" lon="1.01265">
        <ele>428.2</ele>
        <time>2025-12-14T10:05:54Z</time>
      </trkpt>
      <trkpt lat="43.15837" lon="1.0126">
        <ele>427.6</ele>
        <time>2025-12-14T10:05:55Z</time>
      </trkpt>
      <trkpt lat="43.15832" lon="1.01256">
        <ele>427.2</ele>
        <time>2025-12-14T10:05:56Z</time>
      </trkpt>
      <trkpt lat="43.15826" lon="1.01254">
        <ele>426.8</ele>
        <time>2025-12-14T10:05:57Z</time>
      </trkpt>
      <trkpt lat="43.15821" lon="1.01251">
        <ele>426.2</ele>
        <time>2025-12-14T10:05:58Z</time>
      </trkpt>
      <trkpt lat="43.15816" lon="1.01247">
        <ele>425.8</ele>
        <time>2025-12-14T10:05:59Z</time>
      </trkpt>
      <trkpt lat="43.15811" lon="1.01244">
        <ele>425.4</ele>
        <time>2025-12-14T10:06:00Z</time>
      </trkpt>
      <trkpt lat="43.15806" lon="1.01241">
        <ele>425</ele>
        <time>2025-12-14T10:06:01Z</time>
      </trkpt>
      <trkpt lat="43.158" lon="1.01238">
        <ele>424.6</ele>
        <time>2025-12-14T10:06:02Z</time>
      </trkpt>
      <trkpt lat="43.15795" lon="1.01238">
        <ele>424.2</ele>
        <time>2025-12-14T10:06:03Z</time>
      </trkpt>
      <trkpt lat="43.1579" lon="1.01237">
        <ele>423.8</ele>
        <time>2025-12-14T10:06:04Z</time>
      </trkpt>
      <trkpt lat="43.15784" lon="1.01236">
        <ele>423.2</ele>
        <time>2025-12-14T10:06:05Z</time>
      </trkpt>
      <trkpt lat="43.15778" lon="1.01235">
        <ele>422.8</ele>
        <time>2025-12-14T10:06:06Z</time>
      </trkpt>
      <trkpt lat="43.15773" lon="1.01232">
        <ele>422.4</ele>
        <time>2025-12-14T10:06:07Z</time>
      </trkpt>
      <trkpt lat="43.15769" lon="1.01229">
        <ele>422</ele>
        <time>2025-12-14T10:06:08Z</time>
      </trkpt>
      <trkpt lat="43.15765" lon="1.01225">
        <ele>421.4</ele>
        <time>2025-12-14T10:06:09Z</time>
      </trkpt>
      <trkpt lat="43.15762" lon="1.01222">
        <ele>420.8</ele>
        <time>2025-12-14T10:06:10Z</time>
      </trkpt>
      <trkpt lat="43.15758" lon="1.01218">
        <ele>420.4</ele>
        <time>2025-12-14T10:06:11Z</time>
      </trkpt>
      <trkpt lat="43.15754" lon="1.01215">
        <ele>419.8</ele>
        <time>2025-12-14T10:06:12Z</time>
      </trkpt>
      <trkpt lat="43.1575" lon="1.01211">
        <ele>419.2</ele>
        <time>2025-12-14T10:06:13Z</time>
      </trkpt>
      <trkpt lat="43.15745" lon="1.01208">
        <ele>418.4</ele>
        <time>2025-12-14T10:06:14Z</time>
      </trkpt>
      <trkpt lat="43.1574" lon="1.01207">
        <ele>417.8</ele>
        <time>2025-12-14T10:06:15Z</time>
      </trkpt>
      <trkpt lat="43.15733" lon="1.01207">
        <ele>417.2</ele>
        <time>2025-12-14T10:06:16Z</time>
      </trkpt>
      <trkpt lat="43.15727" lon="1.01206">
        <ele>416.6</ele>
        <time>2025-12-14T10:06:17Z</time>
      </trkpt>
      <trkpt lat="43.15721" lon="1.01207">
        <ele>416</ele>
        <time>2025-12-14T10:06:18Z</time>
      </trkpt>
      <trkpt lat="43.15715" lon="1.01208">
        <ele>415.4</ele>
        <time>2025-12-14T10:06:19Z</time>
      </trkpt>
      <trkpt lat="43.15709" lon="1.0121">
        <ele>415</ele>
        <time>2025-12-14T10:06:20Z</time>
      </trkpt>
      <trkpt lat="43.15704" lon="1.01214">
        <ele>414.4</ele>
        <time>2025-12-14T10:06:21Z</time>
      </trkpt>
      <trkpt lat="43.15699" lon="1.01217">
        <ele>413.8</ele>
        <time>2025-12-14T10:06:22Z</time>
      </trkpt>
      <trkpt lat="43.15695" lon="1.01219">
        <ele>413.4</ele>
        <time>2025-12-14T10:06:23Z</time>
      </trkpt>
      <trkpt lat="43.15692" lon="1.01219">
        <ele>413</ele>
        <time>2025-12-14T10:06:24Z</time>
      </trkpt>
      <trkpt lat="43.15691" lon="1.01219">
        <ele>412.4</ele>
        <time>2025-12-14T10:06:25Z</time>
      </trkpt>
      <trkpt lat="43.1569" lon="1.01217">
        <ele>411.6</ele>
        <time>2025-12-14T10:06:26Z</time>
      </trkpt>
      <trkpt lat="43.15688" lon="1.01214">
        <ele>411.2</ele>
        <time>2025-12-14T10:06:27Z</time>
      </trkpt>
      <trkpt lat="43.15686" lon="1.01211">
        <ele>410.8</ele>
        <time>2025-12-14T10:06:28Z</time>
      </trkpt>
      <trkpt lat="43.15684" lon="1.01207">
        <ele>410.4</ele>
        <time>2025-12-14T10:06:29Z</time>
      </trkpt>
      <trkpt lat="43.15681" lon="1.01203">
        <ele>409.8</ele>
        <time>2025-12-14T10:06:30Z</time>
      </trkpt>
      <trkpt lat="43.15679" lon="1.01198">
        <ele>409.2</ele>
        <time>2025-12-14T10:06:31Z</time>
      </trkpt>
      <trkpt lat="43.15676" lon="1.01193">
        <ele>408.6</ele>
        <time>2025-12-14T10:06:32Z</time>
      </trkpt>
      <trkpt lat="43.15672" lon="1.01187">
        <ele>407.8</ele>
        <time>2025-12-14T10:06:33Z</time>
      </trkpt>
      <trkpt lat="43.15669" lon="1.01182">
        <ele>407.2</ele>
        <time>2025-12-14T10:06:34Z</time>
      </trkpt>
      <trkpt lat="43.15666" lon="1.01177">
        <ele>406.4</ele>
        <time>2025-12-14T10:06:35Z</time>
      </trkpt>
      <trkpt lat="43.1566" lon="1.01172">
        <ele>405.6</ele>
        <time>2025-12-14T10:06:36Z</time>
      </trkpt>
      <trkpt lat="43.15654" lon="1.01166">
        <ele>404.8</ele>
        <time>2025-12-14T10:06:37Z</time>
      </trkpt>
      <trkpt lat="43.1565" lon="1.01161">
        <ele>404</ele>
        <time>2025-12-14T10:06:38Z</time>
      </trkpt>
      <trkpt lat="43.15645" lon="1.01155">
        <ele>403.2</ele>
        <time>2025-12-14T10:06:39Z</time>
      </trkpt>
      <trkpt lat="43.15641" lon="1.01149">
        <ele>402.4</ele>
        <time>2025-12-14T10:06:40Z</time>
      </trkpt>
      <trkpt lat="43.15635" lon="1.01143">
        <ele>401.6</ele>
        <time>2025-12-14T10:06:41Z</time>
      </trkpt>
      <trkpt lat="43.15629" lon="1.01139">
        <ele>400.8</ele>
        <time>2025-12-14T10:06:42Z</time>
      </trkpt>
      <trkpt lat="43.15623" lon="1.01134">
        <ele>400</ele>
        <time>2025-12-14T10:06:43Z</time>
      </trkpt>
      <trkpt lat="43.15616" lon="1.01129">
        <ele>399.2</ele>
        <time>2025-12-14T10:06:44Z</time>
      </trkpt>
      <trkpt lat="43.15606" lon="1.01123">
        <ele>398.4</ele>
        <time>2025-12-14T10:06:45Z</time>
      </trkpt>
      <trkpt lat="43.15598" lon="1.01118">
        <ele>397.6</ele>
        <time>2025-12-14T10:06:46Z</time>
      </trkpt>
      <trkpt lat="43.1559" lon="1.01113">
        <ele>396.8</ele>
        <time>2025-12-14T10:06:47Z</time>
      </trkpt>
      <trkpt lat="43.15583" lon="1.01107">
        <ele>396</ele>
        <time>2025-12-14T10:06:48Z</time>
      </trkpt>
      <trkpt lat="43.15573" lon="1.01099">
        <ele>395.4</ele>
        <time>2025-12-14T10:06:49Z</time>
      </trkpt>
      <trkpt lat="43.15564" lon="1.01092">
        <ele>394</ele>
        <time>2025-12-14T10:06:50Z</time>
      </trkpt>
      <trkpt lat="43.15553" lon="1.01086">
        <ele>393.4</ele>
        <time>2025-12-14T10:06:51Z</time>
      </trkpt>
      <trkpt lat="43.15545" lon="1.0108">
        <ele>393</ele>
        <time>2025-12-14T10:06:52Z</time>
      </trkpt>
      <trkpt lat="43.15536" lon="1.01073">
        <ele>392.4</ele>
        <time>2025-12-14T10:06:53Z</time>
      </trkpt>
      <trkpt lat="43.15529" lon="1.01066">
        <ele>391.8</ele>
        <time>2025-12-14T10:06:54Z</time>
      </trkpt>
      <trkpt lat="43.15522" lon="1.0106">
        <ele>391.4</ele>
        <time>2025-12-14T10:06:55Z</time>
      </trkpt>
      <trkpt lat="43.15516" lon="1.01054">
        <ele>390.8</ele>
        <time>2025-12-14T10:06:56Z</time>
      </trkpt>
      <trkpt lat="43.15509" lon="1.01051">
        <ele>390.8</ele>
        <time>2025-12-14T10:06:57Z</time>
      </trkpt>
      <trkpt lat="43.15503" lon="1.0105">
        <ele>390.4</ele>
        <time>2025-12-14T10:06:58Z</time>
      </trkpt>
      <trkpt lat="43.15498" lon="1.01052">
        <ele>390</ele>
        <time>2025-12-14T10:06:59Z</time>
      </trkpt>
      <trkpt lat="43.15495" lon="1.01056">
        <ele>389.6</ele>
        <time>2025-12-14T10:07:00Z</time>
      </trkpt>
      <trkpt lat="43.15494" lon="1.0106">
        <ele>389</ele>
        <time>2025-12-14T10:07:01Z</time>
      </trkpt>
      <trkpt lat="43.15492" lon="1.01063">
        <ele>388.6</ele>
        <time>2025-12-14T10:07:02Z</time>
      </trkpt>
      <trkpt lat="43.15491" lon="1.01074">
        <ele>388.6</ele>
        <time>2025-12-14T10:07:05Z</time>
      </trkpt>
      <trkpt lat="43.15491" lon="1.0108">
        <ele>388.6</ele>
        <time>2025-12-14T10:07:06Z</time>
      </trkpt>
      <trkpt lat="43.15494" lon="1.0111">
        <ele>388.6</ele>
        <time>2025-12-14T10:07:11Z</time>
      </trkpt>
      <trkpt lat="43.15494" lon="1.01116">
        <ele>388.6</ele>
        <time>2025-12-14T10:07:12Z</time>
      </trkpt>
      <trkpt lat="43.15496" lon="1.01141">
        <ele>388.6</ele>
        <time>2025-12-14T10:07:17Z</time>
      </trkpt>
      <trkpt lat="43.15497" lon="1.01173">
        <ele>388.6</ele>
        <time>2025-12-14T10:07:23Z</time>
      </trkpt>
      <trkpt lat="43.15498" lon="1.01198">
        <ele>388.2</ele>
        <time>2025-12-14T10:07:27Z</time>
      </trkpt>
      <trkpt lat="43.15498" lon="1.01203">
        <ele>387.8</ele>
        <time>2025-12-14T10:07:28Z</time>
      </trkpt>
      <trkpt lat="43.15498" lon="1.01208">
        <ele>387.4</ele>
        <time>2025-12-14T10:07:29Z</time>
      </trkpt>
      <trkpt lat="43.15499" lon="1.01213">
        <ele>387</ele>
        <time>2025-12-14T10:07:30Z</time>
      </trkpt>
      <trkpt lat="43.15499" lon="1.01219">
        <ele>386.6</ele>
        <time>2025-12-14T10:07:31Z</time>
      </trkpt>
      <trkpt lat="43.15501" lon="1.01236">
        <ele>386.6</ele>
        <time>2025-12-14T10:07:34Z</time>
      </trkpt>
      <trkpt lat="43.15501" lon="1.01242">
        <ele>386.6</ele>
        <time>2025-12-14T10:07:35Z</time>
      </trkpt>
      <trkpt lat="43.15506" lon="1.01276">
        <ele>386.2</ele>
        <time>2025-12-14T10:07:40Z</time>
      </trkpt>
      <trkpt lat="43.15508" lon="1.01282">
        <ele>385.8</ele>
        <time>2025-12-14T10:07:41Z</time>
      </trkpt>
      <trkpt lat="43.15509" lon="1.01289">
        <ele>385.4</ele>
        <time>2025-12-14T10:07:42Z</time>
      </trkpt>
      <trkpt lat="43.15511" lon="1.01295">
        <ele>385</ele>
        <time>2025-12-14T10:07:43Z</time>
      </trkpt>
      <trkpt lat="43.15513" lon="1.01302">
        <ele>384.6</ele>
        <time>2025-12-14T10:07:44Z</time>
      </trkpt>
      <trkpt lat="43.1552" lon="1.01328">
        <ele>384.6</ele>
        <time>2025-12-14T10:07:48Z</time>
      </trkpt>
      <trkpt lat="43.1553" lon="1.01369">
        <ele>384.2</ele>
        <time>2025-12-14T10:07:54Z</time>
      </trkpt>
      <trkpt lat="43.15532" lon="1.01376">
        <ele>383.6</ele>
        <time>2025-12-14T10:07:55Z</time>
      </trkpt>
      <trkpt lat="43.15532" lon="1.01383">
        <ele>383.2</ele>
        <time>2025-12-14T10:07:56Z</time>
      </trkpt>
      <trkpt lat="43.15532" lon="1.01391">
        <ele>382.8</ele>
        <time>2025-12-14T10:07:57Z</time>
      </trkpt>
      <trkpt lat="43.15533" lon="1.01398">
        <ele>382.4</ele>
        <time>2025-12-14T10:07:58Z</time>
      </trkpt>
      <trkpt lat="43.15533" lon="1.01406">
        <ele>382.4</ele>
        <time>2025-12-14T10:07:59Z</time>
      </trkpt>
      <trkpt lat="43.15534" lon="1.01437">
        <ele>382.4</ele>
        <time>2025-12-14T10:08:03Z</time>
      </trkpt>
      <trkpt lat="43.15536" lon="1.01449">
        <ele>382.4</ele>
        <time>2025-12-14T10:08:05Z</time>
      </trkpt>
      <trkpt lat="43.1554" lon="1.0146">
        <ele>382</ele>
        <time>2025-12-14T10:08:07Z</time>
      </trkpt>
      <trkpt lat="43.15542" lon="1.01466">
        <ele>381.6</ele>
        <time>2025-12-14T10:08:08Z</time>
      </trkpt>
      <trkpt lat="43.15543" lon="1.01471">
        <ele>381.2</ele>
        <time>2025-12-14T10:08:09Z</time>
      </trkpt>
      <trkpt lat="43.15544" lon="1.01475">
        <ele>380.8</ele>
        <time>2025-12-14T10:08:10Z</time>
      </trkpt>
      <trkpt lat="43.15546" lon="1.0148">
        <ele>380.4</ele>
        <time>2025-12-14T10:08:11Z</time>
      </trkpt>
      <trkpt lat="43.15547" lon="1.01488">
        <ele>380.4</ele>
        <time>2025-12-14T10:08:13Z</time>
      </trkpt>
      <trkpt lat="43.15547" lon="1.01492">
        <ele>380.4</ele>
        <time>2025-12-14T10:08:14Z</time>
      </trkpt>
      <trkpt lat="43.15546" lon="1.01496">
        <ele>380</ele>
        <time>2025-12-14T10:08:15Z</time>
      </trkpt>
      <trkpt lat="43.15544" lon="1.01502">
        <ele>379.6</ele>
        <time>2025-12-14T10:08:16Z</time>
      </trkpt>
      <trkpt lat="43.15541" lon="1.01505">
        <ele>379.2</ele>
        <time>2025-12-14T10:08:17Z</time>
      </trkpt>
      <trkpt lat="43.15537" lon="1.01507">
        <ele>378.8</ele>
        <time>2025-12-14T10:08:18Z</time>
      </trkpt>
      <trkpt lat="43.15533" lon="1.01508">
        <ele>378.4</ele>
        <time>2025-12-14T10:08:19Z</time>
      </trkpt>
      <trkpt lat="43.15528" lon="1.0151">
        <ele>378.4</ele>
        <time>2025-12-14T10:08:20Z</time>
      </trkpt>
      <trkpt lat="43.15523" lon="1.01512">
        <ele>377.8</ele>
        <time>2025-12-14T10:08:21Z</time>
      </trkpt>
      <trkpt lat="43.15518" lon="1.01514">
        <ele>377.4</ele>
        <time>2025-12-14T10:08:22Z</time>
      </trkpt>
      <trkpt lat="43.15513" lon="1.01515">
        <ele>377</ele>
        <time>2025-12-14T10:08:23Z</time>
      </trkpt>
      <trkpt lat="43.15507" lon="1.01517">
        <ele>376.6</ele>
        <time>2025-12-14T10:08:24Z</time>
      </trkpt>
      <trkpt lat="43.15501" lon="1.01518">
        <ele>376.2</ele>
        <time>2025-12-14T10:08:25Z</time>
      </trkpt>
      <trkpt lat="43.15496" lon="1.01519">
        <ele>375.6</ele>
        <time>2025-12-14T10:08:26Z</time>
      </trkpt>
      <trkpt lat="43.1549" lon="1.0152">
        <ele>375.2</ele>
        <time>2025-12-14T10:08:27Z</time>
      </trkpt>
      <trkpt lat="43.15485" lon="1.01522">
        <ele>374.6</ele>
        <time>2025-12-14T10:08:28Z</time>
      </trkpt>
      <trkpt lat="43.15481" lon="1.01524">
        <ele>374</ele>
        <time>2025-12-14T10:08:29Z</time>
      </trkpt>
      <trkpt lat="43.15478" lon="1.01529">
        <ele>372.8</ele>
        <time>2025-12-14T10:08:30Z</time>
      </trkpt>
      <trkpt lat="43.15477" lon="1.01534">
        <ele>372.2</ele>
        <time>2025-12-14T10:08:31Z</time>
      </trkpt>
      <trkpt lat="43.15478" lon="1.01541">
        <ele>371.4</ele>
        <time>2025-12-14T10:08:32Z</time>
      </trkpt>
      <trkpt lat="43.15478" lon="1.01548">
        <ele>370.6</ele>
        <time>2025-12-14T10:08:33Z</time>
      </trkpt>
      <trkpt lat="43.15479" lon="1.01555">
        <ele>370</ele>
        <time>2025-12-14T10:08:34Z</time>
      </trkpt>
      <trkpt lat="43.15479" lon="1.01562">
        <ele>369.2</ele>
        <time>2025-12-14T10:08:35Z</time>
      </trkpt>
      <trkpt lat="43.1548" lon="1.01599">
        <ele>369.2</ele>
        <time>2025-12-14T10:08:41Z</time>
      </trkpt>
      <trkpt lat="43.15488" lon="1.0163">
        <ele>369.2</ele>
        <time>2025-12-14T10:08:47Z</time>
      </trkpt>
      <trkpt lat="43.15494" lon="1.01662">
        <ele>369.2</ele>
        <time>2025-12-14T10:08:54Z</time>
      </trkpt>
      <trkpt lat="43.15492" lon="1.0167">
        <ele>369.6</ele>
        <time>2025-12-14T10:08:57Z</time>
      </trkpt>
      <trkpt lat="43.15491" lon="1.01671">
        <ele>370</ele>
        <time>2025-12-14T10:08:58Z</time>
      </trkpt>
      <trkpt lat="43.15491" lon="1.01672">
        <ele>370.4</ele>
        <time>2025-12-14T10:08:59Z</time>
      </trkpt>
      <trkpt lat="43.15491" lon="1.01672">
        <ele>370.8</ele>
        <time>2025-12-14T10:09:00Z</time>
      </trkpt>
      <trkpt lat="43.15492" lon="1.01674">
        <ele>371.2</ele>
        <time>2025-12-14T10:09:10Z</time>
      </trkpt>
      <trkpt lat="43.15492" lon="1.01673">
        <ele>371.2</ele>
        <time>2025-12-14T10:09:11Z</time>
      </trkpt>
      <trkpt lat="43.15492" lon="1.01673">
        <ele>371.2</ele>
        <time>2025-12-14T10:09:12Z</time>
      </trkpt>
      <trkpt lat="43.15494" lon="1.01671">
        <ele>371.2</ele>
        <time>2025-12-14T10:09:17Z</time>
      </trkpt>
      <trkpt lat="43.15498" lon="1.01668">
        <ele>371.2</ele>
        <time>2025-12-14T10:09:19Z</time>
      </trkpt>
      <trkpt lat="43.15509" lon="1.01668">
        <ele>371.6</ele>
        <time>2025-12-14T10:09:23Z</time>
      </trkpt>
      <trkpt lat="43.15512" lon="1.01667">
        <ele>372.2</ele>
        <time>2025-12-14T10:09:24Z</time>
      </trkpt>
      <trkpt lat="43.15515" lon="1.01666">
        <ele>372.6</ele>
        <time>2025-12-14T10:09:25Z</time>
      </trkpt>
      <trkpt lat="43.15518" lon="1.01666">
        <ele>373</ele>
        <time>2025-12-14T10:09:26Z</time>
      </trkpt>
      <trkpt lat="43.15521" lon="1.01666">
        <ele>373.6</ele>
        <time>2025-12-14T10:09:27Z</time>
      </trkpt>
      <trkpt lat="43.15524" lon="1.01665">
        <ele>374.2</ele>
        <time>2025-12-14T10:09:28Z</time>
      </trkpt>
      <trkpt lat="43.15526" lon="1.01665">
        <ele>374.8</ele>
        <time>2025-12-14T10:09:29Z</time>
      </trkpt>
      <trkpt lat="43.15529" lon="1.01666">
        <ele>375.2</ele>
        <time>2025-12-14T10:09:30Z</time>
      </trkpt>
      <trkpt lat="43.15532" lon="1.01666">
        <ele>375.8</ele>
        <time>2025-12-14T10:09:31Z</time>
      </trkpt>
      <trkpt lat="43.15534" lon="1.01667">
        <ele>376.2</ele>
        <time>2025-12-14T10:09:32Z</time>
      </trkpt>
      <trkpt lat="43.15536" lon="1.01668">
        <ele>376.8</ele>
        <time>2025-12-14T10:09:33Z</time>
      </trkpt>
      <trkpt lat="43.15538" lon="1.0167">
        <ele>377.4</ele>
        <time>2025-12-14T10:09:34Z</time>
      </trkpt>
      <trkpt lat="43.15541" lon="1.01672">
        <ele>377.8</ele>
        <time>2025-12-14T10:09:35Z</time>
      </trkpt>
      <trkpt lat="43.15546" lon="1.01676">
        <ele>378.2</ele>
        <time>2025-12-14T10:09:37Z</time>
      </trkpt>
      <trkpt lat="43.15548" lon="1.01678">
        <ele>378.8</ele>
        <time>2025-12-14T10:09:38Z</time>
      </trkpt>
      <trkpt lat="43.15549" lon="1.01682">
        <ele>379.2</ele>
        <time>2025-12-14T10:09:39Z</time>
      </trkpt>
      <trkpt lat="43.1555" lon="1.01686">
        <ele>379.6</ele>
        <time>2025-12-14T10:09:40Z</time>
      </trkpt>
      <trkpt lat="43.15551" lon="1.0169">
        <ele>380</ele>
        <time>2025-12-14T10:09:41Z</time>
      </trkpt>
      <trkpt lat="43.15552" lon="1.01701">
        <ele>380.6</ele>
        <time>2025-12-14T10:09:44Z</time>
      </trkpt>
      <trkpt lat="43.15551" lon="1.01705">
        <ele>381</ele>
        <time>2025-12-14T10:09:45Z</time>
      </trkpt>
      <trkpt lat="43.15551" lon="1.01709">
        <ele>381.4</ele>
        <time>2025-12-14T10:09:46Z</time>
      </trkpt>
      <trkpt lat="43.15551" lon="1.01712">
        <ele>381.8</ele>
        <time>2025-12-14T10:09:47Z</time>
      </trkpt>
      <trkpt lat="43.15551" lon="1.01714">
        <ele>382.2</ele>
        <time>2025-12-14T10:09:48Z</time>
      </trkpt>
      <trkpt lat="43.15552" lon="1.01717">
        <ele>382.2</ele>
        <time>2025-12-14T10:09:50Z</time>
      </trkpt>
      <trkpt lat="43.15553" lon="1.01722">
        <ele>382.2</ele>
        <time>2025-12-14T10:09:52Z</time>
      </trkpt>
      <trkpt lat="43.15557" lon="1.01734">
        <ele>382.2</ele>
        <time>2025-12-14T10:09:55Z</time>
      </trkpt>
      <trkpt lat="43.15558" lon="1.01739">
        <ele>382.6</ele>
        <time>2025-12-14T10:09:56Z</time>
      </trkpt>
      <trkpt lat="43.15558" lon="1.01745">
        <ele>383.2</ele>
        <time>2025-12-14T10:09:57Z</time>
      </trkpt>
      <trkpt lat="43.15558" lon="1.0175">
        <ele>383.6</ele>
        <time>2025-12-14T10:09:58Z</time>
      </trkpt>
      <trkpt lat="43.15557" lon="1.01754">
        <ele>384</ele>
        <time>2025-12-14T10:09:59Z</time>
      </trkpt>
      <trkpt lat="43.15557" lon="1.01759">
        <ele>384.6</ele>
        <time>2025-12-14T10:10:00Z</time>
      </trkpt>
      <trkpt lat="43.15557" lon="1.01764">
        <ele>384.6</ele>
        <time>2025-12-14T10:10:01Z</time>
      </trkpt>
      <trkpt lat="43.15558" lon="1.01775">
        <ele>384.6</ele>
        <time>2025-12-14T10:10:05Z</time>
      </trkpt>
      <trkpt lat="43.15559" lon="1.01778">
        <ele>385</ele>
        <time>2025-12-14T10:10:06Z</time>
      </trkpt>
      <trkpt lat="43.1556" lon="1.01781">
        <ele>385.4</ele>
        <time>2025-12-14T10:10:07Z</time>
      </trkpt>
      <trkpt lat="43.15559" lon="1.01785">
        <ele>385.8</ele>
        <time>2025-12-14T10:10:08Z</time>
      </trkpt>
      <trkpt lat="43.15559" lon="1.0179">
        <ele>386.6</ele>
        <time>2025-12-14T10:10:09Z</time>
      </trkpt>
      <trkpt lat="43.15559" lon="1.01796">
        <ele>386.6</ele>
        <time>2025-12-14T10:10:10Z</time>
      </trkpt>
      <trkpt lat="43.15559" lon="1.01805">
        <ele>387</ele>
        <time>2025-12-14T10:10:12Z</time>
      </trkpt>
      <trkpt lat="43.1556" lon="1.01809">
        <ele>387.4</ele>
        <time>2025-12-14T10:10:13Z</time>
      </trkpt>
      <trkpt lat="43.1556" lon="1.01813">
        <ele>387.8</ele>
        <time>2025-12-14T10:10:14Z</time>
      </trkpt>
      <trkpt lat="43.15561" lon="1.01816">
        <ele>388.2</ele>
        <time>2025-12-14T10:10:15Z</time>
      </trkpt>
      <trkpt lat="43.15561" lon="1.01821">
        <ele>388.8</ele>
        <time>2025-12-14T10:10:16Z</time>
      </trkpt>
      <trkpt lat="43.15562" lon="1.01833">
        <ele>389.2</ele>
        <time>2025-12-14T10:10:19Z</time>
      </trkpt>
      <trkpt lat="43.15562" lon="1.01837">
        <ele>389.6</ele>
        <time>2025-12-14T10:10:20Z</time>
      </trkpt>
      <trkpt lat="43.15562" lon="1.0184">
        <ele>390</ele>
        <time>2025-12-14T10:10:21Z</time>
      </trkpt>
      <trkpt lat="43.15563" lon="1.01844">
        <ele>390.4</ele>
        <time>2025-12-14T10:10:22Z</time>
      </trkpt>
      <trkpt lat="43.15563" lon="1.01849">
        <ele>390.8</ele>
        <time>2025-12-14T10:10:23Z</time>
      </trkpt>
      <trkpt lat="43.15563" lon="1.01864">
        <ele>390.8</ele>
        <time>2025-12-14T10:10:26Z</time>
      </trkpt>
      <trkpt lat="43.15564" lon="1.01869">
        <ele>391.2</ele>
        <time>2025-12-14T10:10:27Z</time>
      </trkpt>
      <trkpt lat="43.15563" lon="1.01873">
        <ele>391.8</ele>
        <time>2025-12-14T10:10:28Z</time>
      </trkpt>
      <trkpt lat="43.15564" lon="1.01877">
        <ele>392.2</ele>
        <time>2025-12-14T10:10:29Z</time>
      </trkpt>
      <trkpt lat="43.15564" lon="1.0188">
        <ele>392.6</ele>
        <time>2025-12-14T10:10:30Z</time>
      </trkpt>
      <trkpt lat="43.15566" lon="1.01882">
        <ele>393</ele>
        <time>2025-12-14T10:10:31Z</time>
      </trkpt>
      <trkpt lat="43.15569" lon="1.01884">
        <ele>393</ele>
        <time>2025-12-14T10:10:32Z</time>
      </trkpt>
      <trkpt lat="43.15574" lon="1.01888">
        <ele>393.8</ele>
        <time>2025-12-14T10:10:34Z</time>
      </trkpt>
      <trkpt lat="43.15577" lon="1.01891">
        <ele>394.2</ele>
        <time>2025-12-14T10:10:35Z</time>
      </trkpt>
      <trkpt lat="43.1558" lon="1.01893">
        <ele>394.6</ele>
        <time>2025-12-14T10:10:36Z</time>
      </trkpt>
      <trkpt lat="43.15583" lon="1.01895">
        <ele>395</ele>
        <time>2025-12-14T10:10:37Z</time>
      </trkpt>
      <trkpt lat="43.15586" lon="1.01897">
        <ele>395</ele>
        <time>2025-12-14T10:10:38Z</time>
      </trkpt>
      <trkpt lat="43.15593" lon="1.01903">
        <ele>395.6</ele>
        <time>2025-12-14T10:10:41Z</time>
      </trkpt>
      <trkpt lat="43.15595" lon="1.01906">
        <ele>396</ele>
        <time>2025-12-14T10:10:42Z</time>
      </trkpt>
      <trkpt lat="43.15596" lon="1.01908">
        <ele>396.4</ele>
        <time>2025-12-14T10:10:43Z</time>
      </trkpt>
      <trkpt lat="43.15598" lon="1.01909">
        <ele>396.8</ele>
        <time>2025-12-14T10:10:44Z</time>
      </trkpt>
      <trkpt lat="43.156" lon="1.0191">
        <ele>397.2</ele>
        <time>2025-12-14T10:10:45Z</time>
      </trkpt>
      <trkpt lat="43.15603" lon="1.01914">
        <ele>397.2</ele>
        <time>2025-12-14T10:10:47Z</time>
      </trkpt>
      <trkpt lat="43.15605" lon="1.01916">
        <ele>397.6</ele>
        <time>2025-12-14T10:10:48Z</time>
      </trkpt>
      <trkpt lat="43.15606" lon="1.01918">
        <ele>398</ele>
        <time>2025-12-14T10:10:49Z</time>
      </trkpt>
      <trkpt lat="43.15608" lon="1.0192">
        <ele>398.4</ele>
        <time>2025-12-14T10:10:50Z</time>
      </trkpt>
      <trkpt lat="43.1561" lon="1.01922">
        <ele>398.8</ele>
        <time>2025-12-14T10:10:51Z</time>
      </trkpt>
      <trkpt lat="43.15611" lon="1.01923">
        <ele>399.2</ele>
        <time>2025-12-14T10:10:52Z</time>
      </trkpt>
      <trkpt lat="43.15614" lon="1.01925">
        <ele>399.2</ele>
        <time>2025-12-14T10:10:54Z</time>
      </trkpt>
      <trkpt lat="43.15616" lon="1.01927">
        <ele>399.8</ele>
        <time>2025-12-14T10:10:55Z</time>
      </trkpt>
      <trkpt lat="43.15617" lon="1.01928">
        <ele>400.2</ele>
        <time>2025-12-14T10:10:56Z</time>
      </trkpt>
      <trkpt lat="43.15619" lon="1.01929">
        <ele>400.6</ele>
        <time>2025-12-14T10:10:57Z</time>
      </trkpt>
      <trkpt lat="43.15621" lon="1.01929">
        <ele>401.6</ele>
        <time>2025-12-14T10:10:58Z</time>
      </trkpt>
      <trkpt lat="43.15623" lon="1.01931">
        <ele>402</ele>
        <time>2025-12-14T10:10:59Z</time>
      </trkpt>
      <trkpt lat="43.15624" lon="1.01932">
        <ele>402.4</ele>
        <time>2025-12-14T10:11:00Z</time>
      </trkpt>
      <trkpt lat="43.15626" lon="1.01935">
        <ele>402.8</ele>
        <time>2025-12-14T10:11:01Z</time>
      </trkpt>
      <trkpt lat="43.15628" lon="1.01938">
        <ele>403.2</ele>
        <time>2025-12-14T10:11:02Z</time>
      </trkpt>
      <trkpt lat="43.15629" lon="1.0194">
        <ele>403.6</ele>
        <time>2025-12-14T10:11:03Z</time>
      </trkpt>
      <trkpt lat="43.1563" lon="1.01943">
        <ele>404.2</ele>
        <time>2025-12-14T10:11:04Z</time>
      </trkpt>
      <trkpt lat="43.1563" lon="1.01945">
        <ele>404.6</ele>
        <time>2025-12-14T10:11:05Z</time>
      </trkpt>
      <trkpt lat="43.15631" lon="1.01947">
        <ele>405.2</ele>
        <time>2025-12-14T10:11:06Z</time>
      </trkpt>
      <trkpt lat="43.15632" lon="1.01949">
        <ele>405.6</ele>
        <time>2025-12-14T10:11:07Z</time>
      </trkpt>
      <trkpt lat="43.15633" lon="1.01952">
        <ele>406.2</ele>
        <time>2025-12-14T10:11:08Z</time>
      </trkpt>
      <trkpt lat="43.15634" lon="1.01954">
        <ele>406.8</ele>
        <time>2025-12-14T10:11:09Z</time>
      </trkpt>
      <trkpt lat="43.15635" lon="1.01957">
        <ele>407.2</ele>
        <time>2025-12-14T10:11:10Z</time>
      </trkpt>
      <trkpt lat="43.15636" lon="1.0196">
        <ele>407.8</ele>
        <time>2025-12-14T10:11:11Z</time>
      </trkpt>
      <trkpt lat="43.15637" lon="1.01962">
        <ele>408.2</ele>
        <time>2025-12-14T10:11:12Z</time>
      </trkpt>
      <trkpt lat="43.15638" lon="1.01964">
        <ele>408.6</ele>
        <time>2025-12-14T10:11:13Z</time>
      </trkpt>
      <trkpt lat="43.1564" lon="1.01967">
        <ele>409</ele>
        <time>2025-12-14T10:11:14Z</time>
      </trkpt>
      <trkpt lat="43.15641" lon="1.01969">
        <ele>409.6</ele>
        <time>2025-12-14T10:11:15Z</time>
      </trkpt>
      <trkpt lat="43.15642" lon="1.01971">
        <ele>410</ele>
        <time>2025-12-14T10:11:16Z</time>
      </trkpt>
      <trkpt lat="43.15643" lon="1.01973">
        <ele>410.4</ele>
        <time>2025-12-14T10:11:17Z</time>
      </trkpt>
      <trkpt lat="43.15644" lon="1.01976">
        <ele>410.8</ele>
        <time>2025-12-14T10:11:18Z</time>
      </trkpt>
      <trkpt lat="43.15645" lon="1.01978">
        <ele>411.2</ele>
        <time>2025-12-14T10:11:19Z</time>
      </trkpt>
      <trkpt lat="43.15646" lon="1.01981">
        <ele>411.6</ele>
        <time>2025-12-14T10:11:20Z</time>
      </trkpt>
      <trkpt lat="43.15647" lon="1.01984">
        <ele>412</ele>
        <time>2025-12-14T10:11:21Z</time>
      </trkpt>
      <trkpt lat="43.15648" lon="1.01989">
        <ele>412.4</ele>
        <time>2025-12-14T10:11:23Z</time>
      </trkpt>
      <trkpt lat="43.15648" lon="1.01992">
        <ele>412.8</ele>
        <time>2025-12-14T10:11:24Z</time>
      </trkpt>
      <trkpt lat="43.15648" lon="1.01994">
        <ele>413.2</ele>
        <time>2025-12-14T10:11:25Z</time>
      </trkpt>
      <trkpt lat="43.15649" lon="1.01997">
        <ele>413.6</ele>
        <time>2025-12-14T10:11:26Z</time>
      </trkpt>
      <trkpt lat="43.15649" lon="1.02">
        <ele>414</ele>
        <time>2025-12-14T10:11:27Z</time>
      </trkpt>
      <trkpt lat="43.15651" lon="1.02007">
        <ele>414</ele>
        <time>2025-12-14T10:11:30Z</time>
      </trkpt>
      <trkpt lat="43.15655" lon="1.02018">
        <ele>414.6</ele>
        <time>2025-12-14T10:11:34Z</time>
      </trkpt>
      <trkpt lat="43.15656" lon="1.0202">
        <ele>415</ele>
        <time>2025-12-14T10:11:35Z</time>
      </trkpt>
      <trkpt lat="43.15658" lon="1.02021">
        <ele>415.4</ele>
        <time>2025-12-14T10:11:36Z</time>
      </trkpt>
      <trkpt lat="43.15659" lon="1.02022">
        <ele>416</ele>
        <time>2025-12-14T10:11:37Z</time>
      </trkpt>
      <trkpt lat="43.15661" lon="1.02024">
        <ele>416.4</ele>
        <time>2025-12-14T10:11:38Z</time>
      </trkpt>
      <trkpt lat="43.15662" lon="1.02026">
        <ele>417</ele>
        <time>2025-12-14T10:11:39Z</time>
      </trkpt>
      <trkpt lat="43.15663" lon="1.02029">
        <ele>417.4</ele>
        <time>2025-12-14T10:11:40Z</time>
      </trkpt>
      <trkpt lat="43.15665" lon="1.02031">
        <ele>418</ele>
        <time>2025-12-14T10:11:41Z</time>
      </trkpt>
      <trkpt lat="43.15666" lon="1.02033">
        <ele>418.4</ele>
        <time>2025-12-14T10:11:42Z</time>
      </trkpt>
      <trkpt lat="43.15668" lon="1.02035">
        <ele>419</ele>
        <time>2025-12-14T10:11:43Z</time>
      </trkpt>
      <trkpt lat="43.15669" lon="1.02039">
        <ele>419.4</ele>
        <time>2025-12-14T10:11:44Z</time>
      </trkpt>
      <trkpt lat="43.1567" lon="1.02041">
        <ele>420</ele>
        <time>2025-12-14T10:11:45Z</time>
      </trkpt>
      <trkpt lat="43.15672" lon="1.02044">
        <ele>420.4</ele>
        <time>2025-12-14T10:11:46Z</time>
      </trkpt>
      <trkpt lat="43.15675" lon="1.02049">
        <ele>421.2</ele>
        <time>2025-12-14T10:11:48Z</time>
      </trkpt>
      <trkpt lat="43.15676" lon="1.02051">
        <ele>421.8</ele>
        <time>2025-12-14T10:11:49Z</time>
      </trkpt>
      <trkpt lat="43.15678" lon="1.02053">
        <ele>422.2</ele>
        <time>2025-12-14T10:11:50Z</time>
      </trkpt>
      <trkpt lat="43.1568" lon="1.02055">
        <ele>422.6</ele>
        <time>2025-12-14T10:11:51Z</time>
      </trkpt>
      <trkpt lat="43.15681" lon="1.02058">
        <ele>423</ele>
        <time>2025-12-14T10:11:52Z</time>
      </trkpt>
      <trkpt lat="43.15683" lon="1.02061">
        <ele>423.4</ele>
        <time>2025-12-14T10:11:53Z</time>
      </trkpt>
      <trkpt lat="43.15684" lon="1.02064">
        <ele>423.8</ele>
        <time>2025-12-14T10:11:54Z</time>
      </trkpt>
      <trkpt lat="43.15685" lon="1.02067">
        <ele>424.2</ele>
        <time>2025-12-14T10:11:55Z</time>
      </trkpt>
      <trkpt lat="43.15686" lon="1.02069">
        <ele>424.8</ele>
        <time>2025-12-14T10:11:56Z</time>
      </trkpt>
      <trkpt lat="43.15688" lon="1.02074">
        <ele>425.2</ele>
        <time>2025-12-14T10:11:58Z</time>
      </trkpt>
      <trkpt lat="43.15689" lon="1.02077">
        <ele>425.6</ele>
        <time>2025-12-14T10:11:59Z</time>
      </trkpt>
      <trkpt lat="43.1569" lon="1.02079">
        <ele>426</ele>
        <time>2025-12-14T10:12:00Z</time>
      </trkpt>
      <trkpt lat="43.15692" lon="1.0208">
        <ele>426.4</ele>
        <time>2025-12-14T10:12:01Z</time>
      </trkpt>
      <trkpt lat="43.15692" lon="1.02083">
        <ele>426.8</ele>
        <time>2025-12-14T10:12:02Z</time>
      </trkpt>
      <trkpt lat="43.15695" lon="1.02088">
        <ele>427.2</ele>
        <time>2025-12-14T10:12:04Z</time>
      </trkpt>
      <trkpt lat="43.15696" lon="1.0209">
        <ele>427.6</ele>
        <time>2025-12-14T10:12:05Z</time>
      </trkpt>
      <trkpt lat="43.15696" lon="1.02092">
        <ele>428</ele>
        <time>2025-12-14T10:12:06Z</time>
      </trkpt>
      <trkpt lat="43.15698" lon="1.02095">
        <ele>428.4</ele>
        <time>2025-12-14T10:12:07Z</time>
      </trkpt>
      <trkpt lat="43.15699" lon="1.02097">
        <ele>428.8</ele>
        <time>2025-12-14T10:12:08Z</time>
      </trkpt>
      <trkpt lat="43.15704" lon="1.02106">
        <ele>429.6</ele>
        <time>2025-12-14T10:12:12Z</time>
      </trkpt>
      <trkpt lat="43.15704" lon="1.02108">
        <ele>430.2</ele>
        <time>2025-12-14T10:12:13Z</time>
      </trkpt>
      <trkpt lat="43.15705" lon="1.02111">
        <ele>430.6</ele>
        <time>2025-12-14T10:12:14Z</time>
      </trkpt>
      <trkpt lat="43.15705" lon="1.02114">
        <ele>431</ele>
        <time>2025-12-14T10:12:15Z</time>
      </trkpt>
      <trkpt lat="43.15705" lon="1.02122">
        <ele>431</ele>
        <time>2025-12-14T10:12:18Z</time>
      </trkpt>
      <trkpt lat="43.15708" lon="1.02133">
        <ele>431.4</ele>
        <time>2025-12-14T10:12:22Z</time>
      </trkpt>
      <trkpt lat="43.15708" lon="1.02137">
        <ele>431.8</ele>
        <time>2025-12-14T10:12:23Z</time>
      </trkpt>
      <trkpt lat="43.15708" lon="1.0214">
        <ele>432.2</ele>
        <time>2025-12-14T10:12:24Z</time>
      </trkpt>
      <trkpt lat="43.15709" lon="1.02144">
        <ele>432.6</ele>
        <time>2025-12-14T10:12:25Z</time>
      </trkpt>
      <trkpt lat="43.15709" lon="1.02148">
        <ele>433</ele>
        <time>2025-12-14T10:12:26Z</time>
      </trkpt>
      <trkpt lat="43.15711" lon="1.02158">
        <ele>433</ele>
        <time>2025-12-14T10:12:30Z</time>
      </trkpt>
      <trkpt lat="43.15711" lon="1.0217">
        <ele>433.6</ele>
        <time>2025-12-14T10:12:34Z</time>
      </trkpt>
      <trkpt lat="43.15711" lon="1.02173">
        <ele>434</ele>
        <time>2025-12-14T10:12:35Z</time>
      </trkpt>
      <trkpt lat="43.15711" lon="1.02175">
        <ele>434.4</ele>
        <time>2025-12-14T10:12:36Z</time>
      </trkpt>
      <trkpt lat="43.15711" lon="1.02177">
        <ele>435.2</ele>
        <time>2025-12-14T10:12:37Z</time>
      </trkpt>
      <trkpt lat="43.15711" lon="1.02178">
        <ele>435.2</ele>
        <time>2025-12-14T10:12:38Z</time>
      </trkpt>
      <trkpt lat="43.1571" lon="1.02182">
        <ele>435.2</ele>
        <time>2025-12-14T10:13:30Z</time>
      </trkpt>
      <trkpt lat="43.15709" lon="1.02184">
        <ele>435.2</ele>
        <time>2025-12-14T10:13:31Z</time>
      </trkpt>
      <trkpt lat="43.15706" lon="1.02192">
        <ele>435.2</ele>
        <time>2025-12-14T10:13:35Z</time>
      </trkpt>
      <trkpt lat="43.15704" lon="1.02199">
        <ele>435.2</ele>
        <time>2025-12-14T10:18:07Z</time>
      </trkpt>
      <trkpt lat="43.15698" lon="1.02217">
        <ele>435.2</ele>
        <time>2025-12-14T10:18:11Z</time>
      </trkpt>
      <trkpt lat="43.15694" lon="1.02243">
        <ele>435.2</ele>
        <time>2025-12-14T10:18:16Z</time>
      </trkpt>
      <trkpt lat="43.15691" lon="1.02263">
        <ele>435.2</ele>
        <time>2025-12-14T10:18:19Z</time>
      </trkpt>
      <trkpt lat="43.15685" lon="1.02303">
        <ele>435.2</ele>
        <time>2025-12-14T10:18:25Z</time>
      </trkpt>
      <trkpt lat="43.15682" lon="1.02316">
        <ele>434.8</ele>
        <time>2025-12-14T10:18:27Z</time>
      </trkpt>
      <trkpt lat="43.15678" lon="1.02323">
        <ele>434.4</ele>
        <time>2025-12-14T10:18:28Z</time>
      </trkpt>
      <trkpt lat="43.15676" lon="1.02331">
        <ele>434</ele>
        <time>2025-12-14T10:18:29Z</time>
      </trkpt>
      <trkpt lat="43.15674" lon="1.02339">
        <ele>433.6</ele>
        <time>2025-12-14T10:18:30Z</time>
      </trkpt>
      <trkpt lat="43.15672" lon="1.02347">
        <ele>433.2</ele>
        <time>2025-12-14T10:18:31Z</time>
      </trkpt>
      <trkpt lat="43.15671" lon="1.02355">
        <ele>432.8</ele>
        <time>2025-12-14T10:18:32Z</time>
      </trkpt>
      <trkpt lat="43.1567" lon="1.02363">
        <ele>432.2</ele>
        <time>2025-12-14T10:18:33Z</time>
      </trkpt>
      <trkpt lat="43.15668" lon="1.02371">
        <ele>431.8</ele>
        <time>2025-12-14T10:18:34Z</time>
      </trkpt>
      <trkpt lat="43.15667" lon="1.02379">
        <ele>431.4</ele>
        <time>2025-12-14T10:18:35Z</time>
      </trkpt>
      <trkpt lat="43.15665" lon="1.02386">
        <ele>430.8</ele>
        <time>2025-12-14T10:18:36Z</time>
      </trkpt>
      <trkpt lat="43.15664" lon="1.02397">
        <ele>430.4</ele>
        <time>2025-12-14T10:18:38Z</time>
      </trkpt>
      <trkpt lat="43.15663" lon="1.02402">
        <ele>430</ele>
        <time>2025-12-14T10:18:39Z</time>
      </trkpt>
      <trkpt lat="43.15662" lon="1.02406">
        <ele>429.6</ele>
        <time>2025-12-14T10:18:40Z</time>
      </trkpt>
      <trkpt lat="43.15662" lon="1.02412">
        <ele>429.2</ele>
        <time>2025-12-14T10:18:41Z</time>
      </trkpt>
      <trkpt lat="43.15662" lon="1.02418">
        <ele>428.8</ele>
        <time>2025-12-14T10:18:42Z</time>
      </trkpt>
      <trkpt lat="43.15661" lon="1.02425">
        <ele>428.8</ele>
        <time>2025-12-14T10:18:43Z</time>
      </trkpt>
      <trkpt lat="43.15661" lon="1.02456">
        <ele>428.8</ele>
        <time>2025-12-14T10:18:48Z</time>
      </trkpt>
      <trkpt lat="43.15661" lon="1.02473">
        <ele>428.8</ele>
        <time>2025-12-14T10:18:52Z</time>
      </trkpt>
      <trkpt lat="43.15654" lon="1.02494">
        <ele>428.8</ele>
        <time>2025-12-14T10:18:56Z</time>
      </trkpt>
      <trkpt lat="43.1565" lon="1.02509">
        <ele>428.4</ele>
        <time>2025-12-14T10:18:58Z</time>
      </trkpt>
      <trkpt lat="43.15648" lon="1.02516">
        <ele>427.8</ele>
        <time>2025-12-14T10:18:59Z</time>
      </trkpt>
      <trkpt lat="43.15646" lon="1.02523">
        <ele>427.4</ele>
        <time>2025-12-14T10:19:00Z</time>
      </trkpt>
      <trkpt lat="43.15644" lon="1.0253">
        <ele>427</ele>
        <time>2025-12-14T10:19:01Z</time>
      </trkpt>
      <trkpt lat="43.15642" lon="1.02537">
        <ele>426.6</ele>
        <time>2025-12-14T10:19:02Z</time>
      </trkpt>
      <trkpt lat="43.15637" lon="1.02555">
        <ele>426.6</ele>
        <time>2025-12-14T10:19:05Z</time>
      </trkpt>
      <trkpt lat="43.15634" lon="1.0256">
        <ele>426.6</ele>
        <time>2025-12-14T10:19:06Z</time>
      </trkpt>
      <trkpt lat="43.15621" lon="1.02589">
        <ele>426.6</ele>
        <time>2025-12-14T10:19:12Z</time>
      </trkpt>
      <trkpt lat="43.15604" lon="1.02626">
        <ele>426.2</ele>
        <time>2025-12-14T10:19:18Z</time>
      </trkpt>
      <trkpt lat="43.15601" lon="1.02631">
        <ele>425.6</ele>
        <time>2025-12-14T10:19:19Z</time>
      </trkpt>
      <trkpt lat="43.15598" lon="1.02636">
        <ele>425.2</ele>
        <time>2025-12-14T10:19:20Z</time>
      </trkpt>
      <trkpt lat="43.15594" lon="1.02643">
        <ele>424.8</ele>
        <time>2025-12-14T10:19:21Z</time>
      </trkpt>
      <trkpt lat="43.1559" lon="1.02649">
        <ele>424.2</ele>
        <time>2025-12-14T10:19:22Z</time>
      </trkpt>
      <trkpt lat="43.15587" lon="1.02655">
        <ele>424.2</ele>
        <time>2025-12-14T10:19:23Z</time>
      </trkpt>
      <trkpt lat="43.15579" lon="1.02669">
        <ele>423.8</ele>
        <time>2025-12-14T10:19:25Z</time>
      </trkpt>
      <trkpt lat="43.15575" lon="1.02675">
        <ele>423.4</ele>
        <time>2025-12-14T10:19:26Z</time>
      </trkpt>
      <trkpt lat="43.15571" lon="1.02682">
        <ele>423</ele>
        <time>2025-12-14T10:19:27Z</time>
      </trkpt>
      <trkpt lat="43.15568" lon="1.02689">
        <ele>422.6</ele>
        <time>2025-12-14T10:19:28Z</time>
      </trkpt>
      <trkpt lat="43.15566" lon="1.02696">
        <ele>422</ele>
        <time>2025-12-14T10:19:29Z</time>
      </trkpt>
      <trkpt lat="43.15563" lon="1.02703">
        <ele>421.6</ele>
        <time>2025-12-14T10:19:30Z</time>
      </trkpt>
      <trkpt lat="43.15559" lon="1.02711">
        <ele>421</ele>
        <time>2025-12-14T10:19:31Z</time>
      </trkpt>
      <trkpt lat="43.15556" lon="1.02718">
        <ele>420.6</ele>
        <time>2025-12-14T10:19:32Z</time>
      </trkpt>
      <trkpt lat="43.15555" lon="1.02725">
        <ele>420</ele>
        <time>2025-12-14T10:19:33Z</time>
      </trkpt>
      <trkpt lat="43.15553" lon="1.02748">
        <ele>420</ele>
        <time>2025-12-14T10:19:37Z</time>
      </trkpt>
      <trkpt lat="43.15551" lon="1.02772">
        <ele>420</ele>
        <time>2025-12-14T10:19:41Z</time>
      </trkpt>
      <trkpt lat="43.15551" lon="1.02778">
        <ele>420</ele>
        <time>2025-12-14T10:19:42Z</time>
      </trkpt>
      <trkpt lat="43.15546" lon="1.02802">
        <ele>420</ele>
        <time>2025-12-14T10:19:47Z</time>
      </trkpt>
      <trkpt lat="43.15543" lon="1.02832">
        <ele>420</ele>
        <time>2025-12-14T10:19:52Z</time>
      </trkpt>
      <trkpt lat="43.15541" lon="1.02882">
        <ele>420</ele>
        <time>2025-12-14T10:20:01Z</time>
      </trkpt>
      <trkpt lat="43.15538" lon="1.02897">
        <ele>420</ele>
        <time>2025-12-14T10:20:04Z</time>
      </trkpt>
      <trkpt lat="43.15538" lon="1.02905">
        <ele>420</ele>
        <time>2025-12-14T10:20:06Z</time>
      </trkpt>
      <trkpt lat="43.15538" lon="1.02911">
        <ele>420</ele>
        <time>2025-12-14T10:20:08Z</time>
      </trkpt>
      <trkpt lat="43.15537" lon="1.02921">
        <ele>419.6</ele>
        <time>2025-12-14T10:20:11Z</time>
      </trkpt>
      <trkpt lat="43.15537" lon="1.02925">
        <ele>419.2</ele>
        <time>2025-12-14T10:20:12Z</time>
      </trkpt>
      <trkpt lat="43.15537" lon="1.02928">
        <ele>418.6</ele>
        <time>2025-12-14T10:20:13Z</time>
      </trkpt>
      <trkpt lat="43.15537" lon="1.02931">
        <ele>418</ele>
        <time>2025-12-14T10:20:14Z</time>
      </trkpt>
      <trkpt lat="43.15539" lon="1.02935">
        <ele>417.4</ele>
        <time>2025-12-14T10:20:15Z</time>
      </trkpt>
      <trkpt lat="43.15539" lon="1.02939">
        <ele>416.6</ele>
        <time>2025-12-14T10:20:16Z</time>
      </trkpt>
      <trkpt lat="43.15539" lon="1.02943">
        <ele>416</ele>
        <time>2025-12-14T10:20:17Z</time>
      </trkpt>
      <trkpt lat="43.15539" lon="1.02947">
        <ele>415.4</ele>
        <time>2025-12-14T10:20:18Z</time>
      </trkpt>
      <trkpt lat="43.15539" lon="1.02947">
        <ele>414.8</ele>
        <time>2025-12-14T10:20:19Z</time>
      </trkpt>
      <trkpt lat="43.15539" lon="1.02948">
        <ele>414.2</ele>
        <time>2025-12-14T10:20:20Z</time>
      </trkpt>
      <trkpt lat="43.15539" lon="1.02951">
        <ele>413.8</ele>
        <time>2025-12-14T10:20:21Z</time>
      </trkpt>
      <trkpt lat="43.15539" lon="1.02956">
        <ele>413.2</ele>
        <time>2025-12-14T10:20:22Z</time>
      </trkpt>
      <trkpt lat="43.15538" lon="1.02966">
        <ele>413.2</ele>
        <time>2025-12-14T10:20:24Z</time>
      </trkpt>
      <trkpt lat="43.1554" lon="1.02975">
        <ele>412.8</ele>
        <time>2025-12-14T10:20:26Z</time>
      </trkpt>
      <trkpt lat="43.15543" lon="1.02978">
        <ele>412.4</ele>
        <time>2025-12-14T10:20:27Z</time>
      </trkpt>
      <trkpt lat="43.15545" lon="1.02981">
        <ele>411.8</ele>
        <time>2025-12-14T10:20:28Z</time>
      </trkpt>
      <trkpt lat="43.15548" lon="1.02985">
        <ele>411.4</ele>
        <time>2025-12-14T10:20:29Z</time>
      </trkpt>
      <trkpt lat="43.15551" lon="1.02988">
        <ele>411</ele>
        <time>2025-12-14T10:20:30Z</time>
      </trkpt>
      <trkpt lat="43.15562" lon="1.02991">
        <ele>411</ele>
        <time>2025-12-14T10:20:33Z</time>
      </trkpt>
      <trkpt lat="43.15567" lon="1.02997">
        <ele>411</ele>
        <time>2025-12-14T10:20:34Z</time>
      </trkpt>
      <trkpt lat="43.15571" lon="1.03004">
        <ele>410.6</ele>
        <time>2025-12-14T10:20:35Z</time>
      </trkpt>
      <trkpt lat="43.15575" lon="1.0301">
        <ele>410.2</ele>
        <time>2025-12-14T10:20:36Z</time>
      </trkpt>
      <trkpt lat="43.15577" lon="1.03011">
        <ele>409.8</ele>
        <time>2025-12-14T10:20:37Z</time>
      </trkpt>
      <trkpt lat="43.15579" lon="1.03013">
        <ele>409</ele>
        <time>2025-12-14T10:20:38Z</time>
      </trkpt>
      <trkpt lat="43.15579" lon="1.03016">
        <ele>408.2</ele>
        <time>2025-12-14T10:20:39Z</time>
      </trkpt>
      <trkpt lat="43.15581" lon="1.03019">
        <ele>407.4</ele>
        <time>2025-12-14T10:20:40Z</time>
      </trkpt>
      <trkpt lat="43.15582" lon="1.03022">
        <ele>406.4</ele>
        <time>2025-12-14T10:20:41Z</time>
      </trkpt>
      <trkpt lat="43.15582" lon="1.03025">
        <ele>405.6</ele>
        <time>2025-12-14T10:20:42Z</time>
      </trkpt>
      <trkpt lat="43.15583" lon="1.03031">
        <ele>404.8</ele>
        <time>2025-12-14T10:20:43Z</time>
      </trkpt>
      <trkpt lat="43.15581" lon="1.03035">
        <ele>404.2</ele>
        <time>2025-12-14T10:20:44Z</time>
      </trkpt>
      <trkpt lat="43.15579" lon="1.0304">
        <ele>403.4</ele>
        <time>2025-12-14T10:20:45Z</time>
      </trkpt>
      <trkpt lat="43.15577" lon="1.03045">
        <ele>402.6</ele>
        <time>2025-12-14T10:20:46Z</time>
      </trkpt>
      <trkpt lat="43.15575" lon="1.03049">
        <ele>401.8</ele>
        <time>2025-12-14T10:20:47Z</time>
      </trkpt>
      <trkpt lat="43.15575" lon="1.03054">
        <ele>401</ele>
        <time>2025-12-14T10:20:48Z</time>
      </trkpt>
      <trkpt lat="43.15575" lon="1.03059">
        <ele>400.2</ele>
        <time>2025-12-14T10:20:49Z</time>
      </trkpt>
      <trkpt lat="43.15574" lon="1.03064">
        <ele>399.2</ele>
        <time>2025-12-14T10:20:50Z</time>
      </trkpt>
      <trkpt lat="43.15572" lon="1.03071">
        <ele>397.6</ele>
        <time>2025-12-14T10:20:51Z</time>
      </trkpt>
      <trkpt lat="43.1557" lon="1.03077">
        <ele>396.8</ele>
        <time>2025-12-14T10:20:52Z</time>
      </trkpt>
      <trkpt lat="43.15569" lon="1.03083">
        <ele>396</ele>
        <time>2025-12-14T10:20:53Z</time>
      </trkpt>
      <trkpt lat="43.15568" lon="1.0309">
        <ele>395.2</ele>
        <time>2025-12-14T10:20:54Z</time>
      </trkpt>
      <trkpt lat="43.15567" lon="1.03096">
        <ele>394.6</ele>
        <time>2025-12-14T10:20:55Z</time>
      </trkpt>
      <trkpt lat="43.15567" lon="1.03103">
        <ele>394</ele>
        <time>2025-12-14T10:20:56Z</time>
      </trkpt>
      <trkpt lat="43.15567" lon="1.0311">
        <ele>393.4</ele>
        <time>2025-12-14T10:20:57Z</time>
      </trkpt>
      <trkpt lat="43.15569" lon="1.03115">
        <ele>392.8</ele>
        <time>2025-12-14T10:20:58Z</time>
      </trkpt>
      <trkpt lat="43.15569" lon="1.0312">
        <ele>392.2</ele>
        <time>2025-12-14T10:20:59Z</time>
      </trkpt>
      <trkpt lat="43.15568" lon="1.03123">
        <ele>391.8</ele>
        <time>2025-12-14T10:21:00Z</time>
      </trkpt>
      <trkpt lat="43.15565" lon="1.03125">
        <ele>391.2</ele>
        <time>2025-12-14T10:21:01Z</time>
      </trkpt>
      <trkpt lat="43.15565" lon="1.03124">
        <ele>390.6</ele>
        <time>2025-12-14T10:21:02Z</time>
      </trkpt>
      <trkpt lat="43.15564" lon="1.03124">
        <ele>390</ele>
        <time>2025-12-14T10:21:03Z</time>
      </trkpt>
      <trkpt lat="43.15562" lon="1.03124">
        <ele>389.6</ele>
        <time>2025-12-14T10:21:04Z</time>
      </trkpt>
      <trkpt lat="43.1556" lon="1.0312">
        <ele>389</ele>
        <time>2025-12-14T10:21:05Z</time>
      </trkpt>
      <trkpt lat="43.15557" lon="1.03117">
        <ele>388.4</ele>
        <time>2025-12-14T10:21:06Z</time>
      </trkpt>
      <trkpt lat="43.15554" lon="1.03114">
        <ele>387.8</ele>
        <time>2025-12-14T10:21:07Z</time>
      </trkpt>
      <trkpt lat="43.15537" lon="1.03105">
        <ele>387.8</ele>
        <time>2025-12-14T10:21:12Z</time>
      </trkpt>
      <trkpt lat="43.15528" lon="1.03104">
        <ele>387.8</ele>
        <time>2025-12-14T10:21:14Z</time>
      </trkpt>
      <trkpt lat="43.15512" lon="1.03106">
        <ele>387.8</ele>
        <time>2025-12-14T10:21:17Z</time>
      </trkpt>
      <trkpt lat="43.15491" lon="1.03109">
        <ele>387.8</ele>
        <time>2025-12-14T10:21:21Z</time>
      </trkpt>
      <trkpt lat="43.15483" lon="1.03109">
        <ele>387.8</ele>
        <time>2025-12-14T10:21:23Z</time>
      </trkpt>
      <trkpt lat="43.15459" lon="1.03112">
        <ele>387.8</ele>
        <time>2025-12-14T10:21:30Z</time>
      </trkpt>
      <trkpt lat="43.15446" lon="1.03112">
        <ele>388.4</ele>
        <time>2025-12-14T10:21:34Z</time>
      </trkpt>
      <trkpt lat="43.15442" lon="1.03112">
        <ele>388.8</ele>
        <time>2025-12-14T10:21:35Z</time>
      </trkpt>
      <trkpt lat="43.15439" lon="1.03112">
        <ele>389.2</ele>
        <time>2025-12-14T10:21:36Z</time>
      </trkpt>
      <trkpt lat="43.15436" lon="1.03111">
        <ele>389.6</ele>
        <time>2025-12-14T10:21:37Z</time>
      </trkpt>
      <trkpt lat="43.15432" lon="1.03112">
        <ele>390</ele>
        <time>2025-12-14T10:21:38Z</time>
      </trkpt>
      <trkpt lat="43.15424" lon="1.03111">
        <ele>390.6</ele>
        <time>2025-12-14T10:21:41Z</time>
      </trkpt>
      <trkpt lat="43.15421" lon="1.03112">
        <ele>391</ele>
        <time>2025-12-14T10:21:42Z</time>
      </trkpt>
      <trkpt lat="43.15419" lon="1.03113">
        <ele>391.4</ele>
        <time>2025-12-14T10:21:43Z</time>
      </trkpt>
      <trkpt lat="43.15416" lon="1.03115">
        <ele>391.8</ele>
        <time>2025-12-14T10:21:44Z</time>
      </trkpt>
      <trkpt lat="43.15414" lon="1.03117">
        <ele>392.2</ele>
        <time>2025-12-14T10:21:45Z</time>
      </trkpt>
      <trkpt lat="43.15397" lon="1.03124">
        <ele>392.2</ele>
        <time>2025-12-14T10:21:51Z</time>
      </trkpt>
      <trkpt lat="43.15393" lon="1.03129">
        <ele>392.6</ele>
        <time>2025-12-14T10:21:53Z</time>
      </trkpt>
      <trkpt lat="43.15391" lon="1.03131">
        <ele>393.2</ele>
        <time>2025-12-14T10:21:54Z</time>
      </trkpt>
      <trkpt lat="43.1539" lon="1.03133">
        <ele>393.6</ele>
        <time>2025-12-14T10:21:55Z</time>
      </trkpt>
      <trkpt lat="43.15388" lon="1.03135">
        <ele>394</ele>
        <time>2025-12-14T10:21:56Z</time>
      </trkpt>
      <trkpt lat="43.15386" lon="1.03137">
        <ele>394.4</ele>
        <time>2025-12-14T10:21:57Z</time>
      </trkpt>
      <trkpt lat="43.1538" lon="1.03141">
        <ele>394.4</ele>
        <time>2025-12-14T10:22:00Z</time>
      </trkpt>
      <trkpt lat="43.15373" lon="1.03135">
        <ele>394.4</ele>
        <time>2025-12-14T10:22:04Z</time>
      </trkpt>
      <trkpt lat="43.1537" lon="1.03133">
        <ele>394.4</ele>
        <time>2025-12-14T10:22:05Z</time>
      </trkpt>
      <trkpt lat="43.15361" lon="1.03125">
        <ele>394.4</ele>
        <time>2025-12-14T10:22:08Z</time>
      </trkpt>
      <trkpt lat="43.15347" lon="1.03111">
        <ele>394</ele>
        <time>2025-12-14T10:22:13Z</time>
      </trkpt>
      <trkpt lat="43.15346" lon="1.03109">
        <ele>393.6</ele>
        <time>2025-12-14T10:22:14Z</time>
      </trkpt>
      <trkpt lat="43.15343" lon="1.03105">
        <ele>393.2</ele>
        <time>2025-12-14T10:22:15Z</time>
      </trkpt>
      <trkpt lat="43.1534" lon="1.03101">
        <ele>392.6</ele>
        <time>2025-12-14T10:22:16Z</time>
      </trkpt>
      <trkpt lat="43.15337" lon="1.03099">
        <ele>392</ele>
        <time>2025-12-14T10:22:17Z</time>
      </trkpt>
      <trkpt lat="43.15333" lon="1.03097">
        <ele>391.4</ele>
        <time>2025-12-14T10:22:18Z</time>
      </trkpt>
      <trkpt lat="43.15328" lon="1.03095">
        <ele>391</ele>
        <time>2025-12-14T10:22:19Z</time>
      </trkpt>
      <trkpt lat="43.15324" lon="1.03093">
        <ele>390.4</ele>
        <time>2025-12-14T10:22:20Z</time>
      </trkpt>
      <trkpt lat="43.15321" lon="1.0309">
        <ele>389.8</ele>
        <time>2025-12-14T10:22:21Z</time>
      </trkpt>
      <trkpt lat="43.15319" lon="1.03088">
        <ele>389.4</ele>
        <time>2025-12-14T10:22:22Z</time>
      </trkpt>
      <trkpt lat="43.15316" lon="1.03083">
        <ele>389</ele>
        <time>2025-12-14T10:22:23Z</time>
      </trkpt>
      <trkpt lat="43.15311" lon="1.03079">
        <ele>388.6</ele>
        <time>2025-12-14T10:22:24Z</time>
      </trkpt>
      <trkpt lat="43.15308" lon="1.03075">
        <ele>388.2</ele>
        <time>2025-12-14T10:22:25Z</time>
      </trkpt>
      <trkpt lat="43.15304" lon="1.03072">
        <ele>387.6</ele>
        <time>2025-12-14T10:22:26Z</time>
      </trkpt>
      <trkpt lat="43.15301" lon="1.03068">
        <ele>387.2</ele>
        <time>2025-12-14T10:22:27Z</time>
      </trkpt>
      <trkpt lat="43.15297" lon="1.03064">
        <ele>386.8</ele>
        <time>2025-12-14T10:22:28Z</time>
      </trkpt>
      <trkpt lat="43.15294" lon="1.0306">
        <ele>386.2</ele>
        <time>2025-12-14T10:22:29Z</time>
      </trkpt>
      <trkpt lat="43.1529" lon="1.03056">
        <ele>385</ele>
        <time>2025-12-14T10:22:30Z</time>
      </trkpt>
      <trkpt lat="43.15287" lon="1.03053">
        <ele>384.2</ele>
        <time>2025-12-14T10:22:31Z</time>
      </trkpt>
      <trkpt lat="43.15284" lon="1.03049">
        <ele>383.4</ele>
        <time>2025-12-14T10:22:32Z</time>
      </trkpt>
      <trkpt lat="43.15283" lon="1.03045">
        <ele>382.6</ele>
        <time>2025-12-14T10:22:33Z</time>
      </trkpt>
      <trkpt lat="43.15281" lon="1.03042">
        <ele>381.8</ele>
        <time>2025-12-14T10:22:34Z</time>
      </trkpt>
      <trkpt lat="43.15279" lon="1.03039">
        <ele>381</ele>
        <time>2025-12-14T10:22:35Z</time>
      </trkpt>
      <trkpt lat="43.15277" lon="1.03036">
        <ele>380.2</ele>
        <time>2025-12-14T10:22:36Z</time>
      </trkpt>
      <trkpt lat="43.15276" lon="1.03032">
        <ele>379.4</ele>
        <time>2025-12-14T10:22:37Z</time>
      </trkpt>
      <trkpt lat="43.15275" lon="1.03027">
        <ele>378.8</ele>
        <time>2025-12-14T10:22:38Z</time>
      </trkpt>
      <trkpt lat="43.15276" lon="1.03022">
        <ele>378</ele>
        <time>2025-12-14T10:22:39Z</time>
      </trkpt>
      <trkpt lat="43.15278" lon="1.03015">
        <ele>377.2</ele>
        <time>2025-12-14T10:22:40Z</time>
      </trkpt>
      <trkpt lat="43.15278" lon="1.03008">
        <ele>376.6</ele>
        <time>2025-12-14T10:22:41Z</time>
      </trkpt>
      <trkpt lat="43.15279" lon="1.03002">
        <ele>375.8</ele>
        <time>2025-12-14T10:22:42Z</time>
      </trkpt>
      <trkpt lat="43.1528" lon="1.02996">
        <ele>375</ele>
        <time>2025-12-14T10:22:43Z</time>
      </trkpt>
      <trkpt lat="43.15282" lon="1.0299">
        <ele>374.2</ele>
        <time>2025-12-14T10:22:44Z</time>
      </trkpt>
      <trkpt lat="43.15284" lon="1.02985">
        <ele>373.4</ele>
        <time>2025-12-14T10:22:45Z</time>
      </trkpt>
      <trkpt lat="43.15285" lon="1.0298">
        <ele>372.6</ele>
        <time>2025-12-14T10:22:46Z</time>
      </trkpt>
      <trkpt lat="43.15286" lon="1.02975">
        <ele>372</ele>
        <time>2025-12-14T10:22:47Z</time>
      </trkpt>
      <trkpt lat="43.15287" lon="1.02969">
        <ele>371.4</ele>
        <time>2025-12-14T10:22:48Z</time>
      </trkpt>
      <trkpt lat="43.15287" lon="1.02964">
        <ele>371</ele>
        <time>2025-12-14T10:22:49Z</time>
      </trkpt>
      <trkpt lat="43.15287" lon="1.0296">
        <ele>370.2</ele>
        <time>2025-12-14T10:22:50Z</time>
      </trkpt>
      <trkpt lat="43.15285" lon="1.02957">
        <ele>369.6</ele>
        <time>2025-12-14T10:22:51Z</time>
      </trkpt>
      <trkpt lat="43.15284" lon="1.02953">
        <ele>369</ele>
        <time>2025-12-14T10:22:52Z</time>
      </trkpt>
      <trkpt lat="43.15281" lon="1.0295">
        <ele>368.4</ele>
        <time>2025-12-14T10:22:53Z</time>
      </trkpt>
      <trkpt lat="43.15278" lon="1.02946">
        <ele>367.8</ele>
        <time>2025-12-14T10:22:54Z</time>
      </trkpt>
      <trkpt lat="43.15274" lon="1.02942">
        <ele>366.4</ele>
        <time>2025-12-14T10:22:55Z</time>
      </trkpt>
      <trkpt lat="43.1527" lon="1.02938">
        <ele>365.8</ele>
        <time>2025-12-14T10:22:56Z</time>
      </trkpt>
      <trkpt lat="43.15264" lon="1.02933">
        <ele>365</ele>
        <time>2025-12-14T10:22:57Z</time>
      </trkpt>
      <trkpt lat="43.15258" lon="1.02928">
        <ele>364.2</ele>
        <time>2025-12-14T10:22:58Z</time>
      </trkpt>
      <trkpt lat="43.15251" lon="1.02923">
        <ele>363.6</ele>
        <time>2025-12-14T10:22:59Z</time>
      </trkpt>
      <trkpt lat="43.15246" lon="1.02919">
        <ele>363</ele>
        <time>2025-12-14T10:23:00Z</time>
      </trkpt>
      <trkpt lat="43.15241" lon="1.02914">
        <ele>362.4</ele>
        <time>2025-12-14T10:23:01Z</time>
      </trkpt>
      <trkpt lat="43.15235" lon="1.0291">
        <ele>361.8</ele>
        <time>2025-12-14T10:23:02Z</time>
      </trkpt>
      <trkpt lat="43.1523" lon="1.02906">
        <ele>361.2</ele>
        <time>2025-12-14T10:23:03Z</time>
      </trkpt>
      <trkpt lat="43.15226" lon="1.02903">
        <ele>360.4</ele>
        <time>2025-12-14T10:23:04Z</time>
      </trkpt>
      <trkpt lat="43.15223" lon="1.029">
        <ele>360</ele>
        <time>2025-12-14T10:23:05Z</time>
      </trkpt>
      <trkpt lat="43.1522" lon="1.02898">
        <ele>359.6</ele>
        <time>2025-12-14T10:23:06Z</time>
      </trkpt>
      <trkpt lat="43.15217" lon="1.02897">
        <ele>359.2</ele>
        <time>2025-12-14T10:23:07Z</time>
      </trkpt>
      <trkpt lat="43.15214" lon="1.02896">
        <ele>358.8</ele>
        <time>2025-12-14T10:23:08Z</time>
      </trkpt>
      <trkpt lat="43.1521" lon="1.02895">
        <ele>358.2</ele>
        <time>2025-12-14T10:23:09Z</time>
      </trkpt>
      <trkpt lat="43.15205" lon="1.02894">
        <ele>358.2</ele>
        <time>2025-12-14T10:23:11Z</time>
      </trkpt>
      <trkpt lat="43.15193" lon="1.02894">
        <ele>357.8</ele>
        <time>2025-12-14T10:23:14Z</time>
      </trkpt>
      <trkpt lat="43.15188" lon="1.02892">
        <ele>357.4</ele>
        <time>2025-12-14T10:23:15Z</time>
      </trkpt>
      <trkpt lat="43.15184" lon="1.0289">
        <ele>356.8</ele>
        <time>2025-12-14T10:23:16Z</time>
      </trkpt>
      <trkpt lat="43.15179" lon="1.02886">
        <ele>356.2</ele>
        <time>2025-12-14T10:23:17Z</time>
      </trkpt>
      <trkpt lat="43.15173" lon="1.02882">
        <ele>355.4</ele>
        <time>2025-12-14T10:23:18Z</time>
      </trkpt>
      <trkpt lat="43.15167" lon="1.02878">
        <ele>354.6</ele>
        <time>2025-12-14T10:23:19Z</time>
      </trkpt>
      <trkpt lat="43.15162" lon="1.02873">
        <ele>352.6</ele>
        <time>2025-12-14T10:23:20Z</time>
      </trkpt>
      <trkpt lat="43.15157" lon="1.02867">
        <ele>351.4</ele>
        <time>2025-12-14T10:23:21Z</time>
      </trkpt>
      <trkpt lat="43.15153" lon="1.02861">
        <ele>350.4</ele>
        <time>2025-12-14T10:23:22Z</time>
      </trkpt>
      <trkpt lat="43.15148" lon="1.02856">
        <ele>349.2</ele>
        <time>2025-12-14T10:23:23Z</time>
      </trkpt>
      <trkpt lat="43.15142" lon="1.02852">
        <ele>348.2</ele>
        <time>2025-12-14T10:23:24Z</time>
      </trkpt>
      <trkpt lat="43.15134" lon="1.0285">
        <ele>347</ele>
        <time>2025-12-14T10:23:25Z</time>
      </trkpt>
      <trkpt lat="43.15126" lon="1.02849">
        <ele>346</ele>
        <time>2025-12-14T10:23:26Z</time>
      </trkpt>
      <trkpt lat="43.15119" lon="1.02848">
        <ele>344.8</ele>
        <time>2025-12-14T10:23:27Z</time>
      </trkpt>
      <trkpt lat="43.15113" lon="1.02845">
        <ele>343.6</ele>
        <time>2025-12-14T10:23:28Z</time>
      </trkpt>
      <trkpt lat="43.15107" lon="1.0284">
        <ele>342.4</ele>
        <time>2025-12-14T10:23:29Z</time>
      </trkpt>
      <trkpt lat="43.15102" lon="1.02832">
        <ele>341.2</ele>
        <time>2025-12-14T10:23:30Z</time>
      </trkpt>
      <trkpt lat="43.15098" lon="1.02823">
        <ele>340</ele>
        <time>2025-12-14T10:23:31Z</time>
      </trkpt>
      <trkpt lat="43.15094" lon="1.02812">
        <ele>339</ele>
        <time>2025-12-14T10:23:32Z</time>
      </trkpt>
      <trkpt lat="43.15091" lon="1.02801">
        <ele>338</ele>
        <time>2025-12-14T10:23:33Z</time>
      </trkpt>
      <trkpt lat="43.15086" lon="1.0279">
        <ele>337</ele>
        <time>2025-12-14T10:23:34Z</time>
      </trkpt>
      <trkpt lat="43.15082" lon="1.0278">
        <ele>336</ele>
        <time>2025-12-14T10:23:35Z</time>
      </trkpt>
      <trkpt lat="43.15077" lon="1.0277">
        <ele>335.2</ele>
        <time>2025-12-14T10:23:36Z</time>
      </trkpt>
      <trkpt lat="43.15073" lon="1.02761">
        <ele>334.6</ele>
        <time>2025-12-14T10:23:37Z</time>
      </trkpt>
      <trkpt lat="43.15068" lon="1.02751">
        <ele>333.8</ele>
        <time>2025-12-14T10:23:38Z</time>
      </trkpt>
      <trkpt lat="43.15063" lon="1.02741">
        <ele>333</ele>
        <time>2025-12-14T10:23:39Z</time>
      </trkpt>
      <trkpt lat="43.15057" lon="1.02731">
        <ele>332.2</ele>
        <time>2025-12-14T10:23:40Z</time>
      </trkpt>
      <trkpt lat="43.1505" lon="1.0272">
        <ele>331</ele>
        <time>2025-12-14T10:23:41Z</time>
      </trkpt>
      <trkpt lat="43.15042" lon="1.02708">
        <ele>330</ele>
        <time>2025-12-14T10:23:42Z</time>
      </trkpt>
      <trkpt lat="43.15034" lon="1.02696">
        <ele>329</ele>
        <time>2025-12-14T10:23:43Z</time>
      </trkpt>
      <trkpt lat="43.15025" lon="1.02685">
        <ele>327.8</ele>
        <time>2025-12-14T10:23:44Z</time>
      </trkpt>
      <trkpt lat="43.15016" lon="1.02673">
        <ele>325.8</ele>
        <time>2025-12-14T10:23:45Z</time>
      </trkpt>
      <trkpt lat="43.15009" lon="1.02662">
        <ele>325</ele>
        <time>2025-12-14T10:23:46Z</time>
      </trkpt>
      <trkpt lat="43.15002" lon="1.0265">
        <ele>324</ele>
        <time>2025-12-14T10:23:47Z</time>
      </trkpt>
      <trkpt lat="43.14996" lon="1.02637">
        <ele>323</ele>
        <time>2025-12-14T10:23:48Z</time>
      </trkpt>
      <trkpt lat="43.1499" lon="1.02626">
        <ele>322</ele>
        <time>2025-12-14T10:23:49Z</time>
      </trkpt>
      <trkpt lat="43.14985" lon="1.02614">
        <ele>321.6</ele>
        <time>2025-12-14T10:23:50Z</time>
      </trkpt>
      <trkpt lat="43.1498" lon="1.02604">
        <ele>321</ele>
        <time>2025-12-14T10:23:51Z</time>
      </trkpt>
      <trkpt lat="43.14976" lon="1.02594">
        <ele>320.6</ele>
        <time>2025-12-14T10:23:52Z</time>
      </trkpt>
      <trkpt lat="43.14971" lon="1.02586">
        <ele>320</ele>
        <time>2025-12-14T10:23:53Z</time>
      </trkpt>
      <trkpt lat="43.14965" lon="1.02577">
        <ele>319.4</ele>
        <time>2025-12-14T10:23:54Z</time>
      </trkpt>
      <trkpt lat="43.1496" lon="1.02569">
        <ele>318.8</ele>
        <time>2025-12-14T10:23:55Z</time>
      </trkpt>
      <trkpt lat="43.14954" lon="1.02561">
        <ele>317.8</ele>
        <time>2025-12-14T10:23:56Z</time>
      </trkpt>
      <trkpt lat="43.14948" lon="1.02554">
        <ele>317</ele>
        <time>2025-12-14T10:23:57Z</time>
      </trkpt>
      <trkpt lat="43.14943" lon="1.02547">
        <ele>316</ele>
        <time>2025-12-14T10:23:58Z</time>
      </trkpt>
      <trkpt lat="43.14938" lon="1.02542">
        <ele>315</ele>
        <time>2025-12-14T10:23:59Z</time>
      </trkpt>
      <trkpt lat="43.14934" lon="1.02539">
        <ele>314</ele>
        <time>2025-12-14T10:24:00Z</time>
      </trkpt>
      <trkpt lat="43.1493" lon="1.02538">
        <ele>313</ele>
        <time>2025-12-14T10:24:01Z</time>
      </trkpt>
      <trkpt lat="43.14925" lon="1.02539">
        <ele>312</ele>
        <time>2025-12-14T10:24:02Z</time>
      </trkpt>
      <trkpt lat="43.14922" lon="1.02543">
        <ele>311</ele>
        <time>2025-12-14T10:24:03Z</time>
      </trkpt>
      <trkpt lat="43.1492" lon="1.02547">
        <ele>310.2</ele>
        <time>2025-12-14T10:24:04Z</time>
      </trkpt>
      <trkpt lat="43.1492" lon="1.02552">
        <ele>309.4</ele>
        <time>2025-12-14T10:24:05Z</time>
      </trkpt>
      <trkpt lat="43.14919" lon="1.02557">
        <ele>308.4</ele>
        <time>2025-12-14T10:24:06Z</time>
      </trkpt>
      <trkpt lat="43.14919" lon="1.02562">
        <ele>307.6</ele>
        <time>2025-12-14T10:24:07Z</time>
      </trkpt>
      <trkpt lat="43.14917" lon="1.02573">
        <ele>307.6</ele>
        <time>2025-12-14T10:24:09Z</time>
      </trkpt>
      <trkpt lat="43.14916" lon="1.02589">
        <ele>307.6</ele>
        <time>2025-12-14T10:24:12Z</time>
      </trkpt>
      <trkpt lat="43.14914" lon="1.02613">
        <ele>308</ele>
        <time>2025-12-14T10:24:17Z</time>
      </trkpt>
      <trkpt lat="43.14913" lon="1.02618">
        <ele>308.4</ele>
        <time>2025-12-14T10:24:18Z</time>
      </trkpt>
      <trkpt lat="43.14913" lon="1.02622">
        <ele>308.8</ele>
        <time>2025-12-14T10:24:19Z</time>
      </trkpt>
      <trkpt lat="43.14912" lon="1.02626">
        <ele>309.2</ele>
        <time>2025-12-14T10:24:20Z</time>
      </trkpt>
      <trkpt lat="43.14911" lon="1.02631">
        <ele>309.6</ele>
        <time>2025-12-14T10:24:21Z</time>
      </trkpt>
      <trkpt lat="43.14908" lon="1.02638">
        <ele>309.6</ele>
        <time>2025-12-14T10:24:23Z</time>
      </trkpt>
      <trkpt lat="43.14902" lon="1.02661">
        <ele>309.6</ele>
        <time>2025-12-14T10:24:27Z</time>
      </trkpt>
      <trkpt lat="43.14901" lon="1.02667">
        <ele>309.6</ele>
        <time>2025-12-14T10:24:28Z</time>
      </trkpt>
      <trkpt lat="43.149" lon="1.02683">
        <ele>309.6</ele>
        <time>2025-12-14T10:24:30Z</time>
      </trkpt>
      <trkpt lat="43.14901" lon="1.02691">
        <ele>309.2</ele>
        <time>2025-12-14T10:24:31Z</time>
      </trkpt>
      <trkpt lat="43.14901" lon="1.027">
        <ele>308.8</ele>
        <time>2025-12-14T10:24:32Z</time>
      </trkpt>
      <trkpt lat="43.14901" lon="1.02709">
        <ele>308.2</ele>
        <time>2025-12-14T10:24:33Z</time>
      </trkpt>
      <trkpt lat="43.149" lon="1.02717">
        <ele>306.6</ele>
        <time>2025-12-14T10:24:34Z</time>
      </trkpt>
      <trkpt lat="43.149" lon="1.02724">
        <ele>305.6</ele>
        <time>2025-12-14T10:24:35Z</time>
      </trkpt>
      <trkpt lat="43.14898" lon="1.0273">
        <ele>304.6</ele>
        <time>2025-12-14T10:24:36Z</time>
      </trkpt>
      <trkpt lat="43.14897" lon="1.02736">
        <ele>303.8</ele>
        <time>2025-12-14T10:24:37Z</time>
      </trkpt>
      <trkpt lat="43.14896" lon="1.02741">
        <ele>303</ele>
        <time>2025-12-14T10:24:38Z</time>
      </trkpt>
      <trkpt lat="43.14894" lon="1.02746">
        <ele>302.2</ele>
        <time>2025-12-14T10:24:39Z</time>
      </trkpt>
      <trkpt lat="43.14892" lon="1.02749">
        <ele>301.4</ele>
        <time>2025-12-14T10:24:40Z</time>
      </trkpt>
      <trkpt lat="43.1489" lon="1.02751">
        <ele>300.6</ele>
        <time>2025-12-14T10:24:41Z</time>
      </trkpt>
      <trkpt lat="43.1488" lon="1.02758">
        <ele>300.6</ele>
        <time>2025-12-14T10:24:45Z</time>
      </trkpt>
      <trkpt lat="43.14877" lon="1.02759">
        <ele>301</ele>
        <time>2025-12-14T10:24:46Z</time>
      </trkpt>
      <trkpt lat="43.14875" lon="1.0276">
        <ele>301.4</ele>
        <time>2025-12-14T10:24:47Z</time>
      </trkpt>
      <trkpt lat="43.14873" lon="1.0276">
        <ele>301.8</ele>
        <time>2025-12-14T10:24:48Z</time>
      </trkpt>
      <trkpt lat="43.14871" lon="1.02761">
        <ele>302.2</ele>
        <time>2025-12-14T10:24:49Z</time>
      </trkpt>
      <trkpt lat="43.1487" lon="1.02761">
        <ele>302.6</ele>
        <time>2025-12-14T10:24:50Z</time>
      </trkpt>
      <trkpt lat="43.14866" lon="1.02762">
        <ele>303</ele>
        <time>2025-12-14T10:24:52Z</time>
      </trkpt>
      <trkpt lat="43.14865" lon="1.02762">
        <ele>303.4</ele>
        <time>2025-12-14T10:24:53Z</time>
      </trkpt>
      <trkpt lat="43.14864" lon="1.02761">
        <ele>303.8</ele>
        <time>2025-12-14T10:24:54Z</time>
      </trkpt>
      <trkpt lat="43.14862" lon="1.02761">
        <ele>304.2</ele>
        <time>2025-12-14T10:24:55Z</time>
      </trkpt>
      <trkpt lat="43.14861" lon="1.02762">
        <ele>304.6</ele>
        <time>2025-12-14T10:24:56Z</time>
      </trkpt>
      <trkpt lat="43.14859" lon="1.02763">
        <ele>304.6</ele>
        <time>2025-12-14T10:24:57Z</time>
      </trkpt>
      <trkpt lat="43.14854" lon="1.02765">
        <ele>304.6</ele>
        <time>2025-12-14T10:24:59Z</time>
      </trkpt>
      <trkpt lat="43.14845" lon="1.02771">
        <ele>304.6</ele>
        <time>2025-12-14T10:25:04Z</time>
      </trkpt>
      <trkpt lat="43.14843" lon="1.02773">
        <ele>304.6</ele>
        <time>2025-12-14T10:25:05Z</time>
      </trkpt>
      <trkpt lat="43.14835" lon="1.02784">
        <ele>304.6</ele>
        <time>2025-12-14T10:25:10Z</time>
      </trkpt>
      <trkpt lat="43.14834" lon="1.02785">
        <ele>304.6</ele>
        <time>2025-12-14T10:25:11Z</time>
      </trkpt>
      <trkpt lat="43.14819" lon="1.02786">
        <ele>304.6</ele>
        <time>2025-12-14T10:25:49Z</time>
      </trkpt>
      <trkpt lat="43.14816" lon="1.02785">
        <ele>304.6</ele>
        <time>2025-12-14T10:25:51Z</time>
      </trkpt>
      <trkpt lat="43.14812" lon="1.02784">
        <ele>305</ele>
        <time>2025-12-14T10:25:53Z</time>
      </trkpt>
      <trkpt lat="43.1481" lon="1.02783">
        <ele>305.4</ele>
        <time>2025-12-14T10:25:54Z</time>
      </trkpt>
      <trkpt lat="43.14809" lon="1.02782">
        <ele>305.8</ele>
        <time>2025-12-14T10:25:55Z</time>
      </trkpt>
      <trkpt lat="43.14807" lon="1.02782">
        <ele>306.2</ele>
        <time>2025-12-14T10:25:56Z</time>
      </trkpt>
      <trkpt lat="43.14805" lon="1.02781">
        <ele>306.6</ele>
        <time>2025-12-14T10:25:57Z</time>
      </trkpt>
      <trkpt lat="43.14793" lon="1.02774">
        <ele>307</ele>
        <time>2025-12-14T10:26:02Z</time>
      </trkpt>
      <trkpt lat="43.14791" lon="1.02772">
        <ele>307.4</ele>
        <time>2025-12-14T10:26:03Z</time>
      </trkpt>
      <trkpt lat="43.1479" lon="1.02771">
        <ele>307.8</ele>
        <time>2025-12-14T10:26:04Z</time>
      </trkpt>
      <trkpt lat="43.14787" lon="1.0277">
        <ele>308.2</ele>
        <time>2025-12-14T10:26:05Z</time>
      </trkpt>
      <trkpt lat="43.14785" lon="1.02768">
        <ele>308.8</ele>
        <time>2025-12-14T10:26:06Z</time>
      </trkpt>
      <trkpt lat="43.14782" lon="1.02766">
        <ele>308.8</ele>
        <time>2025-12-14T10:26:08Z</time>
      </trkpt>
      <trkpt lat="43.14778" lon="1.02766">
        <ele>308.8</ele>
        <time>2025-12-14T10:26:10Z</time>
      </trkpt>
      <trkpt lat="43.14769" lon="1.02766">
        <ele>308.8</ele>
        <time>2025-12-14T10:26:15Z</time>
      </trkpt>
      <trkpt lat="43.14768" lon="1.02766">
        <ele>308.8</ele>
        <time>2025-12-14T10:26:16Z</time>
      </trkpt>
      <trkpt lat="43.14733" lon="1.02767">
        <ele>313</ele>
        <time>2025-12-14T10:27:16Z</time>
      </trkpt>
      <trkpt lat="43.1473" lon="1.02767">
        <ele>313</ele>
        <time>2025-12-14T10:27:18Z</time>
      </trkpt>
      <trkpt lat="43.14729" lon="1.02767">
        <ele>313</ele>
        <time>2025-12-14T10:27:19Z</time>
      </trkpt>
      <trkpt lat="43.14725" lon="1.02768">
        <ele>314.6</ele>
        <time>2025-12-14T10:27:25Z</time>
      </trkpt>
      <trkpt lat="43.14723" lon="1.02768">
        <ele>315</ele>
        <time>2025-12-14T10:27:26Z</time>
      </trkpt>
      <trkpt lat="43.14722" lon="1.02767">
        <ele>315</ele>
        <time>2025-12-14T10:27:27Z</time>
      </trkpt>
      <trkpt lat="43.14715" lon="1.02765">
        <ele>315.4</ele>
        <time>2025-12-14T10:27:32Z</time>
      </trkpt>
      <trkpt lat="43.14705" lon="1.02761">
        <ele>319.2</ele>
        <time>2025-12-14T10:28:25Z</time>
      </trkpt>
      <trkpt lat="43.14699" lon="1.02759">
        <ele>319.2</ele>
        <time>2025-12-14T10:28:28Z</time>
      </trkpt>
      <trkpt lat="43.14697" lon="1.02757">
        <ele>319.2</ele>
        <time>2025-12-14T10:28:30Z</time>
      </trkpt>
      <trkpt lat="43.14686" lon="1.02751">
        <ele>319.2</ele>
        <time>2025-12-14T10:28:37Z</time>
      </trkpt>
      <trkpt lat="43.14684" lon="1.02751">
        <ele>319.2</ele>
        <time>2025-12-14T10:28:38Z</time>
      </trkpt>
      <trkpt lat="43.14681" lon="1.02749">
        <ele>319.2</ele>
        <time>2025-12-14T10:28:40Z</time>
      </trkpt>
      <trkpt lat="43.14666" lon="1.02744">
        <ele>321.2</ele>
        <time>2025-12-14T10:28:49Z</time>
      </trkpt>
      <trkpt lat="43.14664" lon="1.02743">
        <ele>321.2</ele>
        <time>2025-12-14T10:28:50Z</time>
      </trkpt>
      <trkpt lat="43.14656" lon="1.02741">
        <ele>321.2</ele>
        <time>2025-12-14T10:28:54Z</time>
      </trkpt>
      <trkpt lat="43.14655" lon="1.02741">
        <ele>321.6</ele>
        <time>2025-12-14T10:28:55Z</time>
      </trkpt>
      <trkpt lat="43.14654" lon="1.0274">
        <ele>322</ele>
        <time>2025-12-14T10:28:56Z</time>
      </trkpt>
      <trkpt lat="43.14652" lon="1.0274">
        <ele>322.4</ele>
        <time>2025-12-14T10:28:57Z</time>
      </trkpt>
      <trkpt lat="43.14651" lon="1.0274">
        <ele>322.8</ele>
        <time>2025-12-14T10:28:58Z</time>
      </trkpt>
      <trkpt lat="43.14649" lon="1.0274">
        <ele>323.2</ele>
        <time>2025-12-14T10:28:59Z</time>
      </trkpt>
      <trkpt lat="43.14642" lon="1.02739">
        <ele>323.2</ele>
        <time>2025-12-14T10:29:03Z</time>
      </trkpt>
      <trkpt lat="43.14636" lon="1.02741">
        <ele>323.2</ele>
        <time>2025-12-14T10:29:08Z</time>
      </trkpt>
      <trkpt lat="43.1463" lon="1.02742">
        <ele>323.8</ele>
        <time>2025-12-14T10:29:11Z</time>
      </trkpt>
      <trkpt lat="43.14628" lon="1.02742">
        <ele>324.2</ele>
        <time>2025-12-14T10:29:12Z</time>
      </trkpt>
      <trkpt lat="43.14625" lon="1.02742">
        <ele>324.6</ele>
        <time>2025-12-14T10:29:13Z</time>
      </trkpt>
      <trkpt lat="43.14622" lon="1.02743">
        <ele>325</ele>
        <time>2025-12-14T10:29:14Z</time>
      </trkpt>
      <trkpt lat="43.14619" lon="1.02743">
        <ele>325.4</ele>
        <time>2025-12-14T10:29:15Z</time>
      </trkpt>
      <trkpt lat="43.14617" lon="1.02744">
        <ele>325.4</ele>
        <time>2025-12-14T10:29:16Z</time>
      </trkpt>
      <trkpt lat="43.14609" lon="1.02746">
        <ele>325.4</ele>
        <time>2025-12-14T10:29:20Z</time>
      </trkpt>
      <trkpt lat="43.14599" lon="1.02749">
        <ele>325.4</ele>
        <time>2025-12-14T10:29:25Z</time>
      </trkpt>
      <trkpt lat="43.14588" lon="1.02753">
        <ele>325.4</ele>
        <time>2025-12-14T10:29:30Z</time>
      </trkpt>
      <trkpt lat="43.14587" lon="1.02753">
        <ele>325.4</ele>
        <time>2025-12-14T10:29:31Z</time>
      </trkpt>
      <trkpt lat="43.14584" lon="1.02755">
        <ele>325.4</ele>
        <time>2025-12-14T10:29:33Z</time>
      </trkpt>
      <trkpt lat="43.14579" lon="1.02757">
        <ele>325.4</ele>
        <time>2025-12-14T10:29:35Z</time>
      </trkpt>
      <trkpt lat="43.14576" lon="1.02758">
        <ele>325.8</ele>
        <time>2025-12-14T10:29:36Z</time>
      </trkpt>
      <trkpt lat="43.14574" lon="1.02758">
        <ele>326.2</ele>
        <time>2025-12-14T10:29:37Z</time>
      </trkpt>
      <trkpt lat="43.14572" lon="1.02759">
        <ele>326.6</ele>
        <time>2025-12-14T10:29:38Z</time>
      </trkpt>
      <trkpt lat="43.14569" lon="1.02759">
        <ele>327</ele>
        <time>2025-12-14T10:29:39Z</time>
      </trkpt>
      <trkpt lat="43.14567" lon="1.02759">
        <ele>327.4</ele>
        <time>2025-12-14T10:29:40Z</time>
      </trkpt>
      <trkpt lat="43.14554" lon="1.02761">
        <ele>327.4</ele>
        <time>2025-12-14T10:29:45Z</time>
      </trkpt>
      <trkpt lat="43.14546" lon="1.02764">
        <ele>327.4</ele>
        <time>2025-12-14T10:29:49Z</time>
      </trkpt>
      <trkpt lat="43.14538" lon="1.02762">
        <ele>327.4</ele>
        <time>2025-12-14T10:29:53Z</time>
      </trkpt>
      <trkpt lat="43.14525" lon="1.02765">
        <ele>327.4</ele>
        <time>2025-12-14T10:29:58Z</time>
      </trkpt>
      <trkpt lat="43.14522" lon="1.02766">
        <ele>327.4</ele>
        <time>2025-12-14T10:29:59Z</time>
      </trkpt>
      <trkpt lat="43.14511" lon="1.02771">
        <ele>327.4</ele>
        <time>2025-12-14T10:30:03Z</time>
      </trkpt>
      <trkpt lat="43.14495" lon="1.02783">
        <ele>327.4</ele>
        <time>2025-12-14T10:30:08Z</time>
      </trkpt>
      <trkpt lat="43.14478" lon="1.02797">
        <ele>327.4</ele>
        <time>2025-12-14T10:30:14Z</time>
      </trkpt>
      <trkpt lat="43.14473" lon="1.02802">
        <ele>327</ele>
        <time>2025-12-14T10:30:16Z</time>
      </trkpt>
      <trkpt lat="43.14471" lon="1.02803">
        <ele>326.6</ele>
        <time>2025-12-14T10:30:17Z</time>
      </trkpt>
      <trkpt lat="43.14469" lon="1.02805">
        <ele>326.2</ele>
        <time>2025-12-14T10:30:18Z</time>
      </trkpt>
      <trkpt lat="43.14466" lon="1.02807">
        <ele>325.6</ele>
        <time>2025-12-14T10:30:19Z</time>
      </trkpt>
      <trkpt lat="43.14463" lon="1.0281">
        <ele>325.2</ele>
        <time>2025-12-14T10:30:20Z</time>
      </trkpt>
      <trkpt lat="43.14455" lon="1.02822">
        <ele>324.8</ele>
        <time>2025-12-14T10:30:24Z</time>
      </trkpt>
      <trkpt lat="43.14452" lon="1.02826">
        <ele>324.4</ele>
        <time>2025-12-14T10:30:25Z</time>
      </trkpt>
      <trkpt lat="43.1445" lon="1.02829">
        <ele>324</ele>
        <time>2025-12-14T10:30:26Z</time>
      </trkpt>
      <trkpt lat="43.14447" lon="1.02833">
        <ele>323.6</ele>
        <time>2025-12-14T10:30:27Z</time>
      </trkpt>
      <trkpt lat="43.14444" lon="1.02837">
        <ele>323.2</ele>
        <time>2025-12-14T10:30:28Z</time>
      </trkpt>
      <trkpt lat="43.14439" lon="1.02845">
        <ele>323.2</ele>
        <time>2025-12-14T10:30:30Z</time>
      </trkpt>
      <trkpt lat="43.14436" lon="1.02848">
        <ele>322.8</ele>
        <time>2025-12-14T10:30:31Z</time>
      </trkpt>
      <trkpt lat="43.14434" lon="1.0285">
        <ele>322.4</ele>
        <time>2025-12-14T10:30:32Z</time>
      </trkpt>
      <trkpt lat="43.14432" lon="1.02853">
        <ele>322</ele>
        <time>2025-12-14T10:30:33Z</time>
      </trkpt>
      <trkpt lat="43.1443" lon="1.02856">
        <ele>321.6</ele>
        <time>2025-12-14T10:30:34Z</time>
      </trkpt>
      <trkpt lat="43.14428" lon="1.02859">
        <ele>321.2</ele>
        <time>2025-12-14T10:30:35Z</time>
      </trkpt>
      <trkpt lat="43.14426" lon="1.02863">
        <ele>320.8</ele>
        <time>2025-12-14T10:30:36Z</time>
      </trkpt>
      <trkpt lat="43.14423" lon="1.02868">
        <ele>320.4</ele>
        <time>2025-12-14T10:30:37Z</time>
      </trkpt>
      <trkpt lat="43.14421" lon="1.02872">
        <ele>319.8</ele>
        <time>2025-12-14T10:30:38Z</time>
      </trkpt>
      <trkpt lat="43.1442" lon="1.02876">
        <ele>319.4</ele>
        <time>2025-12-14T10:30:39Z</time>
      </trkpt>
      <trkpt lat="43.14418" lon="1.0288">
        <ele>319</ele>
        <time>2025-12-14T10:30:40Z</time>
      </trkpt>
      <trkpt lat="43.14414" lon="1.02885">
        <ele>318.6</ele>
        <time>2025-12-14T10:30:42Z</time>
      </trkpt>
      <trkpt lat="43.14412" lon="1.02888">
        <ele>318.2</ele>
        <time>2025-12-14T10:30:43Z</time>
      </trkpt>
      <trkpt lat="43.14411" lon="1.02892">
        <ele>317.4</ele>
        <time>2025-12-14T10:30:44Z</time>
      </trkpt>
      <trkpt lat="43.14408" lon="1.02895">
        <ele>317</ele>
        <time>2025-12-14T10:30:45Z</time>
      </trkpt>
      <trkpt lat="43.14404" lon="1.02903">
        <ele>317</ele>
        <time>2025-12-14T10:30:48Z</time>
      </trkpt>
      <trkpt lat="43.144" lon="1.02908">
        <ele>317</ele>
        <time>2025-12-14T10:30:51Z</time>
      </trkpt>
      <trkpt lat="43.14396" lon="1.02917">
        <ele>317</ele>
        <time>2025-12-14T10:30:54Z</time>
      </trkpt>
      <trkpt lat="43.14394" lon="1.02924">
        <ele>317</ele>
        <time>2025-12-14T10:30:59Z</time>
      </trkpt>
      <trkpt lat="43.14391" lon="1.02933">
        <ele>314.8</ele>
        <time>2025-12-14T10:31:10Z</time>
      </trkpt>
      <trkpt lat="43.14389" lon="1.0294">
        <ele>314.8</ele>
        <time>2025-12-14T10:31:13Z</time>
      </trkpt>
      <trkpt lat="43.14384" lon="1.02953">
        <ele>314.8</ele>
        <time>2025-12-14T10:31:18Z</time>
      </trkpt>
      <trkpt lat="43.14379" lon="1.02968">
        <ele>314.4</ele>
        <time>2025-12-14T10:31:23Z</time>
      </trkpt>
      <trkpt lat="43.14379" lon="1.02972">
        <ele>314</ele>
        <time>2025-12-14T10:31:24Z</time>
      </trkpt>
      <trkpt lat="43.14378" lon="1.02976">
        <ele>313.6</ele>
        <time>2025-12-14T10:31:25Z</time>
      </trkpt>
      <trkpt lat="43.14378" lon="1.02979">
        <ele>313.2</ele>
        <time>2025-12-14T10:31:26Z</time>
      </trkpt>
      <trkpt lat="43.14377" lon="1.02984">
        <ele>312.6</ele>
        <time>2025-12-14T10:31:27Z</time>
      </trkpt>
      <trkpt lat="43.14375" lon="1.02992">
        <ele>312.6</ele>
        <time>2025-12-14T10:31:29Z</time>
      </trkpt>
      <trkpt lat="43.14373" lon="1.03006">
        <ele>312.6</ele>
        <time>2025-12-14T10:31:34Z</time>
      </trkpt>
      <trkpt lat="43.14372" lon="1.03008">
        <ele>312.6</ele>
        <time>2025-12-14T10:31:35Z</time>
      </trkpt>
      <trkpt lat="43.14367" lon="1.03021">
        <ele>312.2</ele>
        <time>2025-12-14T10:31:38Z</time>
      </trkpt>
      <trkpt lat="43.14365" lon="1.03024">
        <ele>311.8</ele>
        <time>2025-12-14T10:31:39Z</time>
      </trkpt>
      <trkpt lat="43.14362" lon="1.03027">
        <ele>311.4</ele>
        <time>2025-12-14T10:31:40Z</time>
      </trkpt>
      <trkpt lat="43.1436" lon="1.03031">
        <ele>310.8</ele>
        <time>2025-12-14T10:31:41Z</time>
      </trkpt>
      <trkpt lat="43.14358" lon="1.03033">
        <ele>310.4</ele>
        <time>2025-12-14T10:31:42Z</time>
      </trkpt>
      <trkpt lat="43.14354" lon="1.03044">
        <ele>310</ele>
        <time>2025-12-14T10:31:45Z</time>
      </trkpt>
      <trkpt lat="43.14351" lon="1.03047">
        <ele>309.6</ele>
        <time>2025-12-14T10:31:46Z</time>
      </trkpt>
      <trkpt lat="43.14348" lon="1.03048">
        <ele>309</ele>
        <time>2025-12-14T10:31:47Z</time>
      </trkpt>
      <trkpt lat="43.14346" lon="1.0305">
        <ele>308.6</ele>
        <time>2025-12-14T10:31:48Z</time>
      </trkpt>
      <trkpt lat="43.14344" lon="1.03052">
        <ele>308.2</ele>
        <time>2025-12-14T10:31:49Z</time>
      </trkpt>
      <trkpt lat="43.14339" lon="1.03053">
        <ele>308.2</ele>
        <time>2025-12-14T10:31:51Z</time>
      </trkpt>
      <trkpt lat="43.1433" lon="1.03048">
        <ele>308.2</ele>
        <time>2025-12-14T10:31:56Z</time>
      </trkpt>
      <trkpt lat="43.14322" lon="1.03036">
        <ele>308.2</ele>
        <time>2025-12-14T10:32:01Z</time>
      </trkpt>
      <trkpt lat="43.1432" lon="1.0303">
        <ele>308.6</ele>
        <time>2025-12-14T10:32:03Z</time>
      </trkpt>
      <trkpt lat="43.14319" lon="1.03027">
        <ele>309</ele>
        <time>2025-12-14T10:32:04Z</time>
      </trkpt>
      <trkpt lat="43.14318" lon="1.03024">
        <ele>309.4</ele>
        <time>2025-12-14T10:32:05Z</time>
      </trkpt>
      <trkpt lat="43.14317" lon="1.03021">
        <ele>310</ele>
        <time>2025-12-14T10:32:06Z</time>
      </trkpt>
      <trkpt lat="43.14315" lon="1.03019">
        <ele>310.4</ele>
        <time>2025-12-14T10:32:07Z</time>
      </trkpt>
      <trkpt lat="43.14307" lon="1.03009">
        <ele>310.4</ele>
        <time>2025-12-14T10:32:12Z</time>
      </trkpt>
      <trkpt lat="43.14304" lon="1.03008">
        <ele>310.4</ele>
        <time>2025-12-14T10:32:14Z</time>
      </trkpt>
      <trkpt lat="43.14302" lon="1.03009">
        <ele>310.4</ele>
        <time>2025-12-14T10:32:17Z</time>
      </trkpt>
      <trkpt lat="43.14301" lon="1.0301">
        <ele>310.4</ele>
        <time>2025-12-14T10:32:18Z</time>
      </trkpt>
      <trkpt lat="43.14301" lon="1.03011">
        <ele>310.4</ele>
        <time>2025-12-14T10:32:19Z</time>
      </trkpt>
      <trkpt lat="43.14297" lon="1.03013">
        <ele>310.4</ele>
        <time>2025-12-14T10:33:00Z</time>
      </trkpt>
      <trkpt lat="43.14295" lon="1.03014">
        <ele>310.4</ele>
        <time>2025-12-14T10:33:01Z</time>
      </trkpt>
      <trkpt lat="43.14286" lon="1.03023">
        <ele>310.4</ele>
        <time>2025-12-14T10:33:05Z</time>
      </trkpt>
      <trkpt lat="43.14282" lon="1.03029">
        <ele>310.4</ele>
        <time>2025-12-14T10:33:07Z</time>
      </trkpt>
      <trkpt lat="43.14274" lon="1.03041">
        <ele>310.4</ele>
        <time>2025-12-14T10:33:10Z</time>
      </trkpt>
      <trkpt lat="43.14272" lon="1.03045">
        <ele>310</ele>
        <time>2025-12-14T10:33:11Z</time>
      </trkpt>
      <trkpt lat="43.1427" lon="1.03051">
        <ele>309.4</ele>
        <time>2025-12-14T10:33:12Z</time>
      </trkpt>
      <trkpt lat="43.14269" lon="1.03057">
        <ele>308.4</ele>
        <time>2025-12-14T10:33:13Z</time>
      </trkpt>
      <trkpt lat="43.14266" lon="1.03063">
        <ele>308</ele>
        <time>2025-12-14T10:33:14Z</time>
      </trkpt>
      <trkpt lat="43.1426" lon="1.03073">
        <ele>307.6</ele>
        <time>2025-12-14T10:33:16Z</time>
      </trkpt>
      <trkpt lat="43.14257" lon="1.03076">
        <ele>307.2</ele>
        <time>2025-12-14T10:33:17Z</time>
      </trkpt>
      <trkpt lat="43.14253" lon="1.03079">
        <ele>306.6</ele>
        <time>2025-12-14T10:33:18Z</time>
      </trkpt>
      <trkpt lat="43.14249" lon="1.03081">
        <ele>306.2</ele>
        <time>2025-12-14T10:33:19Z</time>
      </trkpt>
      <trkpt lat="43.14244" lon="1.03084">
        <ele>305.8</ele>
        <time>2025-12-14T10:33:20Z</time>
      </trkpt>
      <trkpt lat="43.1424" lon="1.03088">
        <ele>305.8</ele>
        <time>2025-12-14T10:33:21Z</time>
      </trkpt>
      <trkpt lat="43.14232" lon="1.03092">
        <ele>305.8</ele>
        <time>2025-12-14T10:33:24Z</time>
      </trkpt>
      <trkpt lat="43.14224" lon="1.03087">
        <ele>305.8</ele>
        <time>2025-12-14T10:33:27Z</time>
      </trkpt>
      <trkpt lat="43.1422" lon="1.03085">
        <ele>305.8</ele>
        <time>2025-12-14T10:33:29Z</time>
      </trkpt>
      <trkpt lat="43.14217" lon="1.03083">
        <ele>305.8</ele>
        <time>2025-12-14T10:33:31Z</time>
      </trkpt>
      <trkpt lat="43.14214" lon="1.03077">
        <ele>305.8</ele>
        <time>2025-12-14T10:33:33Z</time>
      </trkpt>
      <trkpt lat="43.14207" lon="1.03065">
        <ele>305.8</ele>
        <time>2025-12-14T10:33:36Z</time>
      </trkpt>
      <trkpt lat="43.14206" lon="1.03062">
        <ele>305.8</ele>
        <time>2025-12-14T10:33:37Z</time>
      </trkpt>
      <trkpt lat="43.14196" lon="1.03033">
        <ele>305.8</ele>
        <time>2025-12-14T10:33:44Z</time>
      </trkpt>
      <trkpt lat="43.14186" lon="1.03008">
        <ele>305.8</ele>
        <time>2025-12-14T10:33:50Z</time>
      </trkpt>
      <trkpt lat="43.14179" lon="1.02986">
        <ele>305.8</ele>
        <time>2025-12-14T10:33:55Z</time>
      </trkpt>
      <trkpt lat="43.14172" lon="1.02962">
        <ele>305.8</ele>
        <time>2025-12-14T10:34:00Z</time>
      </trkpt>
      <trkpt lat="43.1417" lon="1.02952">
        <ele>306.6</ele>
        <time>2025-12-14T10:34:02Z</time>
      </trkpt>
      <trkpt lat="43.14168" lon="1.02948">
        <ele>307</ele>
        <time>2025-12-14T10:34:03Z</time>
      </trkpt>
      <trkpt lat="43.14167" lon="1.02943">
        <ele>307.4</ele>
        <time>2025-12-14T10:34:04Z</time>
      </trkpt>
      <trkpt lat="43.14166" lon="1.02938">
        <ele>307.8</ele>
        <time>2025-12-14T10:34:05Z</time>
      </trkpt>
      <trkpt lat="43.14161" lon="1.02924">
        <ele>307.8</ele>
        <time>2025-12-14T10:34:08Z</time>
      </trkpt>
      <trkpt lat="43.14146" lon="1.02886">
        <ele>307.8</ele>
        <time>2025-12-14T10:34:16Z</time>
      </trkpt>
      <trkpt lat="43.14131" lon="1.02855">
        <ele>308.2</ele>
        <time>2025-12-14T10:34:22Z</time>
      </trkpt>
      <trkpt lat="43.14129" lon="1.0285">
        <ele>308.6</ele>
        <time>2025-12-14T10:34:23Z</time>
      </trkpt>
      <trkpt lat="43.14127" lon="1.02845">
        <ele>309</ele>
        <time>2025-12-14T10:34:24Z</time>
      </trkpt>
      <trkpt lat="43.14125" lon="1.0284">
        <ele>309.4</ele>
        <time>2025-12-14T10:34:25Z</time>
      </trkpt>
      <trkpt lat="43.14123" lon="1.02835">
        <ele>309.8</ele>
        <time>2025-12-14T10:34:26Z</time>
      </trkpt>
      <trkpt lat="43.14117" lon="1.02821">
        <ele>309.8</ele>
        <time>2025-12-14T10:34:29Z</time>
      </trkpt>
      <trkpt lat="43.14114" lon="1.02816">
        <ele>309.8</ele>
        <time>2025-12-14T10:34:30Z</time>
      </trkpt>
      <trkpt lat="43.14109" lon="1.02808">
        <ele>309.4</ele>
        <time>2025-12-14T10:34:32Z</time>
      </trkpt>
      <trkpt lat="43.14107" lon="1.02805">
        <ele>309</ele>
        <time>2025-12-14T10:34:33Z</time>
      </trkpt>
      <trkpt lat="43.14105" lon="1.02804">
        <ele>308.4</ele>
        <time>2025-12-14T10:34:34Z</time>
      </trkpt>
      <trkpt lat="43.14104" lon="1.02804">
        <ele>308</ele>
        <time>2025-12-14T10:34:35Z</time>
      </trkpt>
      <trkpt lat="43.14104" lon="1.02804">
        <ele>307.6</ele>
        <time>2025-12-14T10:34:36Z</time>
      </trkpt>
      <trkpt lat="43.14102" lon="1.02804">
        <ele>307.6</ele>
        <time>2025-12-14T10:34:40Z</time>
      </trkpt>
      <trkpt lat="43.141" lon="1.02806">
        <ele>307.6</ele>
        <time>2025-12-14T10:34:41Z</time>
      </trkpt>
      <trkpt lat="43.14095" lon="1.02814">
        <ele>307.6</ele>
        <time>2025-12-14T10:34:44Z</time>
      </trkpt>
      <trkpt lat="43.14093" lon="1.02834">
        <ele>307.6</ele>
        <time>2025-12-14T10:34:49Z</time>
      </trkpt>
      <trkpt lat="43.14093" lon="1.02839">
        <ele>307.6</ele>
        <time>2025-12-14T10:34:50Z</time>
      </trkpt>
      <trkpt lat="43.14093" lon="1.02862">
        <ele>307.6</ele>
        <time>2025-12-14T10:34:55Z</time>
      </trkpt>
      <trkpt lat="43.14091" lon="1.0288">
        <ele>308</ele>
        <time>2025-12-14T10:35:00Z</time>
      </trkpt>
      <trkpt lat="43.1409" lon="1.02884">
        <ele>308.4</ele>
        <time>2025-12-14T10:35:01Z</time>
      </trkpt>
      <trkpt lat="43.14091" lon="1.02887">
        <ele>308.8</ele>
        <time>2025-12-14T10:35:02Z</time>
      </trkpt>
      <trkpt lat="43.14091" lon="1.0289">
        <ele>309.2</ele>
        <time>2025-12-14T10:35:03Z</time>
      </trkpt>
      <trkpt lat="43.14092" lon="1.02893">
        <ele>309.6</ele>
        <time>2025-12-14T10:35:04Z</time>
      </trkpt>
      <trkpt lat="43.14093" lon="1.029">
        <ele>309.6</ele>
        <time>2025-12-14T10:35:06Z</time>
      </trkpt>
      <trkpt lat="43.1409" lon="1.02916">
        <ele>310</ele>
        <time>2025-12-14T10:35:11Z</time>
      </trkpt>
      <trkpt lat="43.1409" lon="1.02918">
        <ele>310.4</ele>
        <time>2025-12-14T10:35:12Z</time>
      </trkpt>
      <trkpt lat="43.14089" lon="1.0292">
        <ele>311</ele>
        <time>2025-12-14T10:35:13Z</time>
      </trkpt>
      <trkpt lat="43.1409" lon="1.02923">
        <ele>311.4</ele>
        <time>2025-12-14T10:35:14Z</time>
      </trkpt>
      <trkpt lat="43.14091" lon="1.02925">
        <ele>311.8</ele>
        <time>2025-12-14T10:35:15Z</time>
      </trkpt>
      <trkpt lat="43.14092" lon="1.02928">
        <ele>311.8</ele>
        <time>2025-12-14T10:35:16Z</time>
      </trkpt>
      <trkpt lat="43.14093" lon="1.02934">
        <ele>312.2</ele>
        <time>2025-12-14T10:35:18Z</time>
      </trkpt>
      <trkpt lat="43.14094" lon="1.02938">
        <ele>312.6</ele>
        <time>2025-12-14T10:35:19Z</time>
      </trkpt>
      <trkpt lat="43.14094" lon="1.02941">
        <ele>313</ele>
        <time>2025-12-14T10:35:20Z</time>
      </trkpt>
      <trkpt lat="43.14095" lon="1.02944">
        <ele>313.4</ele>
        <time>2025-12-14T10:35:21Z</time>
      </trkpt>
      <trkpt lat="43.14095" lon="1.02947">
        <ele>313.8</ele>
        <time>2025-12-14T10:35:22Z</time>
      </trkpt>
      <trkpt lat="43.14097" lon="1.02953">
        <ele>314.4</ele>
        <time>2025-12-14T10:35:24Z</time>
      </trkpt>
      <trkpt lat="43.14097" lon="1.02956">
        <ele>314.8</ele>
        <time>2025-12-14T10:35:25Z</time>
      </trkpt>
      <trkpt lat="43.14098" lon="1.02959">
        <ele>315.2</ele>
        <time>2025-12-14T10:35:26Z</time>
      </trkpt>
      <trkpt lat="43.14099" lon="1.02961">
        <ele>315.6</ele>
        <time>2025-12-14T10:35:27Z</time>
      </trkpt>
      <trkpt lat="43.14099" lon="1.02964">
        <ele>316</ele>
        <time>2025-12-14T10:35:28Z</time>
      </trkpt>
      <trkpt lat="43.14099" lon="1.02967">
        <ele>316</ele>
        <time>2025-12-14T10:35:29Z</time>
      </trkpt>
      <trkpt lat="43.14099" lon="1.02973">
        <ele>316.6</ele>
        <time>2025-12-14T10:35:31Z</time>
      </trkpt>
      <trkpt lat="43.14099" lon="1.02976">
        <ele>317</ele>
        <time>2025-12-14T10:35:32Z</time>
      </trkpt>
      <trkpt lat="43.14099" lon="1.0298">
        <ele>317.4</ele>
        <time>2025-12-14T10:35:33Z</time>
      </trkpt>
      <trkpt lat="43.14099" lon="1.02983">
        <ele>317.8</ele>
        <time>2025-12-14T10:35:34Z</time>
      </trkpt>
      <trkpt lat="43.14099" lon="1.02986">
        <ele>318.4</ele>
        <time>2025-12-14T10:35:35Z</time>
      </trkpt>
      <trkpt lat="43.14099" lon="1.02997">
        <ele>318.8</ele>
        <time>2025-12-14T10:35:39Z</time>
      </trkpt>
      <trkpt lat="43.14099" lon="1.03">
        <ele>319.6</ele>
        <time>2025-12-14T10:35:40Z</time>
      </trkpt>
      <trkpt lat="43.14099" lon="1.03002">
        <ele>320</ele>
        <time>2025-12-14T10:35:41Z</time>
      </trkpt>
      <trkpt lat="43.14099" lon="1.03005">
        <ele>320.4</ele>
        <time>2025-12-14T10:35:42Z</time>
      </trkpt>
      <trkpt lat="43.14096" lon="1.0301">
        <ele>320.4</ele>
        <time>2025-12-14T10:35:44Z</time>
      </trkpt>
      <trkpt lat="43.14092" lon="1.03013">
        <ele>320.4</ele>
        <time>2025-12-14T10:35:46Z</time>
      </trkpt>
      <trkpt lat="43.14084" lon="1.03023">
        <ele>320.4</ele>
        <time>2025-12-14T10:35:50Z</time>
      </trkpt>
      <trkpt lat="43.1408" lon="1.03039">
        <ele>320.4</ele>
        <time>2025-12-14T10:35:54Z</time>
      </trkpt>
      <trkpt lat="43.14079" lon="1.03048">
        <ele>320.4</ele>
        <time>2025-12-14T10:35:56Z</time>
      </trkpt>
      <trkpt lat="43.14075" lon="1.03074">
        <ele>320.8</ele>
        <time>2025-12-14T10:36:03Z</time>
      </trkpt>
      <trkpt lat="43.14075" lon="1.03078">
        <ele>321.2</ele>
        <time>2025-12-14T10:36:04Z</time>
      </trkpt>
      <trkpt lat="43.14074" lon="1.03081">
        <ele>322</ele>
        <time>2025-12-14T10:36:05Z</time>
      </trkpt>
      <trkpt lat="43.14074" lon="1.03084">
        <ele>322.4</ele>
        <time>2025-12-14T10:36:06Z</time>
      </trkpt>
      <trkpt lat="43.14074" lon="1.03093">
        <ele>322.4</ele>
        <time>2025-12-14T10:36:09Z</time>
      </trkpt>
      <trkpt lat="43.14073" lon="1.03097">
        <ele>322.4</ele>
        <time>2025-12-14T10:36:11Z</time>
      </trkpt>
      <trkpt lat="43.14072" lon="1.03099">
        <ele>323</ele>
        <time>2025-12-14T10:36:12Z</time>
      </trkpt>
      <trkpt lat="43.14072" lon="1.03101">
        <ele>323.4</ele>
        <time>2025-12-14T10:36:13Z</time>
      </trkpt>
      <trkpt lat="43.14073" lon="1.03103">
        <ele>323.8</ele>
        <time>2025-12-14T10:36:14Z</time>
      </trkpt>
      <trkpt lat="43.14073" lon="1.03106">
        <ele>324.2</ele>
        <time>2025-12-14T10:36:15Z</time>
      </trkpt>
      <trkpt lat="43.14074" lon="1.03109">
        <ele>324.8</ele>
        <time>2025-12-14T10:36:16Z</time>
      </trkpt>
      <trkpt lat="43.14075" lon="1.03115">
        <ele>325.2</ele>
        <time>2025-12-14T10:36:18Z</time>
      </trkpt>
      <trkpt lat="43.14075" lon="1.03117">
        <ele>325.6</ele>
        <time>2025-12-14T10:36:19Z</time>
      </trkpt>
      <trkpt lat="43.14075" lon="1.03119">
        <ele>326</ele>
        <time>2025-12-14T10:36:20Z</time>
      </trkpt>
      <trkpt lat="43.14076" lon="1.03121">
        <ele>326.4</ele>
        <time>2025-12-14T10:36:21Z</time>
      </trkpt>
      <trkpt lat="43.14076" lon="1.03122">
        <ele>326.8</ele>
        <time>2025-12-14T10:36:22Z</time>
      </trkpt>
      <trkpt lat="43.14076" lon="1.03123">
        <ele>326.8</ele>
        <time>2025-12-14T10:36:23Z</time>
      </trkpt>
      <trkpt lat="43.14075" lon="1.03125">
        <ele>326.8</ele>
        <time>2025-12-14T10:36:25Z</time>
      </trkpt>
      <trkpt lat="43.14069" lon="1.03118">
        <ele>326.8</ele>
        <time>2025-12-14T10:36:29Z</time>
      </trkpt>
      <trkpt lat="43.14061" lon="1.03113">
        <ele>326.8</ele>
        <time>2025-12-14T10:36:32Z</time>
      </trkpt>
      <trkpt lat="43.14058" lon="1.03119">
        <ele>326.4</ele>
        <time>2025-12-14T10:36:34Z</time>
      </trkpt>
      <trkpt lat="43.14058" lon="1.03122">
        <ele>326</ele>
        <time>2025-12-14T10:36:35Z</time>
      </trkpt>
      <trkpt lat="43.14057" lon="1.03125">
        <ele>325.4</ele>
        <time>2025-12-14T10:36:36Z</time>
      </trkpt>
      <trkpt lat="43.14055" lon="1.03127">
        <ele>325</ele>
        <time>2025-12-14T10:36:37Z</time>
      </trkpt>
      <trkpt lat="43.14053" lon="1.03129">
        <ele>324.6</ele>
        <time>2025-12-14T10:36:38Z</time>
      </trkpt>
      <trkpt lat="43.1405" lon="1.03132">
        <ele>324.6</ele>
        <time>2025-12-14T10:36:39Z</time>
      </trkpt>
      <trkpt lat="43.14046" lon="1.03136">
        <ele>324.6</ele>
        <time>2025-12-14T10:36:40Z</time>
      </trkpt>
      <trkpt lat="43.14032" lon="1.03148">
        <ele>324.2</ele>
        <time>2025-12-14T10:36:43Z</time>
      </trkpt>
      <trkpt lat="43.14028" lon="1.03153">
        <ele>323.8</ele>
        <time>2025-12-14T10:36:44Z</time>
      </trkpt>
      <trkpt lat="43.14024" lon="1.03156">
        <ele>323.4</ele>
        <time>2025-12-14T10:36:45Z</time>
      </trkpt>
      <trkpt lat="43.1402" lon="1.03159">
        <ele>323</ele>
        <time>2025-12-14T10:36:46Z</time>
      </trkpt>
      <trkpt lat="43.14016" lon="1.03162">
        <ele>322.4</ele>
        <time>2025-12-14T10:36:47Z</time>
      </trkpt>
      <trkpt lat="43.14013" lon="1.03165">
        <ele>322</ele>
        <time>2025-12-14T10:36:48Z</time>
      </trkpt>
      <trkpt lat="43.1401" lon="1.03169">
        <ele>321.4</ele>
        <time>2025-12-14T10:36:49Z</time>
      </trkpt>
      <trkpt lat="43.14007" lon="1.03173">
        <ele>320.8</ele>
        <time>2025-12-14T10:36:50Z</time>
      </trkpt>
      <trkpt lat="43.14005" lon="1.03176">
        <ele>320.4</ele>
        <time>2025-12-14T10:36:51Z</time>
      </trkpt>
      <trkpt lat="43.14" lon="1.03183">
        <ele>320.4</ele>
        <time>2025-12-14T10:36:54Z</time>
      </trkpt>
      <trkpt lat="43.13996" lon="1.03188">
        <ele>320</ele>
        <time>2025-12-14T10:36:56Z</time>
      </trkpt>
      <trkpt lat="43.13994" lon="1.03191">
        <ele>319.6</ele>
        <time>2025-12-14T10:36:57Z</time>
      </trkpt>
      <trkpt lat="43.13993" lon="1.03193">
        <ele>319.2</ele>
        <time>2025-12-14T10:36:58Z</time>
      </trkpt>
      <trkpt lat="43.13991" lon="1.03195">
        <ele>318.6</ele>
        <time>2025-12-14T10:36:59Z</time>
      </trkpt>
      <trkpt lat="43.13988" lon="1.03196">
        <ele>318.2</ele>
        <time>2025-12-14T10:37:00Z</time>
      </trkpt>
      <trkpt lat="43.13981" lon="1.032">
        <ele>317.8</ele>
        <time>2025-12-14T10:37:02Z</time>
      </trkpt>
      <trkpt lat="43.13976" lon="1.03202">
        <ele>317.4</ele>
        <time>2025-12-14T10:37:03Z</time>
      </trkpt>
      <trkpt lat="43.13971" lon="1.03204">
        <ele>317</ele>
        <time>2025-12-14T10:37:04Z</time>
      </trkpt>
      <trkpt lat="43.13967" lon="1.03206">
        <ele>316.6</ele>
        <time>2025-12-14T10:37:05Z</time>
      </trkpt>
      <trkpt lat="43.13963" lon="1.03208">
        <ele>316</ele>
        <time>2025-12-14T10:37:06Z</time>
      </trkpt>
      <trkpt lat="43.13958" lon="1.03209">
        <ele>315.4</ele>
        <time>2025-12-14T10:37:07Z</time>
      </trkpt>
      <trkpt lat="43.13953" lon="1.03211">
        <ele>314.8</ele>
        <time>2025-12-14T10:37:08Z</time>
      </trkpt>
      <trkpt lat="43.13948" lon="1.03215">
        <ele>314</ele>
        <time>2025-12-14T10:37:09Z</time>
      </trkpt>
      <trkpt lat="43.13945" lon="1.03219">
        <ele>313.4</ele>
        <time>2025-12-14T10:37:10Z</time>
      </trkpt>
      <trkpt lat="43.13944" lon="1.03226">
        <ele>312.6</ele>
        <time>2025-12-14T10:37:11Z</time>
      </trkpt>
      <trkpt lat="43.13942" lon="1.03233">
        <ele>311.8</ele>
        <time>2025-12-14T10:37:12Z</time>
      </trkpt>
      <trkpt lat="43.1394" lon="1.03239">
        <ele>311.2</ele>
        <time>2025-12-14T10:37:13Z</time>
      </trkpt>
      <trkpt lat="43.13938" lon="1.03245">
        <ele>310.8</ele>
        <time>2025-12-14T10:37:14Z</time>
      </trkpt>
      <trkpt lat="43.13936" lon="1.03251">
        <ele>310.2</ele>
        <time>2025-12-14T10:37:15Z</time>
      </trkpt>
      <trkpt lat="43.13934" lon="1.03255">
        <ele>309.8</ele>
        <time>2025-12-14T10:37:16Z</time>
      </trkpt>
      <trkpt lat="43.13931" lon="1.03257">
        <ele>309.4</ele>
        <time>2025-12-14T10:37:17Z</time>
      </trkpt>
      <trkpt lat="43.13929" lon="1.03258">
        <ele>309</ele>
        <time>2025-12-14T10:37:18Z</time>
      </trkpt>
      <trkpt lat="43.13926" lon="1.03259">
        <ele>309</ele>
        <time>2025-12-14T10:37:19Z</time>
      </trkpt>
      <trkpt lat="43.1392" lon="1.03258">
        <ele>308.6</ele>
        <time>2025-12-14T10:37:21Z</time>
      </trkpt>
      <trkpt lat="43.13918" lon="1.03257">
        <ele>308.2</ele>
        <time>2025-12-14T10:37:22Z</time>
      </trkpt>
      <trkpt lat="43.13916" lon="1.03257">
        <ele>307.8</ele>
        <time>2025-12-14T10:37:23Z</time>
      </trkpt>
      <trkpt lat="43.13913" lon="1.03257">
        <ele>307.2</ele>
        <time>2025-12-14T10:37:24Z</time>
      </trkpt>
      <trkpt lat="43.1391" lon="1.03256">
        <ele>306.8</ele>
        <time>2025-12-14T10:37:25Z</time>
      </trkpt>
      <trkpt lat="43.13901" lon="1.03255">
        <ele>306.8</ele>
        <time>2025-12-14T10:37:27Z</time>
      </trkpt>
      <trkpt lat="43.1389" lon="1.03253">
        <ele>306.4</ele>
        <time>2025-12-14T10:37:29Z</time>
      </trkpt>
      <trkpt lat="43.13884" lon="1.03252">
        <ele>306</ele>
        <time>2025-12-14T10:37:30Z</time>
      </trkpt>
      <trkpt lat="43.13879" lon="1.03251">
        <ele>305.4</ele>
        <time>2025-12-14T10:37:31Z</time>
      </trkpt>
      <trkpt lat="43.13873" lon="1.03249">
        <ele>305</ele>
        <time>2025-12-14T10:37:32Z</time>
      </trkpt>
      <trkpt lat="43.13867" lon="1.03249">
        <ele>304.6</ele>
        <time>2025-12-14T10:37:33Z</time>
      </trkpt>
      <trkpt lat="43.13858" lon="1.03247">
        <ele>304</ele>
        <time>2025-12-14T10:37:35Z</time>
      </trkpt>
      <trkpt lat="43.13854" lon="1.03246">
        <ele>303.6</ele>
        <time>2025-12-14T10:37:36Z</time>
      </trkpt>
      <trkpt lat="43.1385" lon="1.03246">
        <ele>303.2</ele>
        <time>2025-12-14T10:37:37Z</time>
      </trkpt>
      <trkpt lat="43.13848" lon="1.03245">
        <ele>302.6</ele>
        <time>2025-12-14T10:37:38Z</time>
      </trkpt>
      <trkpt lat="43.13845" lon="1.03245">
        <ele>301.8</ele>
        <time>2025-12-14T10:37:39Z</time>
      </trkpt>
      <trkpt lat="43.13844" lon="1.03244">
        <ele>301.2</ele>
        <time>2025-12-14T10:37:40Z</time>
      </trkpt>
      <trkpt lat="43.13842" lon="1.03243">
        <ele>300.6</ele>
        <time>2025-12-14T10:37:41Z</time>
      </trkpt>
      <trkpt lat="43.13841" lon="1.03243">
        <ele>299.8</ele>
        <time>2025-12-14T10:37:42Z</time>
      </trkpt>
      <trkpt lat="43.1384" lon="1.03241">
        <ele>299</ele>
        <time>2025-12-14T10:37:43Z</time>
      </trkpt>
      <trkpt lat="43.13838" lon="1.03241">
        <ele>298.6</ele>
        <time>2025-12-14T10:37:44Z</time>
      </trkpt>
      <trkpt lat="43.13837" lon="1.03239">
        <ele>298.2</ele>
        <time>2025-12-14T10:37:45Z</time>
      </trkpt>
      <trkpt lat="43.13836" lon="1.03238">
        <ele>297.8</ele>
        <time>2025-12-14T10:37:46Z</time>
      </trkpt>
      <trkpt lat="43.13834" lon="1.03237">
        <ele>297.8</ele>
        <time>2025-12-14T10:37:47Z</time>
      </trkpt>
      <trkpt lat="43.1383" lon="1.03234">
        <ele>297.4</ele>
        <time>2025-12-14T10:37:49Z</time>
      </trkpt>
      <trkpt lat="43.13829" lon="1.03233">
        <ele>296.8</ele>
        <time>2025-12-14T10:37:50Z</time>
      </trkpt>
      <trkpt lat="43.13827" lon="1.0323">
        <ele>296.4</ele>
        <time>2025-12-14T10:37:51Z</time>
      </trkpt>
      <trkpt lat="43.13826" lon="1.03227">
        <ele>296</ele>
        <time>2025-12-14T10:37:52Z</time>
      </trkpt>
      <trkpt lat="43.13825" lon="1.03224">
        <ele>295.6</ele>
        <time>2025-12-14T10:37:53Z</time>
      </trkpt>
      <trkpt lat="43.13823" lon="1.03219">
        <ele>295.6</ele>
        <time>2025-12-14T10:37:57Z</time>
      </trkpt>
      <trkpt lat="43.13821" lon="1.0322">
        <ele>295.6</ele>
        <time>2025-12-14T10:38:26Z</time>
      </trkpt>
      <trkpt lat="43.1382" lon="1.03225">
        <ele>295.6</ele>
        <time>2025-12-14T10:38:28Z</time>
      </trkpt>
      <trkpt lat="43.13825" lon="1.03233">
        <ele>295.6</ele>
        <time>2025-12-14T10:38:32Z</time>
      </trkpt>
      <trkpt lat="43.13834" lon="1.03237">
        <ele>295.6</ele>
        <time>2025-12-14T10:38:38Z</time>
      </trkpt>
      <trkpt lat="43.13836" lon="1.03244">
        <ele>295.6</ele>
        <time>2025-12-14T10:38:42Z</time>
      </trkpt>
      <trkpt lat="43.13836" lon="1.0325">
        <ele>295.6</ele>
        <time>2025-12-14T10:38:44Z</time>
      </trkpt>
      <trkpt lat="43.13835" lon="1.03257">
        <ele>295.6</ele>
        <time>2025-12-14T10:38:47Z</time>
      </trkpt>
      <trkpt lat="43.13829" lon="1.03278">
        <ele>295.6</ele>
        <time>2025-12-14T10:38:54Z</time>
      </trkpt>
      <trkpt lat="43.13825" lon="1.03288">
        <ele>295.6</ele>
        <time>2025-12-14T10:38:57Z</time>
      </trkpt>
      <trkpt lat="43.13826" lon="1.03296">
        <ele>295.6</ele>
        <time>2025-12-14T10:38:59Z</time>
      </trkpt>
      <trkpt lat="43.13828" lon="1.033">
        <ele>295.6</ele>
        <time>2025-12-14T10:39:01Z</time>
      </trkpt>
      <trkpt lat="43.13831" lon="1.03307">
        <ele>295.6</ele>
        <time>2025-12-14T10:39:04Z</time>
      </trkpt>
      <trkpt lat="43.13836" lon="1.03322">
        <ele>295.6</ele>
        <time>2025-12-14T10:39:09Z</time>
      </trkpt>
      <trkpt lat="43.13833" lon="1.03337">
        <ele>295.6</ele>
        <time>2025-12-14T10:39:14Z</time>
      </trkpt>
      <trkpt lat="43.13827" lon="1.03349">
        <ele>295.6</ele>
        <time>2025-12-14T10:39:17Z</time>
      </trkpt>
      <trkpt lat="43.13824" lon="1.03354">
        <ele>295.6</ele>
        <time>2025-12-14T10:39:18Z</time>
      </trkpt>
      <trkpt lat="43.13808" lon="1.03377">
        <ele>295.2</ele>
        <time>2025-12-14T10:39:22Z</time>
      </trkpt>
      <trkpt lat="43.13803" lon="1.03382">
        <ele>294.8</ele>
        <time>2025-12-14T10:39:23Z</time>
      </trkpt>
      <trkpt lat="43.13798" lon="1.03389">
        <ele>294.4</ele>
        <time>2025-12-14T10:39:24Z</time>
      </trkpt>
      <trkpt lat="43.13795" lon="1.03397">
        <ele>294</ele>
        <time>2025-12-14T10:39:25Z</time>
      </trkpt>
      <trkpt lat="43.13793" lon="1.03405">
        <ele>293.4</ele>
        <time>2025-12-14T10:39:26Z</time>
      </trkpt>
      <trkpt lat="43.13792" lon="1.03413">
        <ele>293</ele>
        <time>2025-12-14T10:39:27Z</time>
      </trkpt>
      <trkpt lat="43.13791" lon="1.03421">
        <ele>292.4</ele>
        <time>2025-12-14T10:39:28Z</time>
      </trkpt>
      <trkpt lat="43.1379" lon="1.03427">
        <ele>291.8</ele>
        <time>2025-12-14T10:39:29Z</time>
      </trkpt>
      <trkpt lat="43.13789" lon="1.03434">
        <ele>291.4</ele>
        <time>2025-12-14T10:39:30Z</time>
      </trkpt>
      <trkpt lat="43.13787" lon="1.03447">
        <ele>291.4</ele>
        <time>2025-12-14T10:39:32Z</time>
      </trkpt>
      <trkpt lat="43.13783" lon="1.03459">
        <ele>290.8</ele>
        <time>2025-12-14T10:39:34Z</time>
      </trkpt>
      <trkpt lat="43.13781" lon="1.03464">
        <ele>290.4</ele>
        <time>2025-12-14T10:39:35Z</time>
      </trkpt>
      <trkpt lat="43.13778" lon="1.03466">
        <ele>290</ele>
        <time>2025-12-14T10:39:36Z</time>
      </trkpt>
      <trkpt lat="43.13774" lon="1.03464">
        <ele>289.6</ele>
        <time>2025-12-14T10:39:37Z</time>
      </trkpt>
      <trkpt lat="43.13772" lon="1.03462">
        <ele>289</ele>
        <time>2025-12-14T10:39:38Z</time>
      </trkpt>
      <trkpt lat="43.13765" lon="1.03465">
        <ele>289</ele>
        <time>2025-12-14T10:39:40Z</time>
      </trkpt>
      <trkpt lat="43.13759" lon="1.03476">
        <ele>288.6</ele>
        <time>2025-12-14T10:39:42Z</time>
      </trkpt>
      <trkpt lat="43.13758" lon="1.03482">
        <ele>288.2</ele>
        <time>2025-12-14T10:39:43Z</time>
      </trkpt>
      <trkpt lat="43.13756" lon="1.03489">
        <ele>287.6</ele>
        <time>2025-12-14T10:39:44Z</time>
      </trkpt>
      <trkpt lat="43.13755" lon="1.03496">
        <ele>287.2</ele>
        <time>2025-12-14T10:39:45Z</time>
      </trkpt>
      <trkpt lat="43.13753" lon="1.03503">
        <ele>286.6</ele>
        <time>2025-12-14T10:39:46Z</time>
      </trkpt>
      <trkpt lat="43.13752" lon="1.0351">
        <ele>286.6</ele>
        <time>2025-12-14T10:39:47Z</time>
      </trkpt>
      <trkpt lat="43.13751" lon="1.03517">
        <ele>286.2</ele>
        <time>2025-12-14T10:39:48Z</time>
      </trkpt>
      <trkpt lat="43.1375" lon="1.03525">
        <ele>285.8</ele>
        <time>2025-12-14T10:39:49Z</time>
      </trkpt>
      <trkpt lat="43.13751" lon="1.03532">
        <ele>285.4</ele>
        <time>2025-12-14T10:39:50Z</time>
      </trkpt>
      <trkpt lat="43.13751" lon="1.03538">
        <ele>285</ele>
        <time>2025-12-14T10:39:51Z</time>
      </trkpt>
      <trkpt lat="43.13752" lon="1.03543">
        <ele>284.4</ele>
        <time>2025-12-14T10:39:52Z</time>
      </trkpt>
      <trkpt lat="43.13754" lon="1.0356">
        <ele>284.4</ele>
        <time>2025-12-14T10:39:56Z</time>
      </trkpt>
      <trkpt lat="43.13758" lon="1.03567">
        <ele>284.4</ele>
        <time>2025-12-14T10:39:59Z</time>
      </trkpt>
      <trkpt lat="43.13758" lon="1.0357">
        <ele>284.4</ele>
        <time>2025-12-14T10:40:00Z</time>
      </trkpt>
      <trkpt lat="43.13754" lon="1.03575">
        <ele>284</ele>
        <time>2025-12-14T10:40:02Z</time>
      </trkpt>
      <trkpt lat="43.13752" lon="1.03579">
        <ele>283.6</ele>
        <time>2025-12-14T10:40:03Z</time>
      </trkpt>
      <trkpt lat="43.13752" lon="1.03583">
        <ele>283.2</ele>
        <time>2025-12-14T10:40:04Z</time>
      </trkpt>
      <trkpt lat="43.13753" lon="1.03586">
        <ele>282.8</ele>
        <time>2025-12-14T10:40:05Z</time>
      </trkpt>
      <trkpt lat="43.13754" lon="1.03588">
        <ele>282.4</ele>
        <time>2025-12-14T10:40:06Z</time>
      </trkpt>
      <trkpt lat="43.13758" lon="1.03595">
        <ele>282.4</ele>
        <time>2025-12-14T10:40:09Z</time>
      </trkpt>
      <trkpt lat="43.13761" lon="1.03599">
        <ele>282.4</ele>
        <time>2025-12-14T10:40:11Z</time>
      </trkpt>
      <trkpt lat="43.13763" lon="1.03605">
        <ele>282</ele>
        <time>2025-12-14T10:40:13Z</time>
      </trkpt>
      <trkpt lat="43.13764" lon="1.03608">
        <ele>281.6</ele>
        <time>2025-12-14T10:40:14Z</time>
      </trkpt>
      <trkpt lat="43.13765" lon="1.0361">
        <ele>281.2</ele>
        <time>2025-12-14T10:40:15Z</time>
      </trkpt>
      <trkpt lat="43.13765" lon="1.03613">
        <ele>280.8</ele>
        <time>2025-12-14T10:40:16Z</time>
      </trkpt>
      <trkpt lat="43.13765" lon="1.03616">
        <ele>280.2</ele>
        <time>2025-12-14T10:40:17Z</time>
      </trkpt>
      <trkpt lat="43.13765" lon="1.03623">
        <ele>280.2</ele>
        <time>2025-12-14T10:40:19Z</time>
      </trkpt>
      <trkpt lat="43.13763" lon="1.03627">
        <ele>279.8</ele>
        <time>2025-12-14T10:40:20Z</time>
      </trkpt>
      <trkpt lat="43.1376" lon="1.03631">
        <ele>279.2</ele>
        <time>2025-12-14T10:40:21Z</time>
      </trkpt>
      <trkpt lat="43.13758" lon="1.03635">
        <ele>278.8</ele>
        <time>2025-12-14T10:40:22Z</time>
      </trkpt>
      <trkpt lat="43.13755" lon="1.03639">
        <ele>278</ele>
        <time>2025-12-14T10:40:23Z</time>
      </trkpt>
      <trkpt lat="43.13753" lon="1.03642">
        <ele>277.2</ele>
        <time>2025-12-14T10:40:24Z</time>
      </trkpt>
      <trkpt lat="43.13752" lon="1.03646">
        <ele>276.2</ele>
        <time>2025-12-14T10:40:25Z</time>
      </trkpt>
      <trkpt lat="43.13751" lon="1.0365">
        <ele>275.4</ele>
        <time>2025-12-14T10:40:26Z</time>
      </trkpt>
      <trkpt lat="43.13749" lon="1.03653">
        <ele>274.4</ele>
        <time>2025-12-14T10:40:27Z</time>
      </trkpt>
      <trkpt lat="43.13747" lon="1.03654">
        <ele>273.4</ele>
        <time>2025-12-14T10:40:28Z</time>
      </trkpt>
      <trkpt lat="43.13746" lon="1.03653">
        <ele>272.6</ele>
        <time>2025-12-14T10:40:29Z</time>
      </trkpt>
      <trkpt lat="43.13744" lon="1.03652">
        <ele>271.6</ele>
        <time>2025-12-14T10:40:30Z</time>
      </trkpt>
      <trkpt lat="43.13742" lon="1.03652">
        <ele>270.6</ele>
        <time>2025-12-14T10:40:31Z</time>
      </trkpt>
      <trkpt lat="43.13739" lon="1.03652">
        <ele>270.6</ele>
        <time>2025-12-14T10:40:32Z</time>
      </trkpt>
      <trkpt lat="43.13737" lon="1.0365">
        <ele>270.6</ele>
        <time>2025-12-14T10:40:33Z</time>
      </trkpt>
      <trkpt lat="43.13728" lon="1.03647">
        <ele>270.6</ele>
        <time>2025-12-14T10:40:37Z</time>
      </trkpt>
      <trkpt lat="43.13713" lon="1.03647">
        <ele>270.6</ele>
        <time>2025-12-14T10:40:43Z</time>
      </trkpt>
      <trkpt lat="43.13699" lon="1.03641">
        <ele>270.6</ele>
        <time>2025-12-14T10:40:49Z</time>
      </trkpt>
      <trkpt lat="43.1368" lon="1.03629">
        <ele>270.6</ele>
        <time>2025-12-14T10:40:55Z</time>
      </trkpt>
      <trkpt lat="43.1366" lon="1.03614">
        <ele>270.6</ele>
        <time>2025-12-14T10:41:01Z</time>
      </trkpt>
      <trkpt lat="43.1364" lon="1.03596">
        <ele>270.6</ele>
        <time>2025-12-14T10:41:08Z</time>
      </trkpt>
      <trkpt lat="43.13632" lon="1.0358">
        <ele>270.6</ele>
        <time>2025-12-14T10:41:12Z</time>
      </trkpt>
      <trkpt lat="43.13631" lon="1.03553">
        <ele>270.6</ele>
        <time>2025-12-14T10:41:17Z</time>
      </trkpt>
      <trkpt lat="43.13626" lon="1.03526">
        <ele>270.6</ele>
        <time>2025-12-14T10:41:23Z</time>
      </trkpt>
      <trkpt lat="43.13615" lon="1.03488">
        <ele>270.6</ele>
        <time>2025-12-14T10:41:32Z</time>
      </trkpt>
      <trkpt lat="43.13604" lon="1.03449">
        <ele>270.6</ele>
        <time>2025-12-14T10:41:41Z</time>
      </trkpt>
      <trkpt lat="43.13594" lon="1.03425">
        <ele>270.6</ele>
        <time>2025-12-14T10:41:47Z</time>
      </trkpt>
      <trkpt lat="43.13588" lon="1.03415">
        <ele>271</ele>
        <time>2025-12-14T10:41:50Z</time>
      </trkpt>
      <trkpt lat="43.13585" lon="1.03412">
        <ele>271.6</ele>
        <time>2025-12-14T10:41:51Z</time>
      </trkpt>
      <trkpt lat="43.13583" lon="1.03409">
        <ele>272</ele>
        <time>2025-12-14T10:41:52Z</time>
      </trkpt>
      <trkpt lat="43.13581" lon="1.03406">
        <ele>272.4</ele>
        <time>2025-12-14T10:41:53Z</time>
      </trkpt>
      <trkpt lat="43.13578" lon="1.03403">
        <ele>272.8</ele>
        <time>2025-12-14T10:41:54Z</time>
      </trkpt>
      <trkpt lat="43.13568" lon="1.0339">
        <ele>273.2</ele>
        <time>2025-12-14T10:41:58Z</time>
      </trkpt>
      <trkpt lat="43.13566" lon="1.03387">
        <ele>273.8</ele>
        <time>2025-12-14T10:41:59Z</time>
      </trkpt>
      <trkpt lat="43.13564" lon="1.03385">
        <ele>274.2</ele>
        <time>2025-12-14T10:42:00Z</time>
      </trkpt>
      <trkpt lat="43.13561" lon="1.03382">
        <ele>274.6</ele>
        <time>2025-12-14T10:42:01Z</time>
      </trkpt>
      <trkpt lat="43.13559" lon="1.0338">
        <ele>275.2</ele>
        <time>2025-12-14T10:42:02Z</time>
      </trkpt>
      <trkpt lat="43.13555" lon="1.03375">
        <ele>275.6</ele>
        <time>2025-12-14T10:42:04Z</time>
      </trkpt>
      <trkpt lat="43.13552" lon="1.03372">
        <ele>276</ele>
        <time>2025-12-14T10:42:05Z</time>
      </trkpt>
      <trkpt lat="43.1355" lon="1.0337">
        <ele>276.6</ele>
        <time>2025-12-14T10:42:06Z</time>
      </trkpt>
      <trkpt lat="43.13548" lon="1.03367">
        <ele>277</ele>
        <time>2025-12-14T10:42:07Z</time>
      </trkpt>
      <trkpt lat="43.13546" lon="1.03365">
        <ele>277.6</ele>
        <time>2025-12-14T10:42:08Z</time>
      </trkpt>
      <trkpt lat="43.13544" lon="1.03363">
        <ele>278</ele>
        <time>2025-12-14T10:42:09Z</time>
      </trkpt>
      <trkpt lat="43.13542" lon="1.03362">
        <ele>278.6</ele>
        <time>2025-12-14T10:42:10Z</time>
      </trkpt>
      <trkpt lat="43.13539" lon="1.0336">
        <ele>279</ele>
        <time>2025-12-14T10:42:11Z</time>
      </trkpt>
      <trkpt lat="43.13537" lon="1.0336">
        <ele>279.6</ele>
        <time>2025-12-14T10:42:12Z</time>
      </trkpt>
      <trkpt lat="43.13534" lon="1.03358">
        <ele>280</ele>
        <time>2025-12-14T10:42:13Z</time>
      </trkpt>
      <trkpt lat="43.13529" lon="1.03353">
        <ele>280.4</ele>
        <time>2025-12-14T10:42:15Z</time>
      </trkpt>
      <trkpt lat="43.13526" lon="1.03351">
        <ele>280.8</ele>
        <time>2025-12-14T10:42:16Z</time>
      </trkpt>
      <trkpt lat="43.13524" lon="1.03348">
        <ele>281.2</ele>
        <time>2025-12-14T10:42:17Z</time>
      </trkpt>
      <trkpt lat="43.13522" lon="1.03345">
        <ele>281.6</ele>
        <time>2025-12-14T10:42:18Z</time>
      </trkpt>
      <trkpt lat="43.13519" lon="1.03342">
        <ele>282</ele>
        <time>2025-12-14T10:42:19Z</time>
      </trkpt>
      <trkpt lat="43.13503" lon="1.03322">
        <ele>282</ele>
        <time>2025-12-14T10:42:26Z</time>
      </trkpt>
      <trkpt lat="43.13483" lon="1.033">
        <ele>282</ele>
        <time>2025-12-14T10:42:33Z</time>
      </trkpt>
      <trkpt lat="43.13461" lon="1.03287">
        <ele>282</ele>
        <time>2025-12-14T10:42:39Z</time>
      </trkpt>
      <trkpt lat="43.13451" lon="1.03286">
        <ele>282</ele>
        <time>2025-12-14T10:42:41Z</time>
      </trkpt>
      <trkpt lat="43.13438" lon="1.03285">
        <ele>282</ele>
        <time>2025-12-14T10:42:44Z</time>
      </trkpt>
      <trkpt lat="43.13416" lon="1.03287">
        <ele>282</ele>
        <time>2025-12-14T10:42:50Z</time>
      </trkpt>
      <trkpt lat="43.13404" lon="1.03284">
        <ele>282.4</ele>
        <time>2025-12-14T10:42:54Z</time>
      </trkpt>
      <trkpt lat="43.134" lon="1.03283">
        <ele>282.8</ele>
        <time>2025-12-14T10:42:55Z</time>
      </trkpt>
      <trkpt lat="43.13396" lon="1.03281">
        <ele>283.2</ele>
        <time>2025-12-14T10:42:56Z</time>
      </trkpt>
      <trkpt lat="43.13392" lon="1.03279">
        <ele>283.6</ele>
        <time>2025-12-14T10:42:57Z</time>
      </trkpt>
      <trkpt lat="43.13388" lon="1.03275">
        <ele>284</ele>
        <time>2025-12-14T10:42:58Z</time>
      </trkpt>
      <trkpt lat="43.13372" lon="1.03263">
        <ele>284</ele>
        <time>2025-12-14T10:43:01Z</time>
      </trkpt>
      <trkpt lat="43.13355" lon="1.03246">
        <ele>283.2</ele>
        <time>2025-12-14T10:43:04Z</time>
      </trkpt>
      <trkpt lat="43.13349" lon="1.0324">
        <ele>282.8</ele>
        <time>2025-12-14T10:43:05Z</time>
      </trkpt>
      <trkpt lat="43.13344" lon="1.03233">
        <ele>282.4</ele>
        <time>2025-12-14T10:43:06Z</time>
      </trkpt>
      <trkpt lat="43.13338" lon="1.03225">
        <ele>281.8</ele>
        <time>2025-12-14T10:43:07Z</time>
      </trkpt>
      <trkpt lat="43.13332" lon="1.03217">
        <ele>281.4</ele>
        <time>2025-12-14T10:43:08Z</time>
      </trkpt>
      <trkpt lat="43.13326" lon="1.03209">
        <ele>280.8</ele>
        <time>2025-12-14T10:43:09Z</time>
      </trkpt>
      <trkpt lat="43.1332" lon="1.032">
        <ele>280.4</ele>
        <time>2025-12-14T10:43:10Z</time>
      </trkpt>
      <trkpt lat="43.13314" lon="1.03193">
        <ele>279.8</ele>
        <time>2025-12-14T10:43:11Z</time>
      </trkpt>
      <trkpt lat="43.13308" lon="1.03187">
        <ele>279.2</ele>
        <time>2025-12-14T10:43:12Z</time>
      </trkpt>
      <trkpt lat="43.13303" lon="1.03181">
        <ele>278.6</ele>
        <time>2025-12-14T10:43:13Z</time>
      </trkpt>
      <trkpt lat="43.13298" lon="1.03176">
        <ele>278.2</ele>
        <time>2025-12-14T10:43:14Z</time>
      </trkpt>
      <trkpt lat="43.13294" lon="1.03171">
        <ele>277.6</ele>
        <time>2025-12-14T10:43:15Z</time>
      </trkpt>
      <trkpt lat="43.1329" lon="1.03168">
        <ele>277.2</ele>
        <time>2025-12-14T10:43:16Z</time>
      </trkpt>
      <trkpt lat="43.13286" lon="1.03166">
        <ele>276.8</ele>
        <time>2025-12-14T10:43:17Z</time>
      </trkpt>
      <trkpt lat="43.13283" lon="1.03166">
        <ele>276.4</ele>
        <time>2025-12-14T10:43:18Z</time>
      </trkpt>
      <trkpt lat="43.13281" lon="1.03168">
        <ele>275.8</ele>
        <time>2025-12-14T10:43:19Z</time>
      </trkpt>
      <trkpt lat="43.13279" lon="1.03171">
        <ele>275.4</ele>
        <time>2025-12-14T10:43:20Z</time>
      </trkpt>
      <trkpt lat="43.13279" lon="1.03184">
        <ele>275.4</ele>
        <time>2025-12-14T10:43:22Z</time>
      </trkpt>
      <trkpt lat="43.13279" lon="1.0319">
        <ele>275.4</ele>
        <time>2025-12-14T10:43:23Z</time>
      </trkpt>
      <trkpt lat="43.13277" lon="1.0322">
        <ele>275.4</ele>
        <time>2025-12-14T10:43:27Z</time>
      </trkpt>
      <trkpt lat="43.13275" lon="1.03228">
        <ele>275.4</ele>
        <time>2025-12-14T10:43:28Z</time>
      </trkpt>
      <trkpt lat="43.1327" lon="1.03251">
        <ele>275</ele>
        <time>2025-12-14T10:43:31Z</time>
      </trkpt>
      <trkpt lat="43.13269" lon="1.03259">
        <ele>274.6</ele>
        <time>2025-12-14T10:43:32Z</time>
      </trkpt>
      <trkpt lat="43.13267" lon="1.03267">
        <ele>274.2</ele>
        <time>2025-12-14T10:43:33Z</time>
      </trkpt>
      <trkpt lat="43.13265" lon="1.03275">
        <ele>273.8</ele>
        <time>2025-12-14T10:43:34Z</time>
      </trkpt>
      <trkpt lat="43.13263" lon="1.03284">
        <ele>273.4</ele>
        <time>2025-12-14T10:43:35Z</time>
      </trkpt>
      <trkpt lat="43.13254" lon="1.03319">
        <ele>273</ele>
        <time>2025-12-14T10:43:39Z</time>
      </trkpt>
      <trkpt lat="43.13252" lon="1.03329">
        <ele>272.4</ele>
        <time>2025-12-14T10:43:40Z</time>
      </trkpt>
      <trkpt lat="43.1325" lon="1.03339">
        <ele>272</ele>
        <time>2025-12-14T10:43:41Z</time>
      </trkpt>
      <trkpt lat="43.13247" lon="1.0335">
        <ele>271.6</ele>
        <time>2025-12-14T10:43:42Z</time>
      </trkpt>
      <trkpt lat="43.13245" lon="1.0336">
        <ele>271.2</ele>
        <time>2025-12-14T10:43:43Z</time>
      </trkpt>
      <trkpt lat="43.13242" lon="1.03371">
        <ele>270.8</ele>
        <time>2025-12-14T10:43:44Z</time>
      </trkpt>
      <trkpt lat="43.1324" lon="1.03381">
        <ele>270.4</ele>
        <time>2025-12-14T10:43:45Z</time>
      </trkpt>
      <trkpt lat="43.13238" lon="1.03392">
        <ele>269.8</ele>
        <time>2025-12-14T10:43:46Z</time>
      </trkpt>
      <trkpt lat="43.13235" lon="1.03403">
        <ele>269.2</ele>
        <time>2025-12-14T10:43:47Z</time>
      </trkpt>
      <trkpt lat="43.13233" lon="1.03415">
        <ele>268.6</ele>
        <time>2025-12-14T10:43:48Z</time>
      </trkpt>
      <trkpt lat="43.13231" lon="1.03426">
        <ele>268</ele>
        <time>2025-12-14T10:43:49Z</time>
      </trkpt>
      <trkpt lat="43.13229" lon="1.03438">
        <ele>267.4</ele>
        <time>2025-12-14T10:43:50Z</time>
      </trkpt>
      <trkpt lat="43.13227" lon="1.03449">
        <ele>266.6</ele>
        <time>2025-12-14T10:43:51Z</time>
      </trkpt>
      <trkpt lat="43.13224" lon="1.0346">
        <ele>266.2</ele>
        <time>2025-12-14T10:43:52Z</time>
      </trkpt>
      <trkpt lat="43.13221" lon="1.03472">
        <ele>265.8</ele>
        <time>2025-12-14T10:43:53Z</time>
      </trkpt>
      <trkpt lat="43.13219" lon="1.03481">
        <ele>264.8</ele>
        <time>2025-12-14T10:43:54Z</time>
      </trkpt>
      <trkpt lat="43.13215" lon="1.03489">
        <ele>264.2</ele>
        <time>2025-12-14T10:43:55Z</time>
      </trkpt>
      <trkpt lat="43.1321" lon="1.03496">
        <ele>263.6</ele>
        <time>2025-12-14T10:43:56Z</time>
      </trkpt>
      <trkpt lat="43.13205" lon="1.035">
        <ele>263</ele>
        <time>2025-12-14T10:43:57Z</time>
      </trkpt>
      <trkpt lat="43.132" lon="1.03504">
        <ele>262.4</ele>
        <time>2025-12-14T10:43:58Z</time>
      </trkpt>
      <trkpt lat="43.13195" lon="1.03507">
        <ele>261.8</ele>
        <time>2025-12-14T10:43:59Z</time>
      </trkpt>
      <trkpt lat="43.1318" lon="1.03519">
        <ele>261.8</ele>
        <time>2025-12-14T10:44:02Z</time>
      </trkpt>
      <trkpt lat="43.13154" lon="1.03541">
        <ele>262.2</ele>
        <time>2025-12-14T10:44:08Z</time>
      </trkpt>
      <trkpt lat="43.1315" lon="1.03545">
        <ele>262.6</ele>
        <time>2025-12-14T10:44:09Z</time>
      </trkpt>
      <trkpt lat="43.13147" lon="1.03548">
        <ele>263</ele>
        <time>2025-12-14T10:44:10Z</time>
      </trkpt>
      <trkpt lat="43.13144" lon="1.03552">
        <ele>263.4</ele>
        <time>2025-12-14T10:44:11Z</time>
      </trkpt>
      <trkpt lat="43.13141" lon="1.03555">
        <ele>263.8</ele>
        <time>2025-12-14T10:44:12Z</time>
      </trkpt>
      <trkpt lat="43.1313" lon="1.03566">
        <ele>263.8</ele>
        <time>2025-12-14T10:44:15Z</time>
      </trkpt>
      <trkpt lat="43.13125" lon="1.03569">
        <ele>263.8</ele>
        <time>2025-12-14T10:44:16Z</time>
      </trkpt>
      <trkpt lat="43.13108" lon="1.03574">
        <ele>263.4</ele>
        <time>2025-12-14T10:44:19Z</time>
      </trkpt>
      <trkpt lat="43.13102" lon="1.03574">
        <ele>262.8</ele>
        <time>2025-12-14T10:44:20Z</time>
      </trkpt>
      <trkpt lat="43.13095" lon="1.03572">
        <ele>262.4</ele>
        <time>2025-12-14T10:44:21Z</time>
      </trkpt>
      <trkpt lat="43.13088" lon="1.0357">
        <ele>262</ele>
        <time>2025-12-14T10:44:22Z</time>
      </trkpt>
      <trkpt lat="43.13082" lon="1.03567">
        <ele>261.6</ele>
        <time>2025-12-14T10:44:23Z</time>
      </trkpt>
      <trkpt lat="43.13063" lon="1.0356">
        <ele>261</ele>
        <time>2025-12-14T10:44:26Z</time>
      </trkpt>
      <trkpt lat="43.13057" lon="1.03559">
        <ele>260.6</ele>
        <time>2025-12-14T10:44:27Z</time>
      </trkpt>
      <trkpt lat="43.13051" lon="1.03558">
        <ele>260.2</ele>
        <time>2025-12-14T10:44:28Z</time>
      </trkpt>
      <trkpt lat="43.13046" lon="1.03559">
        <ele>259.8</ele>
        <time>2025-12-14T10:44:29Z</time>
      </trkpt>
      <trkpt lat="43.1304" lon="1.0356">
        <ele>259.4</ele>
        <time>2025-12-14T10:44:30Z</time>
      </trkpt>
      <trkpt lat="43.13035" lon="1.03561">
        <ele>259.4</ele>
        <time>2025-12-14T10:44:31Z</time>
      </trkpt>
      <trkpt lat="43.13016" lon="1.03565">
        <ele>259.4</ele>
        <time>2025-12-14T10:44:35Z</time>
      </trkpt>
      <trkpt lat="43.1298" lon="1.03569">
        <ele>259.4</ele>
        <time>2025-12-14T10:44:42Z</time>
      </trkpt>
      <trkpt lat="43.12954" lon="1.0357">
        <ele>259.4</ele>
        <time>2025-12-14T10:44:48Z</time>
      </trkpt>
      <trkpt lat="43.12923" lon="1.0357">
        <ele>259.4</ele>
        <time>2025-12-14T10:44:55Z</time>
      </trkpt>
      <trkpt lat="43.12889" lon="1.03571">
        <ele>259.4</ele>
        <time>2025-12-14T10:45:03Z</time>
      </trkpt>
      <trkpt lat="43.12859" lon="1.03571">
        <ele>259.4</ele>
        <time>2025-12-14T10:45:09Z</time>
      </trkpt>
      <trkpt lat="43.12845" lon="1.03571">
        <ele>259.4</ele>
        <time>2025-12-14T10:45:12Z</time>
      </trkpt>
      <trkpt lat="43.12832" lon="1.03573">
        <ele>259.4</ele>
        <time>2025-12-14T10:45:15Z</time>
      </trkpt>
      <trkpt lat="43.12814" lon="1.03572">
        <ele>259.4</ele>
        <time>2025-12-14T10:45:20Z</time>
      </trkpt>
      <trkpt lat="43.12811" lon="1.03572">
        <ele>259.8</ele>
        <time>2025-12-14T10:45:21Z</time>
      </trkpt>
      <trkpt lat="43.12807" lon="1.03571">
        <ele>260.2</ele>
        <time>2025-12-14T10:45:22Z</time>
      </trkpt>
      <trkpt lat="43.12804" lon="1.03572">
        <ele>260.6</ele>
        <time>2025-12-14T10:45:23Z</time>
      </trkpt>
      <trkpt lat="43.12799" lon="1.03572">
        <ele>261</ele>
        <time>2025-12-14T10:45:24Z</time>
      </trkpt>
      <trkpt lat="43.12795" lon="1.03572">
        <ele>261.4</ele>
        <time>2025-12-14T10:45:25Z</time>
      </trkpt>
      <trkpt lat="43.1278" lon="1.03576">
        <ele>261.4</ele>
        <time>2025-12-14T10:45:28Z</time>
      </trkpt>
      <trkpt lat="43.1277" lon="1.03579">
        <ele>261.4</ele>
        <time>2025-12-14T10:45:30Z</time>
      </trkpt>
      <trkpt lat="43.12765" lon="1.03581">
        <ele>261.4</ele>
        <time>2025-12-14T10:45:31Z</time>
      </trkpt>
      <trkpt lat="43.12756" lon="1.03587">
        <ele>261.4</ele>
        <time>2025-12-14T10:45:33Z</time>
      </trkpt>
      <trkpt lat="43.12743" lon="1.03594">
        <ele>261</ele>
        <time>2025-12-14T10:45:35Z</time>
      </trkpt>
      <trkpt lat="43.12738" lon="1.03598">
        <ele>260.6</ele>
        <time>2025-12-14T10:45:36Z</time>
      </trkpt>
      <trkpt lat="43.12732" lon="1.03603">
        <ele>260.2</ele>
        <time>2025-12-14T10:45:37Z</time>
      </trkpt>
      <trkpt lat="43.12727" lon="1.03607">
        <ele>259.6</ele>
        <time>2025-12-14T10:45:38Z</time>
      </trkpt>
      <trkpt lat="43.12721" lon="1.03612">
        <ele>259.2</ele>
        <time>2025-12-14T10:45:39Z</time>
      </trkpt>
      <trkpt lat="43.12708" lon="1.0362">
        <ele>259.2</ele>
        <time>2025-12-14T10:45:41Z</time>
      </trkpt>
      <trkpt lat="43.12689" lon="1.03632">
        <ele>258.8</ele>
        <time>2025-12-14T10:45:44Z</time>
      </trkpt>
      <trkpt lat="43.12683" lon="1.03636">
        <ele>258.4</ele>
        <time>2025-12-14T10:45:45Z</time>
      </trkpt>
      <trkpt lat="43.12677" lon="1.0364">
        <ele>257.8</ele>
        <time>2025-12-14T10:45:46Z</time>
      </trkpt>
      <trkpt lat="43.12671" lon="1.03643">
        <ele>257.4</ele>
        <time>2025-12-14T10:45:47Z</time>
      </trkpt>
      <trkpt lat="43.12665" lon="1.03647">
        <ele>257</ele>
        <time>2025-12-14T10:45:48Z</time>
      </trkpt>
      <trkpt lat="43.12649" lon="1.03658">
        <ele>256.6</ele>
        <time>2025-12-14T10:45:51Z</time>
      </trkpt>
      <trkpt lat="43.12644" lon="1.03661">
        <ele>256.2</ele>
        <time>2025-12-14T10:45:52Z</time>
      </trkpt>
      <trkpt lat="43.12639" lon="1.03665">
        <ele>255.8</ele>
        <time>2025-12-14T10:45:53Z</time>
      </trkpt>
      <trkpt lat="43.12634" lon="1.03669">
        <ele>255.4</ele>
        <time>2025-12-14T10:45:54Z</time>
      </trkpt>
      <trkpt lat="43.12629" lon="1.03673">
        <ele>255</ele>
        <time>2025-12-14T10:45:55Z</time>
      </trkpt>
      <trkpt lat="43.12603" lon="1.03698">
        <ele>255</ele>
        <time>2025-12-14T10:46:01Z</time>
      </trkpt>
      <trkpt lat="43.12579" lon="1.0373">
        <ele>255</ele>
        <time>2025-12-14T10:46:07Z</time>
      </trkpt>
      <trkpt lat="43.12568" lon="1.03745">
        <ele>255</ele>
        <time>2025-12-14T10:46:10Z</time>
      </trkpt>
      <trkpt lat="43.12564" lon="1.0375">
        <ele>254.6</ele>
        <time>2025-12-14T10:46:11Z</time>
      </trkpt>
      <trkpt lat="43.1256" lon="1.03756">
        <ele>254.2</ele>
        <time>2025-12-14T10:46:12Z</time>
      </trkpt>
      <trkpt lat="43.12555" lon="1.03762">
        <ele>253.8</ele>
        <time>2025-12-14T10:46:13Z</time>
      </trkpt>
      <trkpt lat="43.12551" lon="1.03768">
        <ele>253.2</ele>
        <time>2025-12-14T10:46:14Z</time>
      </trkpt>
      <trkpt lat="43.12546" lon="1.03774">
        <ele>252.8</ele>
        <time>2025-12-14T10:46:15Z</time>
      </trkpt>
      <trkpt lat="43.12531" lon="1.03793">
        <ele>252.4</ele>
        <time>2025-12-14T10:46:18Z</time>
      </trkpt>
      <trkpt lat="43.12526" lon="1.038">
        <ele>252</ele>
        <time>2025-12-14T10:46:19Z</time>
      </trkpt>
      <trkpt lat="43.12521" lon="1.03807">
        <ele>251.6</ele>
        <time>2025-12-14T10:46:20Z</time>
      </trkpt>
      <trkpt lat="43.12516" lon="1.03815">
        <ele>251</ele>
        <time>2025-12-14T10:46:21Z</time>
      </trkpt>
      <trkpt lat="43.1251" lon="1.03823">
        <ele>250.6</ele>
        <time>2025-12-14T10:46:22Z</time>
      </trkpt>
      <trkpt lat="43.12504" lon="1.0383">
        <ele>249.4</ele>
        <time>2025-12-14T10:46:23Z</time>
      </trkpt>
      <trkpt lat="43.12498" lon="1.03839">
        <ele>248.8</ele>
        <time>2025-12-14T10:46:24Z</time>
      </trkpt>
      <trkpt lat="43.12491" lon="1.03847">
        <ele>248.2</ele>
        <time>2025-12-14T10:46:25Z</time>
      </trkpt>
      <trkpt lat="43.12485" lon="1.03857">
        <ele>247.6</ele>
        <time>2025-12-14T10:46:26Z</time>
      </trkpt>
      <trkpt lat="43.12479" lon="1.03866">
        <ele>246.8</ele>
        <time>2025-12-14T10:46:27Z</time>
      </trkpt>
      <trkpt lat="43.12472" lon="1.03876">
        <ele>246.2</ele>
        <time>2025-12-14T10:46:28Z</time>
      </trkpt>
      <trkpt lat="43.12465" lon="1.03885">
        <ele>245.4</ele>
        <time>2025-12-14T10:46:29Z</time>
      </trkpt>
      <trkpt lat="43.12457" lon="1.03893">
        <ele>244.8</ele>
        <time>2025-12-14T10:46:30Z</time>
      </trkpt>
      <trkpt lat="43.1245" lon="1.03901">
        <ele>244.2</ele>
        <time>2025-12-14T10:46:31Z</time>
      </trkpt>
      <trkpt lat="43.12443" lon="1.03909">
        <ele>243.6</ele>
        <time>2025-12-14T10:46:32Z</time>
      </trkpt>
      <trkpt lat="43.12436" lon="1.03916">
        <ele>243</ele>
        <time>2025-12-14T10:46:33Z</time>
      </trkpt>
      <trkpt lat="43.12429" lon="1.03924">
        <ele>242.4</ele>
        <time>2025-12-14T10:46:34Z</time>
      </trkpt>
      <trkpt lat="43.12422" lon="1.0393">
        <ele>241.8</ele>
        <time>2025-12-14T10:46:35Z</time>
      </trkpt>
      <trkpt lat="43.12414" lon="1.03935">
        <ele>241.4</ele>
        <time>2025-12-14T10:46:36Z</time>
      </trkpt>
      <trkpt lat="43.12408" lon="1.0394">
        <ele>241</ele>
        <time>2025-12-14T10:46:37Z</time>
      </trkpt>
      <trkpt lat="43.12401" lon="1.03946">
        <ele>240.6</ele>
        <time>2025-12-14T10:46:38Z</time>
      </trkpt>
      <trkpt lat="43.12395" lon="1.03951">
        <ele>240.2</ele>
        <time>2025-12-14T10:46:39Z</time>
      </trkpt>
      <trkpt lat="43.12389" lon="1.03956">
        <ele>239.8</ele>
        <time>2025-12-14T10:46:40Z</time>
      </trkpt>
      <trkpt lat="43.12377" lon="1.03963">
        <ele>239.8</ele>
        <time>2025-12-14T10:46:42Z</time>
      </trkpt>
      <trkpt lat="43.12355" lon="1.03967">
        <ele>239.8</ele>
        <time>2025-12-14T10:46:46Z</time>
      </trkpt>
      <trkpt lat="43.12315" lon="1.03968">
        <ele>239.8</ele>
        <time>2025-12-14T10:46:53Z</time>
      </trkpt>
      <trkpt lat="43.12298" lon="1.03974">
        <ele>239.8</ele>
        <time>2025-12-14T10:46:56Z</time>
      </trkpt>
      <trkpt lat="43.12287" lon="1.03979">
        <ele>239.8</ele>
        <time>2025-12-14T10:46:58Z</time>
      </trkpt>
      <trkpt lat="43.12251" lon="1.04002">
        <ele>239.8</ele>
        <time>2025-12-14T10:47:05Z</time>
      </trkpt>
      <trkpt lat="43.12221" lon="1.04023">
        <ele>239.8</ele>
        <time>2025-12-14T10:47:11Z</time>
      </trkpt>
      <trkpt lat="43.12211" lon="1.04031">
        <ele>239.4</ele>
        <time>2025-12-14T10:47:13Z</time>
      </trkpt>
      <trkpt lat="43.12206" lon="1.04034">
        <ele>239</ele>
        <time>2025-12-14T10:47:14Z</time>
      </trkpt>
      <trkpt lat="43.12202" lon="1.04036">
        <ele>238.6</ele>
        <time>2025-12-14T10:47:15Z</time>
      </trkpt>
      <trkpt lat="43.12198" lon="1.04039">
        <ele>238.2</ele>
        <time>2025-12-14T10:47:16Z</time>
      </trkpt>
      <trkpt lat="43.12193" lon="1.04041">
        <ele>237.8</ele>
        <time>2025-12-14T10:47:17Z</time>
      </trkpt>
      <trkpt lat="43.12188" lon="1.04045">
        <ele>237.8</ele>
        <time>2025-12-14T10:47:18Z</time>
      </trkpt>
      <trkpt lat="43.12173" lon="1.04057">
        <ele>237.8</ele>
        <time>2025-12-14T10:47:21Z</time>
      </trkpt>
      <trkpt lat="43.12152" lon="1.04078">
        <ele>237.8</ele>
        <time>2025-12-14T10:47:26Z</time>
      </trkpt>
      <trkpt lat="43.12145" lon="1.04083">
        <ele>238.2</ele>
        <time>2025-12-14T10:47:28Z</time>
      </trkpt>
      <trkpt lat="43.12142" lon="1.04086">
        <ele>238.6</ele>
        <time>2025-12-14T10:47:29Z</time>
      </trkpt>
      <trkpt lat="43.12138" lon="1.04087">
        <ele>239</ele>
        <time>2025-12-14T10:47:30Z</time>
      </trkpt>
      <trkpt lat="43.12135" lon="1.04087">
        <ele>239.6</ele>
        <time>2025-12-14T10:47:31Z</time>
      </trkpt>
      <trkpt lat="43.12132" lon="1.04088">
        <ele>240</ele>
        <time>2025-12-14T10:47:32Z</time>
      </trkpt>
      <trkpt lat="43.12129" lon="1.04088">
        <ele>240.4</ele>
        <time>2025-12-14T10:47:33Z</time>
      </trkpt>
      <trkpt lat="43.12126" lon="1.0409">
        <ele>240.8</ele>
        <time>2025-12-14T10:47:34Z</time>
      </trkpt>
      <trkpt lat="43.12123" lon="1.04091">
        <ele>241.2</ele>
        <time>2025-12-14T10:47:35Z</time>
      </trkpt>
      <trkpt lat="43.1212" lon="1.04091">
        <ele>241.6</ele>
        <time>2025-12-14T10:47:36Z</time>
      </trkpt>
      <trkpt lat="43.12117" lon="1.04092">
        <ele>242.4</ele>
        <time>2025-12-14T10:47:37Z</time>
      </trkpt>
      <trkpt lat="43.12114" lon="1.04092">
        <ele>242.8</ele>
        <time>2025-12-14T10:47:38Z</time>
      </trkpt>
      <trkpt lat="43.12111" lon="1.04093">
        <ele>243.2</ele>
        <time>2025-12-14T10:47:39Z</time>
      </trkpt>
      <trkpt lat="43.12108" lon="1.04093">
        <ele>243.6</ele>
        <time>2025-12-14T10:47:40Z</time>
      </trkpt>
      <trkpt lat="43.12105" lon="1.04094">
        <ele>244</ele>
        <time>2025-12-14T10:47:41Z</time>
      </trkpt>
      <trkpt lat="43.12099" lon="1.04094">
        <ele>244.6</ele>
        <time>2025-12-14T10:47:43Z</time>
      </trkpt>
      <trkpt lat="43.12096" lon="1.04095">
        <ele>245</ele>
        <time>2025-12-14T10:47:44Z</time>
      </trkpt>
      <trkpt lat="43.12093" lon="1.04096">
        <ele>245.4</ele>
        <time>2025-12-14T10:47:45Z</time>
      </trkpt>
      <trkpt lat="43.1209" lon="1.04096">
        <ele>245.8</ele>
        <time>2025-12-14T10:47:46Z</time>
      </trkpt>
      <trkpt lat="43.12087" lon="1.04097">
        <ele>246.4</ele>
        <time>2025-12-14T10:47:47Z</time>
      </trkpt>
      <trkpt lat="43.12084" lon="1.04098">
        <ele>246.8</ele>
        <time>2025-12-14T10:47:48Z</time>
      </trkpt>
      <trkpt lat="43.12081" lon="1.04099">
        <ele>247.2</ele>
        <time>2025-12-14T10:47:49Z</time>
      </trkpt>
      <trkpt lat="43.12078" lon="1.041">
        <ele>247.6</ele>
        <time>2025-12-14T10:47:50Z</time>
      </trkpt>
      <trkpt lat="43.12075" lon="1.04101">
        <ele>248</ele>
        <time>2025-12-14T10:47:51Z</time>
      </trkpt>
      <trkpt lat="43.12073" lon="1.04103">
        <ele>248.4</ele>
        <time>2025-12-14T10:47:52Z</time>
      </trkpt>
      <trkpt lat="43.12069" lon="1.04109">
        <ele>248.4</ele>
        <time>2025-12-14T10:47:54Z</time>
      </trkpt>
      <trkpt lat="43.12069" lon="1.04113">
        <ele>248.8</ele>
        <time>2025-12-14T10:47:55Z</time>
      </trkpt>
      <trkpt lat="43.12068" lon="1.04117">
        <ele>249.4</ele>
        <time>2025-12-14T10:47:56Z</time>
      </trkpt>
      <trkpt lat="43.12068" lon="1.04121">
        <ele>249.8</ele>
        <time>2025-12-14T10:47:57Z</time>
      </trkpt>
      <trkpt lat="43.12068" lon="1.04125">
        <ele>250.4</ele>
        <time>2025-12-14T10:47:58Z</time>
      </trkpt>
      <trkpt lat="43.12068" lon="1.04129">
        <ele>250.8</ele>
        <time>2025-12-14T10:47:59Z</time>
      </trkpt>
      <trkpt lat="43.12068" lon="1.04134">
        <ele>251.2</ele>
        <time>2025-12-14T10:48:00Z</time>
      </trkpt>
      <trkpt lat="43.12067" lon="1.04138">
        <ele>251.8</ele>
        <time>2025-12-14T10:48:01Z</time>
      </trkpt>
      <trkpt lat="43.12066" lon="1.04141">
        <ele>252.6</ele>
        <time>2025-12-14T10:48:02Z</time>
      </trkpt>
      <trkpt lat="43.12064" lon="1.04145">
        <ele>253</ele>
        <time>2025-12-14T10:48:03Z</time>
      </trkpt>
      <trkpt lat="43.12062" lon="1.04149">
        <ele>253.6</ele>
        <time>2025-12-14T10:48:04Z</time>
      </trkpt>
      <trkpt lat="43.1206" lon="1.04151">
        <ele>254</ele>
        <time>2025-12-14T10:48:05Z</time>
      </trkpt>
      <trkpt lat="43.12057" lon="1.04153">
        <ele>254.4</ele>
        <time>2025-12-14T10:48:06Z</time>
      </trkpt>
      <trkpt lat="43.12054" lon="1.04153">
        <ele>254.8</ele>
        <time>2025-12-14T10:48:07Z</time>
      </trkpt>
      <trkpt lat="43.12051" lon="1.04153">
        <ele>255.2</ele>
        <time>2025-12-14T10:48:08Z</time>
      </trkpt>
      <trkpt lat="43.12048" lon="1.04153">
        <ele>255.8</ele>
        <time>2025-12-14T10:48:09Z</time>
      </trkpt>
      <trkpt lat="43.12044" lon="1.04153">
        <ele>256.2</ele>
        <time>2025-12-14T10:48:10Z</time>
      </trkpt>
      <trkpt lat="43.12041" lon="1.04151">
        <ele>256.8</ele>
        <time>2025-12-14T10:48:11Z</time>
      </trkpt>
      <trkpt lat="43.12039" lon="1.0415">
        <ele>257.2</ele>
        <time>2025-12-14T10:48:12Z</time>
      </trkpt>
      <trkpt lat="43.12036" lon="1.04147">
        <ele>257.8</ele>
        <time>2025-12-14T10:48:13Z</time>
      </trkpt>
      <trkpt lat="43.12033" lon="1.04145">
        <ele>258.2</ele>
        <time>2025-12-14T10:48:14Z</time>
      </trkpt>
      <trkpt lat="43.12031" lon="1.04143">
        <ele>258.6</ele>
        <time>2025-12-14T10:48:15Z</time>
      </trkpt>
      <trkpt lat="43.12029" lon="1.04141">
        <ele>259</ele>
        <time>2025-12-14T10:48:16Z</time>
      </trkpt>
      <trkpt lat="43.12027" lon="1.04139">
        <ele>259.6</ele>
        <time>2025-12-14T10:48:17Z</time>
      </trkpt>
      <trkpt lat="43.12025" lon="1.04137">
        <ele>260</ele>
        <time>2025-12-14T10:48:18Z</time>
      </trkpt>
      <trkpt lat="43.12021" lon="1.04132">
        <ele>260</ele>
        <time>2025-12-14T10:48:20Z</time>
      </trkpt>
      <trkpt lat="43.12017" lon="1.04126">
        <ele>260.4</ele>
        <time>2025-12-14T10:48:22Z</time>
      </trkpt>
      <trkpt lat="43.12015" lon="1.04123">
        <ele>260.8</ele>
        <time>2025-12-14T10:48:23Z</time>
      </trkpt>
      <trkpt lat="43.12012" lon="1.04121">
        <ele>261.2</ele>
        <time>2025-12-14T10:48:24Z</time>
      </trkpt>
      <trkpt lat="43.1201" lon="1.04118">
        <ele>261.8</ele>
        <time>2025-12-14T10:48:25Z</time>
      </trkpt>
      <trkpt lat="43.12008" lon="1.04115">
        <ele>262.2</ele>
        <time>2025-12-14T10:48:26Z</time>
      </trkpt>
      <trkpt lat="43.12006" lon="1.04112">
        <ele>262.6</ele>
        <time>2025-12-14T10:48:27Z</time>
      </trkpt>
      <trkpt lat="43.12004" lon="1.04109">
        <ele>263</ele>
        <time>2025-12-14T10:48:28Z</time>
      </trkpt>
      <trkpt lat="43.12002" lon="1.04107">
        <ele>263.4</ele>
        <time>2025-12-14T10:48:29Z</time>
      </trkpt>
      <trkpt lat="43.12" lon="1.04104">
        <ele>263.8</ele>
        <time>2025-12-14T10:48:30Z</time>
      </trkpt>
      <trkpt lat="43.11998" lon="1.04102">
        <ele>264.2</ele>
        <time>2025-12-14T10:48:31Z</time>
      </trkpt>
      <trkpt lat="43.11996" lon="1.041">
        <ele>264.6</ele>
        <time>2025-12-14T10:48:32Z</time>
      </trkpt>
      <trkpt lat="43.11994" lon="1.04097">
        <ele>265</ele>
        <time>2025-12-14T10:48:33Z</time>
      </trkpt>
      <trkpt lat="43.11993" lon="1.04095">
        <ele>265.4</ele>
        <time>2025-12-14T10:48:34Z</time>
      </trkpt>
      <trkpt lat="43.11991" lon="1.04092">
        <ele>265.8</ele>
        <time>2025-12-14T10:48:35Z</time>
      </trkpt>
      <trkpt lat="43.11989" lon="1.0409">
        <ele>266.2</ele>
        <time>2025-12-14T10:48:36Z</time>
      </trkpt>
      <trkpt lat="43.11988" lon="1.04088">
        <ele>266.8</ele>
        <time>2025-12-14T10:48:37Z</time>
      </trkpt>
      <trkpt lat="43.11986" lon="1.04085">
        <ele>267.2</ele>
        <time>2025-12-14T10:48:38Z</time>
      </trkpt>
      <trkpt lat="43.11984" lon="1.04083">
        <ele>267.6</ele>
        <time>2025-12-14T10:48:39Z</time>
      </trkpt>
      <trkpt lat="43.11982" lon="1.0408">
        <ele>268</ele>
        <time>2025-12-14T10:48:40Z</time>
      </trkpt>
      <trkpt lat="43.11981" lon="1.04077">
        <ele>268.4</ele>
        <time>2025-12-14T10:48:41Z</time>
      </trkpt>
      <trkpt lat="43.11979" lon="1.04074">
        <ele>269</ele>
        <time>2025-12-14T10:48:42Z</time>
      </trkpt>
      <trkpt lat="43.11978" lon="1.04071">
        <ele>269.4</ele>
        <time>2025-12-14T10:48:43Z</time>
      </trkpt>
      <trkpt lat="43.11976" lon="1.04068">
        <ele>269.8</ele>
        <time>2025-12-14T10:48:44Z</time>
      </trkpt>
      <trkpt lat="43.11975" lon="1.04065">
        <ele>270.2</ele>
        <time>2025-12-14T10:48:45Z</time>
      </trkpt>
      <trkpt lat="43.11973" lon="1.04063">
        <ele>270.6</ele>
        <time>2025-12-14T10:48:46Z</time>
      </trkpt>
      <trkpt lat="43.11972" lon="1.0406">
        <ele>270.6</ele>
        <time>2025-12-14T10:48:47Z</time>
      </trkpt>
      <trkpt lat="43.11971" lon="1.04057">
        <ele>271.2</ele>
        <time>2025-12-14T10:48:48Z</time>
      </trkpt>
      <trkpt lat="43.1197" lon="1.04055">
        <ele>271.6</ele>
        <time>2025-12-14T10:48:49Z</time>
      </trkpt>
      <trkpt lat="43.11968" lon="1.04052">
        <ele>272</ele>
        <time>2025-12-14T10:48:50Z</time>
      </trkpt>
      <trkpt lat="43.11966" lon="1.04049">
        <ele>273</ele>
        <time>2025-12-14T10:48:51Z</time>
      </trkpt>
      <trkpt lat="43.11962" lon="1.04045">
        <ele>273.4</ele>
        <time>2025-12-14T10:48:53Z</time>
      </trkpt>
      <trkpt lat="43.1196" lon="1.04044">
        <ele>273.8</ele>
        <time>2025-12-14T10:48:54Z</time>
      </trkpt>
      <trkpt lat="43.11958" lon="1.04043">
        <ele>274.2</ele>
        <time>2025-12-14T10:48:55Z</time>
      </trkpt>
      <trkpt lat="43.11956" lon="1.04042">
        <ele>274.8</ele>
        <time>2025-12-14T10:48:56Z</time>
      </trkpt>
      <trkpt lat="43.11953" lon="1.04042">
        <ele>275.2</ele>
        <time>2025-12-14T10:48:57Z</time>
      </trkpt>
      <trkpt lat="43.11951" lon="1.04042">
        <ele>275.2</ele>
        <time>2025-12-14T10:48:58Z</time>
      </trkpt>
      <trkpt lat="43.11948" lon="1.04043">
        <ele>275.6</ele>
        <time>2025-12-14T10:48:59Z</time>
      </trkpt>
      <trkpt lat="43.11946" lon="1.04045">
        <ele>276</ele>
        <time>2025-12-14T10:49:00Z</time>
      </trkpt>
      <trkpt lat="43.11944" lon="1.04047">
        <ele>276.4</ele>
        <time>2025-12-14T10:49:01Z</time>
      </trkpt>
      <trkpt lat="43.11943" lon="1.0405">
        <ele>276.8</ele>
        <time>2025-12-14T10:49:02Z</time>
      </trkpt>
      <trkpt lat="43.11941" lon="1.04052">
        <ele>277.2</ele>
        <time>2025-12-14T10:49:03Z</time>
      </trkpt>
      <trkpt lat="43.11938" lon="1.04057">
        <ele>277.6</ele>
        <time>2025-12-14T10:49:05Z</time>
      </trkpt>
      <trkpt lat="43.11937" lon="1.0406">
        <ele>278</ele>
        <time>2025-12-14T10:49:06Z</time>
      </trkpt>
      <trkpt lat="43.11936" lon="1.04064">
        <ele>278.4</ele>
        <time>2025-12-14T10:49:07Z</time>
      </trkpt>
      <trkpt lat="43.11935" lon="1.04068">
        <ele>278.8</ele>
        <time>2025-12-14T10:49:08Z</time>
      </trkpt>
      <trkpt lat="43.11934" lon="1.04072">
        <ele>279.2</ele>
        <time>2025-12-14T10:49:09Z</time>
      </trkpt>
      <trkpt lat="43.11932" lon="1.04084">
        <ele>279.8</ele>
        <time>2025-12-14T10:49:12Z</time>
      </trkpt>
      <trkpt lat="43.11932" lon="1.04088">
        <ele>280.2</ele>
        <time>2025-12-14T10:49:13Z</time>
      </trkpt>
      <trkpt lat="43.11931" lon="1.04091">
        <ele>280.6</ele>
        <time>2025-12-14T10:49:14Z</time>
      </trkpt>
      <trkpt lat="43.1193" lon="1.04095">
        <ele>281</ele>
        <time>2025-12-14T10:49:15Z</time>
      </trkpt>
      <trkpt lat="43.11929" lon="1.041">
        <ele>281.4</ele>
        <time>2025-12-14T10:49:16Z</time>
      </trkpt>
      <trkpt lat="43.11928" lon="1.04109">
        <ele>281.4</ele>
        <time>2025-12-14T10:49:18Z</time>
      </trkpt>
      <trkpt lat="43.11924" lon="1.04121">
        <ele>281.8</ele>
        <time>2025-12-14T10:49:21Z</time>
      </trkpt>
      <trkpt lat="43.11922" lon="1.04125">
        <ele>282.4</ele>
        <time>2025-12-14T10:49:22Z</time>
      </trkpt>
      <trkpt lat="43.11919" lon="1.04129">
        <ele>282.8</ele>
        <time>2025-12-14T10:49:23Z</time>
      </trkpt>
      <trkpt lat="43.11916" lon="1.04133">
        <ele>283.2</ele>
        <time>2025-12-14T10:49:24Z</time>
      </trkpt>
      <trkpt lat="43.11913" lon="1.04136">
        <ele>283.6</ele>
        <time>2025-12-14T10:49:25Z</time>
      </trkpt>
      <trkpt lat="43.11895" lon="1.04148">
        <ele>283.6</ele>
        <time>2025-12-14T10:49:30Z</time>
      </trkpt>
      <trkpt lat="43.11859" lon="1.04168">
        <ele>283.6</ele>
        <time>2025-12-14T10:49:39Z</time>
      </trkpt>
      <trkpt lat="43.11848" lon="1.04177">
        <ele>283.6</ele>
        <time>2025-12-14T10:49:42Z</time>
      </trkpt>
      <trkpt lat="43.11836" lon="1.04193">
        <ele>283.6</ele>
        <time>2025-12-14T10:49:45Z</time>
      </trkpt>
      <trkpt lat="43.11825" lon="1.04205">
        <ele>283.2</ele>
        <time>2025-12-14T10:49:47Z</time>
      </trkpt>
      <trkpt lat="43.1182" lon="1.04212">
        <ele>282.8</ele>
        <time>2025-12-14T10:49:48Z</time>
      </trkpt>
      <trkpt lat="43.11815" lon="1.04219">
        <ele>282.2</ele>
        <time>2025-12-14T10:49:49Z</time>
      </trkpt>
      <trkpt lat="43.11809" lon="1.04227">
        <ele>281.6</ele>
        <time>2025-12-14T10:49:50Z</time>
      </trkpt>
      <trkpt lat="43.11804" lon="1.04235">
        <ele>281</ele>
        <time>2025-12-14T10:49:51Z</time>
      </trkpt>
      <trkpt lat="43.11798" lon="1.04243">
        <ele>280.4</ele>
        <time>2025-12-14T10:49:52Z</time>
      </trkpt>
      <trkpt lat="43.11793" lon="1.04252">
        <ele>279.8</ele>
        <time>2025-12-14T10:49:53Z</time>
      </trkpt>
      <trkpt lat="43.11787" lon="1.04261">
        <ele>279</ele>
        <time>2025-12-14T10:49:54Z</time>
      </trkpt>
      <trkpt lat="43.11781" lon="1.0427">
        <ele>278.4</ele>
        <time>2025-12-14T10:49:55Z</time>
      </trkpt>
      <trkpt lat="43.11776" lon="1.04278">
        <ele>277.8</ele>
        <time>2025-12-14T10:49:56Z</time>
      </trkpt>
      <trkpt lat="43.1177" lon="1.04287">
        <ele>277.2</ele>
        <time>2025-12-14T10:49:57Z</time>
      </trkpt>
      <trkpt lat="43.11764" lon="1.04297">
        <ele>276.4</ele>
        <time>2025-12-14T10:49:58Z</time>
      </trkpt>
      <trkpt lat="43.11758" lon="1.04306">
        <ele>275.8</ele>
        <time>2025-12-14T10:49:59Z</time>
      </trkpt>
      <trkpt lat="43.11753" lon="1.04316">
        <ele>275.2</ele>
        <time>2025-12-14T10:50:00Z</time>
      </trkpt>
      <trkpt lat="43.11747" lon="1.04324">
        <ele>274.6</ele>
        <time>2025-12-14T10:50:01Z</time>
      </trkpt>
      <trkpt lat="43.1174" lon="1.04333">
        <ele>274</ele>
        <time>2025-12-14T10:50:02Z</time>
      </trkpt>
      <trkpt lat="43.11733" lon="1.04338">
        <ele>273.4</ele>
        <time>2025-12-14T10:50:03Z</time>
      </trkpt>
      <trkpt lat="43.11726" lon="1.0434">
        <ele>272.8</ele>
        <time>2025-12-14T10:50:04Z</time>
      </trkpt>
      <trkpt lat="43.11719" lon="1.04341">
        <ele>272.2</ele>
        <time>2025-12-14T10:50:05Z</time>
      </trkpt>
      <trkpt lat="43.11713" lon="1.0434">
        <ele>271.6</ele>
        <time>2025-12-14T10:50:06Z</time>
      </trkpt>
      <trkpt lat="43.11691" lon="1.04333">
        <ele>271.6</ele>
        <time>2025-12-14T10:50:10Z</time>
      </trkpt>
      <trkpt lat="43.11687" lon="1.04331">
        <ele>271.6</ele>
        <time>2025-12-14T10:50:11Z</time>
      </trkpt>
      <trkpt lat="43.11678" lon="1.04328">
        <ele>272</ele>
        <time>2025-12-14T10:50:13Z</time>
      </trkpt>
      <trkpt lat="43.11674" lon="1.04327">
        <ele>272.4</ele>
        <time>2025-12-14T10:50:14Z</time>
      </trkpt>
      <trkpt lat="43.11669" lon="1.04327">
        <ele>272.8</ele>
        <time>2025-12-14T10:50:15Z</time>
      </trkpt>
      <trkpt lat="43.11665" lon="1.04327">
        <ele>273.2</ele>
        <time>2025-12-14T10:50:16Z</time>
      </trkpt>
      <trkpt lat="43.1166" lon="1.04328">
        <ele>273.8</ele>
        <time>2025-12-14T10:50:17Z</time>
      </trkpt>
      <trkpt lat="43.11648" lon="1.04336">
        <ele>273.8</ele>
        <time>2025-12-14T10:50:20Z</time>
      </trkpt>
      <trkpt lat="43.11642" lon="1.04343">
        <ele>274.2</ele>
        <time>2025-12-14T10:50:22Z</time>
      </trkpt>
      <trkpt lat="43.11639" lon="1.04347">
        <ele>274.6</ele>
        <time>2025-12-14T10:50:23Z</time>
      </trkpt>
      <trkpt lat="43.11636" lon="1.0435">
        <ele>275</ele>
        <time>2025-12-14T10:50:24Z</time>
      </trkpt>
      <trkpt lat="43.11633" lon="1.04354">
        <ele>275.4</ele>
        <time>2025-12-14T10:50:25Z</time>
      </trkpt>
      <trkpt lat="43.1163" lon="1.04357">
        <ele>275.8</ele>
        <time>2025-12-14T10:50:26Z</time>
      </trkpt>
      <trkpt lat="43.11621" lon="1.04368">
        <ele>276.2</ele>
        <time>2025-12-14T10:50:29Z</time>
      </trkpt>
      <trkpt lat="43.11618" lon="1.04372">
        <ele>276.6</ele>
        <time>2025-12-14T10:50:30Z</time>
      </trkpt>
      <trkpt lat="43.11615" lon="1.04377">
        <ele>277.6</ele>
        <time>2025-12-14T10:50:31Z</time>
      </trkpt>
      <trkpt lat="43.11613" lon="1.04381">
        <ele>278</ele>
        <time>2025-12-14T10:50:32Z</time>
      </trkpt>
      <trkpt lat="43.11605" lon="1.04395">
        <ele>278.4</ele>
        <time>2025-12-14T10:50:35Z</time>
      </trkpt>
      <trkpt lat="43.11603" lon="1.044">
        <ele>278.8</ele>
        <time>2025-12-14T10:50:36Z</time>
      </trkpt>
      <trkpt lat="43.116" lon="1.04405">
        <ele>279.2</ele>
        <time>2025-12-14T10:50:37Z</time>
      </trkpt>
      <trkpt lat="43.11598" lon="1.0441">
        <ele>279.6</ele>
        <time>2025-12-14T10:50:38Z</time>
      </trkpt>
      <trkpt lat="43.11596" lon="1.04414">
        <ele>280.2</ele>
        <time>2025-12-14T10:50:39Z</time>
      </trkpt>
      <trkpt lat="43.11588" lon="1.04435">
        <ele>280.6</ele>
        <time>2025-12-14T10:50:43Z</time>
      </trkpt>
      <trkpt lat="43.11587" lon="1.0444">
        <ele>281</ele>
        <time>2025-12-14T10:50:44Z</time>
      </trkpt>
      <trkpt lat="43.11585" lon="1.04445">
        <ele>281.4</ele>
        <time>2025-12-14T10:50:45Z</time>
      </trkpt>
      <trkpt lat="43.11583" lon="1.0445">
        <ele>281.8</ele>
        <time>2025-12-14T10:50:46Z</time>
      </trkpt>
      <trkpt lat="43.11581" lon="1.04455">
        <ele>282.2</ele>
        <time>2025-12-14T10:50:47Z</time>
      </trkpt>
      <trkpt lat="43.11576" lon="1.04471">
        <ele>282.6</ele>
        <time>2025-12-14T10:50:50Z</time>
      </trkpt>
      <trkpt lat="43.11574" lon="1.04476">
        <ele>283.2</ele>
        <time>2025-12-14T10:50:51Z</time>
      </trkpt>
      <trkpt lat="43.11572" lon="1.04481">
        <ele>283.6</ele>
        <time>2025-12-14T10:50:52Z</time>
      </trkpt>
      <trkpt lat="43.1157" lon="1.04486">
        <ele>284</ele>
        <time>2025-12-14T10:50:53Z</time>
      </trkpt>
      <trkpt lat="43.11569" lon="1.04491">
        <ele>284.6</ele>
        <time>2025-12-14T10:50:54Z</time>
      </trkpt>
      <trkpt lat="43.11567" lon="1.04496">
        <ele>285</ele>
        <time>2025-12-14T10:50:55Z</time>
      </trkpt>
      <trkpt lat="43.11565" lon="1.04501">
        <ele>285.4</ele>
        <time>2025-12-14T10:50:56Z</time>
      </trkpt>
      <trkpt lat="43.11563" lon="1.04506">
        <ele>286</ele>
        <time>2025-12-14T10:50:57Z</time>
      </trkpt>
      <trkpt lat="43.11562" lon="1.04511">
        <ele>286.4</ele>
        <time>2025-12-14T10:50:58Z</time>
      </trkpt>
      <trkpt lat="43.1156" lon="1.04516">
        <ele>286.8</ele>
        <time>2025-12-14T10:50:59Z</time>
      </trkpt>
      <trkpt lat="43.11558" lon="1.0452">
        <ele>287.2</ele>
        <time>2025-12-14T10:51:00Z</time>
      </trkpt>
      <trkpt lat="43.11556" lon="1.04525">
        <ele>287.6</ele>
        <time>2025-12-14T10:51:01Z</time>
      </trkpt>
      <trkpt lat="43.11554" lon="1.04529">
        <ele>288</ele>
        <time>2025-12-14T10:51:02Z</time>
      </trkpt>
      <trkpt lat="43.11552" lon="1.04534">
        <ele>288.4</ele>
        <time>2025-12-14T10:51:03Z</time>
      </trkpt>
      <trkpt lat="43.1155" lon="1.04538">
        <ele>288.8</ele>
        <time>2025-12-14T10:51:04Z</time>
      </trkpt>
      <trkpt lat="43.11545" lon="1.04546">
        <ele>289.4</ele>
        <time>2025-12-14T10:51:06Z</time>
      </trkpt>
      <trkpt lat="43.11542" lon="1.04551">
        <ele>289.8</ele>
        <time>2025-12-14T10:51:07Z</time>
      </trkpt>
      <trkpt lat="43.11539" lon="1.04554">
        <ele>290.2</ele>
        <time>2025-12-14T10:51:08Z</time>
      </trkpt>
      <trkpt lat="43.11536" lon="1.04558">
        <ele>290.6</ele>
        <time>2025-12-14T10:51:09Z</time>
      </trkpt>
      <trkpt lat="43.11533" lon="1.04562">
        <ele>291.2</ele>
        <time>2025-12-14T10:51:10Z</time>
      </trkpt>
      <trkpt lat="43.1153" lon="1.04566">
        <ele>291.2</ele>
        <time>2025-12-14T10:51:11Z</time>
      </trkpt>
      <trkpt lat="43.11521" lon="1.04578">
        <ele>291.6</ele>
        <time>2025-12-14T10:51:14Z</time>
      </trkpt>
      <trkpt lat="43.11517" lon="1.04582">
        <ele>292</ele>
        <time>2025-12-14T10:51:15Z</time>
      </trkpt>
      <trkpt lat="43.11514" lon="1.04586">
        <ele>292.4</ele>
        <time>2025-12-14T10:51:16Z</time>
      </trkpt>
      <trkpt lat="43.11511" lon="1.04589">
        <ele>292.8</ele>
        <time>2025-12-14T10:51:17Z</time>
      </trkpt>
      <trkpt lat="43.11508" lon="1.04592">
        <ele>293.4</ele>
        <time>2025-12-14T10:51:18Z</time>
      </trkpt>
      <trkpt lat="43.11503" lon="1.04599">
        <ele>293.4</ele>
        <time>2025-12-14T10:51:20Z</time>
      </trkpt>
      <trkpt lat="43.115" lon="1.04602">
        <ele>293.8</ele>
        <time>2025-12-14T10:51:21Z</time>
      </trkpt>
      <trkpt lat="43.11497" lon="1.04604">
        <ele>294.2</ele>
        <time>2025-12-14T10:51:22Z</time>
      </trkpt>
      <trkpt lat="43.11494" lon="1.04607">
        <ele>294.8</ele>
        <time>2025-12-14T10:51:23Z</time>
      </trkpt>
      <trkpt lat="43.11491" lon="1.04608">
        <ele>295.2</ele>
        <time>2025-12-14T10:51:24Z</time>
      </trkpt>
      <trkpt lat="43.11487" lon="1.04609">
        <ele>295.6</ele>
        <time>2025-12-14T10:51:25Z</time>
      </trkpt>
      <trkpt lat="43.11483" lon="1.04609">
        <ele>295.6</ele>
        <time>2025-12-14T10:51:26Z</time>
      </trkpt>
      <trkpt lat="43.11478" lon="1.04607">
        <ele>295.6</ele>
        <time>2025-12-14T10:51:27Z</time>
      </trkpt>
      <trkpt lat="43.11465" lon="1.04605">
        <ele>295.6</ele>
        <time>2025-12-14T10:51:30Z</time>
      </trkpt>
      <trkpt lat="43.11453" lon="1.04601">
        <ele>296.2</ele>
        <time>2025-12-14T10:51:33Z</time>
      </trkpt>
      <trkpt lat="43.1145" lon="1.04601">
        <ele>296.6</ele>
        <time>2025-12-14T10:51:34Z</time>
      </trkpt>
      <trkpt lat="43.11447" lon="1.046">
        <ele>297</ele>
        <time>2025-12-14T10:51:35Z</time>
      </trkpt>
      <trkpt lat="43.11443" lon="1.046">
        <ele>297.4</ele>
        <time>2025-12-14T10:51:36Z</time>
      </trkpt>
      <trkpt lat="43.1144" lon="1.046">
        <ele>297.8</ele>
        <time>2025-12-14T10:51:37Z</time>
      </trkpt>
      <trkpt lat="43.1143" lon="1.04605">
        <ele>297.8</ele>
        <time>2025-12-14T10:51:41Z</time>
      </trkpt>
      <trkpt lat="43.11413" lon="1.04614">
        <ele>297.8</ele>
        <time>2025-12-14T10:51:48Z</time>
      </trkpt>
      <trkpt lat="43.11402" lon="1.04621">
        <ele>298.2</ele>
        <time>2025-12-14T10:51:52Z</time>
      </trkpt>
      <trkpt lat="43.11399" lon="1.04622">
        <ele>298.8</ele>
        <time>2025-12-14T10:51:53Z</time>
      </trkpt>
      <trkpt lat="43.11396" lon="1.04624">
        <ele>299.2</ele>
        <time>2025-12-14T10:51:54Z</time>
      </trkpt>
      <trkpt lat="43.11394" lon="1.04625">
        <ele>299.6</ele>
        <time>2025-12-14T10:51:55Z</time>
      </trkpt>
      <trkpt lat="43.11391" lon="1.04627">
        <ele>300</ele>
        <time>2025-12-14T10:51:56Z</time>
      </trkpt>
      <trkpt lat="43.11373" lon="1.04635">
        <ele>300</ele>
        <time>2025-12-14T10:52:01Z</time>
      </trkpt>
      <trkpt lat="43.11342" lon="1.04645">
        <ele>299.4</ele>
        <time>2025-12-14T10:52:07Z</time>
      </trkpt>
      <trkpt lat="43.11336" lon="1.04648">
        <ele>299</ele>
        <time>2025-12-14T10:52:08Z</time>
      </trkpt>
      <trkpt lat="43.11331" lon="1.0465">
        <ele>298.6</ele>
        <time>2025-12-14T10:52:09Z</time>
      </trkpt>
      <trkpt lat="43.11324" lon="1.04653">
        <ele>297.6</ele>
        <time>2025-12-14T10:52:10Z</time>
      </trkpt>
      <trkpt lat="43.11311" lon="1.04656">
        <ele>297.2</ele>
        <time>2025-12-14T10:52:12Z</time>
      </trkpt>
      <trkpt lat="43.11304" lon="1.04658">
        <ele>296.6</ele>
        <time>2025-12-14T10:52:13Z</time>
      </trkpt>
      <trkpt lat="43.11297" lon="1.04661">
        <ele>296.2</ele>
        <time>2025-12-14T10:52:14Z</time>
      </trkpt>
      <trkpt lat="43.1129" lon="1.04663">
        <ele>295.8</ele>
        <time>2025-12-14T10:52:15Z</time>
      </trkpt>
      <trkpt lat="43.11282" lon="1.04665">
        <ele>295.2</ele>
        <time>2025-12-14T10:52:16Z</time>
      </trkpt>
      <trkpt lat="43.11274" lon="1.04666">
        <ele>294.8</ele>
        <time>2025-12-14T10:52:17Z</time>
      </trkpt>
      <trkpt lat="43.11266" lon="1.04667">
        <ele>294.4</ele>
        <time>2025-12-14T10:52:18Z</time>
      </trkpt>
      <trkpt lat="43.11258" lon="1.04668">
        <ele>294</ele>
        <time>2025-12-14T10:52:19Z</time>
      </trkpt>
      <trkpt lat="43.1125" lon="1.04668">
        <ele>293.6</ele>
        <time>2025-12-14T10:52:20Z</time>
      </trkpt>
      <trkpt lat="43.11243" lon="1.04669">
        <ele>293.2</ele>
        <time>2025-12-14T10:52:21Z</time>
      </trkpt>
      <trkpt lat="43.11215" lon="1.04669">
        <ele>292.8</ele>
        <time>2025-12-14T10:52:25Z</time>
      </trkpt>
      <trkpt lat="43.11208" lon="1.0467">
        <ele>292.2</ele>
        <time>2025-12-14T10:52:26Z</time>
      </trkpt>
      <trkpt lat="43.11201" lon="1.0467">
        <ele>291.8</ele>
        <time>2025-12-14T10:52:27Z</time>
      </trkpt>
      <trkpt lat="43.11195" lon="1.0467">
        <ele>291.4</ele>
        <time>2025-12-14T10:52:28Z</time>
      </trkpt>
      <trkpt lat="43.11189" lon="1.04671">
        <ele>291</ele>
        <time>2025-12-14T10:52:29Z</time>
      </trkpt>
      <trkpt lat="43.11167" lon="1.04677">
        <ele>291</ele>
        <time>2025-12-14T10:52:33Z</time>
      </trkpt>
      <trkpt lat="43.11155" lon="1.04681">
        <ele>290.6</ele>
        <time>2025-12-14T10:52:35Z</time>
      </trkpt>
      <trkpt lat="43.1115" lon="1.04684">
        <ele>290.2</ele>
        <time>2025-12-14T10:52:36Z</time>
      </trkpt>
      <trkpt lat="43.11145" lon="1.04686">
        <ele>289.6</ele>
        <time>2025-12-14T10:52:37Z</time>
      </trkpt>
      <trkpt lat="43.11139" lon="1.04688">
        <ele>289.2</ele>
        <time>2025-12-14T10:52:38Z</time>
      </trkpt>
      <trkpt lat="43.11134" lon="1.0469">
        <ele>288.8</ele>
        <time>2025-12-14T10:52:39Z</time>
      </trkpt>
      <trkpt lat="43.11124" lon="1.04695">
        <ele>288.8</ele>
        <time>2025-12-14T10:52:41Z</time>
      </trkpt>
      <trkpt lat="43.11119" lon="1.04697">
        <ele>288.8</ele>
        <time>2025-12-14T10:52:42Z</time>
      </trkpt>
      <trkpt lat="43.11094" lon="1.04706">
        <ele>288.8</ele>
        <time>2025-12-14T10:52:47Z</time>
      </trkpt>
      <trkpt lat="43.11059" lon="1.04723">
        <ele>288.8</ele>
        <time>2025-12-14T10:52:54Z</time>
      </trkpt>
      <trkpt lat="43.11033" lon="1.04739">
        <ele>288.4</ele>
        <time>2025-12-14T10:52:59Z</time>
      </trkpt>
      <trkpt lat="43.11027" lon="1.04742">
        <ele>288</ele>
        <time>2025-12-14T10:53:00Z</time>
      </trkpt>
      <trkpt lat="43.11021" lon="1.04745">
        <ele>287.6</ele>
        <time>2025-12-14T10:53:01Z</time>
      </trkpt>
      <trkpt lat="43.11015" lon="1.04749">
        <ele>287.2</ele>
        <time>2025-12-14T10:53:02Z</time>
      </trkpt>
      <trkpt lat="43.11009" lon="1.04752">
        <ele>286.8</ele>
        <time>2025-12-14T10:53:03Z</time>
      </trkpt>
      <trkpt lat="43.10969" lon="1.04777">
        <ele>286.2</ele>
        <time>2025-12-14T10:53:10Z</time>
      </trkpt>
      <trkpt lat="43.10963" lon="1.0478">
        <ele>285.8</ele>
        <time>2025-12-14T10:53:11Z</time>
      </trkpt>
      <trkpt lat="43.10957" lon="1.04783">
        <ele>285.4</ele>
        <time>2025-12-14T10:53:12Z</time>
      </trkpt>
      <trkpt lat="43.10951" lon="1.04786">
        <ele>285</ele>
        <time>2025-12-14T10:53:13Z</time>
      </trkpt>
      <trkpt lat="43.10946" lon="1.04788">
        <ele>284.6</ele>
        <time>2025-12-14T10:53:14Z</time>
      </trkpt>
      <trkpt lat="43.10935" lon="1.04791">
        <ele>284.6</ele>
        <time>2025-12-14T10:53:16Z</time>
      </trkpt>
      <trkpt lat="43.10897" lon="1.04796">
        <ele>284.6</ele>
        <time>2025-12-14T10:53:23Z</time>
      </trkpt>
      <trkpt lat="43.10861" lon="1.04797">
        <ele>284.6</ele>
        <time>2025-12-14T10:53:30Z</time>
      </trkpt>
      <trkpt lat="43.1083" lon="1.04797">
        <ele>285</ele>
        <time>2025-12-14T10:53:37Z</time>
      </trkpt>
      <trkpt lat="43.10826" lon="1.04797">
        <ele>285.4</ele>
        <time>2025-12-14T10:53:38Z</time>
      </trkpt>
      <trkpt lat="43.10822" lon="1.04798">
        <ele>285.8</ele>
        <time>2025-12-14T10:53:39Z</time>
      </trkpt>
      <trkpt lat="43.10818" lon="1.04798">
        <ele>286.4</ele>
        <time>2025-12-14T10:53:40Z</time>
      </trkpt>
      <trkpt lat="43.10814" lon="1.048">
        <ele>286.8</ele>
        <time>2025-12-14T10:53:41Z</time>
      </trkpt>
      <trkpt lat="43.10801" lon="1.04803">
        <ele>287.2</ele>
        <time>2025-12-14T10:53:44Z</time>
      </trkpt>
      <trkpt lat="43.10798" lon="1.04805">
        <ele>287.6</ele>
        <time>2025-12-14T10:53:45Z</time>
      </trkpt>
      <trkpt lat="43.10794" lon="1.04807">
        <ele>288</ele>
        <time>2025-12-14T10:53:46Z</time>
      </trkpt>
      <trkpt lat="43.1079" lon="1.04808">
        <ele>288.6</ele>
        <time>2025-12-14T10:53:47Z</time>
      </trkpt>
      <trkpt lat="43.10787" lon="1.04809">
        <ele>289</ele>
        <time>2025-12-14T10:53:48Z</time>
      </trkpt>
      <trkpt lat="43.10779" lon="1.04812">
        <ele>289.4</ele>
        <time>2025-12-14T10:53:50Z</time>
      </trkpt>
      <trkpt lat="43.10776" lon="1.04814">
        <ele>289.8</ele>
        <time>2025-12-14T10:53:51Z</time>
      </trkpt>
      <trkpt lat="43.10773" lon="1.04816">
        <ele>290.2</ele>
        <time>2025-12-14T10:53:52Z</time>
      </trkpt>
      <trkpt lat="43.10771" lon="1.04817">
        <ele>290.6</ele>
        <time>2025-12-14T10:53:53Z</time>
      </trkpt>
      <trkpt lat="43.10767" lon="1.04817">
        <ele>291</ele>
        <time>2025-12-14T10:53:54Z</time>
      </trkpt>
      <trkpt lat="43.10764" lon="1.04815">
        <ele>291</ele>
        <time>2025-12-14T10:53:55Z</time>
      </trkpt>
      <trkpt lat="43.10761" lon="1.04812">
        <ele>291</ele>
        <time>2025-12-14T10:53:56Z</time>
      </trkpt>
      <trkpt lat="43.10746" lon="1.0481">
        <ele>291</ele>
        <time>2025-12-14T10:54:00Z</time>
      </trkpt>
      <trkpt lat="43.1074" lon="1.04811">
        <ele>291.4</ele>
        <time>2025-12-14T10:54:02Z</time>
      </trkpt>
      <trkpt lat="43.10737" lon="1.0481">
        <ele>291.8</ele>
        <time>2025-12-14T10:54:03Z</time>
      </trkpt>
      <trkpt lat="43.10734" lon="1.0481">
        <ele>292.2</ele>
        <time>2025-12-14T10:54:04Z</time>
      </trkpt>
      <trkpt lat="43.10731" lon="1.04811">
        <ele>292.6</ele>
        <time>2025-12-14T10:54:05Z</time>
      </trkpt>
      <trkpt lat="43.10728" lon="1.04812">
        <ele>293</ele>
        <time>2025-12-14T10:54:06Z</time>
      </trkpt>
      <trkpt lat="43.10705" lon="1.04813">
        <ele>293</ele>
        <time>2025-12-14T10:54:12Z</time>
      </trkpt>
      <trkpt lat="43.107" lon="1.04812">
        <ele>292.2</ele>
        <time>2025-12-14T10:54:13Z</time>
      </trkpt>
      <trkpt lat="43.10696" lon="1.0481">
        <ele>291.8</ele>
        <time>2025-12-14T10:54:14Z</time>
      </trkpt>
      <trkpt lat="43.10692" lon="1.04805">
        <ele>291.4</ele>
        <time>2025-12-14T10:54:15Z</time>
      </trkpt>
      <trkpt lat="43.1069" lon="1.04798">
        <ele>290.8</ele>
        <time>2025-12-14T10:54:16Z</time>
      </trkpt>
      <trkpt lat="43.1069" lon="1.04791">
        <ele>290.4</ele>
        <time>2025-12-14T10:54:17Z</time>
      </trkpt>
      <trkpt lat="43.10689" lon="1.04783">
        <ele>290</ele>
        <time>2025-12-14T10:54:18Z</time>
      </trkpt>
      <trkpt lat="43.10688" lon="1.04775">
        <ele>289.6</ele>
        <time>2025-12-14T10:54:19Z</time>
      </trkpt>
      <trkpt lat="43.10687" lon="1.04767">
        <ele>289.2</ele>
        <time>2025-12-14T10:54:20Z</time>
      </trkpt>
      <trkpt lat="43.10686" lon="1.04759">
        <ele>288.8</ele>
        <time>2025-12-14T10:54:21Z</time>
      </trkpt>
      <trkpt lat="43.1068" lon="1.04711">
        <ele>288.4</ele>
        <time>2025-12-14T10:54:27Z</time>
      </trkpt>
      <trkpt lat="43.10679" lon="1.04704">
        <ele>288</ele>
        <time>2025-12-14T10:54:28Z</time>
      </trkpt>
      <trkpt lat="43.10678" lon="1.04696">
        <ele>287.6</ele>
        <time>2025-12-14T10:54:29Z</time>
      </trkpt>
      <trkpt lat="43.10677" lon="1.04688">
        <ele>287.2</ele>
        <time>2025-12-14T10:54:30Z</time>
      </trkpt>
      <trkpt lat="43.10676" lon="1.04681">
        <ele>286.8</ele>
        <time>2025-12-14T10:54:31Z</time>
      </trkpt>
      <trkpt lat="43.10671" lon="1.04643">
        <ele>286.8</ele>
        <time>2025-12-14T10:54:36Z</time>
      </trkpt>
      <trkpt lat="43.1067" lon="1.04636">
        <ele>286.4</ele>
        <time>2025-12-14T10:54:37Z</time>
      </trkpt>
      <trkpt lat="43.10669" lon="1.0463">
        <ele>285.6</ele>
        <time>2025-12-14T10:54:38Z</time>
      </trkpt>
      <trkpt lat="43.10668" lon="1.04623">
        <ele>285</ele>
        <time>2025-12-14T10:54:39Z</time>
      </trkpt>
      <trkpt lat="43.10667" lon="1.04616">
        <ele>284.6</ele>
        <time>2025-12-14T10:54:40Z</time>
      </trkpt>
      <trkpt lat="43.10665" lon="1.04604">
        <ele>284.6</ele>
        <time>2025-12-14T10:54:42Z</time>
      </trkpt>
      <trkpt lat="43.10664" lon="1.04597">
        <ele>284.6</ele>
        <time>2025-12-14T10:54:43Z</time>
      </trkpt>
      <trkpt lat="43.10662" lon="1.04592">
        <ele>284.6</ele>
        <time>2025-12-14T10:54:44Z</time>
      </trkpt>
      <trkpt lat="43.10656" lon="1.04578">
        <ele>284.6</ele>
        <time>2025-12-14T10:54:47Z</time>
      </trkpt>
      <trkpt lat="43.1065" lon="1.04568">
        <ele>284.6</ele>
        <time>2025-12-14T10:54:49Z</time>
      </trkpt>
      <trkpt lat="43.10629" lon="1.04538">
        <ele>284.6</ele>
        <time>2025-12-14T10:54:56Z</time>
      </trkpt>
      <trkpt lat="43.10611" lon="1.04511">
        <ele>284.2</ele>
        <time>2025-12-14T10:55:02Z</time>
      </trkpt>
      <trkpt lat="43.10608" lon="1.04507">
        <ele>283.8</ele>
        <time>2025-12-14T10:55:03Z</time>
      </trkpt>
      <trkpt lat="43.10604" lon="1.04502">
        <ele>283.4</ele>
        <time>2025-12-14T10:55:04Z</time>
      </trkpt>
      <trkpt lat="43.106" lon="1.04498">
        <ele>283</ele>
        <time>2025-12-14T10:55:05Z</time>
      </trkpt>
      <trkpt lat="43.10597" lon="1.04494">
        <ele>282.6</ele>
        <time>2025-12-14T10:55:06Z</time>
      </trkpt>
      <trkpt lat="43.10585" lon="1.04482">
        <ele>282.6</ele>
        <time>2025-12-14T10:55:09Z</time>
      </trkpt>
      <trkpt lat="43.10576" lon="1.04474">
        <ele>282.2</ele>
        <time>2025-12-14T10:55:11Z</time>
      </trkpt>
      <trkpt lat="43.10571" lon="1.04469">
        <ele>281.6</ele>
        <time>2025-12-14T10:55:12Z</time>
      </trkpt>
      <trkpt lat="43.10565" lon="1.04465">
        <ele>281</ele>
        <time>2025-12-14T10:55:13Z</time>
      </trkpt>
      <trkpt lat="43.10559" lon="1.04461">
        <ele>280.6</ele>
        <time>2025-12-14T10:55:14Z</time>
      </trkpt>
      <trkpt lat="43.10554" lon="1.04456">
        <ele>280</ele>
        <time>2025-12-14T10:55:15Z</time>
      </trkpt>
      <trkpt lat="43.10543" lon="1.04447">
        <ele>279.6</ele>
        <time>2025-12-14T10:55:17Z</time>
      </trkpt>
      <trkpt lat="43.10537" lon="1.04442">
        <ele>279.2</ele>
        <time>2025-12-14T10:55:18Z</time>
      </trkpt>
      <trkpt lat="43.10531" lon="1.04438">
        <ele>278.8</ele>
        <time>2025-12-14T10:55:19Z</time>
      </trkpt>
      <trkpt lat="43.10525" lon="1.04433">
        <ele>278.4</ele>
        <time>2025-12-14T10:55:20Z</time>
      </trkpt>
      <trkpt lat="43.10519" lon="1.04429">
        <ele>277.8</ele>
        <time>2025-12-14T10:55:21Z</time>
      </trkpt>
      <trkpt lat="43.10508" lon="1.04422">
        <ele>277.8</ele>
        <time>2025-12-14T10:55:23Z</time>
      </trkpt>
      <trkpt lat="43.10502" lon="1.0442">
        <ele>277.4</ele>
        <time>2025-12-14T10:55:24Z</time>
      </trkpt>
      <trkpt lat="43.10496" lon="1.04418">
        <ele>277</ele>
        <time>2025-12-14T10:55:25Z</time>
      </trkpt>
      <trkpt lat="43.10489" lon="1.04416">
        <ele>276.6</ele>
        <time>2025-12-14T10:55:26Z</time>
      </trkpt>
      <trkpt lat="43.10483" lon="1.04412">
        <ele>275.6</ele>
        <time>2025-12-14T10:55:27Z</time>
      </trkpt>
      <trkpt lat="43.10477" lon="1.04408">
        <ele>275.2</ele>
        <time>2025-12-14T10:55:28Z</time>
      </trkpt>
      <trkpt lat="43.10472" lon="1.04402">
        <ele>274.8</ele>
        <time>2025-12-14T10:55:29Z</time>
      </trkpt>
      <trkpt lat="43.10466" lon="1.04397">
        <ele>274.2</ele>
        <time>2025-12-14T10:55:30Z</time>
      </trkpt>
      <trkpt lat="43.10461" lon="1.04392">
        <ele>273.8</ele>
        <time>2025-12-14T10:55:31Z</time>
      </trkpt>
      <trkpt lat="43.10455" lon="1.04386">
        <ele>273.4</ele>
        <time>2025-12-14T10:55:32Z</time>
      </trkpt>
      <trkpt lat="43.1045" lon="1.04382">
        <ele>273</ele>
        <time>2025-12-14T10:55:33Z</time>
      </trkpt>
      <trkpt lat="43.10445" lon="1.04378">
        <ele>272.4</ele>
        <time>2025-12-14T10:55:34Z</time>
      </trkpt>
      <trkpt lat="43.1044" lon="1.04373">
        <ele>272</ele>
        <time>2025-12-14T10:55:35Z</time>
      </trkpt>
      <trkpt lat="43.10435" lon="1.04369">
        <ele>271.6</ele>
        <time>2025-12-14T10:55:36Z</time>
      </trkpt>
      <trkpt lat="43.1043" lon="1.04365">
        <ele>271</ele>
        <time>2025-12-14T10:55:37Z</time>
      </trkpt>
      <trkpt lat="43.10426" lon="1.04361">
        <ele>270.4</ele>
        <time>2025-12-14T10:55:38Z</time>
      </trkpt>
      <trkpt lat="43.10424" lon="1.0436">
        <ele>269.8</ele>
        <time>2025-12-14T10:55:39Z</time>
      </trkpt>
      <trkpt lat="43.10421" lon="1.04358">
        <ele>269.2</ele>
        <time>2025-12-14T10:55:40Z</time>
      </trkpt>
      <trkpt lat="43.10419" lon="1.04357">
        <ele>268.6</ele>
        <time>2025-12-14T10:55:41Z</time>
      </trkpt>
      <trkpt lat="43.10417" lon="1.04355">
        <ele>268.2</ele>
        <time>2025-12-14T10:55:42Z</time>
      </trkpt>
      <trkpt lat="43.10414" lon="1.04353">
        <ele>267.6</ele>
        <time>2025-12-14T10:55:43Z</time>
      </trkpt>
      <trkpt lat="43.10412" lon="1.04349">
        <ele>267</ele>
        <time>2025-12-14T10:55:44Z</time>
      </trkpt>
      <trkpt lat="43.10409" lon="1.04348">
        <ele>266.4</ele>
        <time>2025-12-14T10:55:45Z</time>
      </trkpt>
      <trkpt lat="43.10406" lon="1.04345">
        <ele>266</ele>
        <time>2025-12-14T10:55:46Z</time>
      </trkpt>
      <trkpt lat="43.10402" lon="1.0434">
        <ele>265.4</ele>
        <time>2025-12-14T10:55:47Z</time>
      </trkpt>
      <trkpt lat="43.10397" lon="1.04335">
        <ele>264.8</ele>
        <time>2025-12-14T10:55:48Z</time>
      </trkpt>
      <trkpt lat="43.10394" lon="1.0433">
        <ele>264.4</ele>
        <time>2025-12-14T10:55:49Z</time>
      </trkpt>
      <trkpt lat="43.10391" lon="1.04327">
        <ele>263.8</ele>
        <time>2025-12-14T10:55:50Z</time>
      </trkpt>
      <trkpt lat="43.10389" lon="1.04324">
        <ele>263.2</ele>
        <time>2025-12-14T10:55:51Z</time>
      </trkpt>
      <trkpt lat="43.10387" lon="1.04319">
        <ele>262.2</ele>
        <time>2025-12-14T10:55:52Z</time>
      </trkpt>
      <trkpt lat="43.10385" lon="1.04315">
        <ele>261.6</ele>
        <time>2025-12-14T10:55:53Z</time>
      </trkpt>
      <trkpt lat="43.10383" lon="1.0431">
        <ele>261.2</ele>
        <time>2025-12-14T10:55:54Z</time>
      </trkpt>
      <trkpt lat="43.1038" lon="1.04305">
        <ele>260.6</ele>
        <time>2025-12-14T10:55:55Z</time>
      </trkpt>
      <trkpt lat="43.10377" lon="1.04302">
        <ele>259.8</ele>
        <time>2025-12-14T10:55:56Z</time>
      </trkpt>
      <trkpt lat="43.10373" lon="1.04301">
        <ele>259</ele>
        <time>2025-12-14T10:55:57Z</time>
      </trkpt>
      <trkpt lat="43.10369" lon="1.04299">
        <ele>258.4</ele>
        <time>2025-12-14T10:55:58Z</time>
      </trkpt>
      <trkpt lat="43.10364" lon="1.043">
        <ele>257.6</ele>
        <time>2025-12-14T10:55:59Z</time>
      </trkpt>
      <trkpt lat="43.10359" lon="1.04302">
        <ele>256.6</ele>
        <time>2025-12-14T10:56:00Z</time>
      </trkpt>
      <trkpt lat="43.10355" lon="1.04304">
        <ele>255.8</ele>
        <time>2025-12-14T10:56:01Z</time>
      </trkpt>
      <trkpt lat="43.1035" lon="1.04307">
        <ele>255</ele>
        <time>2025-12-14T10:56:02Z</time>
      </trkpt>
      <trkpt lat="43.10346" lon="1.04307">
        <ele>254.4</ele>
        <time>2025-12-14T10:56:03Z</time>
      </trkpt>
      <trkpt lat="43.10343" lon="1.04309">
        <ele>253.6</ele>
        <time>2025-12-14T10:56:04Z</time>
      </trkpt>
      <trkpt lat="43.10341" lon="1.04311">
        <ele>253</ele>
        <time>2025-12-14T10:56:05Z</time>
      </trkpt>
      <trkpt lat="43.10339" lon="1.04313">
        <ele>252.4</ele>
        <time>2025-12-14T10:56:06Z</time>
      </trkpt>
      <trkpt lat="43.10337" lon="1.04315">
        <ele>251.6</ele>
        <time>2025-12-14T10:56:07Z</time>
      </trkpt>
      <trkpt lat="43.10335" lon="1.04316">
        <ele>251</ele>
        <time>2025-12-14T10:56:08Z</time>
      </trkpt>
      <trkpt lat="43.10333" lon="1.04317">
        <ele>250.4</ele>
        <time>2025-12-14T10:56:09Z</time>
      </trkpt>
      <trkpt lat="43.10331" lon="1.04317">
        <ele>249.6</ele>
        <time>2025-12-14T10:56:10Z</time>
      </trkpt>
      <trkpt lat="43.10328" lon="1.04317">
        <ele>249</ele>
        <time>2025-12-14T10:56:11Z</time>
      </trkpt>
      <trkpt lat="43.10326" lon="1.04316">
        <ele>248.2</ele>
        <time>2025-12-14T10:56:12Z</time>
      </trkpt>
      <trkpt lat="43.10325" lon="1.04314">
        <ele>247.6</ele>
        <time>2025-12-14T10:56:13Z</time>
      </trkpt>
      <trkpt lat="43.10323" lon="1.0431">
        <ele>246.8</ele>
        <time>2025-12-14T10:56:14Z</time>
      </trkpt>
      <trkpt lat="43.10323" lon="1.04305">
        <ele>246.2</ele>
        <time>2025-12-14T10:56:15Z</time>
      </trkpt>
      <trkpt lat="43.10324" lon="1.04301">
        <ele>245.4</ele>
        <time>2025-12-14T10:56:16Z</time>
      </trkpt>
      <trkpt lat="43.10325" lon="1.04295">
        <ele>244.2</ele>
        <time>2025-12-14T10:56:17Z</time>
      </trkpt>
      <trkpt lat="43.10324" lon="1.04291">
        <ele>243.8</ele>
        <time>2025-12-14T10:56:18Z</time>
      </trkpt>
      <trkpt lat="43.10325" lon="1.04284">
        <ele>243.2</ele>
        <time>2025-12-14T10:56:19Z</time>
      </trkpt>
      <trkpt lat="43.10326" lon="1.04278">
        <ele>242.6</ele>
        <time>2025-12-14T10:56:20Z</time>
      </trkpt>
      <trkpt lat="43.10324" lon="1.04273">
        <ele>242</ele>
        <time>2025-12-14T10:56:21Z</time>
      </trkpt>
      <trkpt lat="43.10322" lon="1.04271">
        <ele>241.6</ele>
        <time>2025-12-14T10:56:22Z</time>
      </trkpt>
      <trkpt lat="43.1032" lon="1.04271">
        <ele>241.2</ele>
        <time>2025-12-14T10:56:23Z</time>
      </trkpt>
      <trkpt lat="43.10317" lon="1.0427">
        <ele>240.6</ele>
        <time>2025-12-14T10:56:24Z</time>
      </trkpt>
      <trkpt lat="43.10314" lon="1.0427">
        <ele>240</ele>
        <time>2025-12-14T10:56:25Z</time>
      </trkpt>
      <trkpt lat="43.10311" lon="1.0427">
        <ele>239.4</ele>
        <time>2025-12-14T10:56:26Z</time>
      </trkpt>
      <trkpt lat="43.10307" lon="1.04271">
        <ele>238.6</ele>
        <time>2025-12-14T10:56:27Z</time>
      </trkpt>
      <trkpt lat="43.10304" lon="1.04272">
        <ele>237.8</ele>
        <time>2025-12-14T10:56:28Z</time>
      </trkpt>
      <trkpt lat="43.103" lon="1.04273">
        <ele>237</ele>
        <time>2025-12-14T10:56:29Z</time>
      </trkpt>
      <trkpt lat="43.10297" lon="1.04274">
        <ele>236</ele>
        <time>2025-12-14T10:56:30Z</time>
      </trkpt>
      <trkpt lat="43.10294" lon="1.04276">
        <ele>235</ele>
        <time>2025-12-14T10:56:31Z</time>
      </trkpt>
      <trkpt lat="43.10291" lon="1.04277">
        <ele>234.2</ele>
        <time>2025-12-14T10:56:32Z</time>
      </trkpt>
      <trkpt lat="43.10289" lon="1.04278">
        <ele>233.4</ele>
        <time>2025-12-14T10:56:33Z</time>
      </trkpt>
      <trkpt lat="43.10286" lon="1.0428">
        <ele>232.4</ele>
        <time>2025-12-14T10:56:34Z</time>
      </trkpt>
      <trkpt lat="43.10285" lon="1.0428">
        <ele>231.6</ele>
        <time>2025-12-14T10:56:35Z</time>
      </trkpt>
      <trkpt lat="43.10283" lon="1.0428">
        <ele>231</ele>
        <time>2025-12-14T10:56:36Z</time>
      </trkpt>
      <trkpt lat="43.10281" lon="1.04281">
        <ele>230.2</ele>
        <time>2025-12-14T10:56:37Z</time>
      </trkpt>
      <trkpt lat="43.10279" lon="1.04282">
        <ele>229.6</ele>
        <time>2025-12-14T10:56:38Z</time>
      </trkpt>
      <trkpt lat="43.10276" lon="1.04283">
        <ele>229</ele>
        <time>2025-12-14T10:56:39Z</time>
      </trkpt>
      <trkpt lat="43.10274" lon="1.04284">
        <ele>228.4</ele>
        <time>2025-12-14T10:56:40Z</time>
      </trkpt>
      <trkpt lat="43.10271" lon="1.04285">
        <ele>228</ele>
        <time>2025-12-14T10:56:41Z</time>
      </trkpt>
      <trkpt lat="43.10269" lon="1.04286">
        <ele>226.8</ele>
        <time>2025-12-14T10:56:42Z</time>
      </trkpt>
      <trkpt lat="43.10267" lon="1.04285">
        <ele>226.2</ele>
        <time>2025-12-14T10:56:43Z</time>
      </trkpt>
      <trkpt lat="43.10266" lon="1.04285">
        <ele>225.8</ele>
        <time>2025-12-14T10:56:44Z</time>
      </trkpt>
      <trkpt lat="43.10261" lon="1.04285">
        <ele>225.2</ele>
        <time>2025-12-14T10:56:45Z</time>
      </trkpt>
      <trkpt lat="43.10259" lon="1.04286">
        <ele>224.6</ele>
        <time>2025-12-14T10:56:46Z</time>
      </trkpt>
      <trkpt lat="43.10256" lon="1.04287">
        <ele>224</ele>
        <time>2025-12-14T10:56:47Z</time>
      </trkpt>
      <trkpt lat="43.10251" lon="1.04287">
        <ele>223.4</ele>
        <time>2025-12-14T10:56:48Z</time>
      </trkpt>
      <trkpt lat="43.10248" lon="1.04286">
        <ele>222.6</ele>
        <time>2025-12-14T10:56:49Z</time>
      </trkpt>
      <trkpt lat="43.10244" lon="1.04286">
        <ele>221.6</ele>
        <time>2025-12-14T10:56:50Z</time>
      </trkpt>
      <trkpt lat="43.10241" lon="1.04285">
        <ele>220.8</ele>
        <time>2025-12-14T10:56:51Z</time>
      </trkpt>
      <trkpt lat="43.10237" lon="1.04285">
        <ele>220</ele>
        <time>2025-12-14T10:56:52Z</time>
      </trkpt>
      <trkpt lat="43.10233" lon="1.04285">
        <ele>219.4</ele>
        <time>2025-12-14T10:56:53Z</time>
      </trkpt>
      <trkpt lat="43.1023" lon="1.04284">
        <ele>218.8</ele>
        <time>2025-12-14T10:56:54Z</time>
      </trkpt>
      <trkpt lat="43.10226" lon="1.04282">
        <ele>218.2</ele>
        <time>2025-12-14T10:56:55Z</time>
      </trkpt>
      <trkpt lat="43.10222" lon="1.04278">
        <ele>217.8</ele>
        <time>2025-12-14T10:56:56Z</time>
      </trkpt>
      <trkpt lat="43.10218" lon="1.04276">
        <ele>217.2</ele>
        <time>2025-12-14T10:56:57Z</time>
      </trkpt>
      <trkpt lat="43.10214" lon="1.04274">
        <ele>216.6</ele>
        <time>2025-12-14T10:56:58Z</time>
      </trkpt>
      <trkpt lat="43.1021" lon="1.04275">
        <ele>216</ele>
        <time>2025-12-14T10:56:59Z</time>
      </trkpt>
      <trkpt lat="43.10208" lon="1.04277">
        <ele>215.6</ele>
        <time>2025-12-14T10:57:00Z</time>
      </trkpt>
      <trkpt lat="43.10207" lon="1.04279">
        <ele>215</ele>
        <time>2025-12-14T10:57:01Z</time>
      </trkpt>
      <trkpt lat="43.10202" lon="1.04286">
        <ele>214.6</ele>
        <time>2025-12-14T10:57:03Z</time>
      </trkpt>
      <trkpt lat="43.10199" lon="1.04289">
        <ele>214.2</ele>
        <time>2025-12-14T10:57:04Z</time>
      </trkpt>
      <trkpt lat="43.10194" lon="1.04292">
        <ele>213.8</ele>
        <time>2025-12-14T10:57:05Z</time>
      </trkpt>
      <trkpt lat="43.1019" lon="1.04294">
        <ele>213</ele>
        <time>2025-12-14T10:57:06Z</time>
      </trkpt>
      <trkpt lat="43.1017" lon="1.043">
        <ele>212.4</ele>
        <time>2025-12-14T10:57:10Z</time>
      </trkpt>
      <trkpt lat="43.10165" lon="1.04301">
        <ele>212</ele>
        <time>2025-12-14T10:57:11Z</time>
      </trkpt>
      <trkpt lat="43.1016" lon="1.04302">
        <ele>211.6</ele>
        <time>2025-12-14T10:57:12Z</time>
      </trkpt>
      <trkpt lat="43.10156" lon="1.04303">
        <ele>211.2</ele>
        <time>2025-12-14T10:57:13Z</time>
      </trkpt>
      <trkpt lat="43.1015" lon="1.04304">
        <ele>210.6</ele>
        <time>2025-12-14T10:57:14Z</time>
      </trkpt>
      <trkpt lat="43.1014" lon="1.04304">
        <ele>210.2</ele>
        <time>2025-12-14T10:57:16Z</time>
      </trkpt>
      <trkpt lat="43.10135" lon="1.04304">
        <ele>209.8</ele>
        <time>2025-12-14T10:57:17Z</time>
      </trkpt>
      <trkpt lat="43.1013" lon="1.04304">
        <ele>209.4</ele>
        <time>2025-12-14T10:57:18Z</time>
      </trkpt>
      <trkpt lat="43.10125" lon="1.04303">
        <ele>209</ele>
        <time>2025-12-14T10:57:19Z</time>
      </trkpt>
      <trkpt lat="43.10119" lon="1.04303">
        <ele>208.6</ele>
        <time>2025-12-14T10:57:20Z</time>
      </trkpt>
      <trkpt lat="43.10106" lon="1.04303">
        <ele>208.2</ele>
        <time>2025-12-14T10:57:22Z</time>
      </trkpt>
      <trkpt lat="43.10099" lon="1.04303">
        <ele>207.8</ele>
        <time>2025-12-14T10:57:23Z</time>
      </trkpt>
      <trkpt lat="43.10093" lon="1.04304">
        <ele>207.2</ele>
        <time>2025-12-14T10:57:24Z</time>
      </trkpt>
      <trkpt lat="43.10087" lon="1.04307">
        <ele>206.8</ele>
        <time>2025-12-14T10:57:25Z</time>
      </trkpt>
      <trkpt lat="43.10083" lon="1.0431">
        <ele>206.4</ele>
        <time>2025-12-14T10:57:26Z</time>
      </trkpt>
      <trkpt lat="43.1008" lon="1.04316">
        <ele>205.8</ele>
        <time>2025-12-14T10:57:27Z</time>
      </trkpt>
      <trkpt lat="43.10077" lon="1.0432">
        <ele>205.4</ele>
        <time>2025-12-14T10:57:28Z</time>
      </trkpt>
      <trkpt lat="43.10075" lon="1.04326">
        <ele>204.8</ele>
        <time>2025-12-14T10:57:29Z</time>
      </trkpt>
      <trkpt lat="43.10073" lon="1.04333">
        <ele>204.4</ele>
        <time>2025-12-14T10:57:30Z</time>
      </trkpt>
      <trkpt lat="43.10071" lon="1.04339">
        <ele>204.4</ele>
        <time>2025-12-14T10:57:31Z</time>
      </trkpt>
      <trkpt lat="43.10067" lon="1.04355">
        <ele>204.4</ele>
        <time>2025-12-14T10:57:34Z</time>
      </trkpt>
      <trkpt lat="43.10064" lon="1.04367">
        <ele>204.4</ele>
        <time>2025-12-14T10:57:36Z</time>
      </trkpt>
      <trkpt lat="43.10053" lon="1.04401">
        <ele>204.4</ele>
        <time>2025-12-14T10:57:43Z</time>
      </trkpt>
      <trkpt lat="43.10039" lon="1.04418">
        <ele>204.4</ele>
        <time>2025-12-14T10:57:48Z</time>
      </trkpt>
      <trkpt lat="43.10019" lon="1.04436">
        <ele>204.4</ele>
        <time>2025-12-14T10:57:54Z</time>
      </trkpt>
      <trkpt lat="43.10013" lon="1.04439">
        <ele>204.8</ele>
        <time>2025-12-14T10:57:56Z</time>
      </trkpt>
      <trkpt lat="43.1001" lon="1.04441">
        <ele>205.2</ele>
        <time>2025-12-14T10:57:57Z</time>
      </trkpt>
      <trkpt lat="43.10006" lon="1.04442">
        <ele>205.6</ele>
        <time>2025-12-14T10:57:58Z</time>
      </trkpt>
      <trkpt lat="43.10003" lon="1.04443">
        <ele>206</ele>
        <time>2025-12-14T10:57:59Z</time>
      </trkpt>
      <trkpt lat="43.09999" lon="1.04445">
        <ele>206.4</ele>
        <time>2025-12-14T10:58:00Z</time>
      </trkpt>
      <trkpt lat="43.09996" lon="1.04447">
        <ele>206.4</ele>
        <time>2025-12-14T10:58:01Z</time>
      </trkpt>
      <trkpt lat="43.09976" lon="1.04459">
        <ele>206.4</ele>
        <time>2025-12-14T10:58:08Z</time>
      </trkpt>
      <trkpt lat="43.09961" lon="1.04465">
        <ele>206.4</ele>
        <time>2025-12-14T10:58:13Z</time>
      </trkpt>
      <trkpt lat="43.09938" lon="1.04466">
        <ele>206.4</ele>
        <time>2025-12-14T10:58:18Z</time>
      </trkpt>
      <trkpt lat="43.09915" lon="1.04471">
        <ele>206</ele>
        <time>2025-12-14T10:58:22Z</time>
      </trkpt>
      <trkpt lat="43.0991" lon="1.04472">
        <ele>205.6</ele>
        <time>2025-12-14T10:58:23Z</time>
      </trkpt>
      <trkpt lat="43.09905" lon="1.04474">
        <ele>205.2</ele>
        <time>2025-12-14T10:58:24Z</time>
      </trkpt>
      <trkpt lat="43.099" lon="1.04475">
        <ele>204.8</ele>
        <time>2025-12-14T10:58:25Z</time>
      </trkpt>
      <trkpt lat="43.09896" lon="1.04476">
        <ele>204.4</ele>
        <time>2025-12-14T10:58:26Z</time>
      </trkpt>
      <trkpt lat="43.0989" lon="1.04476">
        <ele>204.4</ele>
        <time>2025-12-14T10:58:28Z</time>
      </trkpt>
      <trkpt lat="43.09886" lon="1.04469">
        <ele>204.4</ele>
        <time>2025-12-14T10:58:31Z</time>
      </trkpt>
      <trkpt lat="43.09886" lon="1.04466">
        <ele>204.4</ele>
        <time>2025-12-14T10:58:32Z</time>
      </trkpt>
      <trkpt lat="43.09888" lon="1.04447">
        <ele>204.4</ele>
        <time>2025-12-14T10:58:36Z</time>
      </trkpt>
      <trkpt lat="43.09889" lon="1.0444">
        <ele>204.4</ele>
        <time>2025-12-14T10:58:37Z</time>
      </trkpt>
      <trkpt lat="43.09888" lon="1.04416">
        <ele>204.4</ele>
        <time>2025-12-14T10:58:42Z</time>
      </trkpt>
      <trkpt lat="43.09886" lon="1.04389">
        <ele>204.4</ele>
        <time>2025-12-14T10:58:48Z</time>
      </trkpt>
      <trkpt lat="43.09884" lon="1.04382">
        <ele>204.4</ele>
        <time>2025-12-14T10:58:50Z</time>
      </trkpt>
      <trkpt lat="43.09881" lon="1.04379">
        <ele>204.4</ele>
        <time>2025-12-14T10:58:52Z</time>
      </trkpt>
      <trkpt lat="43.09878" lon="1.04378">
        <ele>204.4</ele>
        <time>2025-12-14T10:58:54Z</time>
      </trkpt>
      <trkpt lat="43.09874" lon="1.0438">
        <ele>204.4</ele>
        <time>2025-12-14T10:58:56Z</time>
      </trkpt>
      <trkpt lat="43.09862" lon="1.04384">
        <ele>204.4</ele>
        <time>2025-12-14T10:59:00Z</time>
      </trkpt>
      <trkpt lat="43.09841" lon="1.04392">
        <ele>204.4</ele>
        <time>2025-12-14T10:59:06Z</time>
      </trkpt>
      <trkpt lat="43.09827" lon="1.04402">
        <ele>204.4</ele>
        <time>2025-12-14T10:59:10Z</time>
      </trkpt>
      <trkpt lat="43.0981" lon="1.04412">
        <ele>204.4</ele>
        <time>2025-12-14T10:59:15Z</time>
      </trkpt>
      <trkpt lat="43.09789" lon="1.04424">
        <ele>204.4</ele>
        <time>2025-12-14T10:59:20Z</time>
      </trkpt>
      <trkpt lat="43.09784" lon="1.04427">
        <ele>204.4</ele>
        <time>2025-12-14T10:59:21Z</time>
      </trkpt>
      <trkpt lat="43.09773" lon="1.04437">
        <ele>204.4</ele>
        <time>2025-12-14T10:59:24Z</time>
      </trkpt>
      <trkpt lat="43.09769" lon="1.04441">
        <ele>204.4</ele>
        <time>2025-12-14T10:59:25Z</time>
      </trkpt>
      <trkpt lat="43.09759" lon="1.04448">
        <ele>204.4</ele>
        <time>2025-12-14T10:59:28Z</time>
      </trkpt>
      <trkpt lat="43.09748" lon="1.0446">
        <ele>204.4</ele>
        <time>2025-12-14T10:59:33Z</time>
      </trkpt>
      <trkpt lat="43.09742" lon="1.0447">
        <ele>204.4</ele>
        <time>2025-12-14T10:59:37Z</time>
      </trkpt>
      <trkpt lat="43.09741" lon="1.04471">
        <ele>204.4</ele>
        <time>2025-12-14T10:59:38Z</time>
      </trkpt>
      <trkpt lat="43.09736" lon="1.04473">
        <ele>204.4</ele>
        <time>2025-12-14T10:59:41Z</time>
      </trkpt>
      <trkpt lat="43.09734" lon="1.04475">
        <ele>204.4</ele>
        <time>2025-12-14T10:59:43Z</time>
      </trkpt>
      <trkpt lat="43.09731" lon="1.0448">
        <ele>204.4</ele>
        <time>2025-12-14T10:59:54Z</time>
      </trkpt>
      <trkpt lat="43.09729" lon="1.04482">
        <ele>204.8</ele>
        <time>2025-12-14T10:59:55Z</time>
      </trkpt>
      <trkpt lat="43.09727" lon="1.04484">
        <ele>205.2</ele>
        <time>2025-12-14T10:59:56Z</time>
      </trkpt>
      <trkpt lat="43.09725" lon="1.04486">
        <ele>205.6</ele>
        <time>2025-12-14T10:59:57Z</time>
      </trkpt>
      <trkpt lat="43.09723" lon="1.04489">
        <ele>206</ele>
        <time>2025-12-14T10:59:58Z</time>
      </trkpt>
      <trkpt lat="43.09721" lon="1.04492">
        <ele>206.4</ele>
        <time>2025-12-14T10:59:59Z</time>
      </trkpt>
      <trkpt lat="43.09713" lon="1.04503">
        <ele>206.4</ele>
        <time>2025-12-14T11:00:02Z</time>
      </trkpt>
      <trkpt lat="43.09703" lon="1.04523">
        <ele>206.4</ele>
        <time>2025-12-14T11:00:08Z</time>
      </trkpt>
      <trkpt lat="43.09702" lon="1.04525">
        <ele>206.4</ele>
        <time>2025-12-14T11:00:09Z</time>
      </trkpt>
      <trkpt lat="43.09697" lon="1.04531">
        <ele>206.4</ele>
        <time>2025-12-14T11:00:12Z</time>
      </trkpt>
      <trkpt lat="43.09694" lon="1.04537">
        <ele>206.4</ele>
        <time>2025-12-14T11:00:14Z</time>
      </trkpt>
      <trkpt lat="43.0969" lon="1.04548">
        <ele>206.4</ele>
        <time>2025-12-14T11:00:17Z</time>
      </trkpt>
      <trkpt lat="43.09683" lon="1.04565">
        <ele>206.8</ele>
        <time>2025-12-14T11:00:23Z</time>
      </trkpt>
      <trkpt lat="43.09682" lon="1.04567">
        <ele>207.6</ele>
        <time>2025-12-14T11:00:24Z</time>
      </trkpt>
      <trkpt lat="43.09681" lon="1.0457">
        <ele>208.2</ele>
        <time>2025-12-14T11:00:25Z</time>
      </trkpt>
      <trkpt lat="43.0968" lon="1.04573">
        <ele>208.6</ele>
        <time>2025-12-14T11:00:26Z</time>
      </trkpt>
      <trkpt lat="43.09679" lon="1.04577">
        <ele>208.6</ele>
        <time>2025-12-14T11:00:27Z</time>
      </trkpt>
      <trkpt lat="43.09678" lon="1.0458">
        <ele>208.6</ele>
        <time>2025-12-14T11:00:28Z</time>
      </trkpt>
      <trkpt lat="43.09671" lon="1.04599">
        <ele>208.6</ele>
        <time>2025-12-14T11:00:33Z</time>
      </trkpt>
      <trkpt lat="43.09666" lon="1.04611">
        <ele>208.6</ele>
        <time>2025-12-14T11:00:36Z</time>
      </trkpt>
      <trkpt lat="43.09663" lon="1.04622">
        <ele>208.6</ele>
        <time>2025-12-14T11:00:39Z</time>
      </trkpt>
      <trkpt lat="43.09653" lon="1.04643">
        <ele>209</ele>
        <time>2025-12-14T11:00:45Z</time>
      </trkpt>
      <trkpt lat="43.09651" lon="1.04646">
        <ele>209.4</ele>
        <time>2025-12-14T11:00:46Z</time>
      </trkpt>
      <trkpt lat="43.09648" lon="1.04649">
        <ele>210</ele>
        <time>2025-12-14T11:00:47Z</time>
      </trkpt>
      <trkpt lat="43.09646" lon="1.04653">
        <ele>210.8</ele>
        <time>2025-12-14T11:00:48Z</time>
      </trkpt>
      <trkpt lat="43.09644" lon="1.04656">
        <ele>211.4</ele>
        <time>2025-12-14T11:00:49Z</time>
      </trkpt>
      <trkpt lat="43.09642" lon="1.04659">
        <ele>212</ele>
        <time>2025-12-14T11:00:50Z</time>
      </trkpt>
      <trkpt lat="43.09639" lon="1.04663">
        <ele>212.4</ele>
        <time>2025-12-14T11:00:51Z</time>
      </trkpt>
      <trkpt lat="43.09637" lon="1.04666">
        <ele>213</ele>
        <time>2025-12-14T11:00:52Z</time>
      </trkpt>
      <trkpt lat="43.09635" lon="1.04669">
        <ele>213.4</ele>
        <time>2025-12-14T11:00:53Z</time>
      </trkpt>
      <trkpt lat="43.09633" lon="1.04673">
        <ele>213.8</ele>
        <time>2025-12-14T11:00:54Z</time>
      </trkpt>
      <trkpt lat="43.09631" lon="1.04675">
        <ele>214.2</ele>
        <time>2025-12-14T11:00:55Z</time>
      </trkpt>
      <trkpt lat="43.09629" lon="1.04679">
        <ele>214.8</ele>
        <time>2025-12-14T11:00:56Z</time>
      </trkpt>
      <trkpt lat="43.09626" lon="1.04683">
        <ele>215.2</ele>
        <time>2025-12-14T11:00:57Z</time>
      </trkpt>
      <trkpt lat="43.09624" lon="1.04685">
        <ele>215.6</ele>
        <time>2025-12-14T11:00:58Z</time>
      </trkpt>
      <trkpt lat="43.09622" lon="1.04686">
        <ele>216</ele>
        <time>2025-12-14T11:00:59Z</time>
      </trkpt>
      <trkpt lat="43.0962" lon="1.04689">
        <ele>216.4</ele>
        <time>2025-12-14T11:01:00Z</time>
      </trkpt>
      <trkpt lat="43.09618" lon="1.04692">
        <ele>216.8</ele>
        <time>2025-12-14T11:01:01Z</time>
      </trkpt>
      <trkpt lat="43.09616" lon="1.04696">
        <ele>217.4</ele>
        <time>2025-12-14T11:01:02Z</time>
      </trkpt>
      <trkpt lat="43.09614" lon="1.04699">
        <ele>217.4</ele>
        <time>2025-12-14T11:01:03Z</time>
      </trkpt>
      <trkpt lat="43.0961" lon="1.04712">
        <ele>217.4</ele>
        <time>2025-12-14T11:01:07Z</time>
      </trkpt>
      <trkpt lat="43.0961" lon="1.04715">
        <ele>217.4</ele>
        <time>2025-12-14T11:01:08Z</time>
      </trkpt>
      <trkpt lat="43.09608" lon="1.04723">
        <ele>217.4</ele>
        <time>2025-12-14T11:01:11Z</time>
      </trkpt>
      <trkpt lat="43.09607" lon="1.04728">
        <ele>217.4</ele>
        <time>2025-12-14T11:01:13Z</time>
      </trkpt>
      <trkpt lat="43.09609" lon="1.04738">
        <ele>217.4</ele>
        <time>2025-12-14T11:01:18Z</time>
      </trkpt>
      <trkpt lat="43.0961" lon="1.04739">
        <ele>216.8</ele>
        <time>2025-12-14T11:01:19Z</time>
      </trkpt>
      <trkpt lat="43.09612" lon="1.04739">
        <ele>215.8</ele>
        <time>2025-12-14T11:01:21Z</time>
      </trkpt>
      <trkpt lat="43.09615" lon="1.04739">
        <ele>215.2</ele>
        <time>2025-12-14T11:01:22Z</time>
      </trkpt>
      <trkpt lat="43.09618" lon="1.04738">
        <ele>214.4</ele>
        <time>2025-12-14T11:01:23Z</time>
      </trkpt>
      <trkpt lat="43.09621" lon="1.04737">
        <ele>213.4</ele>
        <time>2025-12-14T11:01:24Z</time>
      </trkpt>
      <trkpt lat="43.09624" lon="1.04736">
        <ele>212.6</ele>
        <time>2025-12-14T11:01:25Z</time>
      </trkpt>
      <trkpt lat="43.09628" lon="1.04735">
        <ele>211.6</ele>
        <time>2025-12-14T11:01:26Z</time>
      </trkpt>
      <trkpt lat="43.0963" lon="1.04735">
        <ele>210.8</ele>
        <time>2025-12-14T11:01:27Z</time>
      </trkpt>
      <trkpt lat="43.09632" lon="1.04736">
        <ele>210.2</ele>
        <time>2025-12-14T11:01:28Z</time>
      </trkpt>
      <trkpt lat="43.09634" lon="1.04738">
        <ele>209.4</ele>
        <time>2025-12-14T11:01:29Z</time>
      </trkpt>
      <trkpt lat="43.09637" lon="1.0474">
        <ele>208.6</ele>
        <time>2025-12-14T11:01:30Z</time>
      </trkpt>
      <trkpt lat="43.09638" lon="1.04741">
        <ele>207.8</ele>
        <time>2025-12-14T11:01:31Z</time>
      </trkpt>
      <trkpt lat="43.09645" lon="1.04749">
        <ele>207.8</ele>
        <time>2025-12-14T11:01:34Z</time>
      </trkpt>
      <trkpt lat="43.09654" lon="1.04771">
        <ele>207.8</ele>
        <time>2025-12-14T11:01:42Z</time>
      </trkpt>
      <trkpt lat="43.09656" lon="1.04798">
        <ele>208.2</ele>
        <time>2025-12-14T11:01:48Z</time>
      </trkpt>
      <trkpt lat="43.09657" lon="1.04802">
        <ele>208.6</ele>
        <time>2025-12-14T11:01:49Z</time>
      </trkpt>
      <trkpt lat="43.09658" lon="1.04806">
        <ele>209</ele>
        <time>2025-12-14T11:01:50Z</time>
      </trkpt>
      <trkpt lat="43.09659" lon="1.04811">
        <ele>209.4</ele>
        <time>2025-12-14T11:01:51Z</time>
      </trkpt>
      <trkpt lat="43.0966" lon="1.04816">
        <ele>209.8</ele>
        <time>2025-12-14T11:01:52Z</time>
      </trkpt>
      <trkpt lat="43.09665" lon="1.04833">
        <ele>209.8</ele>
        <time>2025-12-14T11:01:56Z</time>
      </trkpt>
      <trkpt lat="43.09665" lon="1.04838">
        <ele>209.8</ele>
        <time>2025-12-14T11:01:57Z</time>
      </trkpt>
      <trkpt lat="43.09664" lon="1.04846">
        <ele>210.2</ele>
        <time>2025-12-14T11:01:59Z</time>
      </trkpt>
      <trkpt lat="43.09663" lon="1.04849">
        <ele>210.6</ele>
        <time>2025-12-14T11:02:00Z</time>
      </trkpt>
      <trkpt lat="43.09662" lon="1.04853">
        <ele>211</ele>
        <time>2025-12-14T11:02:01Z</time>
      </trkpt>
      <trkpt lat="43.09661" lon="1.04857">
        <ele>211.6</ele>
        <time>2025-12-14T11:02:02Z</time>
      </trkpt>
      <trkpt lat="43.0966" lon="1.0486">
        <ele>212.4</ele>
        <time>2025-12-14T11:02:03Z</time>
      </trkpt>
      <trkpt lat="43.09659" lon="1.04863">
        <ele>213</ele>
        <time>2025-12-14T11:02:04Z</time>
      </trkpt>
      <trkpt lat="43.09658" lon="1.04867">
        <ele>213.4</ele>
        <time>2025-12-14T11:02:05Z</time>
      </trkpt>
      <trkpt lat="43.09657" lon="1.0487">
        <ele>214</ele>
        <time>2025-12-14T11:02:06Z</time>
      </trkpt>
      <trkpt lat="43.09657" lon="1.04873">
        <ele>214.4</ele>
        <time>2025-12-14T11:02:07Z</time>
      </trkpt>
      <trkpt lat="43.09656" lon="1.04877">
        <ele>214.8</ele>
        <time>2025-12-14T11:02:08Z</time>
      </trkpt>
      <trkpt lat="43.09654" lon="1.0488">
        <ele>215.4</ele>
        <time>2025-12-14T11:02:09Z</time>
      </trkpt>
      <trkpt lat="43.09652" lon="1.04883">
        <ele>215.8</ele>
        <time>2025-12-14T11:02:10Z</time>
      </trkpt>
      <trkpt lat="43.09651" lon="1.04886">
        <ele>216.2</ele>
        <time>2025-12-14T11:02:11Z</time>
      </trkpt>
      <trkpt lat="43.09649" lon="1.04888">
        <ele>216.8</ele>
        <time>2025-12-14T11:02:12Z</time>
      </trkpt>
      <trkpt lat="43.09645" lon="1.04894">
        <ele>217.2</ele>
        <time>2025-12-14T11:02:14Z</time>
      </trkpt>
      <trkpt lat="43.09642" lon="1.04896">
        <ele>217.6</ele>
        <time>2025-12-14T11:02:15Z</time>
      </trkpt>
      <trkpt lat="43.0964" lon="1.04898">
        <ele>218</ele>
        <time>2025-12-14T11:02:16Z</time>
      </trkpt>
      <trkpt lat="43.09637" lon="1.04901">
        <ele>218.4</ele>
        <time>2025-12-14T11:02:17Z</time>
      </trkpt>
      <trkpt lat="43.09635" lon="1.04904">
        <ele>219</ele>
        <time>2025-12-14T11:02:18Z</time>
      </trkpt>
      <trkpt lat="43.09634" lon="1.04906">
        <ele>219.4</ele>
        <time>2025-12-14T11:02:19Z</time>
      </trkpt>
      <trkpt lat="43.09633" lon="1.04908">
        <ele>220</ele>
        <time>2025-12-14T11:02:20Z</time>
      </trkpt>
      <trkpt lat="43.09632" lon="1.0491">
        <ele>220.6</ele>
        <time>2025-12-14T11:02:21Z</time>
      </trkpt>
      <trkpt lat="43.09631" lon="1.04911">
        <ele>221.2</ele>
        <time>2025-12-14T11:02:22Z</time>
      </trkpt>
      <trkpt lat="43.09629" lon="1.04914">
        <ele>221.6</ele>
        <time>2025-12-14T11:02:23Z</time>
      </trkpt>
      <trkpt lat="43.09628" lon="1.04916">
        <ele>222.2</ele>
        <time>2025-12-14T11:02:24Z</time>
      </trkpt>
      <trkpt lat="43.09626" lon="1.04918">
        <ele>222.8</ele>
        <time>2025-12-14T11:02:25Z</time>
      </trkpt>
      <trkpt lat="43.09625" lon="1.04921">
        <ele>223.4</ele>
        <time>2025-12-14T11:02:26Z</time>
      </trkpt>
      <trkpt lat="43.09624" lon="1.04924">
        <ele>224.4</ele>
        <time>2025-12-14T11:02:27Z</time>
      </trkpt>
      <trkpt lat="43.09623" lon="1.04927">
        <ele>225</ele>
        <time>2025-12-14T11:02:28Z</time>
      </trkpt>
      <trkpt lat="43.09622" lon="1.0493">
        <ele>225.4</ele>
        <time>2025-12-14T11:02:29Z</time>
      </trkpt>
      <trkpt lat="43.09622" lon="1.04933">
        <ele>226</ele>
        <time>2025-12-14T11:02:30Z</time>
      </trkpt>
      <trkpt lat="43.09621" lon="1.04937">
        <ele>226.4</ele>
        <time>2025-12-14T11:02:31Z</time>
      </trkpt>
      <trkpt lat="43.0962" lon="1.04939">
        <ele>226.8</ele>
        <time>2025-12-14T11:02:32Z</time>
      </trkpt>
      <trkpt lat="43.09619" lon="1.04943">
        <ele>227.2</ele>
        <time>2025-12-14T11:02:33Z</time>
      </trkpt>
      <trkpt lat="43.09619" lon="1.04946">
        <ele>227.6</ele>
        <time>2025-12-14T11:02:34Z</time>
      </trkpt>
      <trkpt lat="43.09617" lon="1.04955">
        <ele>227.6</ele>
        <time>2025-12-14T11:02:37Z</time>
      </trkpt>
      <trkpt lat="43.09614" lon="1.04971">
        <ele>228</ele>
        <time>2025-12-14T11:02:42Z</time>
      </trkpt>
      <trkpt lat="43.09614" lon="1.04974">
        <ele>228.4</ele>
        <time>2025-12-14T11:02:43Z</time>
      </trkpt>
      <trkpt lat="43.09614" lon="1.04977">
        <ele>228.8</ele>
        <time>2025-12-14T11:02:44Z</time>
      </trkpt>
      <trkpt lat="43.09614" lon="1.0498">
        <ele>229.2</ele>
        <time>2025-12-14T11:02:45Z</time>
      </trkpt>
      <trkpt lat="43.09614" lon="1.04982">
        <ele>229.8</ele>
        <time>2025-12-14T11:02:46Z</time>
      </trkpt>
      <trkpt lat="43.09615" lon="1.04988">
        <ele>229.8</ele>
        <time>2025-12-14T11:02:49Z</time>
      </trkpt>
      <trkpt lat="43.09615" lon="1.04991">
        <ele>229.8</ele>
        <time>2025-12-14T11:03:03Z</time>
      </trkpt>
      <trkpt lat="43.09615" lon="1.05">
        <ele>229.8</ele>
        <time>2025-12-14T11:03:05Z</time>
      </trkpt>
      <trkpt lat="43.09613" lon="1.05021">
        <ele>229.8</ele>
        <time>2025-12-14T11:03:10Z</time>
      </trkpt>
      <trkpt lat="43.09613" lon="1.05046">
        <ele>229.8</ele>
        <time>2025-12-14T11:03:15Z</time>
      </trkpt>
      <trkpt lat="43.09614" lon="1.05067">
        <ele>229.2</ele>
        <time>2025-12-14T11:03:18Z</time>
      </trkpt>
      <trkpt lat="43.09615" lon="1.05073">
        <ele>228.8</ele>
        <time>2025-12-14T11:03:19Z</time>
      </trkpt>
      <trkpt lat="43.09615" lon="1.05079">
        <ele>228.4</ele>
        <time>2025-12-14T11:03:20Z</time>
      </trkpt>
      <trkpt lat="43.09615" lon="1.05085">
        <ele>228</ele>
        <time>2025-12-14T11:03:21Z</time>
      </trkpt>
      <trkpt lat="43.09615" lon="1.05091">
        <ele>227.4</ele>
        <time>2025-12-14T11:03:22Z</time>
      </trkpt>
      <trkpt lat="43.09616" lon="1.0511">
        <ele>227.4</ele>
        <time>2025-12-14T11:03:25Z</time>
      </trkpt>
      <trkpt lat="43.09617" lon="1.05115">
        <ele>227</ele>
        <time>2025-12-14T11:03:26Z</time>
      </trkpt>
      <trkpt lat="43.09618" lon="1.05122">
        <ele>226.6</ele>
        <time>2025-12-14T11:03:27Z</time>
      </trkpt>
      <trkpt lat="43.09618" lon="1.05128">
        <ele>226.2</ele>
        <time>2025-12-14T11:03:28Z</time>
      </trkpt>
      <trkpt lat="43.0962" lon="1.05135">
        <ele>225.8</ele>
        <time>2025-12-14T11:03:29Z</time>
      </trkpt>
      <trkpt lat="43.09621" lon="1.05141">
        <ele>225.4</ele>
        <time>2025-12-14T11:03:30Z</time>
      </trkpt>
      <trkpt lat="43.09622" lon="1.05147">
        <ele>224.8</ele>
        <time>2025-12-14T11:03:31Z</time>
      </trkpt>
      <trkpt lat="43.09623" lon="1.05152">
        <ele>224.2</ele>
        <time>2025-12-14T11:03:32Z</time>
      </trkpt>
      <trkpt lat="43.09624" lon="1.05157">
        <ele>223.8</ele>
        <time>2025-12-14T11:03:33Z</time>
      </trkpt>
      <trkpt lat="43.09624" lon="1.05161">
        <ele>223.2</ele>
        <time>2025-12-14T11:03:34Z</time>
      </trkpt>
      <trkpt lat="43.09624" lon="1.05165">
        <ele>222.8</ele>
        <time>2025-12-14T11:03:35Z</time>
      </trkpt>
      <trkpt lat="43.09624" lon="1.05169">
        <ele>222.2</ele>
        <time>2025-12-14T11:03:36Z</time>
      </trkpt>
      <trkpt lat="43.09624" lon="1.05172">
        <ele>221.8</ele>
        <time>2025-12-14T11:03:37Z</time>
      </trkpt>
      <trkpt lat="43.09624" lon="1.05175">
        <ele>221.2</ele>
        <time>2025-12-14T11:03:38Z</time>
      </trkpt>
      <trkpt lat="43.09624" lon="1.05177">
        <ele>220.6</ele>
        <time>2025-12-14T11:03:39Z</time>
      </trkpt>
      <trkpt lat="43.09624" lon="1.0518">
        <ele>220</ele>
        <time>2025-12-14T11:03:40Z</time>
      </trkpt>
      <trkpt lat="43.09623" lon="1.05182">
        <ele>219.4</ele>
        <time>2025-12-14T11:03:41Z</time>
      </trkpt>
      <trkpt lat="43.09623" lon="1.05184">
        <ele>218.4</ele>
        <time>2025-12-14T11:03:42Z</time>
      </trkpt>
      <trkpt lat="43.09623" lon="1.05185">
        <ele>217.8</ele>
        <time>2025-12-14T11:03:43Z</time>
      </trkpt>
      <trkpt lat="43.0962" lon="1.05197">
        <ele>216.4</ele>
        <time>2025-12-14T11:04:19Z</time>
      </trkpt>
      <trkpt lat="43.09614" lon="1.05211">
        <ele>216</ele>
        <time>2025-12-14T11:04:23Z</time>
      </trkpt>
      <trkpt lat="43.09614" lon="1.05215">
        <ele>215.6</ele>
        <time>2025-12-14T11:04:24Z</time>
      </trkpt>
      <trkpt lat="43.09615" lon="1.05219">
        <ele>215.2</ele>
        <time>2025-12-14T11:04:25Z</time>
      </trkpt>
      <trkpt lat="43.09616" lon="1.05222">
        <ele>214.6</ele>
        <time>2025-12-14T11:04:26Z</time>
      </trkpt>
      <trkpt lat="43.09618" lon="1.05224">
        <ele>214.2</ele>
        <time>2025-12-14T11:04:27Z</time>
      </trkpt>
      <trkpt lat="43.09627" lon="1.05233">
        <ele>213.8</ele>
        <time>2025-12-14T11:04:30Z</time>
      </trkpt>
      <trkpt lat="43.0963" lon="1.05235">
        <ele>213.4</ele>
        <time>2025-12-14T11:04:31Z</time>
      </trkpt>
      <trkpt lat="43.09632" lon="1.05237">
        <ele>212.8</ele>
        <time>2025-12-14T11:04:32Z</time>
      </trkpt>
      <trkpt lat="43.09634" lon="1.05239">
        <ele>212.4</ele>
        <time>2025-12-14T11:04:33Z</time>
      </trkpt>
      <trkpt lat="43.09636" lon="1.0524">
        <ele>212</ele>
        <time>2025-12-14T11:04:34Z</time>
      </trkpt>
      <trkpt lat="43.09647" lon="1.05247">
        <ele>211.6</ele>
        <time>2025-12-14T11:04:38Z</time>
      </trkpt>
      <trkpt lat="43.0965" lon="1.05252">
        <ele>211.2</ele>
        <time>2025-12-14T11:04:39Z</time>
      </trkpt>
      <trkpt lat="43.09653" lon="1.05258">
        <ele>210.8</ele>
        <time>2025-12-14T11:04:40Z</time>
      </trkpt>
      <trkpt lat="43.09657" lon="1.05265">
        <ele>210.2</ele>
        <time>2025-12-14T11:04:41Z</time>
      </trkpt>
      <trkpt lat="43.09659" lon="1.05272">
        <ele>209.8</ele>
        <time>2025-12-14T11:04:42Z</time>
      </trkpt>
      <trkpt lat="43.09661" lon="1.05278">
        <ele>209.8</ele>
        <time>2025-12-14T11:04:43Z</time>
      </trkpt>
      <trkpt lat="43.09667" lon="1.05295">
        <ele>209.8</ele>
        <time>2025-12-14T11:04:46Z</time>
      </trkpt>
      <trkpt lat="43.09672" lon="1.05317">
        <ele>209.8</ele>
        <time>2025-12-14T11:04:50Z</time>
      </trkpt>
      <trkpt lat="43.09674" lon="1.05323">
        <ele>209.4</ele>
        <time>2025-12-14T11:04:51Z</time>
      </trkpt>
      <trkpt lat="43.09675" lon="1.05328">
        <ele>209</ele>
        <time>2025-12-14T11:04:52Z</time>
      </trkpt>
      <trkpt lat="43.09676" lon="1.05333">
        <ele>208.6</ele>
        <time>2025-12-14T11:04:53Z</time>
      </trkpt>
      <trkpt lat="43.09678" lon="1.05336">
        <ele>208.2</ele>
        <time>2025-12-14T11:04:54Z</time>
      </trkpt>
      <trkpt lat="43.09679" lon="1.05338">
        <ele>207.8</ele>
        <time>2025-12-14T11:04:55Z</time>
      </trkpt>
      <trkpt lat="43.09688" lon="1.0535">
        <ele>207.8</ele>
        <time>2025-12-14T11:05:00Z</time>
      </trkpt>
      <trkpt lat="43.0969" lon="1.05352">
        <ele>207.8</ele>
        <time>2025-12-14T11:05:01Z</time>
      </trkpt>
      <trkpt lat="43.09698" lon="1.05367">
        <ele>207.8</ele>
        <time>2025-12-14T11:05:06Z</time>
      </trkpt>
      <trkpt lat="43.0971" lon="1.0538">
        <ele>207.8</ele>
        <time>2025-12-14T11:05:11Z</time>
      </trkpt>
      <trkpt lat="43.09731" lon="1.05405">
        <ele>207.8</ele>
        <time>2025-12-14T11:05:17Z</time>
      </trkpt>
      <trkpt lat="43.09741" lon="1.05423">
        <ele>207.8</ele>
        <time>2025-12-14T11:05:22Z</time>
      </trkpt>
      <trkpt lat="43.09756" lon="1.05444">
        <ele>207.8</ele>
        <time>2025-12-14T11:05:29Z</time>
      </trkpt>
      <trkpt lat="43.09766" lon="1.05466">
        <ele>207.8</ele>
        <time>2025-12-14T11:05:35Z</time>
      </trkpt>
      <trkpt lat="43.09775" lon="1.05485">
        <ele>207.8</ele>
        <time>2025-12-14T11:05:40Z</time>
      </trkpt>
      <trkpt lat="43.09779" lon="1.05493">
        <ele>207.8</ele>
        <time>2025-12-14T11:05:43Z</time>
      </trkpt>
      <trkpt lat="43.09779" lon="1.05497">
        <ele>207.8</ele>
        <time>2025-12-14T11:05:45Z</time>
      </trkpt>
      <trkpt lat="43.09784" lon="1.05518">
        <ele>207.8</ele>
        <time>2025-12-14T11:05:51Z</time>
      </trkpt>
      <trkpt lat="43.09791" lon="1.05543">
        <ele>207.8</ele>
        <time>2025-12-14T11:05:56Z</time>
      </trkpt>
      <trkpt lat="43.09794" lon="1.05556">
        <ele>208.2</ele>
        <time>2025-12-14T11:05:59Z</time>
      </trkpt>
      <trkpt lat="43.09795" lon="1.0556">
        <ele>208.6</ele>
        <time>2025-12-14T11:06:00Z</time>
      </trkpt>
      <trkpt lat="43.09796" lon="1.05563">
        <ele>209</ele>
        <time>2025-12-14T11:06:01Z</time>
      </trkpt>
      <trkpt lat="43.09796" lon="1.05568">
        <ele>209.4</ele>
        <time>2025-12-14T11:06:02Z</time>
      </trkpt>
      <trkpt lat="43.09797" lon="1.05573">
        <ele>209.8</ele>
        <time>2025-12-14T11:06:03Z</time>
      </trkpt>
      <trkpt lat="43.098" lon="1.05585">
        <ele>209.8</ele>
        <time>2025-12-14T11:06:06Z</time>
      </trkpt>
      <trkpt lat="43.09807" lon="1.05614">
        <ele>209.8</ele>
        <time>2025-12-14T11:06:11Z</time>
      </trkpt>
      <trkpt lat="43.09809" lon="1.05619">
        <ele>210.2</ele>
        <time>2025-12-14T11:06:12Z</time>
      </trkpt>
      <trkpt lat="43.0981" lon="1.05625">
        <ele>210.6</ele>
        <time>2025-12-14T11:06:13Z</time>
      </trkpt>
      <trkpt lat="43.0981" lon="1.05633">
        <ele>211.6</ele>
        <time>2025-12-14T11:06:14Z</time>
      </trkpt>
      <trkpt lat="43.0981" lon="1.05637">
        <ele>212</ele>
        <time>2025-12-14T11:06:15Z</time>
      </trkpt>
      <trkpt lat="43.09812" lon="1.05644">
        <ele>212</ele>
        <time>2025-12-14T11:06:17Z</time>
      </trkpt>
      <trkpt lat="43.09814" lon="1.05665">
        <ele>212</ele>
        <time>2025-12-14T11:06:22Z</time>
      </trkpt>
      <trkpt lat="43.09819" lon="1.05694">
        <ele>212</ele>
        <time>2025-12-14T11:06:28Z</time>
      </trkpt>
      <trkpt lat="43.0982" lon="1.05706">
        <ele>212.4</ele>
        <time>2025-12-14T11:06:30Z</time>
      </trkpt>
      <trkpt lat="43.09819" lon="1.05708">
        <ele>212.8</ele>
        <time>2025-12-14T11:06:31Z</time>
      </trkpt>
      <trkpt lat="43.09818" lon="1.05715">
        <ele>213.2</ele>
        <time>2025-12-14T11:06:32Z</time>
      </trkpt>
      <trkpt lat="43.09818" lon="1.05721">
        <ele>213.6</ele>
        <time>2025-12-14T11:06:33Z</time>
      </trkpt>
      <trkpt lat="43.09818" lon="1.05727">
        <ele>214</ele>
        <time>2025-12-14T11:06:34Z</time>
      </trkpt>
      <trkpt lat="43.09819" lon="1.05756">
        <ele>214</ele>
        <time>2025-12-14T11:06:40Z</time>
      </trkpt>
      <trkpt lat="43.09818" lon="1.05761">
        <ele>214.4</ele>
        <time>2025-12-14T11:06:41Z</time>
      </trkpt>
      <trkpt lat="43.09818" lon="1.05765">
        <ele>214.8</ele>
        <time>2025-12-14T11:06:42Z</time>
      </trkpt>
      <trkpt lat="43.09817" lon="1.0577">
        <ele>215.2</ele>
        <time>2025-12-14T11:06:43Z</time>
      </trkpt>
      <trkpt lat="43.09816" lon="1.05774">
        <ele>215.8</ele>
        <time>2025-12-14T11:06:44Z</time>
      </trkpt>
      <trkpt lat="43.09816" lon="1.05777">
        <ele>216.2</ele>
        <time>2025-12-14T11:06:45Z</time>
      </trkpt>
      <trkpt lat="43.09815" lon="1.0578">
        <ele>216.2</ele>
        <time>2025-12-14T11:06:46Z</time>
      </trkpt>
      <trkpt lat="43.09818" lon="1.05808">
        <ele>216.2</ele>
        <time>2025-12-14T11:06:52Z</time>
      </trkpt>
      <trkpt lat="43.09817" lon="1.05834">
        <ele>216.6</ele>
        <time>2025-12-14T11:06:58Z</time>
      </trkpt>
      <trkpt lat="43.09819" lon="1.05839">
        <ele>217</ele>
        <time>2025-12-14T11:06:59Z</time>
      </trkpt>
      <trkpt lat="43.09822" lon="1.05845">
        <ele>217.4</ele>
        <time>2025-12-14T11:07:00Z</time>
      </trkpt>
      <trkpt lat="43.09826" lon="1.05851">
        <ele>217.8</ele>
        <time>2025-12-14T11:07:01Z</time>
      </trkpt>
      <trkpt lat="43.09828" lon="1.05855">
        <ele>218.2</ele>
        <time>2025-12-14T11:07:02Z</time>
      </trkpt>
      <trkpt lat="43.09829" lon="1.05859">
        <ele>218.2</ele>
        <time>2025-12-14T11:07:03Z</time>
      </trkpt>
      <trkpt lat="43.09839" lon="1.05885">
        <ele>218.6</ele>
        <time>2025-12-14T11:07:09Z</time>
      </trkpt>
      <trkpt lat="43.0984" lon="1.05889">
        <ele>219</ele>
        <time>2025-12-14T11:07:10Z</time>
      </trkpt>
      <trkpt lat="43.09841" lon="1.05894">
        <ele>219.6</ele>
        <time>2025-12-14T11:07:11Z</time>
      </trkpt>
      <trkpt lat="43.09842" lon="1.05897">
        <ele>220</ele>
        <time>2025-12-14T11:07:12Z</time>
      </trkpt>
      <trkpt lat="43.09842" lon="1.05901">
        <ele>220.4</ele>
        <time>2025-12-14T11:07:13Z</time>
      </trkpt>
      <trkpt lat="43.09843" lon="1.05916">
        <ele>220.4</ele>
        <time>2025-12-14T11:07:16Z</time>
      </trkpt>
      <trkpt lat="43.09848" lon="1.05931">
        <ele>220.8</ele>
        <time>2025-12-14T11:07:19Z</time>
      </trkpt>
      <trkpt lat="43.09849" lon="1.05934">
        <ele>221.2</ele>
        <time>2025-12-14T11:07:20Z</time>
      </trkpt>
      <trkpt lat="43.09851" lon="1.05939">
        <ele>221.6</ele>
        <time>2025-12-14T11:07:21Z</time>
      </trkpt>
      <trkpt lat="43.09853" lon="1.05945">
        <ele>222</ele>
        <time>2025-12-14T11:07:22Z</time>
      </trkpt>
      <trkpt lat="43.09853" lon="1.05951">
        <ele>222.6</ele>
        <time>2025-12-14T11:07:23Z</time>
      </trkpt>
      <trkpt lat="43.09855" lon="1.05972">
        <ele>222.6</ele>
        <time>2025-12-14T11:07:27Z</time>
      </trkpt>
      <trkpt lat="43.09859" lon="1.05997">
        <ele>222.6</ele>
        <time>2025-12-14T11:07:31Z</time>
      </trkpt>
      <trkpt lat="43.09862" lon="1.06016">
        <ele>223</ele>
        <time>2025-12-14T11:07:35Z</time>
      </trkpt>
      <trkpt lat="43.09862" lon="1.06019">
        <ele>223.4</ele>
        <time>2025-12-14T11:07:36Z</time>
      </trkpt>
      <trkpt lat="43.09862" lon="1.06021">
        <ele>223.8</ele>
        <time>2025-12-14T11:07:37Z</time>
      </trkpt>
      <trkpt lat="43.09861" lon="1.06026">
        <ele>224.2</ele>
        <time>2025-12-14T11:07:38Z</time>
      </trkpt>
      <trkpt lat="43.09861" lon="1.0603">
        <ele>224.6</ele>
        <time>2025-12-14T11:07:39Z</time>
      </trkpt>
      <trkpt lat="43.09862" lon="1.06046">
        <ele>224.6</ele>
        <time>2025-12-14T11:07:42Z</time>
      </trkpt>
      <trkpt lat="43.09866" lon="1.06071">
        <ele>224.2</ele>
        <time>2025-12-14T11:07:46Z</time>
      </trkpt>
      <trkpt lat="43.09867" lon="1.06077">
        <ele>223.8</ele>
        <time>2025-12-14T11:07:47Z</time>
      </trkpt>
      <trkpt lat="43.09868" lon="1.06083">
        <ele>223.4</ele>
        <time>2025-12-14T11:07:48Z</time>
      </trkpt>
      <trkpt lat="43.0987" lon="1.06089">
        <ele>222.8</ele>
        <time>2025-12-14T11:07:49Z</time>
      </trkpt>
      <trkpt lat="43.09871" lon="1.06096">
        <ele>222.4</ele>
        <time>2025-12-14T11:07:50Z</time>
      </trkpt>
      <trkpt lat="43.09873" lon="1.06107">
        <ele>222.4</ele>
        <time>2025-12-14T11:07:52Z</time>
      </trkpt>
      <trkpt lat="43.09874" lon="1.0612">
        <ele>222</ele>
        <time>2025-12-14T11:07:54Z</time>
      </trkpt>
      <trkpt lat="43.09874" lon="1.06128">
        <ele>221.6</ele>
        <time>2025-12-14T11:07:55Z</time>
      </trkpt>
      <trkpt lat="43.09874" lon="1.06135">
        <ele>221.2</ele>
        <time>2025-12-14T11:07:56Z</time>
      </trkpt>
      <trkpt lat="43.09874" lon="1.06141">
        <ele>220.8</ele>
        <time>2025-12-14T11:07:57Z</time>
      </trkpt>
      <trkpt lat="43.09874" lon="1.06147">
        <ele>220.4</ele>
        <time>2025-12-14T11:07:58Z</time>
      </trkpt>
      <trkpt lat="43.09874" lon="1.06163">
        <ele>220.4</ele>
        <time>2025-12-14T11:08:01Z</time>
      </trkpt>
      <trkpt lat="43.09876" lon="1.06174">
        <ele>220.4</ele>
        <time>2025-12-14T11:08:04Z</time>
      </trkpt>
      <trkpt lat="43.09876" lon="1.06176">
        <ele>220.4</ele>
        <time>2025-12-14T11:08:05Z</time>
      </trkpt>
      <trkpt lat="43.09878" lon="1.06175">
        <ele>218.4</ele>
        <time>2025-12-14T11:08:52Z</time>
      </trkpt>
      <trkpt lat="43.09882" lon="1.06175">
        <ele>218</ele>
        <time>2025-12-14T11:08:56Z</time>
      </trkpt>
      <trkpt lat="43.09884" lon="1.06177">
        <ele>217.6</ele>
        <time>2025-12-14T11:08:57Z</time>
      </trkpt>
      <trkpt lat="43.09887" lon="1.0618">
        <ele>217</ele>
        <time>2025-12-14T11:08:58Z</time>
      </trkpt>
      <trkpt lat="43.09889" lon="1.06183">
        <ele>216.6</ele>
        <time>2025-12-14T11:08:59Z</time>
      </trkpt>
      <trkpt lat="43.09891" lon="1.06186">
        <ele>216.2</ele>
        <time>2025-12-14T11:09:00Z</time>
      </trkpt>
      <trkpt lat="43.09893" lon="1.06189">
        <ele>215.8</ele>
        <time>2025-12-14T11:09:01Z</time>
      </trkpt>
      <trkpt lat="43.09896" lon="1.06194">
        <ele>215.2</ele>
        <time>2025-12-14T11:09:02Z</time>
      </trkpt>
      <trkpt lat="43.09898" lon="1.06196">
        <ele>214.8</ele>
        <time>2025-12-14T11:09:03Z</time>
      </trkpt>
      <trkpt lat="43.099" lon="1.06199">
        <ele>214.4</ele>
        <time>2025-12-14T11:09:04Z</time>
      </trkpt>
      <trkpt lat="43.09902" lon="1.06203">
        <ele>214</ele>
        <time>2025-12-14T11:09:05Z</time>
      </trkpt>
      <trkpt lat="43.09905" lon="1.06212">
        <ele>213</ele>
        <time>2025-12-14T11:09:07Z</time>
      </trkpt>
      <trkpt lat="43.09906" lon="1.06215">
        <ele>212.6</ele>
        <time>2025-12-14T11:09:08Z</time>
      </trkpt>
      <trkpt lat="43.09907" lon="1.06218">
        <ele>212</ele>
        <time>2025-12-14T11:09:09Z</time>
      </trkpt>
      <trkpt lat="43.09909" lon="1.06222">
        <ele>211.6</ele>
        <time>2025-12-14T11:09:10Z</time>
      </trkpt>
      <trkpt lat="43.09913" lon="1.06229">
        <ele>211.2</ele>
        <time>2025-12-14T11:09:12Z</time>
      </trkpt>
      <trkpt lat="43.09916" lon="1.06233">
        <ele>210.6</ele>
        <time>2025-12-14T11:09:13Z</time>
      </trkpt>
      <trkpt lat="43.09919" lon="1.06237">
        <ele>210.2</ele>
        <time>2025-12-14T11:09:14Z</time>
      </trkpt>
      <trkpt lat="43.09923" lon="1.06239">
        <ele>209.6</ele>
        <time>2025-12-14T11:09:15Z</time>
      </trkpt>
      <trkpt lat="43.09926" lon="1.06241">
        <ele>209.2</ele>
        <time>2025-12-14T11:09:16Z</time>
      </trkpt>
      <trkpt lat="43.09937" lon="1.06248">
        <ele>208.8</ele>
        <time>2025-12-14T11:09:20Z</time>
      </trkpt>
      <trkpt lat="43.09939" lon="1.0625">
        <ele>208.4</ele>
        <time>2025-12-14T11:09:21Z</time>
      </trkpt>
      <trkpt lat="43.09944" lon="1.06264">
        <ele>208</ele>
        <time>2025-12-14T11:09:22Z</time>
      </trkpt>
      <trkpt lat="43.09949" lon="1.06269">
        <ele>207.6</ele>
        <time>2025-12-14T11:09:23Z</time>
      </trkpt>
      <trkpt lat="43.09953" lon="1.06271">
        <ele>207.2</ele>
        <time>2025-12-14T11:09:24Z</time>
      </trkpt>
      <trkpt lat="43.0996" lon="1.06272">
        <ele>207.2</ele>
        <time>2025-12-14T11:09:26Z</time>
      </trkpt>
      <trkpt lat="43.09983" lon="1.06279">
        <ele>207.2</ele>
        <time>2025-12-14T11:09:33Z</time>
      </trkpt>
      <trkpt lat="43.09994" lon="1.06274">
        <ele>207.2</ele>
        <time>2025-12-14T11:09:38Z</time>
      </trkpt>
      <trkpt lat="43.10001" lon="1.06267">
        <ele>207.6</ele>
        <time>2025-12-14T11:09:41Z</time>
      </trkpt>
      <trkpt lat="43.10004" lon="1.06265">
        <ele>208</ele>
        <time>2025-12-14T11:09:42Z</time>
      </trkpt>
      <trkpt lat="43.10007" lon="1.06262">
        <ele>208.4</ele>
        <time>2025-12-14T11:09:43Z</time>
      </trkpt>
      <trkpt lat="43.10009" lon="1.0626">
        <ele>208.8</ele>
        <time>2025-12-14T11:09:44Z</time>
      </trkpt>
      <trkpt lat="43.10012" lon="1.06258">
        <ele>209.2</ele>
        <time>2025-12-14T11:09:45Z</time>
      </trkpt>
      <trkpt lat="43.10031" lon="1.06243">
        <ele>209.2</ele>
        <time>2025-12-14T11:09:52Z</time>
      </trkpt>
      <trkpt lat="43.10049" lon="1.0623">
        <ele>209.2</ele>
        <time>2025-12-14T11:09:59Z</time>
      </trkpt>
      <trkpt lat="43.10074" lon="1.06219">
        <ele>209.2</ele>
        <time>2025-12-14T11:10:08Z</time>
      </trkpt>
      <trkpt lat="43.10088" lon="1.06214">
        <ele>209.2</ele>
        <time>2025-12-14T11:10:13Z</time>
      </trkpt>
      <trkpt lat="43.10108" lon="1.06211">
        <ele>209.2</ele>
        <time>2025-12-14T11:10:19Z</time>
      </trkpt>
      <trkpt lat="43.10132" lon="1.06212">
        <ele>209.2</ele>
        <time>2025-12-14T11:10:25Z</time>
      </trkpt>
      <trkpt lat="43.10153" lon="1.06215">
        <ele>209.6</ele>
        <time>2025-12-14T11:10:30Z</time>
      </trkpt>
      <trkpt lat="43.10157" lon="1.06216">
        <ele>210</ele>
        <time>2025-12-14T11:10:31Z</time>
      </trkpt>
      <trkpt lat="43.10161" lon="1.06217">
        <ele>210.4</ele>
        <time>2025-12-14T11:10:32Z</time>
      </trkpt>
      <trkpt lat="43.10165" lon="1.06218">
        <ele>210.8</ele>
        <time>2025-12-14T11:10:33Z</time>
      </trkpt>
      <trkpt lat="43.1017" lon="1.06219">
        <ele>211.2</ele>
        <time>2025-12-14T11:10:34Z</time>
      </trkpt>
      <trkpt lat="43.10203" lon="1.06228">
        <ele>211.2</ele>
        <time>2025-12-14T11:10:42Z</time>
      </trkpt>
      <trkpt lat="43.10219" lon="1.06231">
        <ele>211.6</ele>
        <time>2025-12-14T11:10:46Z</time>
      </trkpt>
      <trkpt lat="43.10224" lon="1.06232">
        <ele>212</ele>
        <time>2025-12-14T11:10:47Z</time>
      </trkpt>
      <trkpt lat="43.10228" lon="1.06233">
        <ele>212.4</ele>
        <time>2025-12-14T11:10:48Z</time>
      </trkpt>
      <trkpt lat="43.10232" lon="1.06233">
        <ele>212.8</ele>
        <time>2025-12-14T11:10:49Z</time>
      </trkpt>
      <trkpt lat="43.10237" lon="1.06233">
        <ele>213.2</ele>
        <time>2025-12-14T11:10:50Z</time>
      </trkpt>
      <trkpt lat="43.10241" lon="1.06234">
        <ele>213.2</ele>
        <time>2025-12-14T11:10:51Z</time>
      </trkpt>
      <trkpt lat="43.10281" lon="1.06235">
        <ele>213.2</ele>
        <time>2025-12-14T11:11:00Z</time>
      </trkpt>
      <trkpt lat="43.10315" lon="1.06235">
        <ele>213.2</ele>
        <time>2025-12-14T11:11:08Z</time>
      </trkpt>
      <trkpt lat="43.10319" lon="1.06234">
        <ele>213.2</ele>
        <time>2025-12-14T11:11:09Z</time>
      </trkpt>
      <trkpt lat="43.10342" lon="1.06234">
        <ele>213.2</ele>
        <time>2025-12-14T11:11:14Z</time>
      </trkpt>
      <trkpt lat="43.10346" lon="1.06233">
        <ele>213.2</ele>
        <time>2025-12-14T11:11:15Z</time>
      </trkpt>
      <trkpt lat="43.10369" lon="1.06229">
        <ele>213.2</ele>
        <time>2025-12-14T11:11:20Z</time>
      </trkpt>
      <trkpt lat="43.10405" lon="1.06229">
        <ele>213.2</ele>
        <time>2025-12-14T11:11:28Z</time>
      </trkpt>
      <trkpt lat="43.10434" lon="1.06238">
        <ele>213.2</ele>
        <time>2025-12-14T11:11:35Z</time>
      </trkpt>
      <trkpt lat="43.10454" lon="1.06257">
        <ele>213.2</ele>
        <time>2025-12-14T11:11:41Z</time>
      </trkpt>
      <trkpt lat="43.10464" lon="1.06268">
        <ele>213.2</ele>
        <time>2025-12-14T11:11:44Z</time>
      </trkpt>
      <trkpt lat="43.10476" lon="1.06277">
        <ele>213.2</ele>
        <time>2025-12-14T11:11:47Z</time>
      </trkpt>
      <trkpt lat="43.10515" lon="1.063">
        <ele>213.2</ele>
        <time>2025-12-14T11:11:55Z</time>
      </trkpt>
      <trkpt lat="43.10544" lon="1.06317">
        <ele>213.2</ele>
        <time>2025-12-14T11:12:01Z</time>
      </trkpt>
      <trkpt lat="43.10567" lon="1.06333">
        <ele>213.2</ele>
        <time>2025-12-14T11:12:07Z</time>
      </trkpt>
      <trkpt lat="43.10579" lon="1.06353">
        <ele>213.2</ele>
        <time>2025-12-14T11:12:12Z</time>
      </trkpt>
      <trkpt lat="43.10586" lon="1.06387">
        <ele>213.2</ele>
        <time>2025-12-14T11:12:19Z</time>
      </trkpt>
      <trkpt lat="43.10588" lon="1.06397">
        <ele>213.6</ele>
        <time>2025-12-14T11:12:21Z</time>
      </trkpt>
      <trkpt lat="43.10589" lon="1.06402">
        <ele>214</ele>
        <time>2025-12-14T11:12:22Z</time>
      </trkpt>
      <trkpt lat="43.1059" lon="1.06407">
        <ele>214.4</ele>
        <time>2025-12-14T11:12:23Z</time>
      </trkpt>
      <trkpt lat="43.10591" lon="1.06412">
        <ele>215.2</ele>
        <time>2025-12-14T11:12:24Z</time>
      </trkpt>
      <trkpt lat="43.10594" lon="1.06426">
        <ele>215.2</ele>
        <time>2025-12-14T11:12:27Z</time>
      </trkpt>
      <trkpt lat="43.10602" lon="1.06454">
        <ele>215.2</ele>
        <time>2025-12-14T11:12:33Z</time>
      </trkpt>
      <trkpt lat="43.10621" lon="1.06477">
        <ele>215.2</ele>
        <time>2025-12-14T11:12:40Z</time>
      </trkpt>
      <trkpt lat="43.10642" lon="1.06485">
        <ele>215.8</ele>
        <time>2025-12-14T11:12:46Z</time>
      </trkpt>
      <trkpt lat="43.10645" lon="1.06486">
        <ele>216.2</ele>
        <time>2025-12-14T11:12:47Z</time>
      </trkpt>
      <trkpt lat="43.10649" lon="1.06487">
        <ele>216.6</ele>
        <time>2025-12-14T11:12:48Z</time>
      </trkpt>
      <trkpt lat="43.10653" lon="1.06488">
        <ele>217.4</ele>
        <time>2025-12-14T11:12:49Z</time>
      </trkpt>
      <trkpt lat="43.10668" lon="1.06489">
        <ele>217.4</ele>
        <time>2025-12-14T11:12:53Z</time>
      </trkpt>
      <trkpt lat="43.10703" lon="1.06492">
        <ele>217.4</ele>
        <time>2025-12-14T11:13:02Z</time>
      </trkpt>
      <trkpt lat="43.1073" lon="1.06485">
        <ele>217.4</ele>
        <time>2025-12-14T11:13:09Z</time>
      </trkpt>
      <trkpt lat="43.10745" lon="1.06479">
        <ele>217.8</ele>
        <time>2025-12-14T11:13:13Z</time>
      </trkpt>
      <trkpt lat="43.10749" lon="1.06478">
        <ele>218.6</ele>
        <time>2025-12-14T11:13:14Z</time>
      </trkpt>
      <trkpt lat="43.10753" lon="1.06476">
        <ele>219</ele>
        <time>2025-12-14T11:13:15Z</time>
      </trkpt>
      <trkpt lat="43.10757" lon="1.06474">
        <ele>219.4</ele>
        <time>2025-12-14T11:13:16Z</time>
      </trkpt>
      <trkpt lat="43.10761" lon="1.06472">
        <ele>219.4</ele>
        <time>2025-12-14T11:13:17Z</time>
      </trkpt>
      <trkpt lat="43.10788" lon="1.06467">
        <ele>219.4</ele>
        <time>2025-12-14T11:13:24Z</time>
      </trkpt>
      <trkpt lat="43.10814" lon="1.06473">
        <ele>219.4</ele>
        <time>2025-12-14T11:13:30Z</time>
      </trkpt>
      <trkpt lat="43.1083" lon="1.0648">
        <ele>219.8</ele>
        <time>2025-12-14T11:13:34Z</time>
      </trkpt>
      <trkpt lat="43.10834" lon="1.06482">
        <ele>220.2</ele>
        <time>2025-12-14T11:13:35Z</time>
      </trkpt>
      <trkpt lat="43.10837" lon="1.06483">
        <ele>220.6</ele>
        <time>2025-12-14T11:13:36Z</time>
      </trkpt>
      <trkpt lat="43.10841" lon="1.06485">
        <ele>221</ele>
        <time>2025-12-14T11:13:37Z</time>
      </trkpt>
      <trkpt lat="43.10845" lon="1.06487">
        <ele>221.4</ele>
        <time>2025-12-14T11:13:38Z</time>
      </trkpt>
      <trkpt lat="43.10849" lon="1.06488">
        <ele>221.4</ele>
        <time>2025-12-14T11:13:39Z</time>
      </trkpt>
      <trkpt lat="43.10877" lon="1.06497">
        <ele>221.4</ele>
        <time>2025-12-14T11:13:46Z</time>
      </trkpt>
      <trkpt lat="43.10881" lon="1.06497">
        <ele>221.4</ele>
        <time>2025-12-14T11:13:47Z</time>
      </trkpt>
      <trkpt lat="43.10899" lon="1.06493">
        <ele>221.4</ele>
        <time>2025-12-14T11:13:51Z</time>
      </trkpt>
      <trkpt lat="43.10912" lon="1.06487">
        <ele>221.4</ele>
        <time>2025-12-14T11:13:54Z</time>
      </trkpt>
      <trkpt lat="43.10949" lon="1.06467">
        <ele>221.4</ele>
        <time>2025-12-14T11:14:03Z</time>
      </trkpt>
      <trkpt lat="43.10953" lon="1.06466">
        <ele>221.4</ele>
        <time>2025-12-14T11:14:04Z</time>
      </trkpt>
      <trkpt lat="43.10973" lon="1.06457">
        <ele>221.4</ele>
        <time>2025-12-14T11:14:09Z</time>
      </trkpt>
      <trkpt lat="43.10997" lon="1.06451">
        <ele>221.8</ele>
        <time>2025-12-14T11:14:15Z</time>
      </trkpt>
      <trkpt lat="43.11001" lon="1.0645">
        <ele>222.2</ele>
        <time>2025-12-14T11:14:16Z</time>
      </trkpt>
      <trkpt lat="43.11005" lon="1.0645">
        <ele>222.6</ele>
        <time>2025-12-14T11:14:17Z</time>
      </trkpt>
      <trkpt lat="43.11009" lon="1.0645">
        <ele>223</ele>
        <time>2025-12-14T11:14:18Z</time>
      </trkpt>
      <trkpt lat="43.11013" lon="1.06449">
        <ele>223.4</ele>
        <time>2025-12-14T11:14:19Z</time>
      </trkpt>
      <trkpt lat="43.11031" lon="1.06448">
        <ele>223.4</ele>
        <time>2025-12-14T11:14:24Z</time>
      </trkpt>
      <trkpt lat="43.11054" lon="1.06446">
        <ele>223.8</ele>
        <time>2025-12-14T11:14:30Z</time>
      </trkpt>
      <trkpt lat="43.11057" lon="1.06445">
        <ele>224.2</ele>
        <time>2025-12-14T11:14:31Z</time>
      </trkpt>
      <trkpt lat="43.11061" lon="1.06445">
        <ele>224.6</ele>
        <time>2025-12-14T11:14:32Z</time>
      </trkpt>
      <trkpt lat="43.11065" lon="1.06444">
        <ele>225</ele>
        <time>2025-12-14T11:14:33Z</time>
      </trkpt>
      <trkpt lat="43.11069" lon="1.06443">
        <ele>225.6</ele>
        <time>2025-12-14T11:14:34Z</time>
      </trkpt>
      <trkpt lat="43.11081" lon="1.06439">
        <ele>225.6</ele>
        <time>2025-12-14T11:14:37Z</time>
      </trkpt>
      <trkpt lat="43.11113" lon="1.06426">
        <ele>225.6</ele>
        <time>2025-12-14T11:14:45Z</time>
      </trkpt>
      <trkpt lat="43.11117" lon="1.06426">
        <ele>225.6</ele>
        <time>2025-12-14T11:14:46Z</time>
      </trkpt>
      <trkpt lat="43.11126" lon="1.06425">
        <ele>225.6</ele>
        <time>2025-12-14T11:14:48Z</time>
      </trkpt>
      <trkpt lat="43.11139" lon="1.06428">
        <ele>225.6</ele>
        <time>2025-12-14T11:14:51Z</time>
      </trkpt>
      <trkpt lat="43.11143" lon="1.0643">
        <ele>225.6</ele>
        <time>2025-12-14T11:14:52Z</time>
      </trkpt>
      <trkpt lat="43.11177" lon="1.06446">
        <ele>225.6</ele>
        <time>2025-12-14T11:15:00Z</time>
      </trkpt>
      <trkpt lat="43.11203" lon="1.06455">
        <ele>225.6</ele>
        <time>2025-12-14T11:15:06Z</time>
      </trkpt>
      <trkpt lat="43.1124" lon="1.06461">
        <ele>225.6</ele>
        <time>2025-12-14T11:15:14Z</time>
      </trkpt>
      <trkpt lat="43.11268" lon="1.0646">
        <ele>225.6</ele>
        <time>2025-12-14T11:15:20Z</time>
      </trkpt>
      <trkpt lat="43.11304" lon="1.06457">
        <ele>226</ele>
        <time>2025-12-14T11:15:28Z</time>
      </trkpt>
      <trkpt lat="43.11309" lon="1.06457">
        <ele>226.4</ele>
        <time>2025-12-14T11:15:29Z</time>
      </trkpt>
      <trkpt lat="43.11313" lon="1.06457">
        <ele>226.8</ele>
        <time>2025-12-14T11:15:30Z</time>
      </trkpt>
      <trkpt lat="43.11317" lon="1.06456">
        <ele>227.2</ele>
        <time>2025-12-14T11:15:31Z</time>
      </trkpt>
      <trkpt lat="43.11321" lon="1.06457">
        <ele>227.6</ele>
        <time>2025-12-14T11:15:32Z</time>
      </trkpt>
      <trkpt lat="43.11341" lon="1.06458">
        <ele>227.6</ele>
        <time>2025-12-14T11:15:37Z</time>
      </trkpt>
      <trkpt lat="43.11359" lon="1.06464">
        <ele>228</ele>
        <time>2025-12-14T11:15:42Z</time>
      </trkpt>
      <trkpt lat="43.11363" lon="1.06465">
        <ele>228.4</ele>
        <time>2025-12-14T11:15:43Z</time>
      </trkpt>
      <trkpt lat="43.11367" lon="1.06466">
        <ele>228.8</ele>
        <time>2025-12-14T11:15:44Z</time>
      </trkpt>
      <trkpt lat="43.11371" lon="1.06468">
        <ele>229.2</ele>
        <time>2025-12-14T11:15:45Z</time>
      </trkpt>
      <trkpt lat="43.11374" lon="1.06469">
        <ele>229.6</ele>
        <time>2025-12-14T11:15:46Z</time>
      </trkpt>
      <trkpt lat="43.11396" lon="1.06479">
        <ele>229.6</ele>
        <time>2025-12-14T11:15:52Z</time>
      </trkpt>
      <trkpt lat="43.11403" lon="1.06482">
        <ele>230</ele>
        <time>2025-12-14T11:15:54Z</time>
      </trkpt>
      <trkpt lat="43.11406" lon="1.06483">
        <ele>230.4</ele>
        <time>2025-12-14T11:15:55Z</time>
      </trkpt>
      <trkpt lat="43.11409" lon="1.06484">
        <ele>230.8</ele>
        <time>2025-12-14T11:15:56Z</time>
      </trkpt>
      <trkpt lat="43.11413" lon="1.06486">
        <ele>231.2</ele>
        <time>2025-12-14T11:15:57Z</time>
      </trkpt>
      <trkpt lat="43.11416" lon="1.06487">
        <ele>231.6</ele>
        <time>2025-12-14T11:15:58Z</time>
      </trkpt>
      <trkpt lat="43.11419" lon="1.06489">
        <ele>231.6</ele>
        <time>2025-12-14T11:15:59Z</time>
      </trkpt>
      <trkpt lat="43.11449" lon="1.06502">
        <ele>232.6</ele>
        <time>2025-12-14T11:16:07Z</time>
      </trkpt>
      <trkpt lat="43.11452" lon="1.06504">
        <ele>233</ele>
        <time>2025-12-14T11:16:08Z</time>
      </trkpt>
      <trkpt lat="43.11456" lon="1.06505">
        <ele>233.4</ele>
        <time>2025-12-14T11:16:09Z</time>
      </trkpt>
      <trkpt lat="43.1146" lon="1.06507">
        <ele>233.8</ele>
        <time>2025-12-14T11:16:10Z</time>
      </trkpt>
      <trkpt lat="43.11476" lon="1.06512">
        <ele>233.8</ele>
        <time>2025-12-14T11:16:15Z</time>
      </trkpt>
      <trkpt lat="43.11486" lon="1.0652">
        <ele>233.8</ele>
        <time>2025-12-14T11:16:19Z</time>
      </trkpt>
      <trkpt lat="43.11488" lon="1.06525">
        <ele>233.8</ele>
        <time>2025-12-14T11:16:20Z</time>
      </trkpt>
      <trkpt lat="43.11486" lon="1.06547">
        <ele>233.8</ele>
        <time>2025-12-14T11:16:23Z</time>
      </trkpt>
      <trkpt lat="43.11478" lon="1.06598">
        <ele>233.4</ele>
        <time>2025-12-14T11:16:30Z</time>
      </trkpt>
      <trkpt lat="43.11477" lon="1.06605">
        <ele>233</ele>
        <time>2025-12-14T11:16:31Z</time>
      </trkpt>
      <trkpt lat="43.11476" lon="1.06611">
        <ele>232.2</ele>
        <time>2025-12-14T11:16:32Z</time>
      </trkpt>
      <trkpt lat="43.11475" lon="1.06619">
        <ele>231.8</ele>
        <time>2025-12-14T11:16:33Z</time>
      </trkpt>
      <trkpt lat="43.11471" lon="1.06645">
        <ele>231.8</ele>
        <time>2025-12-14T11:16:37Z</time>
      </trkpt>
      <trkpt lat="43.11466" lon="1.06683">
        <ele>231.4</ele>
        <time>2025-12-14T11:16:43Z</time>
      </trkpt>
      <trkpt lat="43.11465" lon="1.06688">
        <ele>231</ele>
        <time>2025-12-14T11:16:44Z</time>
      </trkpt>
      <trkpt lat="43.11464" lon="1.06694">
        <ele>230.6</ele>
        <time>2025-12-14T11:16:45Z</time>
      </trkpt>
      <trkpt lat="43.11463" lon="1.067">
        <ele>230.2</ele>
        <time>2025-12-14T11:16:46Z</time>
      </trkpt>
      <trkpt lat="43.11461" lon="1.06705">
        <ele>229.8</ele>
        <time>2025-12-14T11:16:47Z</time>
      </trkpt>
      <trkpt lat="43.11456" lon="1.06713">
        <ele>229.8</ele>
        <time>2025-12-14T11:16:49Z</time>
      </trkpt>
      <trkpt lat="43.11454" lon="1.06717">
        <ele>229.8</ele>
        <time>2025-12-14T11:16:50Z</time>
      </trkpt>
      <trkpt lat="43.11445" lon="1.06729">
        <ele>229.8</ele>
        <time>2025-12-14T11:16:54Z</time>
      </trkpt>
      <trkpt lat="43.11431" lon="1.06749">
        <ele>229.8</ele>
        <time>2025-12-14T11:17:00Z</time>
      </trkpt>
      <trkpt lat="43.11417" lon="1.06775">
        <ele>229.8</ele>
        <time>2025-12-14T11:17:07Z</time>
      </trkpt>
      <trkpt lat="43.11405" lon="1.068">
        <ele>230.2</ele>
        <time>2025-12-14T11:17:13Z</time>
      </trkpt>
      <trkpt lat="43.11403" lon="1.06804">
        <ele>230.6</ele>
        <time>2025-12-14T11:17:14Z</time>
      </trkpt>
      <trkpt lat="43.11402" lon="1.06808">
        <ele>231</ele>
        <time>2025-12-14T11:17:15Z</time>
      </trkpt>
      <trkpt lat="43.114" lon="1.06811">
        <ele>231.4</ele>
        <time>2025-12-14T11:17:16Z</time>
      </trkpt>
      <trkpt lat="43.11398" lon="1.06815">
        <ele>232</ele>
        <time>2025-12-14T11:17:17Z</time>
      </trkpt>
      <trkpt lat="43.11391" lon="1.06829">
        <ele>232.8</ele>
        <time>2025-12-14T11:17:21Z</time>
      </trkpt>
      <trkpt lat="43.11389" lon="1.06831">
        <ele>233.6</ele>
        <time>2025-12-14T11:17:22Z</time>
      </trkpt>
      <trkpt lat="43.11388" lon="1.06835">
        <ele>234.4</ele>
        <time>2025-12-14T11:17:23Z</time>
      </trkpt>
      <trkpt lat="43.11386" lon="1.06838">
        <ele>235</ele>
        <time>2025-12-14T11:17:24Z</time>
      </trkpt>
      <trkpt lat="43.11384" lon="1.0684">
        <ele>235.8</ele>
        <time>2025-12-14T11:17:25Z</time>
      </trkpt>
      <trkpt lat="43.11382" lon="1.06843">
        <ele>236.4</ele>
        <time>2025-12-14T11:17:26Z</time>
      </trkpt>
      <trkpt lat="43.11376" lon="1.06849">
        <ele>236.4</ele>
        <time>2025-12-14T11:17:29Z</time>
      </trkpt>
      <trkpt lat="43.11371" lon="1.06852">
        <ele>237</ele>
        <time>2025-12-14T11:17:31Z</time>
      </trkpt>
      <trkpt lat="43.11369" lon="1.06854">
        <ele>237.4</ele>
        <time>2025-12-14T11:17:32Z</time>
      </trkpt>
      <trkpt lat="43.11366" lon="1.06855">
        <ele>237.8</ele>
        <time>2025-12-14T11:17:33Z</time>
      </trkpt>
      <trkpt lat="43.11364" lon="1.06856">
        <ele>238.2</ele>
        <time>2025-12-14T11:17:34Z</time>
      </trkpt>
      <trkpt lat="43.11362" lon="1.06858">
        <ele>238.6</ele>
        <time>2025-12-14T11:17:35Z</time>
      </trkpt>
      <trkpt lat="43.11356" lon="1.06864">
        <ele>239.2</ele>
        <time>2025-12-14T11:17:38Z</time>
      </trkpt>
      <trkpt lat="43.11355" lon="1.06866">
        <ele>239.6</ele>
        <time>2025-12-14T11:17:39Z</time>
      </trkpt>
      <trkpt lat="43.11353" lon="1.06869">
        <ele>240</ele>
        <time>2025-12-14T11:17:40Z</time>
      </trkpt>
      <trkpt lat="43.11352" lon="1.06871">
        <ele>240.4</ele>
        <time>2025-12-14T11:17:41Z</time>
      </trkpt>
      <trkpt lat="43.11351" lon="1.06873">
        <ele>241</ele>
        <time>2025-12-14T11:17:42Z</time>
      </trkpt>
      <trkpt lat="43.11349" lon="1.06876">
        <ele>241</ele>
        <time>2025-12-14T11:17:43Z</time>
      </trkpt>
      <trkpt lat="43.11348" lon="1.06883">
        <ele>241.4</ele>
        <time>2025-12-14T11:17:45Z</time>
      </trkpt>
      <trkpt lat="43.11348" lon="1.06886">
        <ele>242.2</ele>
        <time>2025-12-14T11:17:46Z</time>
      </trkpt>
      <trkpt lat="43.11347" lon="1.0689">
        <ele>242.6</ele>
        <time>2025-12-14T11:17:47Z</time>
      </trkpt>
      <trkpt lat="43.11346" lon="1.06893">
        <ele>243</ele>
        <time>2025-12-14T11:17:48Z</time>
      </trkpt>
      <trkpt lat="43.11346" lon="1.06903">
        <ele>243.4</ele>
        <time>2025-12-14T11:17:51Z</time>
      </trkpt>
      <trkpt lat="43.11345" lon="1.06906">
        <ele>243.8</ele>
        <time>2025-12-14T11:17:52Z</time>
      </trkpt>
      <trkpt lat="43.11345" lon="1.06909">
        <ele>244.2</ele>
        <time>2025-12-14T11:17:53Z</time>
      </trkpt>
      <trkpt lat="43.11344" lon="1.06912">
        <ele>244.6</ele>
        <time>2025-12-14T11:17:54Z</time>
      </trkpt>
      <trkpt lat="43.11343" lon="1.06915">
        <ele>245</ele>
        <time>2025-12-14T11:17:55Z</time>
      </trkpt>
      <trkpt lat="43.1134" lon="1.06928">
        <ele>245.4</ele>
        <time>2025-12-14T11:17:59Z</time>
      </trkpt>
      <trkpt lat="43.1134" lon="1.06931">
        <ele>245.8</ele>
        <time>2025-12-14T11:18:00Z</time>
      </trkpt>
      <trkpt lat="43.11339" lon="1.06935">
        <ele>246.4</ele>
        <time>2025-12-14T11:18:01Z</time>
      </trkpt>
      <trkpt lat="43.11338" lon="1.06938">
        <ele>246.8</ele>
        <time>2025-12-14T11:18:02Z</time>
      </trkpt>
      <trkpt lat="43.11337" lon="1.06941">
        <ele>247.2</ele>
        <time>2025-12-14T11:18:03Z</time>
      </trkpt>
      <trkpt lat="43.11333" lon="1.06952">
        <ele>247.2</ele>
        <time>2025-12-14T11:18:06Z</time>
      </trkpt>
      <trkpt lat="43.1133" lon="1.06958">
        <ele>247.6</ele>
        <time>2025-12-14T11:18:08Z</time>
      </trkpt>
      <trkpt lat="43.11329" lon="1.06961">
        <ele>248</ele>
        <time>2025-12-14T11:18:09Z</time>
      </trkpt>
      <trkpt lat="43.11328" lon="1.06965">
        <ele>248.4</ele>
        <time>2025-12-14T11:18:10Z</time>
      </trkpt>
      <trkpt lat="43.11327" lon="1.06968">
        <ele>249.2</ele>
        <time>2025-12-14T11:18:11Z</time>
      </trkpt>
      <trkpt lat="43.11319" lon="1.06984">
        <ele>249.2</ele>
        <time>2025-12-14T11:18:16Z</time>
      </trkpt>
      <trkpt lat="43.11308" lon="1.06994">
        <ele>249.2</ele>
        <time>2025-12-14T11:18:21Z</time>
      </trkpt>
      <trkpt lat="43.11299" lon="1.0699">
        <ele>249.6</ele>
        <time>2025-12-14T11:18:24Z</time>
      </trkpt>
      <trkpt lat="43.11298" lon="1.06987">
        <ele>250</ele>
        <time>2025-12-14T11:18:25Z</time>
      </trkpt>
      <trkpt lat="43.11296" lon="1.06983">
        <ele>250.4</ele>
        <time>2025-12-14T11:18:26Z</time>
      </trkpt>
      <trkpt lat="43.11295" lon="1.06979">
        <ele>250.8</ele>
        <time>2025-12-14T11:18:27Z</time>
      </trkpt>
      <trkpt lat="43.11294" lon="1.06974">
        <ele>251.2</ele>
        <time>2025-12-14T11:18:28Z</time>
      </trkpt>
      <trkpt lat="43.11294" lon="1.0697">
        <ele>251.2</ele>
        <time>2025-12-14T11:18:29Z</time>
      </trkpt>
      <trkpt lat="43.11296" lon="1.06944">
        <ele>251.2</ele>
        <time>2025-12-14T11:18:35Z</time>
      </trkpt>
      <trkpt lat="43.11295" lon="1.06917">
        <ele>251.2</ele>
        <time>2025-12-14T11:18:41Z</time>
      </trkpt>
      <trkpt lat="43.11287" lon="1.06902">
        <ele>251.6</ele>
        <time>2025-12-14T11:18:45Z</time>
      </trkpt>
      <trkpt lat="43.11285" lon="1.06898">
        <ele>252</ele>
        <time>2025-12-14T11:18:46Z</time>
      </trkpt>
      <trkpt lat="43.11283" lon="1.06894">
        <ele>252.4</ele>
        <time>2025-12-14T11:18:47Z</time>
      </trkpt>
      <trkpt lat="43.11281" lon="1.0689">
        <ele>252.8</ele>
        <time>2025-12-14T11:18:48Z</time>
      </trkpt>
      <trkpt lat="43.11279" lon="1.06886">
        <ele>253.2</ele>
        <time>2025-12-14T11:18:49Z</time>
      </trkpt>
      <trkpt lat="43.11268" lon="1.06861">
        <ele>253.2</ele>
        <time>2025-12-14T11:18:55Z</time>
      </trkpt>
      <trkpt lat="43.11257" lon="1.06846">
        <ele>253.8</ele>
        <time>2025-12-14T11:19:00Z</time>
      </trkpt>
      <trkpt lat="43.11254" lon="1.06845">
        <ele>254.2</ele>
        <time>2025-12-14T11:19:01Z</time>
      </trkpt>
      <trkpt lat="43.11251" lon="1.06845">
        <ele>254.6</ele>
        <time>2025-12-14T11:19:02Z</time>
      </trkpt>
      <trkpt lat="43.11249" lon="1.06847">
        <ele>255</ele>
        <time>2025-12-14T11:19:03Z</time>
      </trkpt>
      <trkpt lat="43.11247" lon="1.06849">
        <ele>255.4</ele>
        <time>2025-12-14T11:19:04Z</time>
      </trkpt>
      <trkpt lat="43.11245" lon="1.06853">
        <ele>255.4</ele>
        <time>2025-12-14T11:19:05Z</time>
      </trkpt>
      <trkpt lat="43.11243" lon="1.06872">
        <ele>255.8</ele>
        <time>2025-12-14T11:19:10Z</time>
      </trkpt>
      <trkpt lat="43.11244" lon="1.06875">
        <ele>256.2</ele>
        <time>2025-12-14T11:19:11Z</time>
      </trkpt>
      <trkpt lat="43.11245" lon="1.06878">
        <ele>256.6</ele>
        <time>2025-12-14T11:19:12Z</time>
      </trkpt>
      <trkpt lat="43.11247" lon="1.06881">
        <ele>257</ele>
        <time>2025-12-14T11:19:13Z</time>
      </trkpt>
      <trkpt lat="43.11248" lon="1.06884">
        <ele>257.4</ele>
        <time>2025-12-14T11:19:14Z</time>
      </trkpt>
      <trkpt lat="43.1125" lon="1.06886">
        <ele>257.4</ele>
        <time>2025-12-14T11:19:15Z</time>
      </trkpt>
      <trkpt lat="43.11254" lon="1.06892">
        <ele>258</ele>
        <time>2025-12-14T11:19:17Z</time>
      </trkpt>
      <trkpt lat="43.11255" lon="1.06895">
        <ele>258.4</ele>
        <time>2025-12-14T11:19:18Z</time>
      </trkpt>
      <trkpt lat="43.11257" lon="1.06898">
        <ele>258.8</ele>
        <time>2025-12-14T11:19:19Z</time>
      </trkpt>
      <trkpt lat="43.11258" lon="1.06902">
        <ele>259.2</ele>
        <time>2025-12-14T11:19:20Z</time>
      </trkpt>
      <trkpt lat="43.11258" lon="1.06905">
        <ele>259.8</ele>
        <time>2025-12-14T11:19:21Z</time>
      </trkpt>
      <trkpt lat="43.11259" lon="1.06908">
        <ele>259.8</ele>
        <time>2025-12-14T11:19:22Z</time>
      </trkpt>
      <trkpt lat="43.1126" lon="1.06915">
        <ele>260.2</ele>
        <time>2025-12-14T11:19:24Z</time>
      </trkpt>
      <trkpt lat="43.1126" lon="1.06919">
        <ele>261.2</ele>
        <time>2025-12-14T11:19:25Z</time>
      </trkpt>
      <trkpt lat="43.11259" lon="1.06922">
        <ele>261.6</ele>
        <time>2025-12-14T11:19:26Z</time>
      </trkpt>
      <trkpt lat="43.11259" lon="1.06925">
        <ele>262</ele>
        <time>2025-12-14T11:19:27Z</time>
      </trkpt>
      <trkpt lat="43.11258" lon="1.06928">
        <ele>262</ele>
        <time>2025-12-14T11:19:28Z</time>
      </trkpt>
      <trkpt lat="43.11257" lon="1.06931">
        <ele>262.4</ele>
        <time>2025-12-14T11:19:29Z</time>
      </trkpt>
      <trkpt lat="43.11256" lon="1.06934">
        <ele>263</ele>
        <time>2025-12-14T11:19:30Z</time>
      </trkpt>
      <trkpt lat="43.11256" lon="1.06937">
        <ele>263.4</ele>
        <time>2025-12-14T11:19:31Z</time>
      </trkpt>
      <trkpt lat="43.11255" lon="1.0694">
        <ele>263.8</ele>
        <time>2025-12-14T11:19:32Z</time>
      </trkpt>
      <trkpt lat="43.11254" lon="1.06943">
        <ele>264.4</ele>
        <time>2025-12-14T11:19:33Z</time>
      </trkpt>
      <trkpt lat="43.11252" lon="1.06948">
        <ele>264.4</ele>
        <time>2025-12-14T11:19:35Z</time>
      </trkpt>
      <trkpt lat="43.11251" lon="1.06951">
        <ele>264.8</ele>
        <time>2025-12-14T11:19:36Z</time>
      </trkpt>
      <trkpt lat="43.11251" lon="1.06955">
        <ele>265.2</ele>
        <time>2025-12-14T11:19:37Z</time>
      </trkpt>
      <trkpt lat="43.1125" lon="1.06958">
        <ele>265.6</ele>
        <time>2025-12-14T11:19:38Z</time>
      </trkpt>
      <trkpt lat="43.11249" lon="1.06962">
        <ele>266</ele>
        <time>2025-12-14T11:19:39Z</time>
      </trkpt>
      <trkpt lat="43.11248" lon="1.06966">
        <ele>266.4</ele>
        <time>2025-12-14T11:19:40Z</time>
      </trkpt>
      <trkpt lat="43.11248" lon="1.0697">
        <ele>266.4</ele>
        <time>2025-12-14T11:19:41Z</time>
      </trkpt>
      <trkpt lat="43.1125" lon="1.06988">
        <ele>266.4</ele>
        <time>2025-12-14T11:19:45Z</time>
      </trkpt>
      <trkpt lat="43.11259" lon="1.0702">
        <ele>266.4</ele>
        <time>2025-12-14T11:19:52Z</time>
      </trkpt>
      <trkpt lat="43.11265" lon="1.07049">
        <ele>266.4</ele>
        <time>2025-12-14T11:19:58Z</time>
      </trkpt>
      <trkpt lat="43.11267" lon="1.07079">
        <ele>266.4</ele>
        <time>2025-12-14T11:20:04Z</time>
      </trkpt>
      <trkpt lat="43.11265" lon="1.0711">
        <ele>266.4</ele>
        <time>2025-12-14T11:20:11Z</time>
      </trkpt>
      <trkpt lat="43.11263" lon="1.07123">
        <ele>267.4</ele>
        <time>2025-12-14T11:20:14Z</time>
      </trkpt>
      <trkpt lat="43.11263" lon="1.07127">
        <ele>268</ele>
        <time>2025-12-14T11:20:15Z</time>
      </trkpt>
      <trkpt lat="43.11262" lon="1.07131">
        <ele>268.4</ele>
        <time>2025-12-14T11:20:16Z</time>
      </trkpt>
      <trkpt lat="43.11261" lon="1.07135">
        <ele>269</ele>
        <time>2025-12-14T11:20:17Z</time>
      </trkpt>
      <trkpt lat="43.1126" lon="1.07139">
        <ele>269.4</ele>
        <time>2025-12-14T11:20:18Z</time>
      </trkpt>
      <trkpt lat="43.11258" lon="1.07143">
        <ele>269.8</ele>
        <time>2025-12-14T11:20:19Z</time>
      </trkpt>
      <trkpt lat="43.11257" lon="1.07148">
        <ele>270.4</ele>
        <time>2025-12-14T11:20:20Z</time>
      </trkpt>
      <trkpt lat="43.11255" lon="1.07152">
        <ele>270.8</ele>
        <time>2025-12-14T11:20:21Z</time>
      </trkpt>
      <trkpt lat="43.11253" lon="1.07157">
        <ele>271.4</ele>
        <time>2025-12-14T11:20:22Z</time>
      </trkpt>
      <trkpt lat="43.11244" lon="1.07184">
        <ele>271.4</ele>
        <time>2025-12-14T11:20:28Z</time>
      </trkpt>
      <trkpt lat="43.11237" lon="1.07207">
        <ele>271.4</ele>
        <time>2025-12-14T11:20:33Z</time>
      </trkpt>
      <trkpt lat="43.11229" lon="1.07234">
        <ele>271.4</ele>
        <time>2025-12-14T11:20:39Z</time>
      </trkpt>
      <trkpt lat="43.11227" lon="1.07239">
        <ele>271.4</ele>
        <time>2025-12-14T11:20:40Z</time>
      </trkpt>
      <trkpt lat="43.1122" lon="1.07262">
        <ele>271.4</ele>
        <time>2025-12-14T11:20:46Z</time>
      </trkpt>
      <trkpt lat="43.11223" lon="1.07274">
        <ele>271.4</ele>
        <time>2025-12-14T11:20:49Z</time>
      </trkpt>
      <trkpt lat="43.11225" lon="1.07276">
        <ele>271.4</ele>
        <time>2025-12-14T11:20:50Z</time>
      </trkpt>
      <trkpt lat="43.11234" lon="1.0728">
        <ele>271.4</ele>
        <time>2025-12-14T11:20:53Z</time>
      </trkpt>
      <trkpt lat="43.11239" lon="1.07283">
        <ele>271.8</ele>
        <time>2025-12-14T11:20:55Z</time>
      </trkpt>
      <trkpt lat="43.11242" lon="1.07284">
        <ele>272.2</ele>
        <time>2025-12-14T11:20:56Z</time>
      </trkpt>
      <trkpt lat="43.11245" lon="1.07286">
        <ele>272.6</ele>
        <time>2025-12-14T11:20:57Z</time>
      </trkpt>
      <trkpt lat="43.11248" lon="1.07287">
        <ele>273.2</ele>
        <time>2025-12-14T11:20:58Z</time>
      </trkpt>
      <trkpt lat="43.11251" lon="1.07289">
        <ele>273.6</ele>
        <time>2025-12-14T11:20:59Z</time>
      </trkpt>
      <trkpt lat="43.11268" lon="1.07298">
        <ele>273.6</ele>
        <time>2025-12-14T11:21:05Z</time>
      </trkpt>
      <trkpt lat="43.11292" lon="1.07312">
        <ele>273.6</ele>
        <time>2025-12-14T11:21:13Z</time>
      </trkpt>
      <trkpt lat="43.11316" lon="1.07323">
        <ele>273.6</ele>
        <time>2025-12-14T11:21:20Z</time>
      </trkpt>
      <trkpt lat="43.11329" lon="1.07329">
        <ele>274</ele>
        <time>2025-12-14T11:21:24Z</time>
      </trkpt>
      <trkpt lat="43.11332" lon="1.0733">
        <ele>274.4</ele>
        <time>2025-12-14T11:21:25Z</time>
      </trkpt>
      <trkpt lat="43.11335" lon="1.07331">
        <ele>274.8</ele>
        <time>2025-12-14T11:21:26Z</time>
      </trkpt>
      <trkpt lat="43.11338" lon="1.07333">
        <ele>275.2</ele>
        <time>2025-12-14T11:21:27Z</time>
      </trkpt>
      <trkpt lat="43.11341" lon="1.07335">
        <ele>275.6</ele>
        <time>2025-12-14T11:21:28Z</time>
      </trkpt>
      <trkpt lat="43.11346" lon="1.07338">
        <ele>276</ele>
        <time>2025-12-14T11:21:30Z</time>
      </trkpt>
      <trkpt lat="43.1135" lon="1.0734">
        <ele>276.4</ele>
        <time>2025-12-14T11:21:31Z</time>
      </trkpt>
      <trkpt lat="43.11353" lon="1.07342">
        <ele>276.8</ele>
        <time>2025-12-14T11:21:32Z</time>
      </trkpt>
      <trkpt lat="43.11356" lon="1.07343">
        <ele>277.4</ele>
        <time>2025-12-14T11:21:33Z</time>
      </trkpt>
      <trkpt lat="43.11359" lon="1.07345">
        <ele>277.8</ele>
        <time>2025-12-14T11:21:34Z</time>
      </trkpt>
      <trkpt lat="43.1138" lon="1.07357">
        <ele>277.8</ele>
        <time>2025-12-14T11:21:41Z</time>
      </trkpt>
      <trkpt lat="43.11383" lon="1.07359">
        <ele>278.2</ele>
        <time>2025-12-14T11:21:42Z</time>
      </trkpt>
      <trkpt lat="43.11385" lon="1.07361">
        <ele>278.6</ele>
        <time>2025-12-14T11:21:43Z</time>
      </trkpt>
      <trkpt lat="43.11388" lon="1.07363">
        <ele>279</ele>
        <time>2025-12-14T11:21:44Z</time>
      </trkpt>
      <trkpt lat="43.11391" lon="1.07364">
        <ele>279.4</ele>
        <time>2025-12-14T11:21:45Z</time>
      </trkpt>
      <trkpt lat="43.11394" lon="1.07365">
        <ele>279.8</ele>
        <time>2025-12-14T11:21:46Z</time>
      </trkpt>
      <trkpt lat="43.11399" lon="1.07368">
        <ele>279.8</ele>
        <time>2025-12-14T11:21:48Z</time>
      </trkpt>
      <trkpt lat="43.11407" lon="1.07373">
        <ele>280.2</ele>
        <time>2025-12-14T11:21:51Z</time>
      </trkpt>
      <trkpt lat="43.1141" lon="1.07374">
        <ele>281</ele>
        <time>2025-12-14T11:21:52Z</time>
      </trkpt>
      <trkpt lat="43.11412" lon="1.07376">
        <ele>281.4</ele>
        <time>2025-12-14T11:21:53Z</time>
      </trkpt>
      <trkpt lat="43.11415" lon="1.07377">
        <ele>282</ele>
        <time>2025-12-14T11:21:54Z</time>
      </trkpt>
      <trkpt lat="43.11423" lon="1.07381">
        <ele>282</ele>
        <time>2025-12-14T11:21:57Z</time>
      </trkpt>
      <trkpt lat="43.11428" lon="1.07384">
        <ele>282.4</ele>
        <time>2025-12-14T11:21:59Z</time>
      </trkpt>
      <trkpt lat="43.11431" lon="1.07385">
        <ele>282.8</ele>
        <time>2025-12-14T11:22:00Z</time>
      </trkpt>
      <trkpt lat="43.11433" lon="1.07387">
        <ele>283.2</ele>
        <time>2025-12-14T11:22:01Z</time>
      </trkpt>
      <trkpt lat="43.11436" lon="1.07388">
        <ele>283.6</ele>
        <time>2025-12-14T11:22:02Z</time>
      </trkpt>
      <trkpt lat="43.11438" lon="1.07389">
        <ele>284</ele>
        <time>2025-12-14T11:22:03Z</time>
      </trkpt>
      <trkpt lat="43.1144" lon="1.0739">
        <ele>284</ele>
        <time>2025-12-14T11:22:04Z</time>
      </trkpt>
      <trkpt lat="43.1145" lon="1.07396">
        <ele>284.4</ele>
        <time>2025-12-14T11:22:09Z</time>
      </trkpt>
      <trkpt lat="43.11451" lon="1.07397">
        <ele>284.8</ele>
        <time>2025-12-14T11:22:10Z</time>
      </trkpt>
      <trkpt lat="43.11453" lon="1.07398">
        <ele>285.2</ele>
        <time>2025-12-14T11:22:11Z</time>
      </trkpt>
      <trkpt lat="43.11454" lon="1.074">
        <ele>285.8</ele>
        <time>2025-12-14T11:22:12Z</time>
      </trkpt>
      <trkpt lat="43.11455" lon="1.07402">
        <ele>286.2</ele>
        <time>2025-12-14T11:22:13Z</time>
      </trkpt>
      <trkpt lat="43.11456" lon="1.07406">
        <ele>286.2</ele>
        <time>2025-12-14T11:22:14Z</time>
      </trkpt>
      <trkpt lat="43.11455" lon="1.07417">
        <ele>286.2</ele>
        <time>2025-12-14T11:22:18Z</time>
      </trkpt>
      <trkpt lat="43.11451" lon="1.07423">
        <ele>286.2</ele>
        <time>2025-12-14T11:22:20Z</time>
      </trkpt>
      <trkpt lat="43.11446" lon="1.07435">
        <ele>286.2</ele>
        <time>2025-12-14T11:22:23Z</time>
      </trkpt>
      <trkpt lat="43.11438" lon="1.07459">
        <ele>286.2</ele>
        <time>2025-12-14T11:22:29Z</time>
      </trkpt>
      <trkpt lat="43.11425" lon="1.07491">
        <ele>286.2</ele>
        <time>2025-12-14T11:22:37Z</time>
      </trkpt>
      <trkpt lat="43.1142" lon="1.07508">
        <ele>286.6</ele>
        <time>2025-12-14T11:22:41Z</time>
      </trkpt>
      <trkpt lat="43.11419" lon="1.07512">
        <ele>287.4</ele>
        <time>2025-12-14T11:22:42Z</time>
      </trkpt>
      <trkpt lat="43.11417" lon="1.07517">
        <ele>287.8</ele>
        <time>2025-12-14T11:22:43Z</time>
      </trkpt>
      <trkpt lat="43.11415" lon="1.07522">
        <ele>288.2</ele>
        <time>2025-12-14T11:22:44Z</time>
      </trkpt>
      <trkpt lat="43.114" lon="1.07533">
        <ele>288.2</ele>
        <time>2025-12-14T11:22:49Z</time>
      </trkpt>
      <trkpt lat="43.11389" lon="1.07539">
        <ele>288.2</ele>
        <time>2025-12-14T11:22:53Z</time>
      </trkpt>
      <trkpt lat="43.11382" lon="1.07553">
        <ele>288.2</ele>
        <time>2025-12-14T11:22:58Z</time>
      </trkpt>
      <trkpt lat="43.1138" lon="1.07559">
        <ele>288.2</ele>
        <time>2025-12-14T11:23:01Z</time>
      </trkpt>
      <trkpt lat="43.11379" lon="1.07559">
        <ele>288.2</ele>
        <time>2025-12-14T11:23:02Z</time>
      </trkpt>
      <trkpt lat="43.11378" lon="1.07562">
        <ele>288.2</ele>
        <time>2025-12-14T11:23:17Z</time>
      </trkpt>
      <trkpt lat="43.11379" lon="1.07567">
        <ele>288.2</ele>
        <time>2025-12-14T11:23:19Z</time>
      </trkpt>
      <trkpt lat="43.1138" lon="1.07573">
        <ele>288.2</ele>
        <time>2025-12-14T11:23:21Z</time>
      </trkpt>
      <trkpt lat="43.11379" lon="1.07585">
        <ele>288.2</ele>
        <time>2025-12-14T11:23:25Z</time>
      </trkpt>
      <trkpt lat="43.11372" lon="1.07608">
        <ele>288.2</ele>
        <time>2025-12-14T11:23:31Z</time>
      </trkpt>
      <trkpt lat="43.1136" lon="1.07639">
        <ele>287.8</ele>
        <time>2025-12-14T11:23:37Z</time>
      </trkpt>
      <trkpt lat="43.11358" lon="1.07646">
        <ele>287.4</ele>
        <time>2025-12-14T11:23:38Z</time>
      </trkpt>
      <trkpt lat="43.11359" lon="1.07651">
        <ele>287</ele>
        <time>2025-12-14T11:23:39Z</time>
      </trkpt>
      <trkpt lat="43.11361" lon="1.07655">
        <ele>286.6</ele>
        <time>2025-12-14T11:23:40Z</time>
      </trkpt>
      <trkpt lat="43.11364" lon="1.07657">
        <ele>286.2</ele>
        <time>2025-12-14T11:23:41Z</time>
      </trkpt>
      <trkpt lat="43.11371" lon="1.0766">
        <ele>286.2</ele>
        <time>2025-12-14T11:23:43Z</time>
      </trkpt>
      <trkpt lat="43.11374" lon="1.07662">
        <ele>286.2</ele>
        <time>2025-12-14T11:23:44Z</time>
      </trkpt>
      <trkpt lat="43.11407" lon="1.07686">
        <ele>286.2</ele>
        <time>2025-12-14T11:23:53Z</time>
      </trkpt>
      <trkpt lat="43.11413" lon="1.07697">
        <ele>285.8</ele>
        <time>2025-12-14T11:23:55Z</time>
      </trkpt>
      <trkpt lat="43.11415" lon="1.07704">
        <ele>284.8</ele>
        <time>2025-12-14T11:23:56Z</time>
      </trkpt>
      <trkpt lat="43.11415" lon="1.07711">
        <ele>284.4</ele>
        <time>2025-12-14T11:23:57Z</time>
      </trkpt>
      <trkpt lat="43.11416" lon="1.07718">
        <ele>284</ele>
        <time>2025-12-14T11:23:58Z</time>
      </trkpt>
      <trkpt lat="43.11417" lon="1.07725">
        <ele>283.6</ele>
        <time>2025-12-14T11:23:59Z</time>
      </trkpt>
      <trkpt lat="43.11419" lon="1.07734">
        <ele>283.2</ele>
        <time>2025-12-14T11:24:00Z</time>
      </trkpt>
      <trkpt lat="43.1142" lon="1.07742">
        <ele>282.8</ele>
        <time>2025-12-14T11:24:01Z</time>
      </trkpt>
      <trkpt lat="43.11421" lon="1.07751">
        <ele>282.4</ele>
        <time>2025-12-14T11:24:02Z</time>
      </trkpt>
      <trkpt lat="43.11421" lon="1.0776">
        <ele>281.8</ele>
        <time>2025-12-14T11:24:03Z</time>
      </trkpt>
      <trkpt lat="43.1142" lon="1.0777">
        <ele>281.2</ele>
        <time>2025-12-14T11:24:04Z</time>
      </trkpt>
      <trkpt lat="43.11419" lon="1.0778">
        <ele>280.8</ele>
        <time>2025-12-14T11:24:05Z</time>
      </trkpt>
      <trkpt lat="43.11418" lon="1.0779">
        <ele>280.2</ele>
        <time>2025-12-14T11:24:06Z</time>
      </trkpt>
      <trkpt lat="43.11416" lon="1.07801">
        <ele>279.6</ele>
        <time>2025-12-14T11:24:07Z</time>
      </trkpt>
      <trkpt lat="43.11415" lon="1.07812">
        <ele>279</ele>
        <time>2025-12-14T11:24:08Z</time>
      </trkpt>
      <trkpt lat="43.11414" lon="1.07823">
        <ele>278.6</ele>
        <time>2025-12-14T11:24:09Z</time>
      </trkpt>
      <trkpt lat="43.11412" lon="1.07835">
        <ele>278</ele>
        <time>2025-12-14T11:24:10Z</time>
      </trkpt>
      <trkpt lat="43.11411" lon="1.07847">
        <ele>277.4</ele>
        <time>2025-12-14T11:24:11Z</time>
      </trkpt>
      <trkpt lat="43.1141" lon="1.07858">
        <ele>276.8</ele>
        <time>2025-12-14T11:24:12Z</time>
      </trkpt>
      <trkpt lat="43.11408" lon="1.07868">
        <ele>276.2</ele>
        <time>2025-12-14T11:24:13Z</time>
      </trkpt>
      <trkpt lat="43.11407" lon="1.07877">
        <ele>275.4</ele>
        <time>2025-12-14T11:24:14Z</time>
      </trkpt>
      <trkpt lat="43.11407" lon="1.07885">
        <ele>274.6</ele>
        <time>2025-12-14T11:24:15Z</time>
      </trkpt>
      <trkpt lat="43.11406" lon="1.07892">
        <ele>273.8</ele>
        <time>2025-12-14T11:24:16Z</time>
      </trkpt>
      <trkpt lat="43.11406" lon="1.07898">
        <ele>273</ele>
        <time>2025-12-14T11:24:17Z</time>
      </trkpt>
      <trkpt lat="43.11406" lon="1.07904">
        <ele>272.2</ele>
        <time>2025-12-14T11:24:18Z</time>
      </trkpt>
      <trkpt lat="43.11406" lon="1.07908">
        <ele>271.4</ele>
        <time>2025-12-14T11:24:19Z</time>
      </trkpt>
      <trkpt lat="43.11406" lon="1.07912">
        <ele>270.4</ele>
        <time>2025-12-14T11:24:20Z</time>
      </trkpt>
      <trkpt lat="43.11408" lon="1.07915">
        <ele>269.2</ele>
        <time>2025-12-14T11:24:21Z</time>
      </trkpt>
      <trkpt lat="43.1141" lon="1.07919">
        <ele>268.4</ele>
        <time>2025-12-14T11:24:22Z</time>
      </trkpt>
      <trkpt lat="43.11414" lon="1.07922">
        <ele>267.8</ele>
        <time>2025-12-14T11:24:23Z</time>
      </trkpt>
      <trkpt lat="43.11418" lon="1.07924">
        <ele>267.2</ele>
        <time>2025-12-14T11:24:24Z</time>
      </trkpt>
      <trkpt lat="43.11422" lon="1.07927">
        <ele>267.2</ele>
        <time>2025-12-14T11:24:25Z</time>
      </trkpt>
      <trkpt lat="43.11432" lon="1.07932">
        <ele>266.8</ele>
        <time>2025-12-14T11:24:27Z</time>
      </trkpt>
      <trkpt lat="43.11438" lon="1.07935">
        <ele>266.4</ele>
        <time>2025-12-14T11:24:28Z</time>
      </trkpt>
      <trkpt lat="43.11443" lon="1.07938">
        <ele>265.8</ele>
        <time>2025-12-14T11:24:29Z</time>
      </trkpt>
      <trkpt lat="43.11448" lon="1.07942">
        <ele>265.4</ele>
        <time>2025-12-14T11:24:30Z</time>
      </trkpt>
      <trkpt lat="43.11453" lon="1.07945">
        <ele>265</ele>
        <time>2025-12-14T11:24:31Z</time>
      </trkpt>
      <trkpt lat="43.11459" lon="1.07949">
        <ele>265</ele>
        <time>2025-12-14T11:24:32Z</time>
      </trkpt>
      <trkpt lat="43.11464" lon="1.07954">
        <ele>264.6</ele>
        <time>2025-12-14T11:24:33Z</time>
      </trkpt>
      <trkpt lat="43.11468" lon="1.0796">
        <ele>264.2</ele>
        <time>2025-12-14T11:24:34Z</time>
      </trkpt>
      <trkpt lat="43.11472" lon="1.07965">
        <ele>263.6</ele>
        <time>2025-12-14T11:24:35Z</time>
      </trkpt>
      <trkpt lat="43.11476" lon="1.07971">
        <ele>263.2</ele>
        <time>2025-12-14T11:24:36Z</time>
      </trkpt>
      <trkpt lat="43.1148" lon="1.07976">
        <ele>262.8</ele>
        <time>2025-12-14T11:24:37Z</time>
      </trkpt>
      <trkpt lat="43.11491" lon="1.07992">
        <ele>262.8</ele>
        <time>2025-12-14T11:24:40Z</time>
      </trkpt>
      <trkpt lat="43.11499" lon="1.08002">
        <ele>262.8</ele>
        <time>2025-12-14T11:24:42Z</time>
      </trkpt>
      <trkpt lat="43.11513" lon="1.08014">
        <ele>262.8</ele>
        <time>2025-12-14T11:24:45Z</time>
      </trkpt>
      <trkpt lat="43.11544" lon="1.08034">
        <ele>262.8</ele>
        <time>2025-12-14T11:24:52Z</time>
      </trkpt>
      <trkpt lat="43.11548" lon="1.08037">
        <ele>262.8</ele>
        <time>2025-12-14T11:24:53Z</time>
      </trkpt>
      <trkpt lat="43.11565" lon="1.08045">
        <ele>262.8</ele>
        <time>2025-12-14T11:24:57Z</time>
      </trkpt>
      <trkpt lat="43.11568" lon="1.08046">
        <ele>263.2</ele>
        <time>2025-12-14T11:24:58Z</time>
      </trkpt>
      <trkpt lat="43.11572" lon="1.08046">
        <ele>263.8</ele>
        <time>2025-12-14T11:24:59Z</time>
      </trkpt>
      <trkpt lat="43.11576" lon="1.08046">
        <ele>264.2</ele>
        <time>2025-12-14T11:25:00Z</time>
      </trkpt>
      <trkpt lat="43.1158" lon="1.08045">
        <ele>264.6</ele>
        <time>2025-12-14T11:25:01Z</time>
      </trkpt>
      <trkpt lat="43.11584" lon="1.08045">
        <ele>265</ele>
        <time>2025-12-14T11:25:02Z</time>
      </trkpt>
      <trkpt lat="43.11587" lon="1.08044">
        <ele>265</ele>
        <time>2025-12-14T11:25:03Z</time>
      </trkpt>
      <trkpt lat="43.11608" lon="1.08036">
        <ele>265</ele>
        <time>2025-12-14T11:25:08Z</time>
      </trkpt>
      <trkpt lat="43.11639" lon="1.08022">
        <ele>265</ele>
        <time>2025-12-14T11:25:15Z</time>
      </trkpt>
      <trkpt lat="43.11669" lon="1.08012">
        <ele>265</ele>
        <time>2025-12-14T11:25:22Z</time>
      </trkpt>
      <trkpt lat="43.11682" lon="1.08013">
        <ele>265</ele>
        <time>2025-12-14T11:25:25Z</time>
      </trkpt>
      <trkpt lat="43.1169" lon="1.08015">
        <ele>265</ele>
        <time>2025-12-14T11:25:27Z</time>
      </trkpt>
      <trkpt lat="43.11694" lon="1.08017">
        <ele>265.4</ele>
        <time>2025-12-14T11:25:28Z</time>
      </trkpt>
      <trkpt lat="43.11698" lon="1.08017">
        <ele>266</ele>
        <time>2025-12-14T11:25:29Z</time>
      </trkpt>
      <trkpt lat="43.11701" lon="1.08016">
        <ele>266.4</ele>
        <time>2025-12-14T11:25:30Z</time>
      </trkpt>
      <trkpt lat="43.11705" lon="1.08015">
        <ele>266.8</ele>
        <time>2025-12-14T11:25:31Z</time>
      </trkpt>
      <trkpt lat="43.11708" lon="1.08013">
        <ele>267.2</ele>
        <time>2025-12-14T11:25:32Z</time>
      </trkpt>
      <trkpt lat="43.11714" lon="1.0801">
        <ele>267.6</ele>
        <time>2025-12-14T11:25:34Z</time>
      </trkpt>
      <trkpt lat="43.11717" lon="1.08008">
        <ele>268.6</ele>
        <time>2025-12-14T11:25:35Z</time>
      </trkpt>
      <trkpt lat="43.1172" lon="1.08006">
        <ele>269</ele>
        <time>2025-12-14T11:25:36Z</time>
      </trkpt>
      <trkpt lat="43.11723" lon="1.08004">
        <ele>269.4</ele>
        <time>2025-12-14T11:25:37Z</time>
      </trkpt>
      <trkpt lat="43.11745" lon="1.0799">
        <ele>269.4</ele>
        <time>2025-12-14T11:25:43Z</time>
      </trkpt>
      <trkpt lat="43.11749" lon="1.07989">
        <ele>269.4</ele>
        <time>2025-12-14T11:25:44Z</time>
      </trkpt>
      <trkpt lat="43.1176" lon="1.07991">
        <ele>269.4</ele>
        <time>2025-12-14T11:25:46Z</time>
      </trkpt>
      <trkpt lat="43.11765" lon="1.07995">
        <ele>269</ele>
        <time>2025-12-14T11:25:47Z</time>
      </trkpt>
      <trkpt lat="43.1177" lon="1.07998">
        <ele>268.6</ele>
        <time>2025-12-14T11:25:48Z</time>
      </trkpt>
      <trkpt lat="43.11775" lon="1.08003">
        <ele>268.2</ele>
        <time>2025-12-14T11:25:49Z</time>
      </trkpt>
      <trkpt lat="43.11781" lon="1.0801">
        <ele>267.8</ele>
        <time>2025-12-14T11:25:50Z</time>
      </trkpt>
      <trkpt lat="43.11786" lon="1.08017">
        <ele>267.4</ele>
        <time>2025-12-14T11:25:51Z</time>
      </trkpt>
      <trkpt lat="43.11792" lon="1.08024">
        <ele>266.8</ele>
        <time>2025-12-14T11:25:52Z</time>
      </trkpt>
      <trkpt lat="43.11798" lon="1.08031">
        <ele>266.4</ele>
        <time>2025-12-14T11:25:53Z</time>
      </trkpt>
      <trkpt lat="43.11804" lon="1.08039">
        <ele>265.8</ele>
        <time>2025-12-14T11:25:54Z</time>
      </trkpt>
      <trkpt lat="43.1181" lon="1.08047">
        <ele>265.4</ele>
        <time>2025-12-14T11:25:55Z</time>
      </trkpt>
      <trkpt lat="43.11816" lon="1.08054">
        <ele>264.8</ele>
        <time>2025-12-14T11:25:56Z</time>
      </trkpt>
      <trkpt lat="43.11821" lon="1.08062">
        <ele>264.4</ele>
        <time>2025-12-14T11:25:57Z</time>
      </trkpt>
      <trkpt lat="43.11825" lon="1.08068">
        <ele>263.8</ele>
        <time>2025-12-14T11:25:58Z</time>
      </trkpt>
      <trkpt lat="43.11828" lon="1.08073">
        <ele>263</ele>
        <time>2025-12-14T11:25:59Z</time>
      </trkpt>
      <trkpt lat="43.1183" lon="1.08077">
        <ele>262.4</ele>
        <time>2025-12-14T11:26:00Z</time>
      </trkpt>
      <trkpt lat="43.11831" lon="1.08081">
        <ele>262.4</ele>
        <time>2025-12-14T11:26:02Z</time>
      </trkpt>
      <trkpt lat="43.11835" lon="1.08089">
        <ele>262.4</ele>
        <time>2025-12-14T11:26:06Z</time>
      </trkpt>
      <trkpt lat="43.11835" lon="1.08094">
        <ele>263</ele>
        <time>2025-12-14T11:26:08Z</time>
      </trkpt>
      <trkpt lat="43.11836" lon="1.08097">
        <ele>263.4</ele>
        <time>2025-12-14T11:26:09Z</time>
      </trkpt>
      <trkpt lat="43.11837" lon="1.08101">
        <ele>263.8</ele>
        <time>2025-12-14T11:26:10Z</time>
      </trkpt>
      <trkpt lat="43.11837" lon="1.08104">
        <ele>264.2</ele>
        <time>2025-12-14T11:26:11Z</time>
      </trkpt>
      <trkpt lat="43.11839" lon="1.08107">
        <ele>264.6</ele>
        <time>2025-12-14T11:26:12Z</time>
      </trkpt>
      <trkpt lat="43.11843" lon="1.08116">
        <ele>265.2</ele>
        <time>2025-12-14T11:26:15Z</time>
      </trkpt>
      <trkpt lat="43.11846" lon="1.08117">
        <ele>265.6</ele>
        <time>2025-12-14T11:26:16Z</time>
      </trkpt>
      <trkpt lat="43.11848" lon="1.08117">
        <ele>266</ele>
        <time>2025-12-14T11:26:17Z</time>
      </trkpt>
      <trkpt lat="43.1185" lon="1.08118">
        <ele>266.4</ele>
        <time>2025-12-14T11:26:18Z</time>
      </trkpt>
      <trkpt lat="43.11853" lon="1.08117">
        <ele>266.8</ele>
        <time>2025-12-14T11:26:19Z</time>
      </trkpt>
      <trkpt lat="43.11856" lon="1.08117">
        <ele>267.4</ele>
        <time>2025-12-14T11:26:20Z</time>
      </trkpt>
      <trkpt lat="43.11858" lon="1.08115">
        <ele>267.8</ele>
        <time>2025-12-14T11:26:21Z</time>
      </trkpt>
      <trkpt lat="43.11861" lon="1.08114">
        <ele>268.2</ele>
        <time>2025-12-14T11:26:22Z</time>
      </trkpt>
      <trkpt lat="43.11864" lon="1.08113">
        <ele>268.6</ele>
        <time>2025-12-14T11:26:23Z</time>
      </trkpt>
      <trkpt lat="43.11866" lon="1.08112">
        <ele>269</ele>
        <time>2025-12-14T11:26:24Z</time>
      </trkpt>
      <trkpt lat="43.11869" lon="1.0811">
        <ele>269.4</ele>
        <time>2025-12-14T11:26:25Z</time>
      </trkpt>
      <trkpt lat="43.11871" lon="1.08109">
        <ele>269.8</ele>
        <time>2025-12-14T11:26:26Z</time>
      </trkpt>
      <trkpt lat="43.11874" lon="1.08107">
        <ele>270.4</ele>
        <time>2025-12-14T11:26:27Z</time>
      </trkpt>
      <trkpt lat="43.11876" lon="1.08106">
        <ele>270.8</ele>
        <time>2025-12-14T11:26:28Z</time>
      </trkpt>
      <trkpt lat="43.11878" lon="1.08106">
        <ele>271.2</ele>
        <time>2025-12-14T11:26:29Z</time>
      </trkpt>
      <trkpt lat="43.11883" lon="1.08105">
        <ele>271.6</ele>
        <time>2025-12-14T11:26:31Z</time>
      </trkpt>
      <trkpt lat="43.11885" lon="1.08105">
        <ele>272</ele>
        <time>2025-12-14T11:26:32Z</time>
      </trkpt>
      <trkpt lat="43.11888" lon="1.08104">
        <ele>272.4</ele>
        <time>2025-12-14T11:26:33Z</time>
      </trkpt>
      <trkpt lat="43.1189" lon="1.08103">
        <ele>272.8</ele>
        <time>2025-12-14T11:26:34Z</time>
      </trkpt>
      <trkpt lat="43.11893" lon="1.08103">
        <ele>273.2</ele>
        <time>2025-12-14T11:26:35Z</time>
      </trkpt>
      <trkpt lat="43.11898" lon="1.08101">
        <ele>273.2</ele>
        <time>2025-12-14T11:26:37Z</time>
      </trkpt>
      <trkpt lat="43.11905" lon="1.08098">
        <ele>273.6</ele>
        <time>2025-12-14T11:26:40Z</time>
      </trkpt>
      <trkpt lat="43.11908" lon="1.08098">
        <ele>274</ele>
        <time>2025-12-14T11:26:41Z</time>
      </trkpt>
      <trkpt lat="43.11911" lon="1.08098">
        <ele>274.4</ele>
        <time>2025-12-14T11:26:42Z</time>
      </trkpt>
      <trkpt lat="43.11913" lon="1.08099">
        <ele>275</ele>
        <time>2025-12-14T11:26:43Z</time>
      </trkpt>
      <trkpt lat="43.11916" lon="1.081">
        <ele>275.4</ele>
        <time>2025-12-14T11:26:44Z</time>
      </trkpt>
      <trkpt lat="43.11926" lon="1.08099">
        <ele>275.4</ele>
        <time>2025-12-14T11:26:48Z</time>
      </trkpt>
      <trkpt lat="43.11928" lon="1.08096">
        <ele>275.4</ele>
        <time>2025-12-14T11:26:49Z</time>
      </trkpt>
      <trkpt lat="43.11928" lon="1.08085">
        <ele>275.8</ele>
        <time>2025-12-14T11:26:52Z</time>
      </trkpt>
      <trkpt lat="43.11928" lon="1.08081">
        <ele>276.4</ele>
        <time>2025-12-14T11:26:53Z</time>
      </trkpt>
      <trkpt lat="43.11928" lon="1.08077">
        <ele>276.8</ele>
        <time>2025-12-14T11:26:54Z</time>
      </trkpt>
      <trkpt lat="43.11929" lon="1.08074">
        <ele>277.2</ele>
        <time>2025-12-14T11:26:55Z</time>
      </trkpt>
      <trkpt lat="43.11929" lon="1.0807">
        <ele>277.8</ele>
        <time>2025-12-14T11:26:56Z</time>
      </trkpt>
      <trkpt lat="43.11928" lon="1.08064">
        <ele>278.2</ele>
        <time>2025-12-14T11:26:58Z</time>
      </trkpt>
      <trkpt lat="43.11929" lon="1.0806">
        <ele>278.6</ele>
        <time>2025-12-14T11:26:59Z</time>
      </trkpt>
      <trkpt lat="43.11929" lon="1.08057">
        <ele>279</ele>
        <time>2025-12-14T11:27:00Z</time>
      </trkpt>
      <trkpt lat="43.11928" lon="1.08054">
        <ele>279.4</ele>
        <time>2025-12-14T11:27:01Z</time>
      </trkpt>
      <trkpt lat="43.11929" lon="1.0805">
        <ele>279.8</ele>
        <time>2025-12-14T11:27:02Z</time>
      </trkpt>
      <trkpt lat="43.11929" lon="1.08043">
        <ele>280.4</ele>
        <time>2025-12-14T11:27:04Z</time>
      </trkpt>
      <trkpt lat="43.11929" lon="1.0804">
        <ele>280.8</ele>
        <time>2025-12-14T11:27:05Z</time>
      </trkpt>
      <trkpt lat="43.11929" lon="1.08037">
        <ele>281.4</ele>
        <time>2025-12-14T11:27:06Z</time>
      </trkpt>
      <trkpt lat="43.11929" lon="1.08033">
        <ele>281.8</ele>
        <time>2025-12-14T11:27:07Z</time>
      </trkpt>
      <trkpt lat="43.1193" lon="1.0803">
        <ele>282.2</ele>
        <time>2025-12-14T11:27:08Z</time>
      </trkpt>
      <trkpt lat="43.11932" lon="1.08022">
        <ele>282.6</ele>
        <time>2025-12-14T11:27:10Z</time>
      </trkpt>
      <trkpt lat="43.11935" lon="1.08018">
        <ele>283</ele>
        <time>2025-12-14T11:27:11Z</time>
      </trkpt>
      <trkpt lat="43.11937" lon="1.08014">
        <ele>283.6</ele>
        <time>2025-12-14T11:27:12Z</time>
      </trkpt>
      <trkpt lat="43.11939" lon="1.0801">
        <ele>284</ele>
        <time>2025-12-14T11:27:13Z</time>
      </trkpt>
      <trkpt lat="43.1194" lon="1.08006">
        <ele>284.4</ele>
        <time>2025-12-14T11:27:14Z</time>
      </trkpt>
      <trkpt lat="43.11948" lon="1.07986">
        <ele>284.4</ele>
        <time>2025-12-14T11:27:19Z</time>
      </trkpt>
      <trkpt lat="43.11951" lon="1.07979">
        <ele>284.8</ele>
        <time>2025-12-14T11:27:21Z</time>
      </trkpt>
      <trkpt lat="43.11952" lon="1.07974">
        <ele>285.2</ele>
        <time>2025-12-14T11:27:22Z</time>
      </trkpt>
      <trkpt lat="43.11953" lon="1.07971">
        <ele>285.6</ele>
        <time>2025-12-14T11:27:23Z</time>
      </trkpt>
      <trkpt lat="43.11955" lon="1.07966">
        <ele>286</ele>
        <time>2025-12-14T11:27:24Z</time>
      </trkpt>
      <trkpt lat="43.11956" lon="1.07962">
        <ele>286.4</ele>
        <time>2025-12-14T11:27:25Z</time>
      </trkpt>
      <trkpt lat="43.11968" lon="1.07931">
        <ele>286.4</ele>
        <time>2025-12-14T11:27:33Z</time>
      </trkpt>
      <trkpt lat="43.11973" lon="1.07919">
        <ele>286.8</ele>
        <time>2025-12-14T11:27:36Z</time>
      </trkpt>
      <trkpt lat="43.11975" lon="1.07916">
        <ele>287.2</ele>
        <time>2025-12-14T11:27:37Z</time>
      </trkpt>
      <trkpt lat="43.11977" lon="1.07912">
        <ele>287.8</ele>
        <time>2025-12-14T11:27:38Z</time>
      </trkpt>
      <trkpt lat="43.11979" lon="1.07909">
        <ele>288.6</ele>
        <time>2025-12-14T11:27:39Z</time>
      </trkpt>
      <trkpt lat="43.11981" lon="1.07905">
        <ele>288.6</ele>
        <time>2025-12-14T11:27:40Z</time>
      </trkpt>
      <trkpt lat="43.1199" lon="1.07884">
        <ele>289</ele>
        <time>2025-12-14T11:27:46Z</time>
      </trkpt>
      <trkpt lat="43.11992" lon="1.0788">
        <ele>289.4</ele>
        <time>2025-12-14T11:27:47Z</time>
      </trkpt>
      <trkpt lat="43.11993" lon="1.07876">
        <ele>289.8</ele>
        <time>2025-12-14T11:27:48Z</time>
      </trkpt>
      <trkpt lat="43.11995" lon="1.07872">
        <ele>290.2</ele>
        <time>2025-12-14T11:27:49Z</time>
      </trkpt>
      <trkpt lat="43.11996" lon="1.07869">
        <ele>290.6</ele>
        <time>2025-12-14T11:27:50Z</time>
      </trkpt>
      <trkpt lat="43.12002" lon="1.0785">
        <ele>290.6</ele>
        <time>2025-12-14T11:27:55Z</time>
      </trkpt>
      <trkpt lat="43.12004" lon="1.07846">
        <ele>291</ele>
        <time>2025-12-14T11:27:56Z</time>
      </trkpt>
      <trkpt lat="43.12005" lon="1.07843">
        <ele>291.6</ele>
        <time>2025-12-14T11:27:57Z</time>
      </trkpt>
      <trkpt lat="43.12006" lon="1.0784">
        <ele>292</ele>
        <time>2025-12-14T11:27:58Z</time>
      </trkpt>
      <trkpt lat="43.12006" lon="1.07836">
        <ele>292.4</ele>
        <time>2025-12-14T11:27:59Z</time>
      </trkpt>
      <trkpt lat="43.12007" lon="1.07833">
        <ele>292.8</ele>
        <time>2025-12-14T11:28:00Z</time>
      </trkpt>
      <trkpt lat="43.12007" lon="1.07825">
        <ele>292.8</ele>
        <time>2025-12-14T11:28:02Z</time>
      </trkpt>
      <trkpt lat="43.12006" lon="1.0779">
        <ele>292.8</ele>
        <time>2025-12-14T11:28:10Z</time>
      </trkpt>
      <trkpt lat="43.12005" lon="1.07785">
        <ele>292.2</ele>
        <time>2025-12-14T11:28:11Z</time>
      </trkpt>
      <trkpt lat="43.12004" lon="1.0778">
        <ele>291.8</ele>
        <time>2025-12-14T11:28:12Z</time>
      </trkpt>
      <trkpt lat="43.12004" lon="1.07775">
        <ele>291.4</ele>
        <time>2025-12-14T11:28:13Z</time>
      </trkpt>
      <trkpt lat="43.12004" lon="1.0777">
        <ele>290.8</ele>
        <time>2025-12-14T11:28:14Z</time>
      </trkpt>
      <trkpt lat="43.12005" lon="1.07764">
        <ele>290.4</ele>
        <time>2025-12-14T11:28:15Z</time>
      </trkpt>
      <trkpt lat="43.12006" lon="1.07758">
        <ele>289.8</ele>
        <time>2025-12-14T11:28:16Z</time>
      </trkpt>
      <trkpt lat="43.12007" lon="1.07752">
        <ele>289.2</ele>
        <time>2025-12-14T11:28:17Z</time>
      </trkpt>
      <trkpt lat="43.12008" lon="1.07745">
        <ele>288.6</ele>
        <time>2025-12-14T11:28:18Z</time>
      </trkpt>
      <trkpt lat="43.1201" lon="1.07738">
        <ele>288.2</ele>
        <time>2025-12-14T11:28:19Z</time>
      </trkpt>
      <trkpt lat="43.12012" lon="1.07731">
        <ele>287.8</ele>
        <time>2025-12-14T11:28:20Z</time>
      </trkpt>
      <trkpt lat="43.12013" lon="1.07724">
        <ele>287.4</ele>
        <time>2025-12-14T11:28:21Z</time>
      </trkpt>
      <trkpt lat="43.12016" lon="1.07716">
        <ele>286.8</ele>
        <time>2025-12-14T11:28:22Z</time>
      </trkpt>
      <trkpt lat="43.12018" lon="1.07709">
        <ele>286.4</ele>
        <time>2025-12-14T11:28:23Z</time>
      </trkpt>
      <trkpt lat="43.12021" lon="1.07702">
        <ele>286</ele>
        <time>2025-12-14T11:28:24Z</time>
      </trkpt>
      <trkpt lat="43.12026" lon="1.07688">
        <ele>286</ele>
        <time>2025-12-14T11:28:26Z</time>
      </trkpt>
      <trkpt lat="43.12028" lon="1.07682">
        <ele>285.6</ele>
        <time>2025-12-14T11:28:27Z</time>
      </trkpt>
      <trkpt lat="43.1203" lon="1.07675">
        <ele>284.8</ele>
        <time>2025-12-14T11:28:28Z</time>
      </trkpt>
      <trkpt lat="43.12033" lon="1.07668">
        <ele>284.4</ele>
        <time>2025-12-14T11:28:29Z</time>
      </trkpt>
      <trkpt lat="43.12035" lon="1.07662">
        <ele>284</ele>
        <time>2025-12-14T11:28:30Z</time>
      </trkpt>
      <trkpt lat="43.12043" lon="1.0764">
        <ele>284</ele>
        <time>2025-12-14T11:28:33Z</time>
      </trkpt>
      <trkpt lat="43.12045" lon="1.07631">
        <ele>283.6</ele>
        <time>2025-12-14T11:28:34Z</time>
      </trkpt>
      <trkpt lat="43.12048" lon="1.07622">
        <ele>283.2</ele>
        <time>2025-12-14T11:28:35Z</time>
      </trkpt>
      <trkpt lat="43.1205" lon="1.07614">
        <ele>282.8</ele>
        <time>2025-12-14T11:28:36Z</time>
      </trkpt>
      <trkpt lat="43.12052" lon="1.07606">
        <ele>282.4</ele>
        <time>2025-12-14T11:28:37Z</time>
      </trkpt>
      <trkpt lat="43.12054" lon="1.07598">
        <ele>282</ele>
        <time>2025-12-14T11:28:38Z</time>
      </trkpt>
      <trkpt lat="43.12056" lon="1.0759">
        <ele>282</ele>
        <time>2025-12-14T11:28:39Z</time>
      </trkpt>
      <trkpt lat="43.12066" lon="1.07561">
        <ele>281.4</ele>
        <time>2025-12-14T11:28:43Z</time>
      </trkpt>
      <trkpt lat="43.12068" lon="1.07554">
        <ele>281</ele>
        <time>2025-12-14T11:28:44Z</time>
      </trkpt>
      <trkpt lat="43.12071" lon="1.07548">
        <ele>280.6</ele>
        <time>2025-12-14T11:28:45Z</time>
      </trkpt>
      <trkpt lat="43.12073" lon="1.07541">
        <ele>280.2</ele>
        <time>2025-12-14T11:28:46Z</time>
      </trkpt>
      <trkpt lat="43.12076" lon="1.07534">
        <ele>279.8</ele>
        <time>2025-12-14T11:28:47Z</time>
      </trkpt>
      <trkpt lat="43.12078" lon="1.07527">
        <ele>279.8</ele>
        <time>2025-12-14T11:28:48Z</time>
      </trkpt>
      <trkpt lat="43.12085" lon="1.07513">
        <ele>279.8</ele>
        <time>2025-12-14T11:28:50Z</time>
      </trkpt>
      <trkpt lat="43.12088" lon="1.07506">
        <ele>279.8</ele>
        <time>2025-12-14T11:28:51Z</time>
      </trkpt>
      <trkpt lat="43.12099" lon="1.0748">
        <ele>279.8</ele>
        <time>2025-12-14T11:28:55Z</time>
      </trkpt>
      <trkpt lat="43.12104" lon="1.07468">
        <ele>279.8</ele>
        <time>2025-12-14T11:28:57Z</time>
      </trkpt>
      <trkpt lat="43.12122" lon="1.07422">
        <ele>279.8</ele>
        <time>2025-12-14T11:29:05Z</time>
      </trkpt>
      <trkpt lat="43.12136" lon="1.07388">
        <ele>279.8</ele>
        <time>2025-12-14T11:29:11Z</time>
      </trkpt>
      <trkpt lat="43.12138" lon="1.07364">
        <ele>279.8</ele>
        <time>2025-12-14T11:29:15Z</time>
      </trkpt>
      <trkpt lat="43.12137" lon="1.07358">
        <ele>279.8</ele>
        <time>2025-12-14T11:29:16Z</time>
      </trkpt>
      <trkpt lat="43.12132" lon="1.07347">
        <ele>279</ele>
        <time>2025-12-14T11:29:18Z</time>
      </trkpt>
      <trkpt lat="43.12129" lon="1.07343">
        <ele>278.6</ele>
        <time>2025-12-14T11:29:19Z</time>
      </trkpt>
      <trkpt lat="43.12125" lon="1.07338">
        <ele>278</ele>
        <time>2025-12-14T11:29:20Z</time>
      </trkpt>
      <trkpt lat="43.12121" lon="1.07332">
        <ele>277.6</ele>
        <time>2025-12-14T11:29:21Z</time>
      </trkpt>
      <trkpt lat="43.12119" lon="1.07324">
        <ele>277.2</ele>
        <time>2025-12-14T11:29:22Z</time>
      </trkpt>
      <trkpt lat="43.12117" lon="1.07315">
        <ele>276.6</ele>
        <time>2025-12-14T11:29:23Z</time>
      </trkpt>
      <trkpt lat="43.12118" lon="1.07306">
        <ele>276</ele>
        <time>2025-12-14T11:29:24Z</time>
      </trkpt>
      <trkpt lat="43.1212" lon="1.07297">
        <ele>275.6</ele>
        <time>2025-12-14T11:29:25Z</time>
      </trkpt>
      <trkpt lat="43.12123" lon="1.07288">
        <ele>275</ele>
        <time>2025-12-14T11:29:26Z</time>
      </trkpt>
      <trkpt lat="43.12125" lon="1.0728">
        <ele>275</ele>
        <time>2025-12-14T11:29:27Z</time>
      </trkpt>
      <trkpt lat="43.12128" lon="1.07273">
        <ele>274.6</ele>
        <time>2025-12-14T11:29:28Z</time>
      </trkpt>
      <trkpt lat="43.1213" lon="1.07266">
        <ele>274.2</ele>
        <time>2025-12-14T11:29:29Z</time>
      </trkpt>
      <trkpt lat="43.12132" lon="1.0726">
        <ele>273.8</ele>
        <time>2025-12-14T11:29:30Z</time>
      </trkpt>
      <trkpt lat="43.12135" lon="1.07253">
        <ele>273.2</ele>
        <time>2025-12-14T11:29:31Z</time>
      </trkpt>
      <trkpt lat="43.12137" lon="1.07246">
        <ele>272.8</ele>
        <time>2025-12-14T11:29:32Z</time>
      </trkpt>
      <trkpt lat="43.12149" lon="1.07218">
        <ele>272.8</ele>
        <time>2025-12-14T11:29:37Z</time>
      </trkpt>
      <trkpt lat="43.12167" lon="1.07178">
        <ele>272.8</ele>
        <time>2025-12-14T11:29:44Z</time>
      </trkpt>
      <trkpt lat="43.12192" lon="1.07117">
        <ele>272.8</ele>
        <time>2025-12-14T11:29:54Z</time>
      </trkpt>
      <trkpt lat="43.12207" lon="1.07079">
        <ele>272.8</ele>
        <time>2025-12-14T11:30:00Z</time>
      </trkpt>
      <trkpt lat="43.12235" lon="1.07018">
        <ele>272.8</ele>
        <time>2025-12-14T11:30:10Z</time>
      </trkpt>
      <trkpt lat="43.12253" lon="1.06986">
        <ele>272.8</ele>
        <time>2025-12-14T11:30:16Z</time>
      </trkpt>
      <trkpt lat="43.12275" lon="1.06949">
        <ele>272.8</ele>
        <time>2025-12-14T11:30:23Z</time>
      </trkpt>
      <trkpt lat="43.12293" lon="1.06919">
        <ele>272.8</ele>
        <time>2025-12-14T11:30:29Z</time>
      </trkpt>
      <trkpt lat="43.12295" lon="1.06913">
        <ele>272.8</ele>
        <time>2025-12-14T11:30:30Z</time>
      </trkpt>
      <trkpt lat="43.12305" lon="1.06883">
        <ele>272.8</ele>
        <time>2025-12-14T11:30:35Z</time>
      </trkpt>
      <trkpt lat="43.12306" lon="1.06876">
        <ele>272.4</ele>
        <time>2025-12-14T11:30:36Z</time>
      </trkpt>
      <trkpt lat="43.12308" lon="1.06871">
        <ele>272</ele>
        <time>2025-12-14T11:30:37Z</time>
      </trkpt>
      <trkpt lat="43.12309" lon="1.06865">
        <ele>271.6</ele>
        <time>2025-12-14T11:30:38Z</time>
      </trkpt>
      <trkpt lat="43.1231" lon="1.06859">
        <ele>271.2</ele>
        <time>2025-12-14T11:30:39Z</time>
      </trkpt>
      <trkpt lat="43.12312" lon="1.06853">
        <ele>270.8</ele>
        <time>2025-12-14T11:30:40Z</time>
      </trkpt>
      <trkpt lat="43.12313" lon="1.06848">
        <ele>270.8</ele>
        <time>2025-12-14T11:30:41Z</time>
      </trkpt>
      <trkpt lat="43.1232" lon="1.06805">
        <ele>270.8</ele>
        <time>2025-12-14T11:30:48Z</time>
      </trkpt>
      <trkpt lat="43.1233" lon="1.06764">
        <ele>270.2</ele>
        <time>2025-12-14T11:30:54Z</time>
      </trkpt>
      <trkpt lat="43.12332" lon="1.06756">
        <ele>269.8</ele>
        <time>2025-12-14T11:30:55Z</time>
      </trkpt>
      <trkpt lat="43.12333" lon="1.06748">
        <ele>269</ele>
        <time>2025-12-14T11:30:56Z</time>
      </trkpt>
      <trkpt lat="43.12335" lon="1.0674">
        <ele>268.6</ele>
        <time>2025-12-14T11:30:57Z</time>
      </trkpt>
      <trkpt lat="43.12337" lon="1.06732">
        <ele>268</ele>
        <time>2025-12-14T11:30:58Z</time>
      </trkpt>
      <trkpt lat="43.12338" lon="1.06724">
        <ele>267.6</ele>
        <time>2025-12-14T11:30:59Z</time>
      </trkpt>
      <trkpt lat="43.1234" lon="1.06716">
        <ele>266.8</ele>
        <time>2025-12-14T11:31:00Z</time>
      </trkpt>
      <trkpt lat="43.12342" lon="1.06708">
        <ele>266.2</ele>
        <time>2025-12-14T11:31:01Z</time>
      </trkpt>
      <trkpt lat="43.12344" lon="1.06699">
        <ele>265.4</ele>
        <time>2025-12-14T11:31:02Z</time>
      </trkpt>
      <trkpt lat="43.12346" lon="1.0669">
        <ele>264.6</ele>
        <time>2025-12-14T11:31:03Z</time>
      </trkpt>
      <trkpt lat="43.12349" lon="1.06681">
        <ele>264</ele>
        <time>2025-12-14T11:31:04Z</time>
      </trkpt>
      <trkpt lat="43.12351" lon="1.06672">
        <ele>263.4</ele>
        <time>2025-12-14T11:31:05Z</time>
      </trkpt>
      <trkpt lat="43.12354" lon="1.06663">
        <ele>262.6</ele>
        <time>2025-12-14T11:31:06Z</time>
      </trkpt>
      <trkpt lat="43.12358" lon="1.06654">
        <ele>261.8</ele>
        <time>2025-12-14T11:31:07Z</time>
      </trkpt>
      <trkpt lat="43.12361" lon="1.06644">
        <ele>261.2</ele>
        <time>2025-12-14T11:31:08Z</time>
      </trkpt>
      <trkpt lat="43.12365" lon="1.06634">
        <ele>260.4</ele>
        <time>2025-12-14T11:31:09Z</time>
      </trkpt>
      <trkpt lat="43.12368" lon="1.06625">
        <ele>259.6</ele>
        <time>2025-12-14T11:31:10Z</time>
      </trkpt>
      <trkpt lat="43.12372" lon="1.06616">
        <ele>259.2</ele>
        <time>2025-12-14T11:31:11Z</time>
      </trkpt>
      <trkpt lat="43.12376" lon="1.06606">
        <ele>258.6</ele>
        <time>2025-12-14T11:31:12Z</time>
      </trkpt>
      <trkpt lat="43.12379" lon="1.06597">
        <ele>258</ele>
        <time>2025-12-14T11:31:13Z</time>
      </trkpt>
      <trkpt lat="43.12383" lon="1.06588">
        <ele>257.4</ele>
        <time>2025-12-14T11:31:14Z</time>
      </trkpt>
      <trkpt lat="43.12386" lon="1.06579">
        <ele>256.8</ele>
        <time>2025-12-14T11:31:15Z</time>
      </trkpt>
      <trkpt lat="43.1239" lon="1.06569">
        <ele>256.2</ele>
        <time>2025-12-14T11:31:16Z</time>
      </trkpt>
      <trkpt lat="43.12393" lon="1.0656">
        <ele>255.6</ele>
        <time>2025-12-14T11:31:17Z</time>
      </trkpt>
      <trkpt lat="43.12396" lon="1.06549">
        <ele>254.8</ele>
        <time>2025-12-14T11:31:18Z</time>
      </trkpt>
      <trkpt lat="43.12398" lon="1.06538">
        <ele>254.2</ele>
        <time>2025-12-14T11:31:19Z</time>
      </trkpt>
      <trkpt lat="43.12399" lon="1.06527">
        <ele>253.4</ele>
        <time>2025-12-14T11:31:20Z</time>
      </trkpt>
      <trkpt lat="43.124" lon="1.06516">
        <ele>252</ele>
        <time>2025-12-14T11:31:21Z</time>
      </trkpt>
      <trkpt lat="43.12401" lon="1.06504">
        <ele>251.2</ele>
        <time>2025-12-14T11:31:22Z</time>
      </trkpt>
      <trkpt lat="43.12401" lon="1.06492">
        <ele>250.6</ele>
        <time>2025-12-14T11:31:23Z</time>
      </trkpt>
      <trkpt lat="43.12399" lon="1.06481">
        <ele>250</ele>
        <time>2025-12-14T11:31:24Z</time>
      </trkpt>
      <trkpt lat="43.12398" lon="1.06471">
        <ele>249.4</ele>
        <time>2025-12-14T11:31:25Z</time>
      </trkpt>
      <trkpt lat="43.12397" lon="1.06462">
        <ele>248.8</ele>
        <time>2025-12-14T11:31:26Z</time>
      </trkpt>
      <trkpt lat="43.12396" lon="1.06452">
        <ele>248</ele>
        <time>2025-12-14T11:31:27Z</time>
      </trkpt>
      <trkpt lat="43.12395" lon="1.06444">
        <ele>247.2</ele>
        <time>2025-12-14T11:31:28Z</time>
      </trkpt>
      <trkpt lat="43.12395" lon="1.06435">
        <ele>246.4</ele>
        <time>2025-12-14T11:31:29Z</time>
      </trkpt>
      <trkpt lat="43.12396" lon="1.06427">
        <ele>245.6</ele>
        <time>2025-12-14T11:31:30Z</time>
      </trkpt>
      <trkpt lat="43.12399" lon="1.06421">
        <ele>244.8</ele>
        <time>2025-12-14T11:31:31Z</time>
      </trkpt>
      <trkpt lat="43.12401" lon="1.06414">
        <ele>244.8</ele>
        <time>2025-12-14T11:31:32Z</time>
      </trkpt>
      <trkpt lat="43.12414" lon="1.06385">
        <ele>244.8</ele>
        <time>2025-12-14T11:31:37Z</time>
      </trkpt>
      <trkpt lat="43.12432" lon="1.06343">
        <ele>244.8</ele>
        <time>2025-12-14T11:31:44Z</time>
      </trkpt>
      <trkpt lat="43.1245" lon="1.06299">
        <ele>244.8</ele>
        <time>2025-12-14T11:31:52Z</time>
      </trkpt>
      <trkpt lat="43.12454" lon="1.0629">
        <ele>245.4</ele>
        <time>2025-12-14T11:31:54Z</time>
      </trkpt>
      <trkpt lat="43.12456" lon="1.06285">
        <ele>245.8</ele>
        <time>2025-12-14T11:31:55Z</time>
      </trkpt>
      <trkpt lat="43.12458" lon="1.06281">
        <ele>246.2</ele>
        <time>2025-12-14T11:31:56Z</time>
      </trkpt>
      <trkpt lat="43.1246" lon="1.06276">
        <ele>246.6</ele>
        <time>2025-12-14T11:31:57Z</time>
      </trkpt>
      <trkpt lat="43.12462" lon="1.06272">
        <ele>247.2</ele>
        <time>2025-12-14T11:31:58Z</time>
      </trkpt>
      <trkpt lat="43.12464" lon="1.06267">
        <ele>247.6</ele>
        <time>2025-12-14T11:31:59Z</time>
      </trkpt>
      <trkpt lat="43.12466" lon="1.06263">
        <ele>248</ele>
        <time>2025-12-14T11:32:00Z</time>
      </trkpt>
      <trkpt lat="43.12468" lon="1.06259">
        <ele>248.6</ele>
        <time>2025-12-14T11:32:01Z</time>
      </trkpt>
      <trkpt lat="43.1247" lon="1.06255">
        <ele>249</ele>
        <time>2025-12-14T11:32:02Z</time>
      </trkpt>
      <trkpt lat="43.12472" lon="1.06251">
        <ele>249.6</ele>
        <time>2025-12-14T11:32:03Z</time>
      </trkpt>
      <trkpt lat="43.12474" lon="1.06248">
        <ele>250</ele>
        <time>2025-12-14T11:32:04Z</time>
      </trkpt>
      <trkpt lat="43.12476" lon="1.06244">
        <ele>250.6</ele>
        <time>2025-12-14T11:32:05Z</time>
      </trkpt>
      <trkpt lat="43.12479" lon="1.0624">
        <ele>251</ele>
        <time>2025-12-14T11:32:06Z</time>
      </trkpt>
      <trkpt lat="43.12481" lon="1.06237">
        <ele>251.6</ele>
        <time>2025-12-14T11:32:07Z</time>
      </trkpt>
      <trkpt lat="43.12485" lon="1.06229">
        <ele>252</ele>
        <time>2025-12-14T11:32:09Z</time>
      </trkpt>
      <trkpt lat="43.12488" lon="1.06226">
        <ele>253</ele>
        <time>2025-12-14T11:32:10Z</time>
      </trkpt>
      <trkpt lat="43.1249" lon="1.06223">
        <ele>253.4</ele>
        <time>2025-12-14T11:32:11Z</time>
      </trkpt>
      <trkpt lat="43.12492" lon="1.06219">
        <ele>254</ele>
        <time>2025-12-14T11:32:12Z</time>
      </trkpt>
      <trkpt lat="43.12504" lon="1.06204">
        <ele>254.4</ele>
        <time>2025-12-14T11:32:17Z</time>
      </trkpt>
      <trkpt lat="43.12507" lon="1.062">
        <ele>254.8</ele>
        <time>2025-12-14T11:32:18Z</time>
      </trkpt>
      <trkpt lat="43.12509" lon="1.06197">
        <ele>255.2</ele>
        <time>2025-12-14T11:32:19Z</time>
      </trkpt>
      <trkpt lat="43.12511" lon="1.06193">
        <ele>255.6</ele>
        <time>2025-12-14T11:32:20Z</time>
      </trkpt>
      <trkpt lat="43.12513" lon="1.0619">
        <ele>256</ele>
        <time>2025-12-14T11:32:21Z</time>
      </trkpt>
      <trkpt lat="43.12526" lon="1.06178">
        <ele>256</ele>
        <time>2025-12-14T11:32:26Z</time>
      </trkpt>
      <trkpt lat="43.12532" lon="1.06177">
        <ele>256.4</ele>
        <time>2025-12-14T11:32:28Z</time>
      </trkpt>
      <trkpt lat="43.12535" lon="1.06177">
        <ele>256.8</ele>
        <time>2025-12-14T11:32:29Z</time>
      </trkpt>
      <trkpt lat="43.12538" lon="1.06177">
        <ele>257.4</ele>
        <time>2025-12-14T11:32:30Z</time>
      </trkpt>
      <trkpt lat="43.12541" lon="1.06177">
        <ele>257.8</ele>
        <time>2025-12-14T11:32:31Z</time>
      </trkpt>
      <trkpt lat="43.12544" lon="1.06177">
        <ele>258.2</ele>
        <time>2025-12-14T11:32:32Z</time>
      </trkpt>
      <trkpt lat="43.12555" lon="1.06182">
        <ele>258.6</ele>
        <time>2025-12-14T11:32:36Z</time>
      </trkpt>
      <trkpt lat="43.12558" lon="1.06183">
        <ele>259.2</ele>
        <time>2025-12-14T11:32:37Z</time>
      </trkpt>
      <trkpt lat="43.12561" lon="1.06185">
        <ele>259.6</ele>
        <time>2025-12-14T11:32:38Z</time>
      </trkpt>
      <trkpt lat="43.12563" lon="1.06186">
        <ele>260</ele>
        <time>2025-12-14T11:32:39Z</time>
      </trkpt>
      <trkpt lat="43.12566" lon="1.06187">
        <ele>260.4</ele>
        <time>2025-12-14T11:32:40Z</time>
      </trkpt>
      <trkpt lat="43.12574" lon="1.06193">
        <ele>260.4</ele>
        <time>2025-12-14T11:32:43Z</time>
      </trkpt>
      <trkpt lat="43.12583" lon="1.06198">
        <ele>260.8</ele>
        <time>2025-12-14T11:32:46Z</time>
      </trkpt>
      <trkpt lat="43.12586" lon="1.06199">
        <ele>261.2</ele>
        <time>2025-12-14T11:32:47Z</time>
      </trkpt>
      <trkpt lat="43.12589" lon="1.062">
        <ele>261.6</ele>
        <time>2025-12-14T11:32:48Z</time>
      </trkpt>
      <trkpt lat="43.12593" lon="1.06201">
        <ele>262</ele>
        <time>2025-12-14T11:32:49Z</time>
      </trkpt>
      <trkpt lat="43.12596" lon="1.06203">
        <ele>262.4</ele>
        <time>2025-12-14T11:32:50Z</time>
      </trkpt>
      <trkpt lat="43.12611" lon="1.06213">
        <ele>263</ele>
        <time>2025-12-14T11:32:55Z</time>
      </trkpt>
      <trkpt lat="43.12614" lon="1.06214">
        <ele>263.4</ele>
        <time>2025-12-14T11:32:56Z</time>
      </trkpt>
      <trkpt lat="43.12617" lon="1.06216">
        <ele>263.8</ele>
        <time>2025-12-14T11:32:57Z</time>
      </trkpt>
      <trkpt lat="43.12619" lon="1.06218">
        <ele>264.2</ele>
        <time>2025-12-14T11:32:58Z</time>
      </trkpt>
      <trkpt lat="43.12622" lon="1.0622">
        <ele>264.6</ele>
        <time>2025-12-14T11:32:59Z</time>
      </trkpt>
      <trkpt lat="43.12631" lon="1.06226">
        <ele>264.6</ele>
        <time>2025-12-14T11:33:02Z</time>
      </trkpt>
      <trkpt lat="43.12637" lon="1.06231">
        <ele>265.2</ele>
        <time>2025-12-14T11:33:04Z</time>
      </trkpt>
      <trkpt lat="43.12639" lon="1.06233">
        <ele>265.6</ele>
        <time>2025-12-14T11:33:05Z</time>
      </trkpt>
      <trkpt lat="43.12642" lon="1.06235">
        <ele>266</ele>
        <time>2025-12-14T11:33:06Z</time>
      </trkpt>
      <trkpt lat="43.12645" lon="1.06238">
        <ele>266.4</ele>
        <time>2025-12-14T11:33:07Z</time>
      </trkpt>
      <trkpt lat="43.12647" lon="1.06241">
        <ele>267</ele>
        <time>2025-12-14T11:33:08Z</time>
      </trkpt>
      <trkpt lat="43.12649" lon="1.06243">
        <ele>267</ele>
        <time>2025-12-14T11:33:09Z</time>
      </trkpt>
      <trkpt lat="43.12658" lon="1.06254">
        <ele>267.4</ele>
        <time>2025-12-14T11:33:13Z</time>
      </trkpt>
      <trkpt lat="43.1266" lon="1.06257">
        <ele>267.8</ele>
        <time>2025-12-14T11:33:14Z</time>
      </trkpt>
      <trkpt lat="43.12662" lon="1.0626">
        <ele>268.2</ele>
        <time>2025-12-14T11:33:15Z</time>
      </trkpt>
      <trkpt lat="43.12664" lon="1.06262">
        <ele>268.6</ele>
        <time>2025-12-14T11:33:16Z</time>
      </trkpt>
      <trkpt lat="43.12666" lon="1.06265">
        <ele>269.2</ele>
        <time>2025-12-14T11:33:17Z</time>
      </trkpt>
      <trkpt lat="43.12676" lon="1.0628">
        <ele>269.6</ele>
        <time>2025-12-14T11:33:22Z</time>
      </trkpt>
      <trkpt lat="43.12679" lon="1.06282">
        <ele>270</ele>
        <time>2025-12-14T11:33:23Z</time>
      </trkpt>
      <trkpt lat="43.12681" lon="1.06283">
        <ele>270.4</ele>
        <time>2025-12-14T11:33:24Z</time>
      </trkpt>
      <trkpt lat="43.12684" lon="1.06285">
        <ele>271.2</ele>
        <time>2025-12-14T11:33:25Z</time>
      </trkpt>
      <trkpt lat="43.12688" lon="1.06285">
        <ele>271.2</ele>
        <time>2025-12-14T11:33:27Z</time>
      </trkpt>
      <trkpt lat="43.1269" lon="1.06283">
        <ele>271.6</ele>
        <time>2025-12-14T11:33:28Z</time>
      </trkpt>
      <trkpt lat="43.12692" lon="1.0628">
        <ele>272.2</ele>
        <time>2025-12-14T11:33:29Z</time>
      </trkpt>
      <trkpt lat="43.12694" lon="1.06277">
        <ele>272.6</ele>
        <time>2025-12-14T11:33:30Z</time>
      </trkpt>
      <trkpt lat="43.12696" lon="1.06273">
        <ele>273</ele>
        <time>2025-12-14T11:33:31Z</time>
      </trkpt>
      <trkpt lat="43.12698" lon="1.0627">
        <ele>273.4</ele>
        <time>2025-12-14T11:33:32Z</time>
      </trkpt>
      <trkpt lat="43.12712" lon="1.06245">
        <ele>273.4</ele>
        <time>2025-12-14T11:33:39Z</time>
      </trkpt>
      <trkpt lat="43.12716" lon="1.06237">
        <ele>273.8</ele>
        <time>2025-12-14T11:33:41Z</time>
      </trkpt>
      <trkpt lat="43.12718" lon="1.06233">
        <ele>274.2</ele>
        <time>2025-12-14T11:33:42Z</time>
      </trkpt>
      <trkpt lat="43.12719" lon="1.06229">
        <ele>274.6</ele>
        <time>2025-12-14T11:33:43Z</time>
      </trkpt>
      <trkpt lat="43.12722" lon="1.06225">
        <ele>275</ele>
        <time>2025-12-14T11:33:44Z</time>
      </trkpt>
      <trkpt lat="43.12724" lon="1.06221">
        <ele>275.4</ele>
        <time>2025-12-14T11:33:45Z</time>
      </trkpt>
      <trkpt lat="43.12728" lon="1.06213">
        <ele>275.4</ele>
        <time>2025-12-14T11:33:47Z</time>
      </trkpt>
      <trkpt lat="43.12741" lon="1.06183">
        <ele>275.4</ele>
        <time>2025-12-14T11:33:54Z</time>
      </trkpt>
      <trkpt lat="43.12743" lon="1.06179">
        <ele>275.8</ele>
        <time>2025-12-14T11:33:55Z</time>
      </trkpt>
      <trkpt lat="43.12745" lon="1.06175">
        <ele>276.2</ele>
        <time>2025-12-14T11:33:56Z</time>
      </trkpt>
      <trkpt lat="43.12747" lon="1.06171">
        <ele>276.8</ele>
        <time>2025-12-14T11:33:57Z</time>
      </trkpt>
      <trkpt lat="43.12749" lon="1.06167">
        <ele>277.2</ele>
        <time>2025-12-14T11:33:58Z</time>
      </trkpt>
      <trkpt lat="43.12752" lon="1.06163">
        <ele>277.6</ele>
        <time>2025-12-14T11:33:59Z</time>
      </trkpt>
      <trkpt lat="43.1276" lon="1.06148">
        <ele>277.6</ele>
        <time>2025-12-14T11:34:03Z</time>
      </trkpt>
      <trkpt lat="43.12774" lon="1.0613">
        <ele>277.6</ele>
        <time>2025-12-14T11:34:09Z</time>
      </trkpt>
      <trkpt lat="43.12777" lon="1.06128">
        <ele>278</ele>
        <time>2025-12-14T11:34:10Z</time>
      </trkpt>
      <trkpt lat="43.1278" lon="1.06127">
        <ele>278.4</ele>
        <time>2025-12-14T11:34:11Z</time>
      </trkpt>
      <trkpt lat="43.12783" lon="1.06126">
        <ele>278.8</ele>
        <time>2025-12-14T11:34:12Z</time>
      </trkpt>
      <trkpt lat="43.12786" lon="1.06125">
        <ele>279.2</ele>
        <time>2025-12-14T11:34:13Z</time>
      </trkpt>
      <trkpt lat="43.12789" lon="1.06125">
        <ele>279.6</ele>
        <time>2025-12-14T11:34:14Z</time>
      </trkpt>
      <trkpt lat="43.12805" lon="1.06127">
        <ele>280</ele>
        <time>2025-12-14T11:34:19Z</time>
      </trkpt>
      <trkpt lat="43.12808" lon="1.06128">
        <ele>280.6</ele>
        <time>2025-12-14T11:34:20Z</time>
      </trkpt>
      <trkpt lat="43.12811" lon="1.06129">
        <ele>281</ele>
        <time>2025-12-14T11:34:21Z</time>
      </trkpt>
      <trkpt lat="43.12815" lon="1.0613">
        <ele>281.4</ele>
        <time>2025-12-14T11:34:22Z</time>
      </trkpt>
      <trkpt lat="43.12818" lon="1.06131">
        <ele>281.8</ele>
        <time>2025-12-14T11:34:23Z</time>
      </trkpt>
      <trkpt lat="43.12822" lon="1.06132">
        <ele>281.8</ele>
        <time>2025-12-14T11:34:24Z</time>
      </trkpt>
      <trkpt lat="43.12841" lon="1.06144">
        <ele>281.8</ele>
        <time>2025-12-14T11:34:30Z</time>
      </trkpt>
      <trkpt lat="43.12861" lon="1.06155">
        <ele>281.8</ele>
        <time>2025-12-14T11:34:36Z</time>
      </trkpt>
      <trkpt lat="43.1288" lon="1.06166">
        <ele>281.8</ele>
        <time>2025-12-14T11:34:43Z</time>
      </trkpt>
      <trkpt lat="43.12888" lon="1.0618">
        <ele>281.8</ele>
        <time>2025-12-14T11:34:48Z</time>
      </trkpt>
      <trkpt lat="43.12891" lon="1.06195">
        <ele>281.8</ele>
        <time>2025-12-14T11:34:53Z</time>
      </trkpt>
      <trkpt lat="43.12891" lon="1.06208">
        <ele>281.8</ele>
        <time>2025-12-14T11:34:59Z</time>
      </trkpt>
    </trkseg>
  </trk>
</gpx>